# Wetter Temperatur Luftdruck Luftfeuchtigkeit Sichtweite Windgeschwindigkeit Windrichtung Zeit
1 Rain 7 986 93 14484 10.8 10 19:58 17.10.2019
2 Rain 7 986 93 14484 10.8 10 19:39 17.10.2019
3 Rain 7 986 93 14484 10.8 10 19:19 17.10.2019
4 Rain 7 986 93 12874 12.9 10 18:43 17.10.2019
5 Rain 7 986 93 12874 12.9 10 18:21 17.10.2019
6 Rain 7 987 93 9656 12.9 20 18:00 17.10.2019
7 Rain 7 987 93 8047 12.9 20 17:41 17.10.2019
8 Rain 7 987 93 8047 12.9 20 17:23 17.10.2019
9 Rain 7 987 93 4828 13.9 10 16:56 17.10.2019
10 Rain 7 987 93 8047 13.9 20 16:38 17.10.2019
11 Rain 7 987 93 8047 13.9 20 16:18 17.10.2019
12 Rain 7 988 93 8047 13.4 10 15:55 17.10.2019
13 Rain 7 988 93 8047 13.4 10 15:55 17.10.2019
14 Rain 7 988 93 8047 13.4 20 15:37 17.10.2019
15 Rain 7 988 93 8047 13.4 20 15:19 17.10.2019
16 Rain 7 989 100 8047 11.8 20 14:42 17.10.2019
17 Rain 7 989 100 8047 11.8 20 14:24 17.10.2019
18 Rain 7 989 93 8047 13.4 30 13:56 17.10.2019
19 Rain 7 990 93 4828 11.8 20 13:38 17.10.2019
20 Rain 7 990 93 4828 11.8 20 13:19 17.10.2019
21 Rain 7 992 100 4828 9.8 30 12:41 17.10.2019
22 Rain 8 992 100 4828 9.8 30 12:21 17.10.2019
23 Rain 8 993 93 6437 9.8 30 11:59 17.10.2019
24 Rain 8 994 93 8047 8.7 30 11:41 17.10.2019
25 Rain 8 994 93 8047 8.7 30 11:41 17.10.2019
26 Rain 8 994 93 8047 8.7 30 11:41 17.10.2019
27 Rain 8 994 93 8047 8.7 30 11:41 17.10.2019
28 Rain 8 994 93 8047 8.7 30 11:20 17.10.2019
29 Rain 8 994 93 8047 8.7 40 10:57 17.10.2019
30 Rain 8 994 93 8047 8.7 40 10:39 17.10.2019
31 Rain 8 994 93 8047 8.7 40 10:19 17.10.2019
32 Rain 8 996 93 19312 3.1 50 09:55 17.10.2019
33 Rain 8 996 93 12874 8.7 40 09:36 17.10.2019
34 -273 0 0 0 0 0 09:18 17.10.2019
35 Rain 9 997 93 8047 5.1 70 08:46 17.10.2019
36 Rain 9 997 93 8047 5.1 70 08:26 17.10.2019
37 Rain 9 998 93 14484 5.1 40 07:56 17.10.2019
38 Rain 9 998 93 14484 5.1 40 07:38 17.10.2019
39 Rain 9 998 93 14484 5.1 40 07:19 17.10.2019
40 Rain 9 999 87 19312 6.7 70 06:40 17.10.2019
41 Rain 9 999 87 19312 6.7 70 06:21 17.10.2019
42 Rain 10 1001 87 14484 4.6 90 05:58 17.10.2019
43 Rain 10 1001 87 14484 4.6 90 05:34 17.10.2019
44 Rain 10 1002 93 12874 3.1 90 04:57 17.10.2019
45 Rain 10 1002 81 9656 5.1 90 03:58 17.10.2019
46 Rain 11 1002 81 9656 3.6 90 03:38 17.10.2019
47 Clouds 13 1004 50 14484 5.1 130 01:55 17.10.2019
48 Clouds 14 1004 51 14484 5.7 120 00:41 17.10.2019
49 Clouds 15 1004 51 14484 5.7 120 00:20 17.10.2019
50 Clouds 15 1005 51 14484 6.2 140 23:42 16.10.2019
51 Clouds 15 1005 51 14484 6.2 140 23:21 16.10.2019
52 Clouds 15 1006 51 14484 6.2 160 22:57 16.10.2019
53 Clouds 15 1006 51 14484 6.2 160 22:38 16.10.2019
54 Clouds 15 1006 51 14484 6.2 160 22:20 16.10.2019
55 Clouds 16 1007 48 14484 5.1 150 21:58 16.10.2019
56 Clouds 16 1007 48 14484 5.1 150 21:38 16.10.2019
57 Clouds 16 1007 48 14484 5.1 150 21:20 16.10.2019
58 Clouds 16 1007 48 14484 4.6 160 20:59 16.10.2019
59 Clouds 16 1007 48 14484 4.6 160 20:41 16.10.2019
60 Clouds 15 1007 48 14484 4.6 160 20:22 16.10.2019
61 Rain 15 1006 51 32767 12.3 150 19:59 16.10.2019
62 Clouds 15 1008 51 14484 6.2 150 19:40 16.10.2019
63 Clouds 15 1008 51 14484 6.2 150 19:21 16.10.2019
64 Clear 15 1008 48 14484 6.7 140 18:57 16.10.2019
65 Clear 15 1008 48 14484 6.7 140 18:37 16.10.2019
66 Clear 14 1008 48 14484 6.7 140 18:18 16.10.2019
67 Clouds 13 1009 54 14484 5.7 110 17:55 16.10.2019
68 Clouds 13 1009 54 14484 5.7 110 17:36 16.10.2019
69 Clouds 12 1009 54 14484 5.7 110 17:18 16.10.2019
70 Clouds 12 1010 61 14484 5.1 110 16:55 16.10.2019
71 Clouds 11 1010 61 14484 5.1 110 16:37 16.10.2019
72 Clouds 10 1010 61 14484 5.1 110 16:18 16.10.2019
73 Clouds 10 1012 66 14484 4.6 90 15:40 16.10.2019
74 Clouds 9 1012 66 14484 4.6 90 15:19 16.10.2019
75 Clouds 9 1012 65 14484 4.6 110 14:58 16.10.2019
76 Clouds 9 1012 65 14484 4.6 110 14:58 16.10.2019
77 Clouds 8 1012 65 14484 4.6 110 14:40 16.10.2019
78 Clouds 8 1012 65 14484 4.6 110 14:21 16.10.2019
79 Clouds 7 1013 80 14484 1.5 50 13:57 16.10.2019
80 Clouds 7 1013 80 14484 1.5 50 13:39 16.10.2019
81 Clouds 7 1013 80 14484 1.5 50 13:21 16.10.2019
82 Clouds 7 1014 75 14484 2.6 60 12:42 16.10.2019
83 Clouds 7 1014 75 14484 2.6 60 12:20 16.10.2019
84 Clouds 7 1015 75 14484 3.1 90 11:55 16.10.2019
85 Clouds 7 1015 75 14484 3.1 90 11:37 16.10.2019
86 Clouds 7 1014 70 24140 3.1 70 11:18 16.10.2019
87 Clouds 7 1015 81 14484 2.1 100 10:36 16.10.2019
88 Clouds 7 1015 81 14484 2.1 100 10:18 16.10.2019
89 Clouds 7 1016 81 14484 2.6 120 09:40 16.10.2019
90 Clouds 7 1016 81 14484 2.6 120 09:22 16.10.2019
91 Clouds 7 1016 81 14484 2.1 130 08:57 16.10.2019
92 Clouds 7 1016 81 14484 2.1 130 08:39 16.10.2019
93 Clouds 7 1016 81 14484 2.1 130 08:39 16.10.2019
94 Clouds 7 1016 81 14484 2.1 130 08:20 16.10.2019
95 Clouds 7 1016 65 14484 1 0 07:43 16.10.2019
96 Clouds 7 1016 65 14484 1 0 07:24 16.10.2019
97 -273 0 0 0 0 0 06:55 16.10.2019
98 Clouds 7 1017 70 14484 2.1 150 06:31 16.10.2019
99 Clouds 7 1017 65 14484 2.6 200 05:23 16.10.2019
100 Clouds 8 1017 57 14484 2.1 240 02:57 16.10.2019
101 Clouds 9 1017 61 14484 2.6 250 01:39 16.10.2019
102 Clouds 9 1017 61 14484 2.6 250 01:18 16.10.2019
103 Clear 10 1017 53 14484 4.6 250 00:45 16.10.2019
104 Clouds 12 1017 50 14484 5.1 240 23:59 15.10.2019
105 Clouds 12 1017 50 14484 5.1 240 23:39 15.10.2019
106 Clouds 13 1017 50 14484 5.1 240 23:21 15.10.2019
107 Clear 13 1017 43 14484 7.2 250 22:55 15.10.2019
108 Clear 13 1017 43 14484 7.2 250 22:37 15.10.2019
109 Clear 13 1017 43 14484 7.2 250 22:19 15.10.2019
110 Clear 13 1017 43 14484 8.2 250 21:55 15.10.2019
111 Clear 14 1017 43 14484 8.2 250 21:37 15.10.2019
112 Clear 13 1017 43 14484 8.2 250 21:19 15.10.2019
113 Clear 13 1018 46 14484 7.7 250 20:57 15.10.2019
114 Clear 13 1018 46 14484 7.7 250 20:38 15.10.2019
115 Clear 13 1018 46 14484 7.7 250 20:20 15.10.2019
116 Clear 13 1018 54 14484 7.2 240 19:56 15.10.2019
117 Clear 13 1018 54 14484 7.2 240 19:56 15.10.2019
118 Clear 13 1018 54 14484 7.2 240 19:37 15.10.2019
119 Clear 12 1018 54 14484 7.2 240 19:19 15.10.2019
120 Clear 12 1019 57 14484 6.7 240 18:44 15.10.2019
121 Clear 11 1019 57 14484 6.7 240 18:26 15.10.2019
122 -273 0 0 0 0 0 17:57 15.10.2019
123 Clear 10 1019 66 14484 5.1 230 17:38 15.10.2019
124 Clear 10 1019 66 14484 5.1 230 17:19 15.10.2019
125 Clear 10 1012 70 0 5.36 197 16:46 15.10.2019
126 Clear 9 1020 7 0 1.79 229 16:23 15.10.2019
127 Clear 8 1019 77 0 2.68 254 15:59 15.10.2019
128 Clear 7 1020 7 0 0.45 217 15:40 15.10.2019
129 Clear 6 1014 73 0 4.316 250 15:20 15.10.2019
130 Clear 5 1020 7 0 0.45 227 14:57 15.10.2019
131 Clear 5 1020 8 0 4.355 253 14:38 15.10.2019
132 Clear 5 1020 8 0 4.355 253 14:38 15.10.2019
133 Clear 4 1020 8 0 4.355 253 14:19 15.10.2019
134 Clear 3 1019 89 0 4.355 253 13:44 15.10.2019
135 Clear 3 1018 86 14484 3.1 170 13:21 15.10.2019
136 Clear 3 1018 86 14484 3.1 170 12:59 15.10.2019
137 -273 0 0 0 0 0 12:41 15.10.2019
138 Clear 3 1018 86 14484 3.1 170 12:21 15.10.2019
139 Clear 4 1018 75 14484 3.1 220 11:56 15.10.2019
140 Clear 4 1018 75 14484 3.1 220 11:37 15.10.2019
141 Clear 4 1018 75 14484 3.1 220 11:18 15.10.2019
142 Clear 4 1017 80 14484 4.1 240 10:43 15.10.2019
143 Clear 4 1017 80 14484 4.1 240 10:19 15.10.2019
144 Clear 4 1017 86 14484 2.6 220 09:57 15.10.2019
145 Clear 4 1017 86 14484 2.6 220 09:37 15.10.2019
146 Clear 4 1017 86 14484 2.6 220 09:37 15.10.2019
147 Clear 4 1017 86 14484 2.6 220 09:19 15.10.2019
148 Clear 5 1017 80 14484 3.1 200 08:43 15.10.2019
149 Clear 5 1017 80 14484 3.1 200 08:22 15.10.2019
150 Clear 5 1017 86 14484 2.6 240 07:58 15.10.2019
151 Clear 5 1017 86 14484 2.6 240 07:39 15.10.2019
152 Clear 5 1017 86 14484 2.6 240 07:20 15.10.2019
153 Clear 5 1016 86 14484 2.1 180 06:45 15.10.2019
154 Clear 5 1016 86 14484 2.1 180 06:26 15.10.2019
155 Clear 6 1016 70 14484 2.6 200 05:41 15.10.2019
156 Clear 6 1016 70 14484 2.6 200 05:23 15.10.2019
157 Clear 7 1016 65 14484 3.1 210 04:32 15.10.2019
158 Clear 7 1015 61 14484 3.6 260 03:37 15.10.2019
159 Clear 8 1014 61 14484 3.6 280 02:42 15.10.2019
160 Clear 9 1014 71 14484 3.6 270 01:49 15.10.2019
161 Clear 9 1014 71 14484 3.6 270 01:22 15.10.2019
162 Clouds 10 1013 66 14484 4.6 250 00:49 15.10.2019
163 Clouds 11 1013 66 14484 4.6 250 00:22 15.10.2019
164 Clouds 11 1013 71 14484 5.1 260 23:45 14.10.2019
165 Clouds 11 1013 71 14484 5.1 260 23:20 14.10.2019
166 Clouds 11 1012 76 14484 3.1 270 22:58 14.10.2019
167 Clouds 11 1012 76 14484 3.1 270 22:38 14.10.2019
168 Clouds 11 1012 76 14484 3.1 270 22:19 14.10.2019
169 Rain 11 1012 71 24140 3.6 280 21:56 14.10.2019
170 Rain 12 1012 66 14484 4.6 280 21:37 14.10.2019
171 Rain 12 1012 54 14484 4.6 270 21:19 14.10.2019
172 Rain 12 1012 66 32767 5.1 270 20:55 14.10.2019
173 Rain 12 1012 66 32767 5.1 270 20:36 14.10.2019
174 Rain 13 1011 58 14484 4.6 300 20:18 14.10.2019
175 Rain 13 1012 76 32767 2.1 240 19:42 14.10.2019
176 Clouds 14 1011 58 14484 6.7 270 19:23 14.10.2019
177 Clouds 14 1011 55 14484 7.2 230 18:59 14.10.2019
178 Clouds 14 1011 55 14484 7.2 230 18:39 14.10.2019
179 Clouds 14 1011 55 14484 7.2 230 18:19 14.10.2019
180 Clouds 14 1011 55 14484 7.2 230 18:19 14.10.2019
181 Clouds 14 1011 55 14484 7.2 230 18:19 14.10.2019
182 Clouds 14 1011 67 14484 4.1 180 17:57 14.10.2019
183 Clouds 14 1011 67 14484 4.1 180 17:57 14.10.2019
184 Clouds 14 1011 67 14484 4.1 180 17:38 14.10.2019
185 Clouds 13 1011 67 14484 4.1 180 17:20 14.10.2019
186 Clouds 12 1012 71 14484 4.1 170 16:44 14.10.2019
187 Clouds 11 1012 71 14484 4.1 170 16:21 14.10.2019
188 Clouds 11 1012 76 14484 3.1 190 15:54 14.10.2019
189 Clouds 10 1012 76 14484 3.1 190 15:36 14.10.2019
190 Clouds 9 1012 76 14484 3.1 190 15:18 14.10.2019
191 Clouds 9 1012 71 32767 2.1 150 14:43 14.10.2019
192 Clouds 8 1012 71 32767 2.1 150 14:23 14.10.2019
193 Clouds 8 1012 81 14484 2.1 140 13:45 14.10.2019
194 Clouds 8 1012 81 14484 2.1 140 13:22 14.10.2019
195 Clouds 8 1012 81 14484 2.1 160 12:59 14.10.2019
196 Clouds 8 1012 81 14484 2.1 160 12:40 14.10.2019
197 Clouds 8 1012 81 14484 2.1 160 12:19 14.10.2019
198 Clouds 7 1012 87 14484 2.1 160 11:46 14.10.2019
199 Clouds 7 1012 87 14484 2.1 160 11:27 14.10.2019
200 Clear 8 1012 81 14484 2.6 140 10:58 14.10.2019
201 Clear 8 1012 81 14484 2.6 140 10:58 14.10.2019
202 Clouds 7 1011 70 24140 2.6 120 10:39 14.10.2019
203 Clouds 8 1011 70 24140 2.6 120 10:20 14.10.2019
204 Clear 8 1012 81 14484 3.1 140 09:55 14.10.2019
205 Clear 7 1012 81 14484 3.1 140 09:36 14.10.2019
206 Clear 8 1012 81 14484 3.1 140 09:18 14.10.2019
207 Clear 8 1013 70 14484 2.1 140 08:44 14.10.2019
208 Clear 9 1013 70 14484 2.1 140 08:22 14.10.2019
209 Clear 8 1013 70 14484 3.1 160 07:42 14.10.2019
210 Clear 8 1013 70 14484 3.1 160 07:19 14.10.2019
211 Clear 8 1013 75 14484 1 140 06:53 14.10.2019
212 Clear 8 1013 75 14484 1 140 06:26 14.10.2019
213 Clear 8 1013 70 14484 3.1 130 05:49 14.10.2019
214 Clouds 9 1014 70 14484 4.1 110 04:48 14.10.2019
215 Clear 9 1014 70 14484 2.6 100 03:28 14.10.2019
216 Clear 10 1014 66 14484 3.1 100 02:56 14.10.2019
217 Clouds 11 1015 61 14484 1.5 130 01:25 14.10.2019
218 Clear 12 1015 50 14484 2.6 170 00:59 14.10.2019
219 Clear 13 1015 50 14484 2.6 170 00:21 14.10.2019
220 Clear 13 1015 50 14484 2.6 170 00:21 14.10.2019
221 Clear 14 1015 44 14484 5.1 140 23:46 13.10.2019
222 Clear 15 1015 44 14484 5.1 140 23:21 13.10.2019
223 Clear 15 1015 44 14484 4.1 150 22:59 13.10.2019
224 Clear 15 1015 44 14484 4.1 150 22:41 13.10.2019
225 Clear 15 1015 44 14484 4.1 150 22:21 13.10.2019
226 Clear 15 1016 47 14484 2.6 230 21:58 13.10.2019
227 Clear 15 1016 47 14484 2.6 230 21:38 13.10.2019
228 Clear 15 1016 47 14484 2.6 230 21:19 13.10.2019
229 Clear 15 1017 44 14484 5.1 230 20:58 13.10.2019
230 -273 0 0 0 0 0 20:58 13.10.2019
231 Clear 15 1017 44 14484 5.1 230 20:58 13.10.2019
232 Clouds 15 1017 44 32767 3.6 210 20:39 13.10.2019
233 Clouds 15 1017 44 32767 3.6 210 20:39 13.10.2019
234 Clouds 15 1017 44 32767 3.6 210 20:21 13.10.2019
235 Clouds 15 1017 44 32767 3.6 210 20:21 13.10.2019
236 Clear 15 1018 50 14484 6.2 220 19:59 13.10.2019
237 Clear 15 1018 50 14484 6.2 220 19:39 13.10.2019
238 Clear 15 1018 50 14484 6.2 220 19:39 13.10.2019
239 Clear 14 1018 50 14484 6.2 220 19:21 13.10.2019
240 -273 0 0 0 0 0 18:59 13.10.2019
241 Clear 14 1018 54 14484 4.1 220 18:58 13.10.2019
242 Clear 14 1018 54 14484 4.1 220 18:58 13.10.2019
243 Clear 14 1018 54 14484 4.1 220 18:37 13.10.2019
244 Clear 13 1018 54 14484 4.1 220 18:19 13.10.2019
245 Clear 13 1019 62 14484 2.6 200 17:57 13.10.2019
246 Clear 12 1019 62 14484 2.6 200 17:39 13.10.2019
247 Clear 12 1019 62 14484 2.6 200 17:21 13.10.2019
248 Clouds 12 1019 71 32767 4.1 190 16:43 13.10.2019
249 Clouds 10 1019 71 32767 4.1 190 16:19 13.10.2019
250 Clear 10 1019 87 14484 2.6 190 15:57 13.10.2019
251 Clear 10 1019 87 14484 2.6 190 15:57 13.10.2019
252 Clear 9 1019 87 14484 2.6 190 15:38 13.10.2019
253 Mist 9 1019 87 14484 2.6 190 15:19 13.10.2019
254 Mist 7 1019 93 14484 2.6 200 14:57 13.10.2019
255 Mist 7 1019 93 14484 2.6 200 14:38 13.10.2019
256 Mist 6 1019 93 14484 2.6 200 14:19 13.10.2019
257 Fog 5 1018 87 32767 3.1 220 13:42 13.10.2019
258 Fog 5 1018 87 32767 3.1 220 13:23 13.10.2019
259 Clear 6 1017 87 14484 2.1 250 12:59 13.10.2019
260 Clear 6 1017 87 14484 2.1 250 12:40 13.10.2019
261 Clear 6 1017 87 14484 2.1 250 12:21 13.10.2019
262 Clear 7 1017 93 14484 4.1 260 11:59 13.10.2019
263 Clear 7 1017 93 14484 4.1 260 11:39 13.10.2019
264 Clear 7 1017 93 14484 4.1 260 11:21 13.10.2019
265 Clear 8 1016 87 14484 4.1 240 10:59 13.10.2019
266 -273 0 0 0 0 0 10:40 13.10.2019
267 Clear 8 1016 87 14484 4.1 240 10:22 13.10.2019
268 Clear 8 1016 87 14484 4.1 250 09:40 13.10.2019
269 Clear 9 1016 87 14484 4.1 250 09:21 13.10.2019
270 Clouds 10 1015 87 14484 7.2 250 08:55 13.10.2019
271 Clouds 10 1015 87 14484 7.2 250 08:27 13.10.2019
272 Clouds 10 1015 81 14484 9.8 250 07:56 13.10.2019
273 Clouds 11 1015 81 14484 9.8 250 07:38 13.10.2019
274 Clouds 11 1014 87 14484 8.2 250 06:54 13.10.2019
275 Clouds 12 1014 87 14484 6.7 240 06:26 13.10.2019
276 Drizzle 12 1014 93 14484 6.2 230 05:29 13.10.2019
277 Mist 13 1014 93 8047 5.7 240 04:38 13.10.2019
278 Drizzle 13 1014 87 14484 2.1 250 03:37 13.10.2019
279 Clouds 13 1014 87 14484 1 360 02:32 13.10.2019
280 Clouds 13 1013 87 14484 2.1 360 01:47 13.10.2019
281 Rain 13 1013 87 14484 2.6 10 01:21 13.10.2019
282 Rain 13 1013 87 14484 2.6 10 01:21 13.10.2019
283 Rain 14 1013 59 14484 1.5 20 00:43 13.10.2019
284 Rain 15 1013 59 14484 1.5 20 00:20 13.10.2019
285 Rain 16 1012 51 24140 2.1 170 23:54 12.10.2019
286 -273 0 0 0 0 0 23:54 12.10.2019
287 Rain 16 1012 51 24140 2.1 170 23:36 12.10.2019
288 Rain 16 1012 51 24140 2.1 170 23:36 12.10.2019
289 Rain 17 1012 51 14484 1.5 100 23:18 12.10.2019
290 Rain 17 1013 58 32767 2.1 360 22:54 12.10.2019
291 Rain 17 1012 51 14484 2.6 40 22:36 12.10.2019
292 Rain 18 1012 51 14484 2.6 40 22:18 12.10.2019
293 Clouds 18 1013 48 14484 2.1 140 21:41 12.10.2019
294 Clouds 18 1013 48 14484 2.1 140 21:23 12.10.2019
295 Clear 18 1013 51 14484 3.6 110 20:56 12.10.2019
296 Clear 18 1013 51 14484 3.6 110 20:38 12.10.2019
297 Clear 18 1013 51 14484 3.6 110 20:38 12.10.2019
298 Clear 17 1013 51 14484 3.6 110 20:20 12.10.2019
299 Clear 17 1014 48 14484 3.1 100 19:37 12.10.2019
300 Clear 17 1014 48 14484 3.1 100 19:19 12.10.2019
301 Clear 17 1014 51 11265 2.6 0 18:46 12.10.2019
302 Haze 16 1014 51 8047 2.1 0 18:27 12.10.2019
303 Clear 15 1015 58 14484 1 0 17:58 12.10.2019
304 Clear 15 1015 58 14484 1 0 17:40 12.10.2019
305 Clear 15 1015 58 14484 1 0 17:18 12.10.2019
306 Clear 13 1016 71 14484 2.1 30 16:41 12.10.2019
307 Clear 13 1016 71 14484 2.1 30 16:21 12.10.2019
308 -273 0 0 0 0 0 15:58 12.10.2019
309 Clear 11 1016 76 14484 4.1 30 15:39 12.10.2019
310 Clear 11 1016 76 14484 4.1 30 15:21 12.10.2019
311 Clouds 9 1016 76 32767 5.1 30 14:41 12.10.2019
312 Clear 9 1016 87 14484 3.1 20 14:21 12.10.2019
313 Clouds 8 1016 81 32767 4.1 20 13:53 12.10.2019
314 Clouds 8 1016 81 32767 4.1 20 13:53 12.10.2019
315 Clear 8 1016 87 14484 3.1 360 13:33 12.10.2019
316 Clear 8 1016 81 14484 4.6 20 12:59 12.10.2019
317 Clear 8 1016 81 14484 4.6 20 12:38 12.10.2019
318 Clear 8 1016 81 14484 4.6 20 12:20 12.10.2019
319 Clear 8 1017 81 14484 3.6 10 11:56 12.10.2019
320 Clear 8 1017 81 14484 3.6 10 11:38 12.10.2019
321 Clouds 9 1017 70 24140 4.6 20 11:18 12.10.2019
322 Clouds 9 1017 66 24140 5.1 40 10:40 12.10.2019
323 Clouds 9 1017 66 24140 5.1 40 10:22 12.10.2019
324 -273 0 0 0 0 0 09:57 12.10.2019
325 Clouds 9 1018 70 14484 4.6 10 09:57 12.10.2019
326 Clouds 10 1018 70 14484 4.6 10 09:39 12.10.2019
327 Clouds 10 1018 70 14484 4.6 10 09:20 12.10.2019
328 Clouds 10 1019 70 14484 4.1 360 08:55 12.10.2019
329 Clouds 10 1019 70 14484 4.1 360 08:37 12.10.2019
330 Clouds 10 1019 70 14484 4.1 360 08:18 12.10.2019
331 Clouds 10 1019 70 14484 5.7 20 07:33 12.10.2019
332 Clouds 10 1020 75 14484 3.6 40 06:50 12.10.2019
333 Clear 11 1021 70 14484 5.1 30 05:46 12.10.2019
334 Clear 11 1022 71 14484 5.1 30 04:52 12.10.2019
335 Clear 12 1022 66 14484 5.1 40 03:58 12.10.2019
336 Clear 13 1022 62 14484 5.1 30 02:57 12.10.2019
337 Clear 14 1023 62 14484 4.1 20 01:36 12.10.2019
338 Clear 14 1023 62 14484 4.1 20 01:36 12.10.2019
339 Clear 15 1023 54 14484 4.1 30 00:59 12.10.2019
340 Clear 16 1023 54 14484 4.1 30 00:39 12.10.2019
341 Clear 18 1023 34 14484 4.6 50 23:57 11.10.2019
342 Clear 18 1023 34 14484 4.6 50 23:39 11.10.2019
343 Clear 18 1023 34 14484 4.6 50 23:20 11.10.2019
344 Clear 18 1023 34 14484 4.6 50 23:20 11.10.2019
345 Clear 19 1024 34 14484 5.7 70 22:40 11.10.2019
346 Clear 19 1024 34 14484 5.7 70 22:21 11.10.2019
347 Clear 19 1025 34 14484 5.1 40 21:56 11.10.2019
348 Clear 19 1025 34 14484 5.1 40 21:38 11.10.2019
349 Clear 19 1025 34 14484 5.1 40 21:20 11.10.2019
350 Clear 18 1025 39 14484 5.1 50 20:44 11.10.2019
351 Clear 18 1025 39 14484 5.1 50 20:26 11.10.2019
352 Clear 18 1026 45 14484 7.2 40 19:58 11.10.2019
353 Clear 18 1026 45 14484 7.2 40 19:39 11.10.2019
354 Clear 18 1026 45 14484 7.2 40 19:18 11.10.2019
355 Clear 17 1027 51 14484 6.7 40 18:58 11.10.2019
356 Clear 16 1027 51 14484 6.7 40 18:38 11.10.2019
357 Clear 16 1027 51 14484 6.7 40 18:19 11.10.2019
358 Clouds 15 1027 50 32767 6.2 30 17:58 11.10.2019
359 Clear 15 1027 54 14484 6.7 50 17:37 11.10.2019
360 Clear 14 1027 54 14484 6.7 50 17:19 11.10.2019
361 Clear 13 1028 62 14484 6.2 40 16:56 11.10.2019
362 Clear 12 1028 62 14484 6.2 40 16:37 11.10.2019
363 Clear 12 1028 62 14484 6.2 40 16:19 11.10.2019
364 Clouds 10 1028 66 14484 5.1 40 15:41 11.10.2019
365 Clouds 10 1028 66 14484 5.1 40 15:41 11.10.2019
366 Clouds 9 1028 66 14484 5.1 40 15:20 11.10.2019
367 Clouds 8 1028 87 14484 4.6 20 14:58 11.10.2019
368 Clouds 8 1028 87 14484 4.6 20 14:38 11.10.2019
369 Clouds 7 1028 87 14484 4.6 20 14:19 11.10.2019
370 Clouds 7 1028 86 14484 5.1 20 13:44 11.10.2019
371 Clouds 6 1028 87 32767 5.1 30 13:25 11.10.2019
372 Clouds 7 1028 93 14484 4.6 10 12:57 11.10.2019
373 Clouds 6 1028 93 14484 4.6 10 12:38 11.10.2019
374 Clouds 6 1028 93 14484 4.6 10 12:20 11.10.2019
375 Clouds 6 1027 93 14484 4.6 10 11:58 11.10.2019
376 Clouds 6 1027 93 14484 4.6 10 11:38 11.10.2019
377 Clouds 7 1027 93 14484 4.6 10 11:20 11.10.2019
378 -273 0 0 0 0 0 10:54 11.10.2019
379 Clouds 7 1027 81 14484 5.1 10 10:36 11.10.2019
380 Clouds 7 1027 81 14484 5.1 10 10:18 11.10.2019
381 Clouds 7 1027 87 14484 4.6 10 09:41 11.10.2019
382 Clouds 7 1027 87 14484 4.6 10 09:20 11.10.2019
383 Clouds 8 1028 87 14484 4.1 360 08:56 11.10.2019
384 Clouds 8 1028 87 14484 4.1 360 08:38 11.10.2019
385 Clouds 8 1028 87 14484 4.1 360 08:20 11.10.2019
386 Clouds 8 1028 81 14484 4.1 360 07:51 11.10.2019
387 Clouds 8 1028 81 14484 4.1 360 07:33 11.10.2019
388 Clouds 9 1028 71 14484 5.1 30 06:50 11.10.2019
389 Clouds 9 1028 71 14484 5.1 30 06:25 11.10.2019
390 Clear 10 1028 81 14484 4.1 30 05:47 11.10.2019
391 Clear 10 1028 81 14484 4.1 30 05:29 11.10.2019
392 Clouds 11 1028 76 14484 3.6 20 04:50 11.10.2019
393 Clouds 12 1028 71 14484 4.6 40 03:21 11.10.2019
394 Clear 13 1028 66 14484 3.6 20 01:18 11.10.2019
395 Clear 15 1028 58 14484 6.2 30 00:31 11.10.2019
396 Clear 16 1028 48 14484 5.7 30 23:58 10.10.2019
397 Clear 17 1028 48 14484 5.7 30 23:40 10.10.2019
398 Clear 17 1028 48 14484 5.7 30 23:19 10.10.2019
399 Clear 18 1028 39 14484 6.2 60 22:55 10.10.2019
400 Clear 18 1028 39 14484 6.2 60 22:36 10.10.2019
401 Clear 18 1028 39 14484 6.2 60 22:18 10.10.2019
402 Clear 18 1028 39 14484 5.7 50 21:42 10.10.2019
403 Clear 18 1028 39 14484 5.7 50 21:22 10.10.2019
404 Clear 18 1029 45 14484 5.7 50 20:58 10.10.2019
405 Clear 18 1029 45 14484 5.7 50 20:39 10.10.2019
406 Clear 17 1029 45 14484 5.7 50 20:19 10.10.2019
407 Clear 17 1029 48 14484 7.7 60 19:56 10.10.2019
408 Clear 17 1029 48 14484 7.7 60 19:38 10.10.2019
409 Clear 16 1029 48 14484 7.7 60 19:19 10.10.2019
410 Clear 15 1030 58 14484 7.2 20 18:42 10.10.2019
411 Clear 15 1030 58 14484 7.2 20 18:21 10.10.2019
412 Clouds 14 1030 71 14484 5.1 10 17:59 10.10.2019
413 Clouds 14 1030 71 14484 5.1 10 17:39 10.10.2019
414 Clouds 13 1030 71 14484 5.1 10 17:18 10.10.2019
415 Clear 12 1031 81 14484 5.1 20 16:56 10.10.2019
416 Clear 12 1031 81 14484 5.1 20 16:37 10.10.2019
417 Clear 11 1031 81 14484 5.1 20 16:18 10.10.2019
418 Clouds 10 1031 81 14484 4.6 40 15:40 10.10.2019
419 Clouds 9 1031 81 14484 4.6 40 15:22 10.10.2019
420 Clouds 8 1030 87 32767 4.6 20 14:57 10.10.2019
421 Clouds 8 1030 93 14484 3.6 40 14:37 10.10.2019
422 Clouds 7 1030 93 14484 3.6 40 14:19 10.10.2019
423 Clouds 7 1030 93 14484 3.1 10 13:57 10.10.2019
424 Clouds 7 1030 93 14484 3.1 10 13:39 10.10.2019
425 Clouds 7 1030 93 14484 3.1 10 13:18 10.10.2019
426 Clouds 7 1029 93 14484 5.1 20 12:42 10.10.2019
427 Clouds 7 1029 93 14484 5.1 20 12:21 10.10.2019
428 Clouds 7 1029 93 14484 4.1 360 11:58 10.10.2019
429 Clouds 7 1029 93 14484 4.1 360 11:40 10.10.2019
430 Clouds 7 1029 93 14484 4.1 360 11:19 10.10.2019
431 Clouds 7 1029 93 14484 4.1 20 10:47 10.10.2019
432 Clouds 7 1029 93 14484 4.1 20 10:28 10.10.2019
433 Clouds 7 1029 93 14484 3.1 10 09:59 10.10.2019
434 Clouds 7 1029 93 14484 3.1 10 09:41 10.10.2019
435 Clouds 7 1029 93 14484 3.1 10 09:23 10.10.2019
436 Clouds 7 1029 93 14484 3.1 10 08:59 10.10.2019
437 Clouds 7 1029 93 14484 3.1 10 08:39 10.10.2019
438 Clouds 8 1029 93 14484 3.1 10 08:20 10.10.2019
439 Clouds 8 1029 81 14484 4.1 30 07:47 10.10.2019
440 Clouds 8 1029 81 14484 4.1 30 07:25 10.10.2019
441 Clouds 9 1029 87 14484 3.1 20 06:55 10.10.2019
442 Clouds 9 1029 87 14484 3.1 20 06:36 10.10.2019
443 Clear 9 1029 81 14484 3.6 40 05:39 10.10.2019
444 Clear 9 1029 81 14484 3.6 40 05:18 10.10.2019
445 Clouds 9 1029 76 24140 3.6 30 04:34 10.10.2019
446 Clouds 10 1029 76 14484 3.1 20 02:29 10.10.2019
447 Clouds 11 1029 71 14484 4.1 40 01:37 10.10.2019
448 Clouds 11 1029 71 14484 4.1 40 01:37 10.10.2019
449 Clouds 12 1029 71 14484 4.1 40 01:18 10.10.2019
450 Clouds 13 1028 66 14484 3.1 30 00:33 10.10.2019
451 Clouds 15 1029 62 14484 4.6 20 23:42 09.10.2019
452 Clouds 15 1029 62 14484 4.6 20 23:24 09.10.2019
453 Clouds 15 1029 62 14484 4.6 20 23:24 09.10.2019
454 Clear 16 1029 55 14484 6.2 30 22:59 09.10.2019
455 Clear 16 1029 55 14484 6.2 30 22:41 09.10.2019
456 Clear 16 1029 55 14484 6.2 30 22:22 09.10.2019
457 Clear 16 1029 58 14484 5.1 30 21:58 09.10.2019
458 Clear 16 1029 58 14484 5.1 30 21:39 09.10.2019
459 Clear 16 1029 58 14484 5.1 30 21:19 09.10.2019
460 Clear 16 1029 54 14484 4.1 70 20:55 09.10.2019
461 Clear 16 1029 54 14484 4.1 70 20:37 09.10.2019
462 Clear 16 1029 54 14484 4.1 70 20:18 09.10.2019
463 Clear 16 1029 54 14484 4.1 70 20:18 09.10.2019
464 Clouds 16 1030 54 14484 4.6 70 19:44 09.10.2019
465 Clouds 15 1030 54 14484 4.6 70 19:23 09.10.2019
466 Clear 15 1030 58 14484 5.1 50 18:56 09.10.2019
467 Clear 14 1030 58 14484 5.1 50 18:37 09.10.2019
468 Clear 14 1030 58 14484 5.1 50 18:18 09.10.2019
469 Clear 13 1031 71 14484 4.1 30 17:54 09.10.2019
470 Clear 13 1031 71 14484 4.1 30 17:36 09.10.2019
471 Clear 12 1031 71 14484 4.1 30 17:18 09.10.2019
472 Clear 11 1031 87 14484 3.6 360 16:40 09.10.2019
473 Clear 10 1031 87 14484 3.6 360 16:21 09.10.2019
474 Clear 10 1031 87 14484 3.6 360 16:21 09.10.2019
475 Clouds 9 1031 87 24140 4.6 20 15:57 09.10.2019
476 Clouds 9 1031 87 24140 4.6 20 15:57 09.10.2019
477 Clear 9 1031 93 14484 3.6 10 15:39 09.10.2019
478 Clear 8 1031 93 14484 3.6 10 15:19 09.10.2019
479 Clear 6 1031 100 14484 3.1 10 14:56 09.10.2019
480 Clear 6 1031 100 14484 3.1 10 14:37 09.10.2019
481 Clear 5 1031 100 14484 3.1 10 14:18 09.10.2019
482 Clear 4 1030 100 14484 1.5 350 13:39 09.10.2019
483 Clear 4 1030 100 14484 1.5 350 13:20 09.10.2019
484 Clear 4 1030 93 14484 3.46 43.173 12:57 09.10.2019
485 Clear 4 1030 93 14484 3.46 43.173 12:38 09.10.2019
486 Clear 4 1030 93 14484 2.74 39.72 12:20 09.10.2019
487 Clear 4 1029 100 14484 1.5 360 11:55 09.10.2019
488 Clear 4 1029 100 14484 1.5 360 11:36 09.10.2019
489 Clear 4 1029 100 14484 1.5 360 11:18 09.10.2019
490 Clear 4 1029 93 14484 1 10 10:43 09.10.2019
491 Clear 4 1029 93 14484 1 10 10:21 09.10.2019
492 Clear 4 1029 93 14484 1 100 09:57 09.10.2019
493 Clear 5 1029 93 14484 1 100 09:38 09.10.2019
494 Clear 5 1029 93 14484 1 100 09:18 09.10.2019
495 Clear 5 1029 93 14484 1 110 08:40 09.10.2019
496 Clear 5 1029 93 14484 1 110 08:21 09.10.2019
497 Clear 5 1028 93 14484 1.5 130 07:54 09.10.2019
498 Clear 5 1028 93 14484 1.5 130 07:36 09.10.2019
499 Clear 5 1028 93 14484 1.5 130 07:18 09.10.2019
500 Clear 6 1028 93 14484 1 130 06:47 09.10.2019
501 Clear 6 1028 93 14484 1.56 17.761 05:55 09.10.2019
502 Clear 6 1028 93 14484 1.56 17.761 05:23 09.10.2019
503 Clear 7 1027 87 14484 1 120 04:20 09.10.2019
504 Clear 9 1027 76 14484 1.39 292.329 02:45 09.10.2019
505 Clear 10 1027 58 14484 1 180 01:43 09.10.2019
506 Clear 11 1027 58 14484 1 180 01:19 09.10.2019
507 Clear 12 1027 54 14484 2.6 200 00:56 09.10.2019
508 Clear 14 1027 54 14484 2.6 200 00:38 09.10.2019
509 Clear 14 1027 54 14484 2.6 200 00:38 09.10.2019
510 Clear 15 1027 54 14484 2.6 200 00:19 09.10.2019
511 Clear 16 1026 51 14484 2.6 220 23:39 08.10.2019
512 Clear 17 1026 51 14484 2.6 220 23:18 08.10.2019
513 Clouds 17 1026 51 14484 2.1 210 22:56 08.10.2019
514 Clouds 17 1026 51 14484 2.1 210 22:38 08.10.2019
515 Clouds 17 1026 51 14484 2.1 210 22:38 08.10.2019
516 Clouds 17 1026 51 14484 2.1 210 22:19 08.10.2019
517 Clear 17 1026 51 14484 2.6 200 21:57 08.10.2019
518 Clear 17 1026 51 14484 2.6 200 21:38 08.10.2019
519 Clear 17 1026 51 14484 2.6 200 21:18 08.10.2019
520 Clouds 17 1026 48 14484 2.6 240 20:56 08.10.2019
521 Clouds 17 1026 48 32767 3.6 250 20:37 08.10.2019
522 Clouds 16 1026 48 32767 3.6 250 20:19 08.10.2019
523 Clear 16 1026 51 14484 3.1 280 19:56 08.10.2019
524 Clear 16 1026 51 14484 3.1 280 19:37 08.10.2019
525 Clear 16 1026 51 14484 3.1 280 19:18 08.10.2019
526 Clear 15 1027 54 14484 2.6 300 18:46 08.10.2019
527 Clear 15 1027 54 14484 2.6 300 18:25 08.10.2019
528 Clear 14 1026 62 14484 2.6 310 17:58 08.10.2019
529 Clear 14 1026 62 14484 2.6 310 17:40 08.10.2019
530 Clear 14 1026 62 14484 2.6 310 17:20 08.10.2019
531 Clear 13 1026 71 14484 3.1 260 16:56 08.10.2019
532 Clouds 12 1027 71 32767 2.1 0 16:37 08.10.2019
533 Clouds 12 1027 71 32767 2.1 0 16:19 08.10.2019
534 Clear 11 1026 76 14484 3.6 280 15:40 08.10.2019
535 Clear 10 1026 76 14484 3.6 280 15:21 08.10.2019
536 Clear 9 1025 87 14484 2.1 230 14:57 08.10.2019
537 Clear 9 1025 87 14484 2.1 230 14:38 08.10.2019
538 Clear 8 1025 87 14484 2.1 230 14:20 08.10.2019
539 Clear 8 1025 87 14484 2.1 220 13:56 08.10.2019
540 Clear 7 1025 87 14484 2.1 220 13:37 08.10.2019
541 Clear 7 1025 87 14484 2.1 220 13:18 08.10.2019
542 Clear 7 1023 76 14484 3.1 250 12:42 08.10.2019
543 Clear 8 1023 76 14484 3.1 250 12:21 08.10.2019
544 Clear 8 1022 76 14484 4.1 260 11:59 08.10.2019
545 Clear 9 1022 76 14484 4.1 260 11:40 08.10.2019
546 Clear 9 1022 76 14484 4.1 260 11:21 08.10.2019
547 Clear 9 1022 71 14484 3.6 270 10:55 08.10.2019
548 Clouds 9 1022 76 24140 4.1 270 10:36 08.10.2019
549 Clear 10 1021 71 14484 5.1 270 10:18 08.10.2019
550 Clouds 10 1021 71 24140 4.1 270 09:41 08.10.2019
551 Clouds 10 1021 71 24140 4.1 270 09:41 08.10.2019
552 Clouds 10 1021 71 24140 4.1 270 09:23 08.10.2019
553 Clear 11 1021 76 14484 5.1 270 08:57 08.10.2019
554 Clear 11 1021 76 14484 5.1 270 08:39 08.10.2019
555 Clear 11 1021 76 14484 5.1 270 08:21 08.10.2019
556 Clear 12 1020 93 14484 4.1 240 07:41 08.10.2019
557 Clear 12 1020 93 14484 4.1 240 07:20 08.10.2019
558 Clear 12 1020 93 14484 4.1 240 07:20 08.10.2019
559 Clouds 13 1019 93 14484 4.1 240 06:47 08.10.2019
560 Clouds 13 1019 93 14484 4.1 240 06:26 08.10.2019
561 Clouds 13 1019 87 14484 5.7 250 05:45 08.10.2019
562 Clouds 13 1019 87 14484 5.7 250 05:45 08.10.2019
563 Clouds 13 1019 87 14484 5.7 250 05:24 08.10.2019
564 Clouds 13 1017 93 14484 4.1 190 03:33 08.10.2019
565 Clouds 13 1017 93 14484 4.1 190 02:48 08.10.2019
566 Clouds 14 1017 93 14484 4.1 190 02:29 08.10.2019
567 Clouds 14 1016 100 14484 4.6 180 01:43 08.10.2019
568 Clouds 14 1016 100 14484 4.6 180 01:25 08.10.2019
569 Clouds 14 1016 93 14484 4.6 180 00:45 08.10.2019
570 Clouds 14 1016 93 14484 4.6 180 00:20 08.10.2019
571 Clouds 15 1016 93 14484 5.1 180 23:39 07.10.2019
572 Clouds 14 1016 93 14484 5.1 180 23:20 07.10.2019
573 Clouds 15 1016 93 14484 4.1 180 22:56 07.10.2019
574 Clouds 15 1016 93 14484 4.1 180 22:37 07.10.2019
575 Clouds 15 1016 93 14484 4.1 180 22:19 07.10.2019
576 Clouds 15 1017 87 14484 4.6 180 21:55 07.10.2019
577 Clouds 15 1017 87 14484 4.6 180 21:37 07.10.2019
578 Clouds 15 1017 87 14484 4.6 180 21:19 07.10.2019
579 Clouds 14 1017 87 14484 3.1 180 20:57 07.10.2019
580 Clouds 14 1017 93 14484 3.6 190 20:38 07.10.2019
581 Clouds 14 1017 93 14484 3.6 190 20:19 07.10.2019
582 Clouds 14 1017 93 14484 3.1 190 19:56 07.10.2019
583 Clouds 14 1017 93 14484 3.1 190 19:38 07.10.2019
584 Clouds 14 1017 93 14484 3.1 190 19:38 07.10.2019
585 Clouds 14 1017 93 14484 3.1 190 19:18 07.10.2019
586 Clouds 13 1018 87 24140 4.1 220 18:55 07.10.2019
587 Clouds 13 1018 87 24140 4.1 220 18:37 07.10.2019
588 Rain 13 1018 100 14484 2.6 180 18:18 07.10.2019
589 Rain 12 1018 93 14484 3.1 180 17:41 07.10.2019
590 Rain 12 1018 93 14484 3.1 180 17:19 07.10.2019
591 Clouds 12 1018 93 14484 4.6 200 16:55 07.10.2019
592 Clouds 12 1018 93 14484 2.6 190 16:37 07.10.2019
593 Clouds 12 1018 93 14484 2.6 190 16:19 07.10.2019
594 Rain 12 1018 93 24140 4.1 190 15:42 07.10.2019
595 Rain 12 1018 93 24140 4.1 190 15:24 07.10.2019
596 Rain 12 1018 100 11265 3.1 150 14:42 07.10.2019
597 Rain 12 1018 100 11265 3.1 150 14:23 07.10.2019
598 Rain 12 1018 87 12874 2.6 210 13:59 07.10.2019
599 Rain 12 1018 87 12874 2.6 210 13:40 07.10.2019
600 Rain 12 1018 87 12874 2.6 210 13:18 07.10.2019
601 Rain 12 1017 93 14484 3.6 160 12:55 07.10.2019
602 Rain 12 1017 93 14484 3.6 160 12:55 07.10.2019
603 Rain 12 1017 93 14484 3.6 160 12:36 07.10.2019
604 Rain 12 1017 93 14484 3.6 160 12:18 07.10.2019
605 Rain 13 1017 93 14484 2.1 230 11:56 07.10.2019
606 Rain 13 1017 93 14484 2.1 230 11:36 07.10.2019
607 Rain 13 1017 93 14484 2.1 230 11:18 07.10.2019
608 Rain 15 1017 93 14484 4.1 260 10:40 07.10.2019
609 Rain 15 1017 93 14484 4.1 260 10:20 07.10.2019
610 Clouds 15 1016 93 14484 1.5 190 09:42 07.10.2019
611 Clouds 16 1016 93 14484 1.5 190 09:23 07.10.2019
612 Clouds 16 1016 93 14484 2.1 190 08:56 07.10.2019
613 Clouds 16 1016 93 14484 2.1 190 08:38 07.10.2019
614 Clouds 16 1016 93 14484 2.1 190 08:19 07.10.2019
615 Clouds 15 1016 93 14484 3.1 190 07:41 07.10.2019
616 Clouds 15 1016 93 14484 3.1 190 07:21 07.10.2019
617 Clouds 15 1016 93 14484 3.1 190 07:21 07.10.2019
618 Clouds 15 1016 93 14484 4.1 200 06:49 07.10.2019
619 Clouds 15 1016 93 14484 4.1 200 06:27 07.10.2019
620 Clouds 15 1016 87 14484 5.1 190 05:47 07.10.2019
621 Clouds 15 1016 87 14484 5.1 190 05:21 07.10.2019
622 Clouds 15 1016 87 24140 4.1 160 04:24 07.10.2019
623 Clouds 14 1016 87 14484 7.2 170 03:44 07.10.2019
624 Clouds 14 1016 87 14484 7.2 170 03:44 07.10.2019
625 Clouds 14 1016 87 14484 7.2 170 03:44 07.10.2019
626 Clouds 14 1016 87 14484 7.2 170 03:20 07.10.2019
627 Clouds 14 1016 87 14484 7.2 170 03:20 07.10.2019
628 Rain 14 1017 87 9656 5.7 180 02:21 07.10.2019
629 Rain 14 1017 87 9656 5.7 180 02:21 07.10.2019
630 Rain 15 1016 87 24140 4.6 160 01:50 07.10.2019
631 Rain 15 1016 77 14484 6.7 180 01:21 07.10.2019
632 Clouds 15 1016 77 14484 7.2 170 00:39 07.10.2019
633 Clouds 15 1016 77 14484 7.2 170 00:39 07.10.2019
634 Clouds 15 1016 77 14484 7.2 170 00:20 07.10.2019
635 Clouds 15 1016 72 14484 6.7 170 23:42 06.10.2019
636 Clouds 15 1016 72 14484 6.7 170 23:42 06.10.2019
637 Clouds 15 1016 72 14484 6.7 170 23:42 06.10.2019
638 Clouds 15 1016 72 14484 6.7 170 23:22 06.10.2019
639 Clouds 15 1017 72 14484 5.1 180 22:59 06.10.2019
640 Clouds 15 1017 72 14484 5.1 180 22:41 06.10.2019
641 Clouds 15 1017 72 14484 5.1 180 22:22 06.10.2019
642 Clouds 15 1017 72 14484 5.1 180 22:22 06.10.2019
643 Clouds 15 1017 72 14484 6.7 180 21:58 06.10.2019
644 Clouds 15 1017 72 14484 6.7 180 21:38 06.10.2019
645 Clouds 15 1017 72 14484 6.7 180 21:19 06.10.2019
646 Clouds 15 1018 71 14484 6.2 170 20:58 06.10.2019
647 Clouds 14 1018 71 14484 6.2 170 20:40 06.10.2019
648 Clouds 14 1018 71 14484 6.2 170 20:21 06.10.2019
649 Rain 14 1018 71 14484 5.7 170 19:58 06.10.2019
650 Clouds 14 1018 71 14484 6.7 170 19:38 06.10.2019
651 Clouds 14 1018 71 14484 6.7 170 19:19 06.10.2019
652 Clouds 14 1019 71 14484 5.7 170 18:57 06.10.2019
653 Clouds 14 1019 71 14484 5.7 170 18:39 06.10.2019
654 Clouds 14 1019 71 14484 5.7 170 18:20 06.10.2019
655 Clouds 13 1020 66 14484 8.2 170 17:58 06.10.2019
656 Clouds 13 1020 66 14484 8.2 170 17:39 06.10.2019
657 Clouds 12 1020 66 14484 8.2 170 17:19 06.10.2019
658 Clouds 11 1021 71 14484 6.2 180 16:43 06.10.2019
659 Clouds 11 1021 71 14484 6.2 180 16:24 06.10.2019
660 Clouds 10 1021 76 14484 5.7 180 15:59 06.10.2019
661 Clouds 10 1021 76 14484 5.7 180 15:41 06.10.2019
662 Clouds 9 1021 76 14484 5.7 180 15:19 06.10.2019
663 Clouds 8 1022 76 14484 4.6 190 14:43 06.10.2019
664 Clouds 8 1022 76 14484 4.6 190 14:24 06.10.2019
665 Clouds 8 1021 81 14484 4.1 170 13:58 06.10.2019
666 Clouds 8 1021 81 14484 4.1 170 13:39 06.10.2019
667 Clouds 8 1021 81 14484 4.1 170 13:39 06.10.2019
668 Clouds 8 1021 81 14484 4.1 170 13:21 06.10.2019
669 Clouds 7 1022 93 14484 1.5 150 12:57 06.10.2019
670 Clouds 7 1022 93 14484 1.5 150 12:39 06.10.2019
671 Clouds 6 1022 93 14484 1.5 150 12:20 06.10.2019
672 Clouds 6 1022 93 14484 1.5 120 11:57 06.10.2019
673 Clouds 6 1022 93 14484 1.5 120 11:38 06.10.2019
674 Clouds 6 1022 93 14484 1.5 120 11:20 06.10.2019
675 Clouds 5 1023 86 14484 1.5 160 10:44 06.10.2019
676 Clouds 5 1023 86 14484 1.5 160 10:26 06.10.2019
677 Clouds 5 1024 86 14484 1.5 140 09:58 06.10.2019
678 Clouds 5 1024 86 14484 1.5 140 09:40 06.10.2019
679 Clouds 5 1024 86 14484 1.5 140 09:19 06.10.2019
680 Clouds 5 1024 86 14484 2.6 130 08:43 06.10.2019
681 Clouds 4 1024 86 14484 2.6 130 08:21 06.10.2019
682 Clouds 4 1025 93 14484 1 150 07:57 06.10.2019
683 Clouds 4 1025 93 14484 1 150 07:35 06.10.2019
684 Clear 5 1025 93 14484 2.6 110 06:23 06.10.2019
685 Clear 5 1026 86 14484 2.1 100 05:35 06.10.2019
686 Clear 5 1026 86 14484 1 120 04:26 06.10.2019
687 Clear 5 1027 70 14484 2.24 143.856 02:46 06.10.2019
688 Clear 6 1027 93 32767 1.5 150 02:27 06.10.2019
689 Clear 7 1027 61 14484 1.5 130 01:46 06.10.2019
690 Clear 8 1027 61 14484 1.5 130 01:27 06.10.2019
691 Clear 9 1027 53 14484 2.6 160 00:57 06.10.2019
692 Clear 10 1027 53 14484 2.6 160 00:29 06.10.2019
693 Clear 12 1028 46 14484 2.1 250 23:45 05.10.2019
694 Clear 12 1028 46 14484 2.1 250 23:23 05.10.2019
695 Clear 13 1029 50 14484 2.6 200 22:59 05.10.2019
696 Clear 13 1029 50 14484 2.6 200 22:40 05.10.2019
697 Clear 13 1029 50 14484 2.6 200 22:21 05.10.2019
698 Clear 13 1029 50 14484 2.6 220 21:57 05.10.2019
699 Clear 13 1029 50 14484 2.6 220 21:39 05.10.2019
700 Clear 13 1029 50 14484 2.6 220 21:20 05.10.2019
701 Clouds 12 1030 57 14484 2.1 0 20:56 05.10.2019
702 Clouds 12 1030 57 14484 2.1 0 20:38 05.10.2019
703 Clouds 12 1030 57 14484 2.1 0 20:19 05.10.2019
704 Clouds 12 1031 53 14484 3.6 210 19:38 05.10.2019
705 Clouds 12 1031 53 14484 3.6 210 19:20 05.10.2019
706 Clouds 11 1032 61 14484 1.81 245.462 18:57 05.10.2019
707 Clouds 11 1032 61 14484 1.81 245.462 18:39 05.10.2019
708 Clouds 11 1032 61 14484 1.83 219.373 18:20 05.10.2019
709 Clouds 10 1032 70 14484 2.6 0 17:46 05.10.2019
710 Clouds 10 1032 70 14484 2.6 0 17:28 05.10.2019
711 Clouds 9 1032 70 14484 2.1 180 16:59 05.10.2019
712 Clear 8 1033 65 14484 1.5 170 16:41 05.10.2019
713 Clear 8 1033 65 14484 1.5 170 16:21 05.10.2019
714 Clear 7 1032 81 14484 1.83 219.373 15:57 05.10.2019
715 Clear 6 1032 81 14484 1.83 219.373 15:39 05.10.2019
716 Clear 5 1032 81 14484 1.47 270.818 15:21 05.10.2019
717 Clear 4 1032 83 14484 1 0 14:56 05.10.2019
718 Clear 3 1032 83 14484 1 0 14:38 05.10.2019
719 Clear 2 1032 83 14484 1 0 14:20 05.10.2019
720 Clear 2 1032 83 14484 1 0 14:20 05.10.2019
721 Clear 1 1032 83 14484 1 210 13:42 05.10.2019
722 Clear 1 1032 82 14484 1 210 13:22 05.10.2019
723 Clear 1 1031 82 14484 1.02 284.036 12:46 05.10.2019
724 Clear 1 1031 83 14484 1.67 276.764 12:21 05.10.2019
725 Clear 1 1031 83 14484 2.1 170 11:59 05.10.2019
726 Clear 1 1031 83 14484 2.1 170 11:37 05.10.2019
727 Clear 1 1031 83 14484 2.1 170 11:18 05.10.2019
728 Clear 1 1031 86 24140 2.6 230 10:45 05.10.2019
729 Clear 1 1031 86 24140 2.6 230 10:26 05.10.2019
730 Clear 1 1030 86 14484 1.5 320 09:58 05.10.2019
731 Clear 1 1030 86 14484 1.5 320 09:39 05.10.2019
732 Clear 2 1030 86 14484 1.5 320 09:20 05.10.2019
733 Clear 2 1030 86 14484 1.5 320 09:20 05.10.2019
734 Clear 2 1030 79 24140 1.5 290 08:40 05.10.2019
735 Clear 2 1030 79 24140 1.5 290 08:19 05.10.2019
736 Clear 2 1030 79 24140 1.5 320 07:57 05.10.2019
737 Clear 3 1030 79 14484 1.5 310 07:34 05.10.2019
738 Clear 3 1029 79 14484 1.54 346.813 06:58 05.10.2019
739 Clear 3 1029 79 14484 1.54 346.813 06:27 05.10.2019
740 Clear 3 1029 73 14484 2.1 290 05:51 05.10.2019
741 Clear 4 1028 65 14484 2.6 320 03:57 05.10.2019
742 Clear 5 1028 65 14484 2.6 320 03:28 05.10.2019
743 Clouds 7 1027 56 14484 4.1 340 01:41 05.10.2019
744 Clouds 7 1027 56 14484 4.1 340 01:20 05.10.2019
745 Clouds 8 1026 67 14484 6.2 330 00:43 05.10.2019
746 Clouds 8 1026 58 14484 6.2 330 00:23 05.10.2019
747 Clouds 9 1025 58 14484 5.1 10 23:44 04.10.2019
748 Clouds 9 1025 58 14484 5.1 10 23:26 04.10.2019
749 Clouds 9 1025 58 14484 5.1 10 23:26 04.10.2019
750 Clouds 10 1024 46 14484 7.2 360 22:59 04.10.2019
751 Clouds 10 1024 46 14484 7.2 360 22:39 04.10.2019
752 Clouds 10 1024 46 14484 7.2 360 22:20 04.10.2019
753 Clouds 10 1024 49 14484 5.7 340 21:57 04.10.2019
754 Clouds 10 1024 49 14484 5.7 340 21:38 04.10.2019
755 Clouds 10 1024 49 14484 5.7 340 21:19 04.10.2019
756 Clouds 10 1024 49 14484 7.7 340 20:55 04.10.2019
757 Clouds 10 1024 49 14484 7.7 340 20:36 04.10.2019
758 Clouds 10 1024 49 14484 7.7 340 20:18 04.10.2019
759 Clouds 10 1024 53 14484 6.2 350 19:45 04.10.2019
760 Clouds 10 1024 53 14484 6.2 350 19:27 04.10.2019
761 Clouds 9 1023 61 14484 6.7 360 18:58 04.10.2019
762 Clouds 9 1023 61 14484 6.7 360 18:38 04.10.2019
763 Clouds 9 1023 61 14484 6.7 360 18:19 04.10.2019
764 Clouds 9 1022 70 14484 6.2 20 17:55 04.10.2019
765 Clouds 9 1022 70 14484 6.2 20 17:36 04.10.2019
766 Clouds 9 1022 70 14484 6.2 20 17:18 04.10.2019
767 Clouds 8 1022 70 14484 5.1 330 16:41 04.10.2019
768 Clouds 8 1022 70 14484 5.1 330 16:19 04.10.2019
769 Clear 7 1021 87 14484 4.1 320 15:59 04.10.2019
770 Clear 7 1021 87 14484 4.1 320 15:40 04.10.2019
771 Clear 7 1021 87 14484 4.1 320 15:21 04.10.2019
772 Clouds 6 1020 93 14484 3.1 330 14:59 04.10.2019
773 Clouds 6 1020 93 14484 3.1 330 14:41 04.10.2019
774 Clouds 5 1020 93 14484 3.1 330 14:22 04.10.2019
775 Clouds 5 1019 93 14484 3.1 360 13:58 04.10.2019
776 Clouds 5 1019 93 14484 3.1 360 13:40 04.10.2019
777 Clouds 5 1019 93 14484 3.1 360 13:19 04.10.2019
778 Clouds 5 1018 93 14484 6.2 10 12:45 04.10.2019
779 Clouds 5 1018 93 14484 6.2 10 12:27 04.10.2019
780 Rain 5 1017 93 14484 7.2 10 11:44 04.10.2019
781 Rain 5 1017 93 14484 7.2 10 11:43 04.10.2019
782 Rain 5 1017 93 14484 7.2 10 11:43 04.10.2019
783 Rain 5 1017 93 14484 7.2 10 11:43 04.10.2019
784 Rain 5 1017 93 14484 7.2 10 11:22 04.10.2019
785 Rain 6 1016 87 9656 6.2 10 10:58 04.10.2019
786 Rain 6 1015 93 14484 6.7 20 10:38 04.10.2019
787 Rain 6 1015 93 14484 6.7 20 10:19 04.10.2019
788 Rain 5 1014 93 14484 5.7 20 09:44 04.10.2019
789 Rain 5 1014 93 14484 5.7 20 09:44 04.10.2019
790 Rain 6 1014 93 14484 5.7 20 09:25 04.10.2019
791 Rain 6 1014 100 14484 5.1 20 08:55 04.10.2019
792 Rain 6 1014 100 14484 5.1 20 08:37 04.10.2019
793 Rain 6 1014 100 14484 5.1 20 08:18 04.10.2019
794 Rain 6 1013 93 4023 6.2 30 07:42 04.10.2019
795 Rain 6 1013 93 4023 6.2 30 07:20 04.10.2019
796 Rain 6 1014 93 6437 4.6 40 06:41 04.10.2019
797 Rain 6 1014 93 6437 4.6 40 06:22 04.10.2019
798 Rain 6 1014 93 6437 4.6 40 06:22 04.10.2019
799 Rain 6 1014 87 8047 5.1 60 05:23 04.10.2019
800 Rain 7 1015 75 14484 4.1 40 04:54 04.10.2019
801 Rain 7 1015 70 14484 4.6 50 03:42 04.10.2019
802 Rain 8 1016 70 14484 4.1 50 02:53 04.10.2019
803 Rain 8 1016 75 14484 4.1 40 01:54 04.10.2019
804 Rain 8 1017 65 14484 2.6 40 01:27 04.10.2019
805 Clouds 8 1017 61 14484 4.1 70 00:50 04.10.2019
806 Rain 9 1017 57 24140 6.7 70 23:54 03.10.2019
807 Clouds 9 1019 57 14484 3.1 50 23:36 03.10.2019
808 Clouds 9 1019 57 14484 3.1 50 23:18 03.10.2019
809 Clouds 9 1019 63 14484 4.6 60 22:54 03.10.2019
810 Clouds 9 1019 63 14484 4.6 60 22:36 03.10.2019
811 Clouds 10 1019 63 14484 4.6 60 22:18 03.10.2019
812 Clouds 10 1020 57 14484 4.1 50 21:41 03.10.2019
813 Clouds 10 1020 57 14484 4.1 50 21:21 03.10.2019
814 Clouds 10 1020 54 24140 6.2 40 20:59 03.10.2019
815 Clouds 10 1021 46 14484 4.6 60 20:41 03.10.2019
816 Clouds 10 1021 46 14484 4.6 60 20:23 03.10.2019
817 Clouds 10 1022 57 14484 3.6 90 19:59 03.10.2019
818 Clouds 10 1022 57 14484 3.6 90 19:40 03.10.2019
819 Clouds 9 1022 57 14484 3.6 90 19:20 03.10.2019
820 Clouds 9 1023 51 32767 3.6 70 18:57 03.10.2019
821 Clouds 9 1023 65 14484 2.6 70 18:38 03.10.2019
822 Clouds 9 1023 65 14484 2.6 70 18:38 03.10.2019
823 Clouds 8 1023 65 14484 2.6 70 18:19 03.10.2019
824 Clouds 7 1024 75 14484 3.1 70 17:43 03.10.2019
825 Clouds 7 1024 75 14484 3.1 70 17:23 03.10.2019
826 Clouds 7 1024 65 32767 3.1 60 16:59 03.10.2019
827 Clouds 6 1024 80 14484 3.6 90 16:40 03.10.2019
828 Clouds 6 1024 80 14484 3.6 90 16:22 03.10.2019
829 Clouds 5 1025 80 14484 1.5 30 15:55 03.10.2019
830 Clouds 5 1025 80 14484 1.5 30 15:37 03.10.2019
831 Clouds 5 1025 80 14484 1.5 30 15:18 03.10.2019
832 Clouds 4 1025 93 14484 2.76 43.461 14:39 03.10.2019
833 Clouds 4 1025 93 14484 2.76 43.461 14:20 03.10.2019
834 Clouds 3 1024 72 14484 3.6 20 13:56 03.10.2019
835 Clouds 3 1024 72 14484 3.6 20 13:56 03.10.2019
836 Clouds 3 1024 72 14484 3.6 20 13:38 03.10.2019
837 Clouds 2 1024 67 14484 3.6 20 13:19 03.10.2019
838 Clouds 2 1024 93 14484 1.5 30 12:54 03.10.2019
839 Clouds 2 1024 93 14484 1.5 30 12:36 03.10.2019
840 Clouds 2 1024 93 14484 1.5 30 12:18 03.10.2019
841 Clouds 3 1024 86 14484 1 0 11:40 03.10.2019
842 Clouds 3 1024 86 14484 1 0 11:40 03.10.2019
843 Clouds 3 1024 86 14484 1 0 11:22 03.10.2019
844 Clouds 3 1023 70 14484 2.6 10 10:58 03.10.2019
845 Clouds 2 1023 70 14484 2.6 10 10:39 03.10.2019
846 Clouds 2 1023 70 14484 2.6 10 10:39 03.10.2019
847 Clouds 3 1023 70 14484 2.6 10 10:18 03.10.2019
848 Clear 2 1023 70 14484 2.1 20 09:56 03.10.2019
849 Clear 2 1023 70 14484 2.1 20 09:38 03.10.2019
850 Clear 3 1023 71 14484 1.5 10 09:19 03.10.2019
851 Clear 3 1023 72 14484 1.5 10 08:43 03.10.2019
852 Clear 3 1023 72 14484 1.5 10 08:25 03.10.2019
853 Clear 4 1023 72 14484 2.6 30 07:55 03.10.2019
854 Clear 4 1023 72 14484 2.6 30 07:37 03.10.2019
855 Clear 4 1023 80 14484 2.1 60 07:19 03.10.2019
856 Clear 4 1023 80 14484 2.1 60 06:27 03.10.2019
857 Clear 5 1022 86 14484 3.68 21.651 05:50 03.10.2019
858 Clear 5 1022 86 14484 3.68 21.651 05:31 03.10.2019
859 Clear 6 1022 86 14484 2.1 10 04:47 03.10.2019
860 Clear 6 1022 86 14484 2.1 10 04:18 03.10.2019
861 Clear 7 1021 80 14484 3.1 20 03:19 03.10.2019
862 Clear 7 1021 80 14484 3.1 20 03:19 03.10.2019
863 Clear 8 1020 81 14484 2.1 30 02:27 03.10.2019
864 Clouds 8 1019 75 14484 3.1 40 01:41 03.10.2019
865 Clouds 9 1018 61 14484 4.6 30 00:53 03.10.2019
866 Clouds 10 1018 61 14484 4.6 30 00:32 03.10.2019
867 Clouds 11 1017 62 14484 5.7 40 23:58 02.10.2019
868 Clouds 11 1017 62 14484 5.7 40 23:38 02.10.2019
869 Clouds 11 1017 62 14484 5.7 40 23:19 02.10.2019
870 Clouds 11 1016 62 14484 5.7 40 22:43 02.10.2019
871 Clouds 12 1016 62 14484 5.7 40 22:21 02.10.2019
872 Clouds 12 1016 62 14484 5.7 50 21:56 02.10.2019
873 Clouds 12 1016 62 14484 5.7 50 21:38 02.10.2019
874 Clouds 12 1016 62 14484 5.7 50 21:19 02.10.2019
875 Clouds 12 1016 62 14484 5.7 50 21:19 02.10.2019
876 Clouds 12 1015 62 14484 5.7 10 20:55 02.10.2019
877 Clouds 12 1015 62 14484 5.7 10 20:37 02.10.2019
878 Clouds 12 1015 62 14484 5.7 10 20:19 02.10.2019
879 Clouds 12 1015 71 14484 4.6 30 19:45 02.10.2019
880 Clouds 11 1015 71 14484 4.6 30 19:23 02.10.2019
881 Clouds 11 1015 71 14484 4.6 30 19:23 02.10.2019
882 Clouds 11 1014 71 14484 7.7 10 18:59 02.10.2019
883 Clouds 11 1014 71 14484 7.7 10 18:59 02.10.2019
884 Clouds 11 1014 71 14484 7.7 10 18:40 02.10.2019
885 Clouds 11 1014 71 14484 7.7 10 18:21 02.10.2019
886 Clouds 11 1014 81 14484 4.6 30 17:59 02.10.2019
887 Clouds 11 1014 81 14484 4.6 30 17:40 02.10.2019
888 Clouds 11 1014 81 14484 4.6 30 17:21 02.10.2019
889 Clouds 11 1013 76 14484 6.2 10 16:57 02.10.2019
890 Clouds 11 1013 76 14484 6.2 10 16:57 02.10.2019
891 Clouds 11 1013 76 14484 6.2 10 16:38 02.10.2019
892 Clouds 11 1013 76 14484 6.2 10 16:20 02.10.2019
893 Clouds 11 1013 81 14484 4.6 20 15:55 02.10.2019
894 Clouds 10 1013 81 14484 4.6 20 15:37 02.10.2019
895 Clouds 10 1013 81 14484 4.6 20 15:18 02.10.2019
896 Clouds 11 1013 81 14484 3.6 20 14:43 02.10.2019
897 Rain 11 1013 81 14484 5.1 20 14:25 02.10.2019
898 Clouds 11 1011 87 14484 6.7 20 13:57 02.10.2019
899 Clouds 12 1011 87 14484 6.7 20 13:39 02.10.2019
900 Clouds 12 1011 87 14484 6.7 20 13:21 02.10.2019
901 Clouds 12 1011 93 14484 2.1 10 12:40 02.10.2019
902 Clouds 13 1011 93 14484 2.1 10 12:22 02.10.2019
903 Clouds 13 1009 93 14484 2.6 340 11:59 02.10.2019
904 Clouds 13 1009 93 14484 2.6 340 11:41 02.10.2019
905 Clouds 13 1009 93 14484 2.6 340 11:20 02.10.2019
906 Clouds 14 1009 100 14484 4.1 310 10:39 02.10.2019
907 Clouds 14 1009 100 14484 4.1 310 10:19 02.10.2019
908 Mist 14 1008 100 9656 3.1 310 09:41 02.10.2019
909 Fog 14 1008 100 805 2.1 330 09:20 02.10.2019
910 Fog 14 1007 100 603 1 30 08:56 02.10.2019
911 Fog 15 1007 100 603 1 30 08:38 02.10.2019
912 Fog 15 1007 100 402 1 340 08:20 02.10.2019
913 Mist 15 1007 93 2816 1.5 20 07:43 02.10.2019
914 Mist 15 1007 93 2816 2.1 250 07:24 02.10.2019
915 Mist 16 1007 100 6437 1.5 280 06:58 02.10.2019
916 Mist 16 1006 100 6437 1.5 280 06:27 02.10.2019
917 Mist 16 1006 100 4828 1 0 05:50 02.10.2019
918 Mist 17 1006 100 3621 2.6 20 05:21 02.10.2019
919 Mist 17 1006 100 4828 2.6 250 03:53 02.10.2019
920 Mist 17 1006 100 4828 2.6 230 03:31 02.10.2019
921 Rain 17 1006 100 4828 2.1 220 02:38 02.10.2019
922 Rain 17 1006 100 3621 2.1 230 02:20 02.10.2019
923 Rain 16 1007 100 2816 4.6 190 00:53 02.10.2019
924 Rain 16 1007 100 6437 3.6 200 00:30 02.10.2019
925 Thunderstorm 15 1007 93 4828 5.1 200 23:57 01.10.2019
926 Thunderstorm 15 1007 93 4828 5.1 200 23:39 01.10.2019
927 Thunderstorm 15 1007 100 8047 5.7 200 23:21 01.10.2019
928 Thunderstorm 15 1007 100 2414 2.6 210 22:58 01.10.2019
929 Thunderstorm 15 1007 100 2414 2.6 210 22:38 01.10.2019
930 Thunderstorm 14 1008 93 2414 1.5 0 22:18 01.10.2019
931 Rain 14 1008 100 6437 1.5 80 21:43 01.10.2019
932 Thunderstorm 14 1009 100 4828 1.5 310 21:23 01.10.2019
933 Thunderstorm 14 1009 100 4828 1.5 310 21:23 01.10.2019
934 Mist 14 1009 100 3219 1 0 20:59 01.10.2019
935 Mist 14 1009 100 3219 1 0 20:59 01.10.2019
936 Mist 14 1009 100 3219 1 0 20:39 01.10.2019
937 Rain 14 1009 100 2414 1 0 20:20 01.10.2019
938 Rain 14 1010 100 2012 1 0 19:58 01.10.2019
939 Rain 14 1010 100 2012 1 0 19:40 01.10.2019
940 Mist 14 1011 100 2816 2.1 20 19:21 01.10.2019
941 Rain 14 1011 100 2414 2.6 30 18:56 01.10.2019
942 Rain 13 1012 100 2012 2.1 340 18:38 01.10.2019
943 Rain 13 1012 100 2012 2.1 340 18:19 01.10.2019
944 Rain 12 1013 100 2816 2.6 20 17:43 01.10.2019
945 -273 0 0 0 0 0 17:25 01.10.2019
946 Rain 12 1014 100 201 1.5 50 16:59 01.10.2019
947 Rain 12 1014 100 201 1.5 50 16:41 01.10.2019
948 Fog 12 1014 100 201 2.6 30 16:22 01.10.2019
949 Fog 11 1015 100 201 2.06 38.043 15:55 01.10.2019
950 Fog 11 1015 100 201 2.06 38.043 15:37 01.10.2019
951 -273 0 0 0 0 0 15:18 01.10.2019
952 Fog 11 1015 100 201 2.21 40.188 15:18 01.10.2019
953 Fog 10 1015 100 4023 2.6 40 14:40 01.10.2019
954 Fog 10 1015 100 603 2.1 30 14:20 01.10.2019
955 Mist 9 1016 100 6437 3.6 20 13:57 01.10.2019
956 Mist 9 1016 100 2816 2.6 20 13:38 01.10.2019
957 Mist 9 1016 100 8047 3.6 20 13:18 01.10.2019
958 Clouds 9 1016 100 14484 2.1 350 12:56 01.10.2019
959 Clouds 9 1016 100 14484 2.6 10 12:38 01.10.2019
960 Clouds 9 1016 100 14484 2.6 10 12:18 01.10.2019
961 Clouds 9 1017 93 14484 2.6 30 11:57 01.10.2019
962 Clouds 9 1017 93 14484 2.6 30 11:57 01.10.2019
963 Clouds 9 1017 93 14484 2.6 30 11:37 01.10.2019
964 Clouds 9 1017 93 14484 2.6 30 11:18 01.10.2019
965 Clouds 9 1017 93 12874 4.1 30 10:48 01.10.2019
966 Clouds 9 1018 93 14484 3.6 20 10:28 01.10.2019
967 Clouds 9 1018 93 14484 3.1 10 09:46 01.10.2019
968 Rain 9 1018 93 14484 3.1 10 09:26 01.10.2019
969 Rain 9 1018 100 9656 3.6 20 08:46 01.10.2019
970 Rain 9 1018 100 8047 2.1 40 08:28 01.10.2019
971 Rain 9 1019 100 9656 4.1 30 07:59 01.10.2019
972 Rain 9 1019 100 9656 4.1 30 07:41 01.10.2019
973 Rain 9 1019 100 9656 3.6 30 07:20 01.10.2019
974 Rain 9 1020 87 9656 3.6 40 06:43 01.10.2019
975 Rain 9 1020 87 9656 3.6 40 06:18 01.10.2019
976 Rain 10 1020 76 14484 4.6 20 05:44 01.10.2019
977 Clouds 11 1021 76 14484 3.6 30 04:46 01.10.2019
978 Clouds 11 1021 76 14484 3.6 20 03:58 01.10.2019
979 Clouds 11 1021 76 14484 2.1 30 02:24 01.10.2019
980 Clouds 11 1022 71 14484 2.1 70 01:57 01.10.2019
981 Clouds 12 1023 58 14484 2.6 70 00:53 01.10.2019
982 Clouds 13 1023 58 14484 2.6 70 00:26 01.10.2019
983 Clouds 13 1024 54 14484 2.6 50 23:55 30.09.2019
984 Clouds 13 1024 54 14484 2.6 50 23:37 30.09.2019
985 Clouds 14 1024 54 14484 2.6 50 23:18 30.09.2019
986 Clear 14 1024 50 14484 2.6 60 22:42 30.09.2019
987 Clear 14 1024 50 14484 2.6 60 22:23 30.09.2019
988 Clouds 14 1025 50 14484 2.6 80 21:56 30.09.2019
989 Clouds 14 1025 50 14484 2.6 80 21:38 30.09.2019
990 Clouds 14 1025 50 14484 2.6 80 21:19 30.09.2019
991 Clouds 13 1026 50 32767 3.6 80 20:55 30.09.2019
992 Clouds 13 1026 50 32767 3.6 80 20:55 30.09.2019
993 Clouds 13 1026 50 32767 3.6 80 20:37 30.09.2019
994 Clouds 13 1026 50 32767 3.6 80 20:19 30.09.2019
995 Clouds 12 1027 57 14484 3.6 10 19:56 30.09.2019
996 Clouds 12 1027 57 14484 3.6 10 19:56 30.09.2019
997 Clouds 12 1027 57 14484 3.6 10 19:38 30.09.2019
998 Clouds 12 1027 57 14484 3.6 10 19:18 30.09.2019
999 Clouds 11 1028 66 14484 3.6 30 18:54 30.09.2019
1000 Clouds 11 1028 66 14484 3.6 30 18:36 30.09.2019
1001 Clouds 10 1028 66 14484 3.6 30 18:18 30.09.2019
1002 Clouds 9 1029 75 14484 3.1 40 17:40 30.09.2019
1003 Clouds 9 1029 75 14484 3.1 40 17:22 30.09.2019
1004 Clouds 8 1030 75 14484 4.1 40 16:56 30.09.2019
1005 Clouds 8 1030 75 14484 4.1 40 16:56 30.09.2019
1006 Clouds 8 1030 75 14484 4.1 40 16:38 30.09.2019
1007 Clouds 8 1030 75 14484 4.1 40 16:19 30.09.2019
1008 Clouds 8 1030 75 14484 4.1 40 16:19 30.09.2019
1009 Clouds 7 1030 81 14484 4.1 50 15:56 30.09.2019
1010 Clouds 7 1030 81 14484 4.1 50 15:37 30.09.2019
1011 Clouds 7 1030 81 14484 4.1 50 15:19 30.09.2019
1012 Clouds 6 1029 75 32767 5.7 40 14:57 30.09.2019
1013 Clouds 6 1029 75 32767 5.7 40 14:37 30.09.2019
1014 Clouds 6 1030 93 14484 4.6 40 14:18 30.09.2019
1015 Clear 5 1030 93 14484 3.1 20 13:55 30.09.2019
1016 Clear 5 1030 93 14484 3.1 20 13:36 30.09.2019
1017 Clear 5 1030 93 14484 3.1 20 13:18 30.09.2019
1018 Clouds 5 1030 93 14484 3.6 30 12:41 30.09.2019
1019 Clouds 5 1030 93 14484 3.6 30 12:21 30.09.2019
1020 Clouds 5 1030 86 14484 4.1 30 11:44 30.09.2019
1021 Clouds 5 1030 86 14484 4.1 30 11:44 30.09.2019
1022 Clouds 6 1030 86 14484 4.1 30 11:23 30.09.2019
1023 Clouds 6 1030 93 14484 2.6 30 10:59 30.09.2019
1024 Clouds 6 1030 93 14484 2.6 30 10:40 30.09.2019
1025 Clouds 6 1030 93 14484 2.6 30 10:19 30.09.2019
1026 Clouds 6 1030 93 14484 2.6 30 10:19 30.09.2019
1027 Clear 5 1031 93 14484 2.6 10 09:58 30.09.2019
1028 Clear 5 1031 93 14484 2.6 10 09:39 30.09.2019
1029 Clear 5 1031 93 14484 2.6 10 09:20 30.09.2019
1030 Clouds 6 1030 86 14484 3.1 10 08:46 30.09.2019
1031 Clouds 6 1030 86 14484 3.1 10 08:28 30.09.2019
1032 Clear 6 1030 81 14484 1.5 20 07:45 30.09.2019
1033 Clear 6 1030 81 14484 1.5 20 07:45 30.09.2019
1034 Clear 6 1030 81 14484 1.5 20 07:27 30.09.2019
1035 Clear 6 1030 81 14484 1.5 20 07:27 30.09.2019
1036 Clear 6 1030 81 14484 2.71 36.904 06:56 30.09.2019
1037 Clear 6 1030 81 14484 2.71 36.904 06:33 30.09.2019
1038 Clear 7 1029 81 14484 2.6 20 05:48 30.09.2019
1039 Clear 7 1029 81 14484 2.6 20 05:48 30.09.2019
1040 Clear 6 1029 93 14484 3.6 50 04:40 30.09.2019
1041 Clear 9 1029 70 14484 2.94 317.965 02:48 30.09.2019
1042 Clear 10 1029 54 14484 1.5 250 01:38 30.09.2019
1043 Clear 12 1028 58 14484 1.5 280 00:43 30.09.2019
1044 Clear 12 1028 54 14484 3.6 260 00:22 30.09.2019
1045 Clear 13 1028 54 14484 3.6 260 23:55 29.09.2019
1046 Clouds 13 1003 52 0 2.09 241.06 23:36 29.09.2019
1047 Clear 13 1029 47 14484 2.1 210 23:18 29.09.2019
1048 Clear 14 1029 47 14484 2.1 210 22:42 29.09.2019
1049 Clear 14 1029 47 14484 2.1 210 22:23 29.09.2019
1050 Clear 14 1029 47 14484 1.5 320 21:58 29.09.2019
1051 Clear 14 1029 47 14484 1.5 320 21:38 29.09.2019
1052 Clear 14 1029 47 14484 1.5 320 21:19 29.09.2019
1053 Clear 14 1029 47 14484 1.5 320 21:19 29.09.2019
1054 Clear 14 1029 47 14484 1.5 320 21:19 29.09.2019
1055 Clear 14 1029 47 14484 2.6 250 20:55 29.09.2019
1056 Clear 14 1029 47 14484 2.6 250 20:55 29.09.2019
1057 Clear 14 1029 47 14484 2.6 250 20:37 29.09.2019
1058 Clear 14 1029 47 14484 2.6 250 20:19 29.09.2019
1059 Clear 14 1030 50 14484 2.1 350 19:39 29.09.2019
1060 Clear 14 1030 50 14484 2.1 350 19:19 29.09.2019
1061 Clouds 13 1030 54 14484 3.1 360 18:57 29.09.2019
1062 Clouds 13 1030 54 14484 3.1 360 18:57 29.09.2019
1063 Clouds 13 1030 54 14484 3.1 360 18:38 29.09.2019
1064 Clouds 12 1030 54 14484 3.1 360 18:20 29.09.2019
1065 Clear 12 1030 54 14484 4.6 10 17:59 29.09.2019
1066 Clear 12 1030 54 14484 4.6 10 17:41 29.09.2019
1067 Clear 12 1030 54 14484 4.6 10 17:20 29.09.2019
1068 Clear 12 1030 57 14484 4.1 10 16:59 29.09.2019
1069 Clear 12 1030 57 14484 4.1 10 16:59 29.09.2019
1070 Clear 12 1030 57 14484 4.1 10 16:59 29.09.2019
1071 Clear 11 1030 57 14484 4.1 10 16:41 29.09.2019
1072 Clear 11 1030 57 14484 4.1 10 16:20 29.09.2019
1073 Clear 10 1030 66 14484 3.6 20 15:58 29.09.2019
1074 Clear 10 1030 66 14484 3.6 20 15:37 29.09.2019
1075 Clear 10 1030 66 14484 3.6 20 15:18 29.09.2019
1076 Clear 10 1030 66 14484 3.6 20 15:18 29.09.2019
1077 Clear 9 1029 81 14484 2.1 320 14:57 29.09.2019
1078 Clear 8 1029 81 14484 2.1 320 14:37 29.09.2019
1079 Clear 8 1029 81 14484 2.1 320 14:18 29.09.2019
1080 Clear 7 1029 81 14484 1.5 330 13:55 29.09.2019
1081 Clear 6 1029 81 14484 1.5 330 13:36 29.09.2019
1082 Clear 6 1029 81 14484 1.5 330 13:18 29.09.2019
1083 Clear 6 1028 86 14484 1.5 350 12:55 29.09.2019
1084 Clear 6 1028 86 14484 1.5 350 12:55 29.09.2019
1085 Clear 7 1028 86 14484 1.5 350 12:37 29.09.2019
1086 Clear 7 1028 86 14484 1.5 350 12:19 29.09.2019
1087 Clear 8 1027 87 14484 2.6 20 11:41 29.09.2019
1088 Clear 8 1027 87 14484 2.6 20 11:20 29.09.2019
1089 Clear 8 1026 87 14484 3.6 30 10:58 29.09.2019
1090 Clear 9 1026 87 14484 3.6 30 10:39 29.09.2019
1091 Clear 9 1026 87 14484 3.6 30 10:20 29.09.2019
1092 Clouds 9 1024 81 14484 2.6 20 09:57 29.09.2019
1093 Clouds 9 1024 81 14484 2.6 20 09:39 29.09.2019
1094 Clouds 10 1024 81 14484 2.6 20 09:39 29.09.2019
1095 Clouds 10 1024 81 14484 2.6 20 09:19 29.09.2019
1096 Clouds 11 1024 71 14484 6.2 10 08:43 29.09.2019
1097 Clouds 11 1024 71 14484 6.2 10 08:22 29.09.2019
1098 Clouds 12 1023 76 14484 6.2 10 07:44 29.09.2019
1099 Clouds 12 1023 76 14484 6.2 10 07:44 29.09.2019
1100 Clouds 13 1022 76 14484 5.7 350 07:26 29.09.2019
1101 Clouds 13 1021 82 14484 6.7 340 06:50 29.09.2019
1102 Clouds 14 1020 87 14484 4.1 330 05:59 29.09.2019
1103 Clouds 15 1019 93 14484 4.1 310 04:46 29.09.2019
1104 Clouds 15 1019 93 14484 4.1 310 04:24 29.09.2019
1105 Clouds 16 1017 88 14484 3.1 310 02:59 29.09.2019
1106 Clouds 17 1017 88 14484 3.1 310 02:19 29.09.2019
1107 Clouds 17 1016 93 14484 2.1 300 01:45 29.09.2019
1108 Clouds 17 1016 93 14484 2.1 300 01:19 29.09.2019
1109 Clouds 18 1016 93 24140 3.1 280 00:40 29.09.2019
1110 Rain 18 1015 100 14484 1.5 300 00:19 29.09.2019
1111 Rain 18 1015 100 14484 1.5 280 23:39 28.09.2019
1112 Rain 18 1015 100 14484 3.6 280 23:20 28.09.2019
1113 Rain 18 1014 100 11265 2.6 270 22:41 28.09.2019
1114 Mist 18 1014 100 4828 4.1 250 22:23 28.09.2019
1115 Mist 18 1014 100 4828 4.1 250 22:23 28.09.2019
1116 Rain 18 1013 100 11265 4.1 240 21:59 28.09.2019
1117 Rain 18 1013 100 11265 4.1 240 21:40 28.09.2019
1118 Mist 18 1014 93 6437 6.2 240 21:21 28.09.2019
1119 Rain 18 1013 93 4023 4.1 230 20:58 28.09.2019
1120 Rain 17 1013 93 4023 4.1 230 20:40 28.09.2019
1121 Rain 17 1013 100 8047 4.1 220 20:20 28.09.2019
1122 Rain 17 1013 93 4828 4.6 200 19:57 28.09.2019
1123 Rain 17 1013 93 4828 4.6 200 19:39 28.09.2019
1124 Rain 17 1013 100 3621 4.1 200 19:21 28.09.2019
1125 Rain 16 1013 93 8047 3.6 200 18:58 28.09.2019
1126 Rain 16 1013 93 8047 3.6 200 18:39 28.09.2019
1127 Rain 17 1013 93 8047 3.6 200 18:21 28.09.2019
1128 Rain 17 1013 93 14484 3.1 180 17:56 28.09.2019
1129 Rain 17 1013 93 14484 3.1 180 17:38 28.09.2019
1130 Rain 17 1013 93 14484 3.1 180 17:20 28.09.2019
1131 Rain 17 1013 82 14484 3.1 180 16:45 28.09.2019
1132 Rain 17 1013 82 14484 3.1 180 16:27 28.09.2019
1133 Rain 16 1014 72 14484 5.1 200 15:42 28.09.2019
1134 Rain 16 1013 77 14484 4.1 200 15:24 28.09.2019
1135 Rain 16 1013 82 32767 5.7 160 14:58 28.09.2019
1136 Clouds 16 1013 82 14484 4.6 170 14:40 28.09.2019
1137 Clouds 16 1013 82 14484 4.6 170 14:21 28.09.2019
1138 Clouds 15 1013 82 14484 5.1 170 13:58 28.09.2019
1139 Clouds 15 1013 82 14484 5.1 170 13:40 28.09.2019
1140 Rain 15 1013 77 14484 6.7 170 13:20 28.09.2019
1141 Rain 15 1013 77 14484 7.2 180 12:46 28.09.2019
1142 Clouds 16 1013 77 14484 5.1 170 12:20 28.09.2019
1143 Clouds 16 1013 87 14484 5.1 160 11:59 28.09.2019
1144 Clouds 15 1013 87 14484 5.1 160 11:40 28.09.2019
1145 Rain 15 1013 87 14484 5.1 160 11:19 28.09.2019
1146 Rain 15 1013 87 14484 3.6 160 10:44 28.09.2019
1147 Rain 15 1013 87 14484 5.1 160 10:21 28.09.2019
1148 Rain 15 1014 77 14484 2.6 210 09:58 28.09.2019
1149 Rain 15 1014 77 14484 2.6 210 09:40 28.09.2019
1150 Rain 15 1014 77 14484 2.6 210 09:18 28.09.2019
1151 Rain 15 1014 77 14484 3.6 180 08:47 28.09.2019
1152 Rain 15 1014 77 14484 4.6 160 08:29 28.09.2019
1153 Rain 16 1014 77 24140 3.6 140 07:47 28.09.2019
1154 Clouds 16 1015 77 14484 4.1 170 07:24 28.09.2019
1155 Rain 15 1016 82 14484 2.1 160 06:59 28.09.2019
1156 Rain 15 1016 82 14484 2.1 160 06:33 28.09.2019
1157 Rain 15 1016 82 14484 2.1 160 06:33 28.09.2019
1158 Rain 16 1016 77 14484 1.5 180 05:59 28.09.2019
1159 Rain 16 1016 77 14484 3.1 210 05:24 28.09.2019
1160 Clouds 16 1015 77 14484 3.1 160 04:44 28.09.2019
1161 Clouds 16 1015 77 14484 3.1 160 04:26 28.09.2019
1162 Clouds 15 1016 72 14484 1.5 110 03:35 28.09.2019
1163 Clouds 15 1016 77 14484 2.1 140 02:58 28.09.2019
1164 Clouds 15 1016 77 14484 2.1 140 02:37 28.09.2019
1165 Clouds 16 1016 77 14484 2.1 140 02:18 28.09.2019
1166 Clear 16 1015 67 14484 2.6 170 01:41 28.09.2019
1167 Clear 16 1015 67 14484 2.6 170 01:19 28.09.2019
1168 Clouds 18 1016 63 14484 3.6 170 00:44 28.09.2019
1169 Clouds 18 1016 63 14484 3.6 170 00:26 28.09.2019
1170 Clear 19 1016 52 14484 3.6 240 23:39 27.09.2019
1171 Clear 19 1016 52 14484 3.6 240 23:39 27.09.2019
1172 Clear 19 1016 55 14484 3.1 210 23:21 27.09.2019
1173 Clear 20 1016 55 14484 3.1 210 22:49 27.09.2019
1174 Clear 20 1016 55 14484 3.1 210 22:21 27.09.2019
1175 Clouds 20 1017 55 14484 2.6 240 22:00 27.09.2019
1176 Clouds 20 1017 55 14484 2.6 240 21:40 27.09.2019
1177 Clouds 20 1017 55 14484 2.6 240 21:21 27.09.2019
1178 Clear 19 1017 55 14484 5.7 240 20:59 27.09.2019
1179 Clear 19 1017 55 14484 5.7 240 20:40 27.09.2019
1180 Clear 19 1017 55 14484 5.7 240 20:20 27.09.2019
1181 Clear 19 1018 63 14484 4.6 240 19:58 27.09.2019
1182 Clear 19 1018 63 14484 4.6 240 19:39 27.09.2019
1183 Clear 18 1018 63 14484 4.6 240 19:20 27.09.2019
1184 Clear 18 1018 67 14484 3.6 170 18:43 27.09.2019
1185 Clear 17 1018 67 14484 3.6 170 18:25 27.09.2019
1186 Clear 16 1019 77 14484 2.6 200 17:57 27.09.2019
1187 Clear 16 1019 77 14484 2.6 200 17:39 27.09.2019
1188 Clear 16 1019 77 14484 2.6 200 17:20 27.09.2019
1189 Clear 15 1018 82 14484 4.1 220 16:58 27.09.2019
1190 Clear 14 1018 82 14484 4.1 220 16:40 27.09.2019
1191 Clear 14 1018 82 14484 4.1 220 16:19 27.09.2019
1192 Clear 13 1018 87 14484 4.1 240 15:55 27.09.2019
1193 Clear 12 1018 87 14484 4.1 240 15:37 27.09.2019
1194 Mist 12 1018 87 14484 4.1 240 15:19 27.09.2019
1195 Clear 11 1017 93 14484 2.1 250 14:42 27.09.2019
1196 Fog 10 1017 93 14484 2.1 250 14:23 27.09.2019
1197 Fog 10 1017 100 805 2.6 240 13:59 27.09.2019
1198 Fog 10 1017 100 805 2.6 240 13:41 27.09.2019
1199 Mist 9 1016 93 14484 2.1 250 13:21 27.09.2019
1200 Mist 9 1016 93 24140 2.6 240 12:57 27.09.2019
1201 Mist 9 1016 93 24140 2.6 240 12:38 27.09.2019
1202 Mist 9 1016 93 24140 2.6 240 12:19 27.09.2019
1203 Mist 9 1014 100 14484 4.1 240 11:39 27.09.2019
1204 Mist 9 1014 100 14484 4.1 240 11:21 27.09.2019
1205 Mist 9 1013 100 14484 3.1 230 10:57 27.09.2019
1206 Mist 10 1013 100 14484 3.1 230 10:39 27.09.2019
1207 Mist 10 1013 100 14484 3.1 230 10:39 27.09.2019
1208 Mist 10 1013 100 14484 3.1 230 10:20 27.09.2019
1209 Mist 10 1013 100 3219 1.5 250 09:42 27.09.2019
1210 Mist 10 1013 93 14484 3.6 240 09:21 27.09.2019
1211 Mist 10 1013 100 1609 2.1 270 08:57 27.09.2019
1212 Clear 10 1013 93 14484 5.1 240 08:38 27.09.2019
1213 Clear 10 1013 93 14484 5.1 240 08:19 27.09.2019
1214 Clear 10 1012 93 14484 3.6 230 07:45 27.09.2019
1215 Clear 11 1012 93 14484 3.6 230 07:23 27.09.2019
1216 Clear 11 1011 93 14484 4.6 240 06:43 27.09.2019
1217 Clear 11 1011 93 14484 4.6 240 06:23 27.09.2019
1218 Clear 11 1011 93 14484 4.1 250 05:50 27.09.2019
1219 Clear 11 1011 93 14484 4.1 250 05:32 27.09.2019
1220 Rain 13 1009 82 14484 2.6 280 03:55 27.09.2019
1221 Rain 14 1007 87 14484 3.1 250 02:42 27.09.2019
1222 Rain 14 1006 87 32767 1.5 230 01:44 27.09.2019
1223 Clear 15 1006 82 14484 5.1 240 00:59 27.09.2019
1224 Clear 16 1006 82 14484 5.1 240 00:22 27.09.2019
1225 Clear 17 1005 82 14484 7.2 230 23:56 26.09.2019
1226 Clear 17 1005 82 14484 7.2 230 23:38 26.09.2019
1227 Clear 16 1005 82 14484 7.2 230 23:18 26.09.2019
1228 Clouds 16 1005 87 14484 5.7 220 22:56 26.09.2019
1229 Clouds 16 1005 87 14484 5.7 220 22:38 26.09.2019
1230 Clouds 16 1005 87 14484 5.7 220 22:18 26.09.2019
1231 Clouds 15 1005 100 14484 4.1 220 21:55 26.09.2019
1232 Rain 15 1005 93 14484 3.6 200 21:36 26.09.2019
1233 Rain 15 1005 93 14484 3.6 200 21:18 26.09.2019
1234 Rain 15 1005 93 14484 3.1 210 20:57 26.09.2019
1235 Rain 15 1005 93 14484 3.1 210 20:39 26.09.2019
1236 Rain 15 1005 93 14484 3.1 210 20:20 26.09.2019
1237 Rain 15 1005 93 14484 3.1 210 20:20 26.09.2019
1238 Rain 15 1004 100 19312 3.6 220 19:40 26.09.2019
1239 Rain 15 1005 93 14484 3.1 230 19:19 26.09.2019
1240 Rain 15 1004 93 9656 4.1 260 18:59 26.09.2019
1241 Rain 15 1004 93 9656 4.1 260 18:40 26.09.2019
1242 Rain 15 1004 93 9656 4.1 260 18:22 26.09.2019
1243 Rain 15 1004 93 11265 5.7 250 17:57 26.09.2019
1244 Rain 15 1003 93 6437 8.7 300 17:37 26.09.2019
1245 Rain 16 1003 93 6437 8.7 300 17:18 26.09.2019
1246 Rain 16 1004 88 14484 3.1 190 16:40 26.09.2019
1247 Rain 17 1004 88 14484 3.1 190 16:21 26.09.2019
1248 Rain 17 1004 77 14484 3.6 200 16:00 26.09.2019
1249 Rain 17 1004 77 14484 3.6 200 15:39 26.09.2019
1250 Rain 17 1004 77 14484 4.6 190 15:20 26.09.2019
1251 Rain 17 1003 72 24140 3.6 200 14:57 26.09.2019
1252 Rain 17 1003 72 24140 3.6 200 14:38 26.09.2019
1253 Rain 16 1003 77 14484 2.6 180 14:20 26.09.2019
1254 Clouds 16 1003 77 14484 3.6 190 13:55 26.09.2019
1255 Clouds 16 1003 77 14484 3.6 190 13:36 26.09.2019
1256 Clouds 16 1003 77 14484 3.6 190 13:18 26.09.2019
1257 Clouds 17 1003 77 14484 3.6 170 12:41 26.09.2019
1258 -273 0 0 0 0 0 12:21 26.09.2019
1259 Clouds 17 1003 77 14484 3.1 180 11:55 26.09.2019
1260 Clouds 17 1003 77 14484 3.1 180 11:37 26.09.2019
1261 Clouds 17 1003 77 14484 3.1 180 11:37 26.09.2019
1262 Clouds 18 1003 77 14484 3.1 180 11:19 26.09.2019
1263 Clouds 17 1004 77 14484 3.6 180 10:42 26.09.2019
1264 Clouds 17 1004 77 14484 3.6 180 10:23 26.09.2019
1265 Clouds 17 1004 77 14484 4.1 170 09:57 26.09.2019
1266 Clouds 17 1004 77 14484 4.1 170 09:39 26.09.2019
1267 Clouds 17 1004 77 14484 4.1 170 09:39 26.09.2019
1268 Clouds 17 1004 77 14484 4.1 170 09:18 26.09.2019
1269 Clouds 17 1004 77 14484 4.1 190 08:47 26.09.2019
1270 Clouds 17 1004 77 14484 4.1 190 08:29 26.09.2019
1271 Rain 17 1004 77 14484 4.1 170 07:45 26.09.2019
1272 Clouds 17 1005 72 14484 5.7 180 07:22 26.09.2019
1273 Clouds 17 1005 77 14484 4.6 190 06:52 26.09.2019
1274 Clouds 17 1005 77 14484 4.6 190 06:28 26.09.2019
1275 Clouds 17 1006 82 14484 5.7 170 05:52 26.09.2019
1276 Clouds 16 1006 82 14484 5.7 170 05:26 26.09.2019
1277 Clear 15 1006 82 14484 2.1 90 03:33 26.09.2019
1278 Clear 16 1007 77 14484 2.6 140 02:19 26.09.2019
1279 Clear 16 1007 72 14484 3.1 130 01:40 26.09.2019
1280 Clear 17 1007 72 14484 3.1 130 01:22 26.09.2019
1281 Clouds 18 1008 63 14484 4.1 150 00:45 26.09.2019
1282 Clouds 18 1008 63 14484 4.1 150 00:25 26.09.2019
1283 Clouds 19 1007 59 14484 3.6 120 23:43 25.09.2019
1284 Clouds 19 1007 59 14484 3.6 120 23:22 25.09.2019
1285 Clouds 19 1008 59 14484 2.6 200 22:55 25.09.2019
1286 Clouds 19 1008 59 14484 2.6 200 22:55 25.09.2019
1287 Clouds 19 1008 59 14484 2.6 200 22:55 25.09.2019
1288 Clouds 20 1008 59 14484 2.6 200 22:36 25.09.2019
1289 Clouds 20 1008 59 14484 2.6 200 22:18 25.09.2019
1290 Clouds 19 1008 55 14484 5.1 220 21:55 25.09.2019
1291 Clouds 19 1008 55 14484 5.1 220 21:36 25.09.2019
1292 Clouds 19 1008 55 14484 5.1 220 21:18 25.09.2019
1293 Clouds 19 1009 67 14484 2.1 150 20:55 25.09.2019
1294 Clouds 18 1009 67 14484 2.1 150 20:37 25.09.2019
1295 Clouds 18 1009 67 14484 2.1 150 20:18 25.09.2019
1296 Clouds 18 1010 72 14484 3.1 210 19:40 25.09.2019
1297 Clouds 17 1010 72 14484 3.1 210 19:21 25.09.2019
1298 Clouds 17 1011 72 14484 2.6 160 18:56 25.09.2019
1299 Clouds 16 1011 72 14484 2.6 160 18:38 25.09.2019
1300 Clouds 16 1011 72 14484 2.6 160 18:19 25.09.2019
1301 Clouds 15 1012 82 14484 2.1 160 17:40 25.09.2019
1302 Clouds 15 1012 82 14484 1.5 130 17:21 25.09.2019
1303 Clouds 14 1012 87 24140 1.5 110 16:58 25.09.2019
1304 Clouds 14 1012 87 24140 1.5 110 16:58 25.09.2019
1305 Clouds 14 1012 87 24140 1.5 110 16:40 25.09.2019
1306 Clouds 14 1012 87 24140 1.5 110 16:22 25.09.2019
1307 Clouds 13 1012 87 14484 2.6 120 15:56 25.09.2019
1308 Drizzle 13 1012 87 14484 2.6 120 15:38 25.09.2019
1309 Drizzle 12 1012 93 14484 2.1 110 15:19 25.09.2019
1310 Drizzle 12 1012 87 24140 2.1 70 14:42 25.09.2019
1311 Rain 12 1012 93 14484 3.1 60 14:22 25.09.2019
1312 Rain 12 1012 87 24140 1.5 50 13:58 25.09.2019
1313 Rain 12 1012 87 24140 1.5 50 13:40 25.09.2019
1314 Clouds 11 1012 100 14484 1.18 234.768 13:20 25.09.2019
1315 Clouds 11 1011 100 14484 2.1 60 12:56 25.09.2019
1316 Clouds 11 1011 100 14484 2.1 60 12:37 25.09.2019
1317 Clouds 11 1011 100 14484 2.1 60 12:18 25.09.2019
1318 Clouds 11 1011 87 24140 2.1 40 11:40 25.09.2019
1319 Clouds 11 1011 93 14484 1 350 11:20 25.09.2019
1320 Clouds 11 1011 93 14484 2.1 310 10:47 25.09.2019
1321 Clouds 11 1011 93 14484 2.1 310 10:27 25.09.2019
1322 Clouds 11 1011 93 14484 2.1 310 10:27 25.09.2019
1323 Clouds 11 1010 100 24140 2.6 40 09:59 25.09.2019
1324 Clouds 11 1010 100 24140 2.6 40 09:59 25.09.2019
1325 Clouds 12 1010 100 24140 2.6 40 09:41 25.09.2019
1326 Clouds 12 1010 93 14484 2.1 20 09:23 25.09.2019
1327 Drizzle 12 1010 87 24140 2.6 30 08:57 25.09.2019
1328 Drizzle 12 1010 87 24140 2.6 30 08:39 25.09.2019
1329 Clouds 12 1010 87 24140 2.6 40 08:19 25.09.2019
1330 Mist 12 1010 93 9656 2.6 10 07:40 25.09.2019
1331 Mist 12 1010 93 4828 3.1 10 07:22 25.09.2019
1332 Mist 12 1010 93 8047 2.1 20 06:56 25.09.2019
1333 Clouds 13 1010 93 14484 1.5 40 06:36 25.09.2019
1334 Clouds 13 1010 100 14484 1.5 40 05:43 25.09.2019
1335 Clouds 13 1010 100 14484 1.5 40 05:20 25.09.2019
1336 Clouds 14 1010 93 14484 3.1 10 03:21 25.09.2019
1337 Clouds 15 1009 72 14484 4.1 300 01:39 25.09.2019
1338 Clouds 15 1008 67 14484 3.1 310 00:41 25.09.2019
1339 Clouds 15 1008 67 14484 3.1 310 00:23 25.09.2019
1340 Clouds 15 1008 67 14484 4.1 320 23:44 24.09.2019
1341 Clouds 16 1008 67 14484 4.1 320 23:22 24.09.2019
1342 Rain 16 1008 67 24140 4.1 270 22:58 24.09.2019
1343 Rain 16 1007 67 14484 3.6 350 22:38 24.09.2019
1344 Rain 16 1007 67 14484 3.6 350 22:20 24.09.2019
1345 Clouds 16 1007 63 14484 4.6 290 21:56 24.09.2019
1346 Clouds 16 1007 63 14484 4.6 290 21:37 24.09.2019
1347 Clouds 16 1007 63 14484 4.6 290 21:18 24.09.2019
1348 Clouds 16 1007 67 14484 3.6 280 20:57 24.09.2019
1349 Clouds 16 1007 67 14484 3.6 280 20:38 24.09.2019
1350 Clouds 16 1007 67 14484 3.6 280 20:19 24.09.2019
1351 Clouds 16 1007 63 14484 3.6 310 19:43 24.09.2019
1352 Clouds 16 1007 63 14484 3.6 310 19:21 24.09.2019
1353 Clouds 16 1007 67 14484 3.1 290 18:59 24.09.2019
1354 Clouds 16 1007 67 14484 3.1 290 18:39 24.09.2019
1355 Clouds 16 1007 67 14484 3.1 290 18:21 24.09.2019
1356 Clouds 15 1007 72 14484 4.6 300 17:57 24.09.2019
1357 Clouds 15 1007 72 14484 4.6 300 17:38 24.09.2019
1358 Clouds 15 1007 72 14484 4.6 300 17:38 24.09.2019
1359 Clouds 15 1007 72 14484 4.6 300 17:20 24.09.2019
1360 Clouds 15 1007 72 14484 5.1 340 16:55 24.09.2019
1361 Clouds 15 1007 72 14484 5.1 340 16:37 24.09.2019
1362 Clouds 15 1007 72 14484 5.1 340 16:18 24.09.2019
1363 Clouds 14 1006 72 14484 6.2 300 15:41 24.09.2019
1364 Clouds 14 1006 76 14484 3.1 300 15:23 24.09.2019
1365 Clouds 14 1006 76 14484 3.1 300 15:23 24.09.2019
1366 Clouds 14 1006 82 24140 3.1 270 14:43 24.09.2019
1367 Rain 14 1006 76 14484 3.1 320 14:20 24.09.2019
1368 Rain 13 1005 82 14484 3.1 320 13:56 24.09.2019
1369 Rain 13 1005 82 14484 3.1 320 13:38 24.09.2019
1370 Rain 13 1005 82 14484 3.1 320 13:20 24.09.2019
1371 Rain 14 1005 82 14484 4.1 310 12:40 24.09.2019
1372 Rain 14 1005 82 14484 4.1 310 12:20 24.09.2019
1373 Rain 14 1004 82 14484 4.6 290 11:43 24.09.2019
1374 Rain 14 1004 82 14484 4.6 290 11:43 24.09.2019
1375 Clouds 14 1004 82 14484 4.6 290 11:22 24.09.2019
1376 Clouds 14 1004 82 14484 4.6 290 11:22 24.09.2019
1377 Clouds 14 1004 87 14484 5.1 270 10:59 24.09.2019
1378 Clouds 15 1003 87 14484 5.7 270 10:39 24.09.2019
1379 Clouds 15 1003 87 14484 5.7 270 10:21 24.09.2019
1380 Clouds 15 1003 87 14484 6.2 250 09:55 24.09.2019
1381 Clouds 15 1003 87 14484 6.2 250 09:37 24.09.2019
1382 Clouds 15 1003 87 14484 6.2 250 09:18 24.09.2019
1383 Clouds 16 1003 82 14484 6.7 260 08:41 24.09.2019
1384 Clouds 16 1003 82 14484 6.7 260 08:23 24.09.2019
1385 Clouds 16 1003 88 14484 5.7 240 07:58 24.09.2019
1386 Clouds 16 1003 88 14484 5.7 240 07:39 24.09.2019
1387 Clouds 17 1003 88 14484 5.7 240 07:21 24.09.2019
1388 Clouds 17 1002 93 14484 6.2 240 06:38 24.09.2019
1389 Clouds 17 1002 93 14484 6.2 240 06:19 24.09.2019
1390 Clouds 18 1002 93 14484 7.2 240 05:22 24.09.2019
1391 Rain 20 1002 93 24140 3.6 220 03:46 24.09.2019
1392 Rain 20 1002 93 24140 3.6 220 03:25 24.09.2019
1393 Rain 20 1002 93 16093 6.7 210 02:44 24.09.2019
1394 Rain 21 1003 94 12874 1.5 250 01:41 24.09.2019
1395 Rain 22 1002 88 14484 2.6 210 00:41 24.09.2019
1396 Rain 22 1002 88 14484 2.6 210 00:22 24.09.2019
1397 Rain 22 1002 83 14484 4.1 230 23:43 23.09.2019
1398 Rain 22 1002 83 14484 4.1 230 23:23 23.09.2019
1399 Rain 23 1003 83 14484 4.1 240 22:41 23.09.2019
1400 Rain 23 1003 83 14484 4.1 240 22:41 23.09.2019
1401 Rain 23 1003 78 24140 5.1 210 22:22 23.09.2019
1402 Rain 23 1003 78 24140 5.1 210 22:22 23.09.2019
1403 Rain 22 1003 83 24140 2.1 220 21:59 23.09.2019
1404 Rain 22 1003 83 24140 2.1 220 21:41 23.09.2019
1405 Rain 22 1003 83 24140 2.1 220 21:41 23.09.2019
1406 Rain 22 1003 83 14484 4.1 250 21:22 23.09.2019
1407 Rain 22 1003 100 4023 1 0 20:59 23.09.2019
1408 Rain 22 1003 100 4023 1 0 20:40 23.09.2019
1409 Rain 22 1004 88 14484 6.7 230 20:19 23.09.2019
1410 Mist 21 1004 94 14484 7.2 240 19:55 23.09.2019
1411 Mist 21 1004 94 14484 7.2 240 19:55 23.09.2019
1412 Mist 21 1004 94 14484 7.2 240 19:36 23.09.2019
1413 Mist 21 1004 94 14484 7.2 240 19:18 23.09.2019
1414 Clouds 21 1004 94 14484 7.7 240 18:42 23.09.2019
1415 Rain 21 1004 94 14484 5.7 220 18:19 23.09.2019
1416 Rain 21 1004 94 14484 5.7 220 18:19 23.09.2019
1417 Rain 20 1004 94 11265 2.6 210 17:57 23.09.2019
1418 Rain 20 1004 94 11265 2.6 210 17:39 23.09.2019
1419 Rain 20 1004 100 8047 3.1 220 17:20 23.09.2019
1420 Rain 20 1005 94 9656 4.1 220 16:57 23.09.2019
1421 Rain 20 1005 94 11265 6.2 230 16:37 23.09.2019
1422 Rain 20 1005 94 11265 6.2 230 16:18 23.09.2019
1423 Rain 20 1005 88 8047 5.1 230 15:56 23.09.2019
1424 Rain 20 1005 94 9656 5.7 230 15:38 23.09.2019
1425 Rain 20 1005 94 9656 5.7 230 15:18 23.09.2019
1426 Rain 21 1005 73 14484 6.2 260 14:40 23.09.2019
1427 Rain 21 1005 73 14484 6.2 260 14:21 23.09.2019
1428 Rain 21 1005 69 14484 5.7 250 13:59 23.09.2019
1429 Rain 21 1005 69 14484 5.7 250 13:59 23.09.2019
1430 Rain 22 1005 69 14484 5.7 250 13:38 23.09.2019
1431 Rain 22 1005 64 14484 9.3 250 13:18 23.09.2019
1432 Rain 23 1005 64 14484 4.6 220 12:55 23.09.2019
1433 Rain 23 1005 64 14484 4.6 220 12:36 23.09.2019
1434 Rain 23 1005 64 14484 4.6 220 12:18 23.09.2019
1435 Clouds 24 1005 61 14484 9.3 240 11:43 23.09.2019
1436 Clouds 24 1005 61 14484 9.3 240 11:25 23.09.2019
1437 Clouds 24 1005 61 14484 9.8 240 10:49 23.09.2019
1438 Clouds 24 1005 61 14484 9.8 240 10:22 23.09.2019
1439 Clouds 24 1005 57 14484 9.8 230 09:59 23.09.2019
1440 Clouds 24 1005 57 14484 9.8 230 09:38 23.09.2019
1441 Clouds 24 1005 57 14484 9.8 230 09:20 23.09.2019
1442 Clouds 24 1006 57 14484 8.2 230 08:50 23.09.2019
1443 Clouds 25 1006 57 14484 8.2 230 08:30 23.09.2019
1444 Clouds 24 1006 57 14484 10.3 230 07:58 23.09.2019
1445 Clouds 24 1006 65 14484 4.6 200 07:33 23.09.2019
1446 Clouds 24 1007 61 14484 5.7 200 06:44 23.09.2019
1447 Clouds 24 1007 61 14484 5.7 200 06:18 23.09.2019
1448 Clouds 24 1007 64 14484 5.1 200 05:22 23.09.2019
1449 Clouds 24 1008 61 14484 6.7 210 04:55 23.09.2019
1450 Clouds 24 1009 78 14484 4.1 190 03:54 23.09.2019
1451 Clouds 24 1009 73 14484 3.6 180 01:22 23.09.2019
1452 Clouds 25 1010 69 14484 4.1 170 00:23 23.09.2019
1453 Clouds 25 1011 65 14484 6.2 230 23:57 22.09.2019
1454 Clouds 26 1011 65 14484 6.2 230 23:33 22.09.2019
1455 Clouds 26 1011 65 14484 7.7 230 22:59 22.09.2019
1456 Clouds 26 1011 65 14484 7.7 230 22:41 22.09.2019
1457 Clouds 26 1011 65 14484 7.7 230 22:41 22.09.2019
1458 Clouds 26 1011 65 14484 7.7 230 22:23 22.09.2019
1459 Clouds 26 1011 65 14484 7.7 230 22:23 22.09.2019
1460 Clouds 26 1012 65 14484 6.7 230 21:59 22.09.2019
1461 Clouds 26 1012 65 14484 6.7 230 21:39 22.09.2019
1462 Clouds 26 1012 65 14484 6.7 230 21:19 22.09.2019
1463 Clouds 26 1013 65 14484 5.7 210 20:43 22.09.2019
1464 Clouds 26 1013 65 14484 5.7 210 20:24 22.09.2019
1465 Clouds 26 1013 69 24140 7.7 230 19:56 22.09.2019
1466 Rain 25 1013 69 24140 7.7 220 19:38 22.09.2019
1467 Rain 25 1013 69 24140 7.7 220 19:38 22.09.2019
1468 Rain 25 1013 69 24140 7.7 220 19:19 22.09.2019
1469 Clouds 25 1014 69 32186 3.6 230 18:57 22.09.2019
1470 Rain 25 1015 60 14484 4.6 180 18:37 22.09.2019
1471 Rain 25 1015 60 14484 4.6 180 18:18 22.09.2019
1472 Clear 23 1015 64 14484 6.2 180 17:42 22.09.2019
1473 Clear 23 1015 64 14484 6.2 180 17:24 22.09.2019
1474 Clear 23 1016 68 14484 3.6 190 16:56 22.09.2019
1475 Clear 22 1016 68 14484 3.6 190 16:37 22.09.2019
1476 Clear 22 1016 68 14484 3.6 190 16:18 22.09.2019
1477 Clear 20 1017 77 14484 3.6 190 15:43 22.09.2019
1478 Clear 19 1017 77 14484 3.6 190 15:24 22.09.2019
1479 Clear 18 1016 82 14484 4.1 170 14:47 22.09.2019
1480 Clear 18 1016 82 14484 4.1 170 14:47 22.09.2019
1481 Clear 18 1016 82 14484 4.1 170 14:27 22.09.2019
1482 Clouds 17 1018 100 14484 2.1 210 13:59 22.09.2019
1483 Clouds 17 1018 100 14484 2.1 210 13:41 22.09.2019
1484 Clouds 16 1018 100 14484 2.1 210 13:23 22.09.2019
1485 Clouds 16 1018 93 14484 1.5 180 12:56 22.09.2019
1486 Clouds 16 1018 93 14484 1.5 180 12:38 22.09.2019
1487 Clouds 16 1018 93 14484 1.5 180 12:18 22.09.2019
1488 Clouds 16 1018 93 14484 1.5 170 11:43 22.09.2019
1489 -273 0 0 0 0 0 11:24 22.09.2019
1490 Clouds 16 1018 93 14484 1 130 10:56 22.09.2019
1491 Clouds 16 1018 93 14484 1 130 10:37 22.09.2019
1492 Clouds 16 1018 93 14484 1 130 10:19 22.09.2019
1493 Clear 16 1018 93 14484 1.5 170 09:42 22.09.2019
1494 Clear 16 1018 93 14484 1.5 170 09:21 22.09.2019
1495 Clear 16 1019 87 14484 2.1 160 08:55 22.09.2019
1496 Clear 16 1019 87 14484 2.1 160 08:37 22.09.2019
1497 Clear 16 1019 87 14484 2.1 160 08:18 22.09.2019
1498 Clear 17 1019 87 14484 1.5 170 07:41 22.09.2019
1499 Clear 17 1019 87 14484 1.5 170 07:23 22.09.2019
1500 Clear 17 1019 88 14484 1.5 150 06:56 22.09.2019
1501 Clear 17 1019 82 14484 1.5 120 06:31 22.09.2019
1502 Clear 18 1020 77 14484 2.1 200 03:54 22.09.2019
1503 Clear 20 1019 73 14484 2.6 210 02:44 22.09.2019
1504 Clear 20 1019 73 14484 2.6 210 02:24 22.09.2019
1505 Clear 21 1019 64 14484 4.6 190 01:35 22.09.2019
1506 Clear 23 1020 61 14484 2.1 220 00:44 22.09.2019
1507 Clear 25 1020 61 14484 2.1 220 00:26 22.09.2019
1508 Clear 26 1020 57 14484 2.6 230 23:47 21.09.2019
1509 Clear 26 1020 57 14484 2.6 230 23:27 21.09.2019
1510 Clear 27 1020 54 14484 2.1 220 22:43 21.09.2019
1511 Clear 26 1020 54 14484 2.1 220 22:23 21.09.2019
1512 Clear 26 1020 57 14484 3.1 220 21:58 21.09.2019
1513 Clear 26 1020 57 14484 3.1 220 21:40 21.09.2019
1514 Clear 26 1020 57 14484 3.1 220 21:19 21.09.2019
1515 Clear 26 1021 53 14484 3.1 230 20:41 21.09.2019
1516 Clear 25 1021 53 14484 3.1 230 20:23 21.09.2019
1517 Clear 25 1022 60 14484 3.1 210 19:58 21.09.2019
1518 Clear 25 1022 60 14484 3.1 210 19:39 21.09.2019
1519 Clear 24 1022 60 14484 3.1 210 19:18 21.09.2019
1520 Clear 24 1022 69 14484 2.1 190 18:40 21.09.2019
1521 Clear 23 1022 69 14484 2.1 190 18:21 21.09.2019
1522 Clear 22 1023 73 14484 2.1 150 17:42 21.09.2019
1523 Clear 22 1023 73 14484 2.1 150 17:42 21.09.2019
1524 Clear 22 1023 73 14484 2.1 150 17:23 21.09.2019
1525 Clear 21 1023 73 14484 2.1 180 16:56 21.09.2019
1526 Clear 21 1023 73 14484 2.1 180 16:37 21.09.2019
1527 Clear 20 1023 73 14484 2.1 180 16:19 21.09.2019
1528 Clear 19 1024 77 14484 1 0 15:42 21.09.2019
1529 Clear 18 1024 77 14484 1 0 15:21 21.09.2019
1530 Clear 17 1023 93 14484 1.43 252.956 14:47 21.09.2019
1531 Fog 16 1023 93 14484 1.43 252.956 14:28 21.09.2019
1532 Clear 14 1022 100 12874 1.43 252.956 13:45 21.09.2019
1533 Clear 14 1022 100 12874 1.22 256.043 13:26 21.09.2019
1534 Fog 14 1022 100 11265 1.22 256.043 12:59 21.09.2019
1535 Fog 14 1022 100 11265 1.22 256.043 12:41 21.09.2019
1536 Mist 14 1022 100 8047 1 90 12:21 21.09.2019
1537 Clear 14 1022 100 14484 1.43 262.522 11:58 21.09.2019
1538 Clear 14 1022 100 14484 1.43 262.522 11:39 21.09.2019
1539 Clear 15 1022 100 14484 1.43 262.522 11:19 21.09.2019
1540 Clear 15 1021 93 14484 1.43 262.522 10:41 21.09.2019
1541 Clear 15 1021 93 14484 1.43 262.522 10:22 21.09.2019
1542 Clear 16 1021 88 14484 1.43 262.522 09:57 21.09.2019
1543 Clear 16 1021 88 14484 1.43 262.522 09:38 21.09.2019
1544 Clear 16 1021 88 14484 1.96 251.676 09:20 21.09.2019
1545 Clouds 16 1021 82 14484 2.6 250 08:51 21.09.2019
1546 -273 0 0 0 0 0 08:25 21.09.2019
1547 Clouds 16 1020 77 14484 2.6 240 07:40 21.09.2019
1548 Clouds 16 1020 77 14484 2.6 240 07:21 21.09.2019
1549 Clouds 17 1020 77 14484 1.5 230 06:47 21.09.2019
1550 Clouds 17 1020 77 14484 1.5 230 06:26 21.09.2019
1551 Clear 18 1020 68 14484 4.1 260 04:49 21.09.2019
1552 Clear 18 1020 68 14484 4.1 260 04:31 21.09.2019
1553 Clear 20 1019 68 14484 4.6 230 02:27 21.09.2019
1554 Clear 21 1019 60 14484 4.6 240 01:52 21.09.2019
1555 Clear 21 1019 60 14484 4.6 240 01:33 21.09.2019
1556 Clouds 23 1019 56 14484 6.2 250 00:38 21.09.2019
1557 Clouds 23 1019 56 14484 6.2 250 00:18 21.09.2019
1558 Clear 24 1019 57 14484 5.1 240 23:42 20.09.2019
1559 Clear 24 1019 57 14484 5.1 240 23:22 20.09.2019
1560 Clear 25 1019 53 14484 6.2 230 22:41 20.09.2019
1561 Clear 25 1019 53 14484 6.2 230 22:23 20.09.2019
1562 Clear 25 1019 53 14484 4.6 250 21:56 20.09.2019
1563 Clear 25 1019 53 14484 4.6 250 21:37 20.09.2019
1564 Clear 24 1019 53 14484 4.6 250 21:18 20.09.2019
1565 -273 0 0 0 0 0 20:55 20.09.2019
1566 Clear 24 1020 56 14484 5.7 240 20:36 20.09.2019
1567 Clear 24 1020 56 14484 5.7 240 20:18 20.09.2019
1568 Clear 23 1021 56 14484 5.7 220 19:42 20.09.2019
1569 Clear 23 1021 56 14484 5.7 220 19:21 20.09.2019
1570 Clear 22 1021 60 14484 4.6 230 18:57 20.09.2019
1571 Clear 22 1021 60 14484 4.6 230 18:37 20.09.2019
1572 Clear 21 1021 60 14484 4.6 230 18:18 20.09.2019
1573 Clouds 21 1022 6 0 4.31 257.905 17:44 20.09.2019
1574 Clouds 20 1022 6 0 0.89 236 17:25 20.09.2019
1575 Clouds 18 1022 6 0 4.31 257.905 16:43 20.09.2019
1576 Clear 17 1023 82 14484 3.6 190 16:21 20.09.2019
1577 Clear 17 1023 82 14484 3.6 190 15:58 20.09.2019
1578 Clear 16 1023 82 14484 3.6 190 15:40 20.09.2019
1579 Clouds 15 1023 67 32767 4.6 240 15:22 20.09.2019
1580 Clouds 14 1023 87 14484 2.1 180 14:43 20.09.2019
1581 Clouds 13 1023 77 32767 2.6 240 14:19 20.09.2019
1582 Clouds 13 1023 87 14484 2.1 210 13:55 20.09.2019
1583 Clouds 12 1023 87 14484 2.1 210 13:36 20.09.2019
1584 Clouds 12 1022 87 14484 2.6 190 13:18 20.09.2019
1585 Clouds 12 1022 87 14484 2.6 190 12:38 20.09.2019
1586 Clouds 12 1022 87 14484 2.6 190 12:19 20.09.2019
1587 Clear 12 1022 87 14484 2.1 180 11:50 20.09.2019
1588 Clear 12 1022 87 14484 2.1 180 11:22 20.09.2019
1589 Clear 12 1022 87 14484 2.6 180 10:58 20.09.2019
1590 Clear 12 1022 87 14484 2.6 180 10:39 20.09.2019
1591 Clear 12 1022 87 14484 2.6 180 10:20 20.09.2019
1592 Clear 12 1022 76 14484 2.1 160 09:38 20.09.2019
1593 Clear 12 1022 76 14484 2.1 160 09:18 20.09.2019
1594 Clear 12 1022 71 14484 2.1 180 08:47 20.09.2019
1595 Clear 12 1022 71 14484 2.1 180 08:27 20.09.2019
1596 Clear 12 1022 62 14484 2.6 170 07:51 20.09.2019
1597 Clear 12 1022 62 14484 2.6 170 07:29 20.09.2019
1598 Clear 12 1022 66 14484 2.1 210 06:50 20.09.2019
1599 Clear 13 1023 62 14484 2.6 200 06:32 20.09.2019
1600 Clear 13 1023 62 14484 2.6 200 05:59 20.09.2019
1601 Clear 13 1023 67 14484 2.1 200 04:29 20.09.2019
1602 Clear 15 1024 59 14484 2.6 180 03:26 20.09.2019
1603 Clear 16 1024 55 14484 3.6 180 01:50 20.09.2019
1604 Clear 16 1024 55 14484 3.6 180 01:31 20.09.2019
1605 Clear 20 1024 45 14484 2.6 180 00:33 20.09.2019
1606 Clouds 21 1024 37 14484 2.1 190 23:46 19.09.2019
1607 Clouds 21 1024 37 14484 2.1 190 23:28 19.09.2019
1608 Clouds 22 1025 37 14484 1.5 160 22:59 19.09.2019
1609 Clouds 22 1025 37 14484 1.5 160 22:39 19.09.2019
1610 Clouds 22 1025 37 14484 1.5 160 22:21 19.09.2019
1611 Clouds 21 1025 30 14484 2.6 270 21:57 19.09.2019
1612 Clouds 21 1025 30 14484 2.6 270 21:38 19.09.2019
1613 Clouds 21 1025 30 14484 2.6 270 21:19 19.09.2019
1614 Clear 21 1025 42 14484 1.5 280 20:44 19.09.2019
1615 Clear 20 1025 42 14484 1.5 280 20:23 19.09.2019
1616 Clouds 20 1026 39 32767 2.1 180 19:58 19.09.2019
1617 Clear 20 1026 52 14484 1.5 0 19:39 19.09.2019
1618 Clear 19 1026 52 14484 1.5 0 19:21 19.09.2019
1619 Clouds 19 1026 55 32767 1.5 220 18:58 19.09.2019
1620 Clouds 18 1026 55 32767 1.5 220 18:40 19.09.2019
1621 Clouds 18 1026 55 32767 1.5 220 18:21 19.09.2019
1622 Clear 16 1027 71 14484 2.1 140 17:42 19.09.2019
1623 Clear 16 1027 71 14484 2.1 140 17:23 19.09.2019
1624 Clouds 15 1027 62 32767 2.1 170 16:59 19.09.2019
1625 Clear 14 1027 76 14484 3.1 170 16:40 19.09.2019
1626 Clear 13 1027 76 14484 3.1 170 16:19 19.09.2019
1627 Clear 12 1027 93 14484 2.6 180 15:40 19.09.2019
1628 Clear 12 1027 93 14484 2.6 180 15:40 19.09.2019
1629 Clear 11 1027 93 14484 2.6 180 15:21 19.09.2019
1630 Clear 10 1027 93 14484 2.1 150 14:57 19.09.2019
1631 Clear 10 1027 93 14484 2.1 150 14:38 19.09.2019
1632 Clouds 8 1027 93 32767 1.5 110 14:18 19.09.2019
1633 Clear 7 1027 100 14484 2.6 140 13:40 19.09.2019
1634 Clear 7 1027 100 14484 2.6 140 13:40 19.09.2019
1635 Clear 6 1027 100 14484 2.6 140 13:21 19.09.2019
1636 Clear 6 1027 93 14484 1.5 140 12:58 19.09.2019
1637 Clear 6 1027 93 14484 1.5 140 12:36 19.09.2019
1638 Clear 6 1027 93 14484 1.5 140 12:18 19.09.2019
1639 Clear 6 1027 100 14484 0.79 51.568 11:41 19.09.2019
1640 Clear 6 1027 100 14484 0.79 51.568 11:21 19.09.2019
1641 Clear 6 1026 86 14484 1 0 10:58 19.09.2019
1642 Clear 6 1024 89 0 0.79 51.568 10:38 19.09.2019
1643 Clear 7 1027 87 14484 1 0 10:20 19.09.2019
1644 Clear 7 1027 87 14484 1 0 09:55 19.09.2019
1645 -273 0 0 0 0 0 09:55 19.09.2019
1646 Clear 6 1027 87 14484 1 0 09:37 19.09.2019
1647 Clear 7 1027 87 14484 1 0 09:18 19.09.2019
1648 Clear 7 1027 81 14484 0.96 103.326 08:48 19.09.2019
1649 Clear 8 1027 87 14484 0.71 114.316 08:22 19.09.2019
1650 Clear 8 1027 87 14484 0.71 114.316 07:43 19.09.2019
1651 Clear 8 1027 87 14484 0.71 114.316 07:22 19.09.2019
1652 Clear 8 1027 81 14484 1.5 120 06:51 19.09.2019
1653 Clear 8 1027 81 14484 1.5 120 06:32 19.09.2019
1654 Clear 9 1027 76 14484 0.28 72.412 05:53 19.09.2019
1655 Clear 9 1027 76 14484 0.28 72.412 05:34 19.09.2019
1656 Clear 9 1027 76 14484 0.28 72.412 05:34 19.09.2019
1657 Clear 9 1027 76 14484 1 80 03:55 19.09.2019
1658 Clear 11 1026 62 14484 1.5 140 03:19 19.09.2019
1659 Clear 13 1027 51 14484 2.1 120 01:36 19.09.2019
1660 Clear 17 1026 45 14484 2.1 50 00:53 19.09.2019
1661 Clear 17 1026 45 14484 2.1 50 00:26 19.09.2019
1662 Clear 18 1026 42 14484 2.1 0 23:57 18.09.2019
1663 Clear 18 1026 42 14484 2.1 0 23:36 18.09.2019
1664 Clear 18 1026 42 14484 2.1 0 23:18 18.09.2019
1665 Clear 18 1026 48 14484 2.6 0 22:38 18.09.2019
1666 Clear 18 1027 48 11265 1.5 0 22:19 18.09.2019
1667 Clear 18 1027 48 11265 1.5 0 21:57 18.09.2019
1668 Clear 18 1027 48 11265 1.5 0 21:39 18.09.2019
1669 Clear 18 1027 48 11265 1.5 0 21:18 18.09.2019
1670 Clear 18 1027 45 14484 3.6 70 20:57 18.09.2019
1671 Clear 18 1027 45 14484 3.6 70 20:57 18.09.2019
1672 Clear 18 1027 45 14484 3.6 70 20:38 18.09.2019
1673 Clear 18 1027 45 14484 3.6 70 20:20 18.09.2019
1674 Clear 18 1027 45 14484 3.6 70 20:20 18.09.2019
1675 Clear 18 1028 48 14484 4.1 80 19:56 18.09.2019
1676 Clear 17 1028 48 14484 4.1 80 19:37 18.09.2019
1677 Clear 17 1028 48 14484 4.1 80 19:18 18.09.2019
1678 Clear 17 1028 48 14484 4.6 50 18:54 18.09.2019
1679 Clear 17 1028 48 14484 4.6 50 18:36 18.09.2019
1680 Clear 16 1028 48 14484 4.6 50 18:18 18.09.2019
1681 Clear 16 1028 54 14484 2.6 50 17:54 18.09.2019
1682 Clear 16 1028 54 14484 2.6 50 17:36 18.09.2019
1683 Clear 15 1028 54 14484 2.6 50 17:18 18.09.2019
1684 Clear 14 1028 71 14484 2.6 20 16:42 18.09.2019
1685 Clear 14 1028 71 14484 2.6 20 16:22 18.09.2019
1686 Clear 13 1028 81 14484 4.1 20 15:57 18.09.2019
1687 Clear 12 1028 81 14484 4.1 20 15:39 18.09.2019
1688 Clear 11 1028 81 14484 4.1 20 15:20 18.09.2019
1689 Clear 10 1028 93 14484 2.6 20 14:58 18.09.2019
1690 Clear 10 1028 93 14484 2.6 20 14:40 18.09.2019
1691 Clear 10 1028 93 14484 2.6 20 14:40 18.09.2019
1692 Clear 9 1028 93 14484 2.6 20 14:22 18.09.2019
1693 Clear 8 1027 100 14484 2.6 10 13:58 18.09.2019
1694 Clear 8 1027 100 14484 2.6 10 13:38 18.09.2019
1695 Clear 8 1027 100 14484 2.6 10 13:18 18.09.2019
1696 Clear 7 1026 93 14484 2.6 360 12:45 18.09.2019
1697 Clear 8 1026 93 14484 2.6 360 12:27 18.09.2019
1698 Clear 8 1026 93 14484 3.1 10 11:41 18.09.2019
1699 Clear 8 1026 93 14484 3.1 10 11:41 18.09.2019
1700 Clear 8 1026 93 14484 3.1 10 11:21 18.09.2019
1701 Clear 8 1026 93 14484 3.1 10 10:58 18.09.2019
1702 Clear 8 1026 93 14484 3.1 10 10:40 18.09.2019
1703 Clear 8 1026 93 14484 3.1 10 10:20 18.09.2019
1704 Clouds 8 1025 87 24140 2.1 340 09:58 18.09.2019
1705 Clouds 8 1025 87 24140 2.1 340 09:37 18.09.2019
1706 Clouds 9 1025 87 24140 2.1 340 09:19 18.09.2019
1707 Clear 9 1025 93 14484 1 20 08:41 18.09.2019
1708 Clear 9 1025 87 14484 1.5 10 08:23 18.09.2019
1709 Clear 9 1025 87 14484 1.5 10 07:53 18.09.2019
1710 Clear 9 1025 87 14484 1.5 10 07:35 18.09.2019
1711 Clear 9 1024 93 14484 1.5 20 06:59 18.09.2019
1712 Clear 9 1024 93 14484 1.5 20 06:38 18.09.2019
1713 Clear 10 1024 87 14484 2.1 40 05:46 18.09.2019
1714 Clear 10 1024 81 14484 1 80 04:43 18.09.2019
1715 Clear 13 1023 67 14484 1.5 60 02:54 18.09.2019
1716 Clear 13 1023 67 14484 1.5 60 02:28 18.09.2019
1717 Clear 15 1023 62 14484 2.6 70 01:21 18.09.2019
1718 Clear 18 1022 52 14484 3.1 70 00:48 18.09.2019
1719 Clear 18 1022 52 14484 3.1 70 00:20 18.09.2019
1720 Clouds 19 1022 48 14484 4.1 50 23:44 17.09.2019
1721 Clouds 19 1022 48 14484 4.1 50 23:22 17.09.2019
1722 Clouds 19 1022 48 14484 2.1 330 22:43 17.09.2019
1723 Clouds 19 1022 48 14484 2.1 330 22:24 17.09.2019
1724 Clouds 19 1023 55 14484 2.1 40 21:55 17.09.2019
1725 Clouds 19 1023 55 14484 2.1 40 21:37 17.09.2019
1726 Clouds 19 1023 55 14484 2.1 40 21:37 17.09.2019
1727 Clouds 19 1023 55 14484 2.1 40 21:19 17.09.2019
1728 Clouds 19 1023 55 14484 3.6 350 20:58 17.09.2019
1729 Clouds 19 1023 55 14484 3.6 350 20:58 17.09.2019
1730 Clouds 19 1023 55 14484 3.6 350 20:40 17.09.2019
1731 Clouds 19 1023 55 14484 3.6 350 20:22 17.09.2019
1732 Clouds 18 1023 59 14484 5.1 20 19:58 17.09.2019
1733 Clouds 18 1023 59 14484 5.1 20 19:39 17.09.2019
1734 Clouds 18 1023 59 14484 5.1 20 19:19 17.09.2019
1735 Clouds 18 1023 67 14484 4.1 20 18:57 17.09.2019
1736 Clouds 18 1023 59 32767 3.6 60 18:38 17.09.2019
1737 Clouds 17 1023 67 14484 4.1 20 18:20 17.09.2019
1738 Clouds 17 1023 67 14484 4.1 20 18:20 17.09.2019
1739 Clear 17 1023 67 14484 3.6 20 17:46 17.09.2019
1740 Clear 16 1023 67 14484 3.6 20 17:20 17.09.2019
1741 Clear 15 1023 71 14484 3.6 40 16:58 17.09.2019
1742 Clear 15 1023 71 14484 3.6 40 16:40 17.09.2019
1743 Clear 15 1023 71 14484 3.6 40 16:21 17.09.2019
1744 Clear 14 1023 76 14484 4.6 20 15:40 17.09.2019
1745 Clear 13 1023 76 14484 4.6 20 15:21 17.09.2019
1746 Clear 12 1023 87 14484 1.09 308.463 14:57 17.09.2019
1747 Clear 11 1023 87 14484 1.09 308.463 14:39 17.09.2019
1748 Clear 10 1023 87 14484 1.09 308.463 14:19 17.09.2019
1749 Clear 9 1022 93 14484 1.5 340 13:58 17.09.2019
1750 Clear 9 1022 93 14484 1.5 340 13:39 17.09.2019
1751 Clear 8 1022 93 14484 1.5 340 13:21 17.09.2019
1752 Clear 8 1021 93 14484 0.92 332.711 12:43 17.09.2019
1753 Clear 8 1021 93 14484 1.5 314.433 12:20 17.09.2019
1754 Clear 8 1021 93 14484 1.5 314.433 11:57 17.09.2019
1755 Clear 8 1021 93 14484 1.5 314.433 11:38 17.09.2019
1756 Clear 8 1021 93 14484 1.5 314.433 11:38 17.09.2019
1757 Clear 8 1021 93 14484 1.5 314.433 11:18 17.09.2019
1758 Clear 8 1021 87 14484 2.1 20 10:42 17.09.2019
1759 Clear 8 1021 87 14484 2.1 20 10:22 17.09.2019
1760 Clear 8 1020 93 14484 2.6 30 09:58 17.09.2019
1761 Clear 8 1020 93 14484 2.6 30 09:39 17.09.2019
1762 Clear 9 1020 93 14484 2.6 30 09:19 17.09.2019
1763 Clear 9 1020 81 14484 1.5 330 08:44 17.09.2019
1764 Clear 9 1020 81 14484 1.5 330 08:25 17.09.2019
1765 Clear 9 1020 81 14484 1.5 330 08:25 17.09.2019
1766 -273 0 0 0 0 0 07:55 17.09.2019
1767 Clear 10 1020 76 14484 1.75 15.927 07:36 17.09.2019
1768 Clear 10 1020 76 14484 1.75 15.927 07:18 17.09.2019
1769 Clear 10 1019 81 14484 2.1 350 06:44 17.09.2019
1770 Clear 12 1019 76 14484 2.1 10 05:58 17.09.2019
1771 Clear 13 1019 76 14484 2.1 10 05:33 17.09.2019
1772 Clear 13 1018 55 14484 3.6 310 04:21 17.09.2019
1773 Clear 15 1018 48 14484 3.6 300 02:41 17.09.2019
1774 Clear 16 1017 45 14484 4.1 300 01:55 17.09.2019
1775 Clouds 19 1017 42 14484 4.6 290 00:59 17.09.2019
1776 Clouds 20 1017 42 14484 4.6 290 00:22 17.09.2019
1777 Clouds 21 1017 40 14484 5.1 290 23:37 16.09.2019
1778 Clouds 21 1017 40 14484 5.1 290 23:18 16.09.2019
1779 Clouds 21 1017 43 14484 5.7 280 22:42 16.09.2019
1780 Clouds 21 1017 43 14484 5.7 280 22:42 16.09.2019
1781 Clouds 21 1017 43 14484 5.7 280 22:24 16.09.2019
1782 Clouds 21 1017 43 14484 5.7 280 22:24 16.09.2019
1783 Clear 21 1017 42 14484 2.1 350 21:59 16.09.2019
1784 Clear 21 1017 42 14484 2.1 350 21:39 16.09.2019
1785 Clear 20 1017 42 14484 2.1 350 21:20 16.09.2019
1786 Clouds 20 1017 42 14484 4.1 310 20:58 16.09.2019
1787 Clouds 20 1017 42 14484 4.1 310 20:39 16.09.2019
1788 Clouds 20 1017 42 14484 4.1 310 20:19 16.09.2019
1789 Clear 20 1018 45 14484 3.6 330 19:55 16.09.2019
1790 Clear 20 1018 45 14484 3.6 330 19:37 16.09.2019
1791 Clear 20 1018 45 14484 3.6 330 19:18 16.09.2019
1792 Clear 20 1018 45 14484 3.6 330 19:18 16.09.2019
1793 Clear 19 1018 48 14484 5.1 340 18:43 16.09.2019
1794 Clear 19 1018 48 14484 5.1 340 18:25 16.09.2019
1795 Clear 18 1019 48 14484 6.7 330 17:54 16.09.2019
1796 Clear 18 1019 48 14484 6.7 330 17:36 16.09.2019
1797 Clear 18 1019 48 14484 6.7 330 17:18 16.09.2019
1798 Clear 16 1019 59 14484 3.6 310 16:43 16.09.2019
1799 Clear 16 1019 59 14484 3.6 310 16:21 16.09.2019
1800 Clear 15 1020 67 14484 4.6 300 15:57 16.09.2019
1801 Clear 14 1020 67 14484 4.6 300 15:39 16.09.2019
1802 Clear 14 1020 67 14484 4.6 300 15:20 16.09.2019
1803 Clear 14 1020 67 14484 4.6 300 15:20 16.09.2019
1804 Clouds 13 1019 71 14484 4.6 290 14:58 16.09.2019
1805 Clouds 13 1019 71 14484 4.6 290 14:39 16.09.2019
1806 Clouds 12 1019 71 14484 4.6 290 14:20 16.09.2019
1807 Clouds 11 1019 76 14484 3.6 300 13:43 16.09.2019
1808 Clouds 11 1019 76 14484 3.6 300 13:22 16.09.2019
1809 Clouds 11 1019 76 14484 2.6 300 12:57 16.09.2019
1810 Clouds 11 1019 76 14484 2.6 300 12:38 16.09.2019
1811 Clouds 11 1019 76 14484 2.6 300 12:19 16.09.2019
1812 Clouds 11 1019 76 14484 4.6 290 11:45 16.09.2019
1813 Clouds 11 1019 76 14484 4.6 290 11:23 16.09.2019
1814 Clouds 11 1019 76 14484 4.6 290 11:23 16.09.2019
1815 Clouds 10 1019 81 14484 4.1 290 10:56 16.09.2019
1816 Clouds 10 1019 81 14484 4.1 290 10:37 16.09.2019
1817 Clouds 10 1019 81 14484 4.1 290 10:18 16.09.2019
1818 Clouds 10 1019 76 14484 3.1 280 09:42 16.09.2019
1819 Clouds 10 1019 76 14484 3.1 280 09:21 16.09.2019
1820 Clear 10 1018 71 14484 2.1 290 08:56 16.09.2019
1821 Clear 10 1018 71 14484 2.1 290 08:38 16.09.2019
1822 Clear 10 1018 71 14484 2.1 290 08:19 16.09.2019
1823 Clear 11 1018 71 14484 3.1 280 07:42 16.09.2019
1824 Clear 10 1018 71 14484 3.1 280 07:24 16.09.2019
1825 Clear 11 1018 71 14484 2.6 270 06:58 16.09.2019
1826 Clear 11 1018 71 14484 2.6 270 06:39 16.09.2019
1827 Clear 11 1018 71 14484 2.6 270 06:20 16.09.2019
1828 Clear 12 1018 62 14484 2.6 290 05:42 16.09.2019
1829 Clear 12 1018 62 14484 2.6 290 05:21 16.09.2019
1830 Clouds 14 1018 67 14484 4.6 280 03:37 16.09.2019
1831 Clouds 15 1018 59 14484 5.7 280 01:31 16.09.2019
1832 Clouds 16 1017 63 14484 7.2 270 00:38 16.09.2019
1833 Clouds 16 1017 63 14484 7.2 270 00:20 16.09.2019
1834 Clouds 17 1017 63 14484 6.7 270 23:39 15.09.2019
1835 Clouds 16 1017 59 14484 5.7 270 23:20 15.09.2019
1836 Clouds 17 1017 59 14484 5.7 270 22:40 15.09.2019
1837 Clouds 17 1017 59 14484 5.7 270 22:21 15.09.2019
1838 Clouds 17 1017 59 14484 6.7 260 21:58 15.09.2019
1839 Clouds 17 1017 59 14484 6.7 260 21:39 15.09.2019
1840 Clouds 17 1017 59 14484 6.7 260 21:39 15.09.2019
1841 Clouds 17 1017 59 14484 6.7 260 21:39 15.09.2019
1842 Clouds 17 1017 59 14484 6.7 260 21:21 15.09.2019
1843 Clouds 17 1018 59 14484 6.7 260 20:57 15.09.2019
1844 Clouds 17 1018 59 14484 6.7 260 20:39 15.09.2019
1845 Clouds 17 1018 59 14484 6.7 260 20:21 15.09.2019
1846 Clouds 18 1018 59 14484 7.7 250 19:44 15.09.2019
1847 Clouds 18 1018 59 14484 7.7 250 19:23 15.09.2019
1848 Clouds 17 1018 59 14484 6.2 250 18:43 15.09.2019
1849 Clouds 17 1018 59 14484 6.2 250 18:24 15.09.2019
1850 Clouds 17 1019 63 14484 5.7 250 17:58 15.09.2019
1851 Clouds 17 1019 63 14484 5.7 250 17:39 15.09.2019
1852 Clouds 17 1019 63 14484 5.7 250 17:20 15.09.2019
1853 Clear 17 1019 67 14484 4.1 280 16:44 15.09.2019
1854 Clear 16 1019 67 14484 4.1 280 16:26 15.09.2019
1855 Clear 16 1019 72 14484 5.7 270 15:59 15.09.2019
1856 Clear 15 1019 72 14484 5.7 270 15:41 15.09.2019
1857 Clear 15 1019 72 14484 5.7 270 15:20 15.09.2019
1858 Clear 15 1018 71 14484 5.7 260 14:58 15.09.2019
1859 Clear 14 1018 71 14484 5.7 260 14:40 15.09.2019
1860 Clouds 14 1018 76 14484 6.2 240 14:20 15.09.2019
1861 Clouds 13 1018 76 14484 6.2 240 13:47 15.09.2019
1862 Clouds 13 1018 76 14484 6.2 240 13:24 15.09.2019
1863 Clouds 13 1018 76 14484 5.1 240 12:56 15.09.2019
1864 Clouds 13 1018 76 14484 5.1 240 12:38 15.09.2019
1865 Clouds 13 1018 76 14484 5.1 240 12:18 15.09.2019
1866 Clear 13 1018 71 14484 6.2 250 11:42 15.09.2019
1867 Clear 13 1018 71 14484 6.2 250 11:22 15.09.2019
1868 Clear 13 1018 67 14484 5.7 260 10:58 15.09.2019
1869 Clear 14 1018 67 14484 5.7 260 10:39 15.09.2019
1870 Clear 14 1018 67 14484 5.7 260 10:21 15.09.2019
1871 Clear 15 1017 67 14484 6.7 260 09:40 15.09.2019
1872 Clear 15 1017 67 14484 6.7 260 09:20 15.09.2019
1873 Clouds 15 1018 63 14484 6.7 250 08:53 15.09.2019
1874 Clouds 16 1018 63 14484 6.7 250 08:29 15.09.2019
1875 Clouds 16 1018 59 14484 7.2 260 07:57 15.09.2019
1876 Clouds 16 1018 59 14484 7.2 260 07:39 15.09.2019
1877 Clouds 17 1017 63 14484 5.7 250 06:43 15.09.2019
1878 Clouds 18 1017 56 14484 8.7 260 04:38 15.09.2019
1879 Rain 19 1017 68 24140 4.1 250 02:55 15.09.2019
1880 Clouds 19 1016 64 32767 5.7 240 01:58 15.09.2019
1881 Clouds 19 1016 64 32767 5.7 240 01:35 15.09.2019
1882 Clouds 20 1015 64 14484 8.2 230 00:56 15.09.2019
1883 Clouds 20 1015 64 14484 8.2 230 00:36 15.09.2019
1884 Clouds 21 1015 64 14484 8.2 230 00:18 15.09.2019
1885 Clouds 21 1015 64 14484 9.8 220 23:54 14.09.2019
1886 Clouds 21 1015 64 14484 9.8 220 23:54 14.09.2019
1887 Clouds 21 1015 64 14484 9.8 220 23:36 14.09.2019
1888 Clouds 21 1015 64 14484 9.8 220 23:18 14.09.2019
1889 Clouds 21 1015 72 14484 7.7 180 22:55 14.09.2019
1890 Clouds 21 1015 72 14484 7.7 180 22:36 14.09.2019
1891 Clouds 21 1015 72 14484 7.7 180 22:18 14.09.2019
1892 Clouds 21 1015 72 14484 7.7 180 21:40 14.09.2019
1893 Clouds 21 1015 72 14484 7.7 180 21:20 14.09.2019
1894 Clouds 21 1015 77 14484 8.7 180 20:56 14.09.2019
1895 Clouds 20 1015 77 14484 8.7 180 20:38 14.09.2019
1896 Clouds 20 1015 77 14484 8.7 180 20:19 14.09.2019
1897 Clouds 20 1016 72 14484 7.2 180 19:45 14.09.2019
1898 Clouds 19 1016 72 14484 7.2 180 19:21 14.09.2019
1899 Clouds 18 1016 77 24140 6.7 170 18:57 14.09.2019
1900 Rain 18 1017 77 14484 8.2 180 18:38 14.09.2019
1901 Rain 18 1017 77 14484 8.2 180 18:38 14.09.2019
1902 Rain 17 1017 77 14484 8.2 180 18:19 14.09.2019
1903 Clouds 17 1017 77 14484 6.2 180 17:44 14.09.2019
1904 Clouds 16 1017 77 14484 6.2 180 17:23 14.09.2019
1905 Rain 15 1018 82 14484 7.7 180 16:50 14.09.2019
1906 Rain 15 1018 82 14484 7.7 170 16:29 14.09.2019
1907 Rain 15 1018 87 14484 6.7 180 15:59 14.09.2019
1908 Rain 14 1018 87 14484 6.7 180 15:40 14.09.2019
1909 Rain 14 1018 87 14484 6.7 180 15:22 14.09.2019
1910 Rain 14 1018 87 3621 8.2 180 14:45 14.09.2019
1911 Rain 14 1018 87 8047 8.7 170 14:19 14.09.2019
1912 Rain 14 1018 87 4828 5.7 160 13:56 14.09.2019
1913 Rain 14 1018 87 14484 7.2 170 13:37 14.09.2019
1914 Rain 14 1018 87 14484 7.2 170 13:19 14.09.2019
1915 Rain 14 1019 93 9656 8.7 170 12:43 14.09.2019
1916 Rain 14 1019 93 8047 8.7 180 12:20 14.09.2019
1917 Rain 14 1019 82 8047 7.2 160 11:41 14.09.2019
1918 Rain 14 1019 82 14484 8.7 180 11:20 14.09.2019
1919 Rain 15 1019 67 14484 9.8 180 10:40 14.09.2019
1920 Rain 15 1019 67 14484 10.3 180 10:21 14.09.2019
1921 Clouds 16 1020 59 14484 10.8 170 09:58 14.09.2019
1922 Clouds 16 1020 59 14484 10.8 170 09:40 14.09.2019
1923 Clouds 16 1020 59 14484 10.8 170 09:20 14.09.2019
1924 Clouds 16 1021 59 14484 9.8 180 08:48 14.09.2019
1925 Clouds 17 1021 59 14484 9.8 180 08:26 14.09.2019
1926 Clouds 17 1021 59 14484 7.2 170 07:49 14.09.2019
1927 Clouds 17 1021 59 14484 7.2 170 07:29 14.09.2019
1928 Clouds 17 1022 55 14484 7.7 170 06:54 14.09.2019
1929 Clouds 17 1022 55 14484 7.7 170 06:31 14.09.2019
1930 Clouds 17 1022 55 14484 5.7 160 05:27 14.09.2019
1931 Clouds 17 1025 62 14484 3.6 130 03:53 14.09.2019
1932 Clouds 17 1025 59 14484 4.1 140 02:57 14.09.2019
1933 Clouds 17 1025 59 14484 4.1 140 02:23 14.09.2019
1934 Clouds 17 1025 59 14484 4.1 130 01:42 14.09.2019
1935 Clouds 18 1025 59 14484 4.1 130 01:18 14.09.2019
1936 Clear 19 1027 48 14484 5.7 150 00:40 14.09.2019
1937 Clear 19 1027 48 14484 5.7 150 00:21 14.09.2019
1938 Clouds 20 1027 42 14484 6.7 140 23:54 13.09.2019
1939 Clouds 20 1027 42 14484 6.7 140 23:36 13.09.2019
1940 Clouds 20 1027 42 14484 6.7 140 23:18 13.09.2019
1941 Clear 21 1028 43 14484 5.1 150 22:40 13.09.2019
1942 Clear 21 1028 43 14484 5.1 150 22:22 13.09.2019
1943 Clouds 20 1028 37 32767 10.3 140 21:58 13.09.2019
1944 Clouds 20 1028 37 32767 10.3 140 21:38 13.09.2019
1945 Clear 20 1029 48 14484 5.1 160 21:19 13.09.2019
1946 Clear 20 1030 45 14484 5.7 200 20:57 13.09.2019
1947 Clear 20 1030 45 14484 5.7 200 20:37 13.09.2019
1948 Clear 20 1030 45 14484 5.7 200 20:19 13.09.2019
1949 Clear 20 1031 45 14484 6.2 140 19:44 13.09.2019
1950 Clear 19 1031 45 14484 6.2 140 19:22 13.09.2019
1951 Clear 19 1031 48 14484 5.7 110 18:59 13.09.2019
1952 Clear 18 1032 48 14484 5.1 170 18:38 13.09.2019
1953 Clear 18 1032 48 14484 5.1 170 18:19 13.09.2019
1954 Clear 17 1032 59 14484 4.1 80 17:44 13.09.2019
1955 Clear 16 1032 59 14484 4.1 80 17:22 13.09.2019
1956 Clear 16 1033 58 14484 3.6 100 16:59 13.09.2019
1957 Clear 15 1033 58 14484 3.6 100 16:40 13.09.2019
1958 Clear 14 1033 58 14484 3.6 100 16:19 13.09.2019
1959 Clear 13 1033 76 14484 3.6 20 15:42 13.09.2019
1960 Clear 11 1033 76 14484 3.6 20 15:23 13.09.2019
1961 Clear 11 1033 87 14484 4.1 30 14:56 13.09.2019
1962 Clear 10 1033 7 0 3.23 50.667 14:37 13.09.2019
1963 Clear 9 1032 87 14484 4.1 20 14:18 13.09.2019
1964 Clear 8 1032 87 14484 4.1 20 13:41 13.09.2019
1965 Clear 7 1032 87 14484 4.1 20 13:22 13.09.2019
1966 Clear 7 1031 93 14484 3.1 20 12:45 13.09.2019
1967 Clear 7 1031 93 14484 3.1 20 12:25 13.09.2019
1968 Clear 7 1031 93 14484 2.6 20 11:57 13.09.2019
1969 Clear 7 1031 93 14484 2.6 20 11:20 13.09.2019
1970 Clear 7 1031 81 14484 2.1 40 10:59 13.09.2019
1971 Clear 7 1031 81 14484 2.1 40 10:37 13.09.2019
1972 Clear 7 1031 81 14484 2.1 40 10:18 13.09.2019
1973 Clear 8 1030 81 14484 3.1 10 09:43 13.09.2019
1974 Clear 8 1030 76 14484 2.6 50 09:21 13.09.2019
1975 Clear 9 1030 76 14484 2.6 50 08:57 13.09.2019
1976 Clear 9 1030 76 14484 2.6 50 08:39 13.09.2019
1977 Clear 9 1030 76 14484 2.6 50 08:20 13.09.2019
1978 Clear 9 1030 81 14484 1 10 07:43 13.09.2019
1979 Clear 9 1030 81 14484 1 10 07:24 13.09.2019
1980 Clouds 9 1026 73 0 3.37 43.905 06:39 13.09.2019
1981 Clear 9 1028 81 14484 2.1 10 05:39 13.09.2019
1982 Clear 11 1028 76 14484 2.6 40 04:34 13.09.2019
1983 Clear 13 1027 62 14484 2.1 60 03:33 13.09.2019
1984 Clear 14 1027 62 14484 2.1 60 02:20 13.09.2019
1985 Clear 15 1026 51 14484 2.6 80 01:38 13.09.2019
1986 Clear 16 1026 51 14484 2.6 80 01:18 13.09.2019
1987 Clear 19 1026 48 14484 2.6 40 00:36 13.09.2019
1988 Clear 19 1025 42 14484 5.1 30 23:54 12.09.2019
1989 Clear 20 1025 42 14484 5.1 30 23:30 12.09.2019
1990 Clear 19 1025 42 14484 5.1 30 22:59 12.09.2019
1991 Clear 20 1025 42 14484 5.1 30 22:40 12.09.2019
1992 Clear 20 1025 42 14484 5.1 30 22:22 12.09.2019
1993 Clear 20 1025 45 14484 5.7 10 21:56 12.09.2019
1994 Clear 20 1025 45 14484 5.7 10 21:56 12.09.2019
1995 Clear 19 1025 45 14484 5.7 10 21:37 12.09.2019
1996 Clear 19 1025 45 14484 5.7 10 21:19 12.09.2019
1997 Clear 19 1025 45 14484 3.6 40 20:54 12.09.2019
1998 Clear 19 1025 45 14484 3.6 40 20:36 12.09.2019
1999 Clear 19 1025 45 14484 3.6 40 20:18 12.09.2019
2000 Clouds 19 1024 51 14484 5.7 10 19:41 12.09.2019
2001 Clouds 18 1024 51 14484 5.7 10 19:20 12.09.2019
2002 Clouds 18 1024 52 14484 6.2 30 18:57 12.09.2019
2003 Clouds 18 1024 52 14484 6.2 30 18:36 12.09.2019
2004 Clouds 18 1024 52 14484 6.2 30 18:18 12.09.2019
2005 Clouds 17 1024 67 14484 5.1 40 17:41 12.09.2019
2006 Clouds 16 1024 67 14484 5.1 40 17:21 12.09.2019
2007 Clear 16 1025 72 14484 5.1 30 16:58 12.09.2019
2008 Clear 15 1025 72 14484 5.1 30 16:40 12.09.2019
2009 Clear 15 1025 72 14484 5.1 30 16:20 12.09.2019
2010 Clear 14 1024 82 14484 4.6 20 15:42 12.09.2019
2011 Clear 14 1024 82 14484 4.6 20 15:23 12.09.2019
2012 Clear 14 1024 82 14484 4.6 20 15:23 12.09.2019
2013 Clear 14 1024 82 14484 4.6 20 15:23 12.09.2019
2014 Clouds 13 1024 87 14484 3.6 10 14:47 12.09.2019
2015 Clear 12 1023 100 14484 3.1 360 14:23 12.09.2019
2016 Clear 12 1023 100 14484 3.1 360 13:59 12.09.2019
2017 Clear 12 1023 100 14484 3.1 360 13:39 12.09.2019
2018 Clear 11 1023 100 14484 3.1 360 13:20 12.09.2019
2019 Clear 11 1022 93 14484 1.5 360 12:48 12.09.2019
2020 Clear 12 1022 93 14484 1.5 360 12:19 12.09.2019
2021 Clouds 12 1022 87 14484 1.5 70 11:58 12.09.2019
2022 Clouds 12 1022 87 14484 1.5 70 11:39 12.09.2019
2023 Clouds 12 1022 87 14484 1.5 70 11:21 12.09.2019
2024 Clouds 12 1021 87 14484 3.6 20 10:48 12.09.2019
2025 Clouds 13 1021 87 14484 3.6 20 10:26 12.09.2019
2026 Clouds 13 1021 82 14484 4.6 10 09:56 12.09.2019
2027 Clouds 13 1021 82 14484 4.6 10 09:38 12.09.2019
2028 Clouds 13 1021 82 14484 4.6 10 09:18 12.09.2019
2029 Clouds 13 1021 82 14484 4.6 10 09:18 12.09.2019
2030 Clouds 13 1021 82 14484 4.6 360 08:43 12.09.2019
2031 Clouds 13 1021 82 14484 4.6 360 08:23 12.09.2019
2032 Clouds 13 1021 76 14484 4.1 10 07:47 12.09.2019
2033 Clouds 13 1021 76 14484 4.1 10 07:21 12.09.2019
2034 Clouds 13 1021 76 14484 4.1 10 07:21 12.09.2019
2035 Clouds 13 1021 71 14484 3.6 360 06:52 12.09.2019
2036 Clouds 14 1021 71 14484 3.6 360 06:32 12.09.2019
2037 Clouds 14 1021 71 14484 3.6 360 06:32 12.09.2019
2038 Clouds 14 1020 71 14484 3.6 20 05:54 12.09.2019
2039 Clouds 14 1021 7 0 3.6 42.545 05:36 12.09.2019
2040 Clouds 15 1020 67 14484 6.7 10 04:45 12.09.2019
2041 Clouds 16 1019 72 14484 5.7 20 03:23 12.09.2019
2042 Clouds 17 1018 72 14484 7.2 360 01:43 12.09.2019
2043 Clouds 18 1018 72 14484 7.2 360 01:23 12.09.2019
2044 Clouds 19 1016 68 14484 9.3 10 00:47 12.09.2019
2045 Clouds 20 1016 68 14484 9.3 10 00:28 12.09.2019
2046 Clouds 22 1016 60 14484 8.7 330 23:43 11.09.2019
2047 Clouds 23 1016 60 14484 8.7 330 23:25 11.09.2019
2048 Clouds 24 1015 69 14484 5.7 320 22:58 11.09.2019
2049 Rain 24 1015 69 14484 5.1 330 22:38 11.09.2019
2050 Rain 23 1015 69 14484 5.1 330 22:20 11.09.2019
2051 Rain 24 1015 61 32767 8.7 280 21:58 11.09.2019
2052 Rain 24 1015 61 32767 8.7 280 21:40 11.09.2019
2053 Rain 24 1014 61 14484 7.7 260 21:22 11.09.2019
2054 Clear 25 1015 65 14484 6.2 260 20:56 11.09.2019
2055 Clear 25 1015 65 14484 6.2 260 20:37 11.09.2019
2056 Clear 25 1015 65 14484 6.2 260 20:18 11.09.2019
2057 Clouds 25 1016 69 24140 6.7 280 19:56 11.09.2019
2058 Clouds 24 1015 73 14484 7.2 270 19:37 11.09.2019
2059 Clouds 24 1015 73 14484 7.2 270 19:19 11.09.2019
2060 Clouds 23 1015 73 14484 5.7 260 18:43 11.09.2019
2061 Clouds 22 1015 78 14484 8.2 270 18:24 11.09.2019
2062 Clouds 22 1015 83 14484 7.2 270 17:59 11.09.2019
2063 Clouds 22 1015 83 14484 7.2 270 17:41 11.09.2019
2064 Clouds 21 1015 83 14484 7.2 270 17:21 11.09.2019
2065 Clouds 21 1015 88 14484 5.7 260 16:56 11.09.2019
2066 Clouds 21 1015 88 14484 5.7 260 16:56 11.09.2019
2067 Clouds 21 1015 88 14484 5.7 260 16:56 11.09.2019
2068 Mist 20 1015 88 14484 6.7 260 16:37 11.09.2019
2069 Mist 20 1015 88 14484 6.7 260 16:19 11.09.2019
2070 Mist 20 1016 94 9656 5.1 250 15:46 11.09.2019
2071 Mist 19 1016 94 9656 5.1 250 15:24 11.09.2019
2072 Mist 18 1015 100 6437 3.6 230 14:58 11.09.2019
2073 Mist 18 1015 100 6437 3.6 230 14:39 11.09.2019
2074 Mist 18 1015 100 6437 3.6 230 14:20 11.09.2019
2075 Mist 17 1015 100 6437 2.1 230 13:57 11.09.2019
2076 Mist 17 1015 100 6437 2.1 230 13:37 11.09.2019
2077 Mist 17 1015 100 6437 2.1 230 13:18 11.09.2019
2078 Mist 17 1015 100 4828 1 0 12:42 11.09.2019
2079 Mist 16 1015 100 4828 1 170 12:21 11.09.2019
2080 Rain 16 1015 100 4828 2.6 150 11:56 11.09.2019
2081 Rain 16 1015 100 4828 1 110 11:37 11.09.2019
2082 Rain 16 1015 100 4828 1 110 11:18 11.09.2019
2083 Rain 16 1015 100 4828 1 110 11:18 11.09.2019
2084 Rain 15 1015 100 4023 0.27 287.008 10:41 11.09.2019
2085 Mist 15 1015 100 6437 1 0 10:22 11.09.2019
2086 Mist 15 1015 93 4828 1 0 09:57 11.09.2019
2087 Rain 15 1015 93 4828 0.27 287.008 09:37 11.09.2019
2088 Rain 15 1015 93 4828 0.27 287.008 09:37 11.09.2019
2089 Rain 15 1015 93 4828 0.9 17.065 09:18 11.09.2019
2090 Rain 15 1015 93 4828 0.9 17.065 09:18 11.09.2019
2091 Rain 15 1015 93 4023 1.5 350 08:40 11.09.2019
2092 Mist 15 1016 93 6437 0.95 34.391 08:21 11.09.2019
2093 Mist 15 1016 100 6437 2.6 350 07:49 11.09.2019
2094 Mist 15 1016 100 4828 1 10 07:24 11.09.2019
2095 Mist 15 1017 100 8047 1 0 06:59 11.09.2019
2096 Mist 15 1017 93 8047 1 0 06:36 11.09.2019
2097 Rain 15 1017 100 9656 2 50.041 05:53 11.09.2019
2098 Mist 15 1018 93 9656 3.1 150 05:33 11.09.2019
2099 Mist 15 1018 93 9656 3.1 150 04:52 11.09.2019
2100 Rain 15 1019 100 9656 4.6 30 03:58 11.09.2019
2101 Rain 15 1020 93 16093 4.6 10 03:25 11.09.2019
2102 Rain 16 1019 93 14484 4.1 360 02:31 11.09.2019
2103 Rain 16 1020 93 14484 2.1 70 01:31 11.09.2019
2104 Rain 17 1021 93 14484 1.5 360 00:37 11.09.2019
2105 Rain 17 1021 93 14484 1.5 360 00:19 11.09.2019
2106 Rain 18 1021 72 14484 2.1 70 23:40 10.09.2019
2107 Rain 18 1022 68 14484 3.1 150 23:21 10.09.2019
2108 Rain 19 1022 68 14484 3.1 150 22:55 10.09.2019
2109 Rain 19 1022 68 14484 3.1 150 22:37 10.09.2019
2110 Rain 19 1022 68 14484 3.1 150 22:18 10.09.2019
2111 Rain 19 1022 63 14484 3.1 130 21:54 10.09.2019
2112 Rain 19 1023 63 14484 3.1 110 21:36 10.09.2019
2113 Rain 19 1023 63 14484 3.1 110 21:18 10.09.2019
2114 Clouds 19 1024 63 14484 2.6 120 20:55 10.09.2019
2115 Clouds 19 1024 63 14484 2.6 120 20:37 10.09.2019
2116 Clouds 19 1024 63 14484 2.6 120 20:18 10.09.2019
2117 Clouds 19 1025 59 14484 3.1 130 19:55 10.09.2019
2118 Clouds 19 1025 59 14484 3.1 130 19:55 10.09.2019
2119 Clouds 19 1025 59 14484 3.1 130 19:55 10.09.2019
2120 Clouds 19 1025 59 14484 3.1 130 19:36 10.09.2019
2121 Clouds 18 1025 59 14484 3.1 130 19:18 10.09.2019
2122 Clear 18 1026 59 14484 4.1 0 18:43 10.09.2019
2123 Clear 18 1026 59 14484 4.1 0 18:22 10.09.2019
2124 Clouds 17 1026 63 14484 1.5 0 17:57 10.09.2019
2125 Clouds 17 1026 63 14484 1.5 0 17:39 10.09.2019
2126 Clouds 16 1026 63 14484 1.5 0 17:19 10.09.2019
2127 Clouds 15 1028 71 14484 3.68 95.528 16:57 10.09.2019
2128 Clouds 15 1027 6 0 3.68 95.528 16:38 10.09.2019
2129 Clear 13 1028 93 14484 1 0 16:19 10.09.2019
2130 Clear 13 1028 93 14484 1 0 15:44 10.09.2019
2131 Clear 12 1028 93 14484 1 0 15:23 10.09.2019
2132 Clear 11 1028 93 14484 1 80 14:58 10.09.2019
2133 Clouds 10 1028 93 32767 2.1 30 14:39 10.09.2019
2134 Clouds 10 1028 93 32767 2.1 30 14:21 10.09.2019
2135 Mist 9 1028 100 9656 1.5 10 13:47 10.09.2019
2136 Mist 9 1028 100 9656 1.5 10 13:47 10.09.2019
2137 Mist 8 1028 100 8047 1.5 40 13:23 10.09.2019
2138 Mist 7 1028 100 9656 1.5 60 12:55 10.09.2019
2139 Clear 7 1028 93 14484 1 10 12:36 10.09.2019
2140 Clear 7 1028 93 14484 1 10 12:18 10.09.2019
2141 Mist 7 1028 100 4828 1 110 11:42 10.09.2019
2142 Mist 7 1028 100 4828 1 110 11:22 10.09.2019
2143 Clear 7 1027 93 14484 1.5 120 10:57 10.09.2019
2144 Clear 7 1027 93 14484 1.5 120 10:36 10.09.2019
2145 Clear 7 1027 93 14484 1.5 120 10:18 10.09.2019
2146 Clear 7 1028 100 14484 1 90 09:44 10.09.2019
2147 Clear 8 1028 100 14484 1 90 09:20 10.09.2019
2148 Clear 8 1027 93 14484 1 140 08:56 10.09.2019
2149 Clear 8 1027 93 14484 1 140 08:38 10.09.2019
2150 Clear 8 1027 93 14484 1 140 08:19 10.09.2019
2151 Clear 8 1027 93 14484 1 90 07:43 10.09.2019
2152 Clear 8 1027 93 14484 1 90 07:25 10.09.2019
2153 Clear 9 1027 87 14484 1.5 130 06:46 10.09.2019
2154 Clear 9 1027 87 14484 1.5 130 06:28 10.09.2019
2155 Clear 10 1027 76 14484 1 210 04:25 10.09.2019
2156 Clear 12 1027 62 14484 1.5 170 02:41 10.09.2019
2157 Clear 13 1027 62 14484 1.5 170 02:21 10.09.2019
2158 Clear 13 1027 62 14484 1.5 170 02:21 10.09.2019
2159 Clear 13 1026 51 14484 1.5 150 01:52 10.09.2019
2160 Clear 14 1026 51 14484 1.5 150 01:23 10.09.2019
2161 Clear 17 1025 48 14484 1 0 00:43 10.09.2019
2162 Clear 17 1025 48 14484 1 0 00:23 10.09.2019
2163 Clouds 18 1026 48 14484 3.1 240 23:41 09.09.2019
2164 Clouds 17 1026 48 14484 3.1 240 23:19 09.09.2019
2165 Clouds 18 1026 51 14484 3.1 0 22:55 09.09.2019
2166 Clouds 18 1026 51 14484 3.1 0 22:37 09.09.2019
2167 Clouds 17 1026 51 14484 3.1 0 22:19 09.09.2019
2168 Clouds 17 1026 55 14484 2.1 130 21:55 09.09.2019
2169 Clouds 17 1026 55 14484 2.1 130 21:37 09.09.2019
2170 Clouds 17 1026 55 14484 2.1 130 21:37 09.09.2019
2171 Clouds 17 1026 55 14484 2.1 130 21:18 09.09.2019
2172 Clouds 17 1026 59 14484 2.1 250 20:55 09.09.2019
2173 Clouds 17 1026 59 14484 2.1 250 20:36 09.09.2019
2174 Clouds 17 1026 59 14484 2.1 250 20:18 09.09.2019
2175 Clouds 16 1027 62 14484 2.6 250 19:56 09.09.2019
2176 Clouds 16 1027 62 14484 2.6 250 19:37 09.09.2019
2177 Clouds 16 1027 62 14484 2.6 250 19:19 09.09.2019
2178 Clouds 16 1027 62 14484 1 0 18:55 09.09.2019
2179 Clouds 15 1027 62 14484 1 0 18:37 09.09.2019
2180 Clouds 15 1027 67 14484 1 0 18:18 09.09.2019
2181 Clouds 15 1027 67 14484 1 0 17:56 09.09.2019
2182 Clouds 15 1027 67 14484 1 0 17:38 09.09.2019
2183 Clouds 15 1027 67 14484 1 0 17:20 09.09.2019
2184 Clouds 14 1027 66 14484 3.1 40 16:41 09.09.2019
2185 Clouds 14 1027 66 14484 3.1 40 16:21 09.09.2019
2186 Clouds 13 1027 71 14484 3.1 10 15:57 09.09.2019
2187 Clouds 13 1027 71 14484 3.1 10 15:57 09.09.2019
2188 Clouds 13 1027 71 14484 3.1 10 15:39 09.09.2019
2189 Clouds 12 1027 71 14484 3.1 10 15:21 09.09.2019
2190 Clouds 12 1026 76 14484 2.6 340 14:57 09.09.2019
2191 Clouds 12 1026 76 14484 2.6 340 14:57 09.09.2019
2192 Clouds 11 1026 76 14484 2.6 340 14:39 09.09.2019
2193 Clouds 10 1026 76 14484 2.6 340 14:21 09.09.2019
2194 -273 0 0 0 0 0 13:55 09.09.2019
2195 Clouds 9 1026 81 14484 2.6 330 13:36 09.09.2019
2196 Clouds 9 1026 81 14484 2.6 330 13:18 09.09.2019
2197 Clouds 9 1025 81 14484 2.1 300 12:42 09.09.2019
2198 Clouds 9 1025 81 14484 2.1 300 12:22 09.09.2019
2199 Clouds 9 1024 87 14484 1.5 290 11:59 09.09.2019
2200 Clouds 9 1024 87 14484 1.5 290 11:40 09.09.2019
2201 Clouds 8 1024 87 14484 1.5 290 11:18 09.09.2019
2202 Clouds 8 1024 87 14484 2.1 290 10:42 09.09.2019
2203 Clouds 8 1024 87 14484 2.1 290 10:24 09.09.2019
2204 Clouds 8 1024 87 14484 2.1 290 10:24 09.09.2019
2205 Clouds 9 1023 81 14484 2.6 300 09:59 09.09.2019
2206 Clouds 9 1023 81 14484 2.6 300 09:40 09.09.2019
2207 Clouds 9 1023 81 14484 2.6 300 09:21 09.09.2019
2208 Clear 9 1024 76 14484 2.1 290 08:55 09.09.2019
2209 Clear 9 1024 8 0 1.38 320.093 08:37 09.09.2019
2210 Clouds 9 1023 81 14484 2.1 300 08:18 09.09.2019
2211 Clouds 10 1023 81 14484 2.1 300 07:40 09.09.2019
2212 Clouds 10 1023 81 14484 2.1 300 07:20 09.09.2019
2213 Clouds 11 1022 76 14484 2.6 340 06:50 09.09.2019
2214 Clouds 11 1022 76 14484 2.6 340 06:27 09.09.2019
2215 Clouds 14 1020 67 14484 4.1 310 03:21 09.09.2019
2216 Clouds 14 1020 67 14484 4.1 310 02:41 09.09.2019
2217 Clouds 15 1019 63 14484 4.6 290 01:24 09.09.2019
2218 Clouds 15 1019 63 14484 4.6 290 01:24 09.09.2019
2219 Clouds 17 1019 63 32767 3.6 310 00:24 09.09.2019
2220 Rain 17 1018 67 24140 5.1 310 23:56 08.09.2019
2221 Rain 17 1018 52 14484 7.2 260 23:38 08.09.2019
2222 Rain 18 1018 52 14484 7.2 260 23:19 08.09.2019
2223 Rain 18 1017 55 14484 5.7 260 22:41 08.09.2019
2224 Rain 18 1017 55 14484 5.7 260 22:22 08.09.2019
2225 Clouds 18 1017 59 14484 4.6 270 21:58 08.09.2019
2226 Rain 18 1017 6 0 5.31 293.81 21:40 08.09.2019
2227 Clouds 17 1017 63 14484 4.1 270 21:22 08.09.2019
2228 Clouds 17 1017 63 14484 4.1 270 20:55 08.09.2019
2229 Clouds 17 1017 63 14484 4.1 270 20:37 08.09.2019
2230 Clouds 17 1017 63 14484 4.1 270 20:18 08.09.2019
2231 Clouds 17 1016 67 14484 4.6 260 19:39 08.09.2019
2232 Clouds 17 1016 67 14484 4.6 260 19:21 08.09.2019
2233 Clouds 17 1016 63 14484 4.1 330 18:59 08.09.2019
2234 Clouds 17 1016 63 14484 4.1 330 18:39 08.09.2019
2235 Clouds 16 1016 63 14484 4.1 330 18:20 08.09.2019
2236 Clouds 16 1016 72 14484 4.1 290 17:59 08.09.2019
2237 Clouds 16 1016 72 14484 4.1 290 17:37 08.09.2019
2238 Clouds 15 1016 72 14484 4.1 290 17:19 08.09.2019
2239 Clouds 15 1016 72 14484 4.1 290 17:19 08.09.2019
2240 Clouds 15 1016 72 14484 4.1 290 17:19 08.09.2019
2241 Clouds 15 1016 72 14484 4.1 290 17:19 08.09.2019
2242 Clouds 15 1016 76 14484 4.6 270 16:57 08.09.2019
2243 Clouds 15 1015 76 14484 3.6 320 16:39 08.09.2019
2244 Clouds 14 1015 76 14484 3.6 320 16:20 08.09.2019
2245 Clouds 14 1014 82 14484 2.1 300 15:42 08.09.2019
2246 Clouds 13 1014 82 14484 2.1 300 15:24 08.09.2019
2247 Clouds 13 1014 82 14484 1 0 14:59 08.09.2019
2248 Clouds 12 1014 87 14484 1 360 14:40 08.09.2019
2249 Clouds 12 1014 87 14484 1 360 14:40 08.09.2019
2250 Clouds 12 1014 87 14484 1 360 14:40 08.09.2019
2251 Clouds 12 1014 87 14484 1 360 14:40 08.09.2019
2252 Clouds 12 1014 87 14484 1 360 14:21 08.09.2019
2253 Mist 12 1013 93 9656 2.1 360 13:58 08.09.2019
2254 Mist 12 1013 93 9656 2.1 360 13:40 08.09.2019
2255 Mist 11 1013 93 9656 2.1 360 13:21 08.09.2019
2256 Mist 11 1013 93 9656 2.1 360 13:21 08.09.2019
2257 Mist 12 1013 100 8047 2.1 300 12:55 08.09.2019
2258 Mist 12 1012 100 8047 3.1 280 12:37 08.09.2019
2259 Mist 12 1012 100 8047 3.1 280 12:19 08.09.2019
2260 Mist 12 1012 100 8047 3.1 280 12:19 08.09.2019
2261 Clouds 12 1012 93 11265 3.1 280 11:56 08.09.2019
2262 Clouds 12 1011 93 14484 2.6 310 11:37 08.09.2019
2263 Clouds 12 1011 93 14484 2.6 310 11:19 08.09.2019
2264 Clouds 12 1010 98 0 4.49 284.723 10:42 08.09.2019
2265 Clouds 12 1009 93 14484 1.5 20 10:23 08.09.2019
2266 Clouds 12 1009 93 14484 1.5 20 09:56 08.09.2019
2267 Clouds 12 1009 93 14484 1.5 20 09:37 08.09.2019
2268 Clouds 13 1009 93 14484 1.5 20 09:19 08.09.2019
2269 Clouds 13 1009 93 14484 1 250 08:40 08.09.2019
2270 Clouds 13 1009 93 14484 1 250 08:19 08.09.2019
2271 Clouds 13 1009 87 14484 1 270 07:58 08.09.2019
2272 Rain 13 1009 93 14484 2.77 276.605 07:37 08.09.2019
2273 Rain 13 1009 93 14484 2.77 276.605 07:19 08.09.2019
2274 Rain 13 1009 93 14484 1.5 330 06:41 08.09.2019
2275 Rain 13 1008 93 9656 1.5 330 05:44 08.09.2019
2276 Rain 13 1008 93 9656 1.5 330 05:26 08.09.2019
2277 Clouds 13 1008 93 14484 2.1 360 03:24 08.09.2019
2278 Clouds 14 1008 93 14484 2.1 20 02:48 08.09.2019
2279 Rain 14 1008 93 8047 1.5 340 01:54 08.09.2019
2280 Rain 14 1008 93 8047 4.6 340 01:33 08.09.2019
2281 Rain 15 1008 100 4828 3.1 310 00:49 08.09.2019
2282 Rain 15 1008 100 9656 3.6 300 00:31 08.09.2019
2283 Rain 15 1007 82 11265 4.1 260 23:58 07.09.2019
2284 Rain 15 1007 82 11265 4.1 260 23:37 07.09.2019
2285 Rain 15 1007 82 11265 4.1 260 23:19 07.09.2019
2286 Rain 16 1006 68 14484 2.6 40 22:44 07.09.2019
2287 Rain 17 1007 93 12874 5.1 200 22:25 07.09.2019
2288 Rain 18 1007 82 24140 3.1 260 21:59 07.09.2019
2289 Rain 18 1007 59 14484 2.6 40 21:39 07.09.2019
2290 Rain 19 1007 59 14484 2.6 40 21:21 07.09.2019
2291 Clouds 19 1007 60 14484 3.6 30 20:41 07.09.2019
2292 Clouds 20 1007 60 14484 3.6 30 20:22 07.09.2019
2293 Clouds 20 1008 60 14484 2.6 40 19:57 07.09.2019
2294 Clouds 20 1008 60 14484 2.6 40 19:38 07.09.2019
2295 Clouds 20 1008 60 14484 2.6 40 19:20 07.09.2019
2296 Clouds 20 1008 59 14484 4.1 70 18:59 07.09.2019
2297 Clouds 19 1008 59 14484 4.1 70 18:40 07.09.2019
2298 Clouds 19 1008 59 14484 4.1 70 18:21 07.09.2019
2299 Clouds 19 1009 72 14484 3.1 50 17:59 07.09.2019
2300 Clouds 19 1009 72 14484 3.1 50 17:59 07.09.2019
2301 Clouds 19 1009 72 14484 3.1 50 17:39 07.09.2019
2302 Clouds 19 1009 72 14484 3.1 50 17:39 07.09.2019
2303 Clouds 19 1009 72 14484 3.1 50 17:19 07.09.2019
2304 Clouds 19 1009 72 14484 3.1 50 17:19 07.09.2019
2305 Clouds 19 1009 72 14484 3.1 30 16:58 07.09.2019
2306 Clouds 19 1009 72 14484 3.1 30 16:58 07.09.2019
2307 Clouds 19 1009 72 14484 3.1 30 16:58 07.09.2019
2308 Clouds 18 1009 72 14484 3.1 30 16:40 07.09.2019
2309 Clouds 18 1009 72 14484 3.1 30 16:19 07.09.2019
2310 Clouds 17 1010 82 14484 4.1 20 15:46 07.09.2019
2311 Clouds 16 1010 82 14484 4.1 20 15:26 07.09.2019
2312 Clouds 15 1010 87 14484 4.1 20 14:57 07.09.2019
2313 Clouds 15 1010 87 14484 4.1 20 14:37 07.09.2019
2314 Clouds 14 1010 87 14484 4.1 20 14:19 07.09.2019
2315 Clouds 13 1011 100 14484 2.6 340 13:57 07.09.2019
2316 Clouds 13 1011 100 14484 2.6 340 13:39 07.09.2019
2317 Clouds 13 1011 100 14484 2.6 340 13:20 07.09.2019
2318 Clouds 13 1010 93 14484 3.1 360 12:44 07.09.2019
2319 Clouds 13 1010 93 14484 3.1 360 12:25 07.09.2019
2320 Clouds 14 1010 93 14484 2.6 360 11:55 07.09.2019
2321 Clouds 14 1010 93 14484 2.6 360 11:36 07.09.2019
2322 Clouds 14 1010 93 14484 2.6 360 11:18 07.09.2019
2323 Rain 14 1010 93 14484 2.1 30 10:38 07.09.2019
2324 Rain 14 1010 93 14484 2.1 30 10:20 07.09.2019
2325 Clouds 15 1011 87 14484 2.1 360 09:43 07.09.2019
2326 Clouds 15 1011 87 14484 2.1 360 09:25 07.09.2019
2327 Clouds 15 1012 87 14484 1.5 290 08:59 07.09.2019
2328 Clouds 15 1012 87 14484 1.5 290 08:40 07.09.2019
2329 Clouds 15 1012 87 14484 1.5 290 08:22 07.09.2019
2330 Rain 15 1011 87 14484 2.1 10 07:45 07.09.2019
2331 Rain 16 1011 67 24140 3.6 30 07:26 07.09.2019
2332 Rain 16 1012 67 24140 4.1 40 06:47 07.09.2019
2333 Rain 16 1012 67 24140 4.1 40 06:20 07.09.2019
2334 Clouds 17 1013 67 14484 4.1 50 04:48 07.09.2019
2335 Clouds 17 1013 67 14484 4.1 50 04:20 07.09.2019
2336 Clouds 18 1013 72 14484 4.6 50 02:45 07.09.2019
2337 Clouds 18 1013 68 14484 5.1 40 01:46 07.09.2019
2338 Clouds 19 1013 68 14484 5.1 40 01:21 07.09.2019
2339 Clouds 20 1013 63 14484 4.6 40 00:40 07.09.2019
2340 Clouds 20 1013 63 14484 4.6 40 00:19 07.09.2019
2341 Clouds 21 1013 56 14484 6.2 50 23:40 06.09.2019
2342 Clouds 21 1013 56 14484 6.2 50 23:21 06.09.2019
2343 Clouds 21 1013 56 14484 6.2 50 23:21 06.09.2019
2344 Clouds 22 1014 49 14484 4.6 60 22:57 06.09.2019
2345 Clouds 22 1014 49 14484 4.6 60 22:38 06.09.2019
2346 Clouds 22 1014 49 14484 4.6 60 22:19 06.09.2019
2347 Clouds 22 1015 46 14484 5.1 110 21:57 06.09.2019
2348 Clouds 22 1015 46 14484 5.1 110 21:39 06.09.2019
2349 Clouds 22 1015 46 14484 5.1 110 21:20 06.09.2019
2350 Clouds 22 1015 46 14484 3.6 120 20:57 06.09.2019
2351 Clouds 22 1015 46 14484 3.6 120 20:38 06.09.2019
2352 Clouds 22 1015 46 14484 3.6 120 20:19 06.09.2019
2353 Clouds 21 1016 52 14484 3.6 70 19:55 06.09.2019
2354 Clouds 21 1016 52 14484 3.6 70 19:37 06.09.2019
2355 Clouds 21 1016 52 14484 3.6 70 19:18 06.09.2019
2356 Clouds 20 1017 68 14484 3.1 50 18:41 06.09.2019
2357 Clouds 20 1017 68 14484 3.1 50 18:23 06.09.2019
2358 Clouds 19 1018 77 14484 3.6 30 17:58 06.09.2019
2359 Clouds 19 1018 77 14484 3.6 30 17:58 06.09.2019
2360 Clouds 18 1018 77 14484 3.6 30 17:37 06.09.2019
2361 Clouds 18 1018 77 14484 3.6 30 17:19 06.09.2019
2362 Clouds 16 1018 87 14484 3.1 20 16:39 06.09.2019
2363 Clouds 15 1018 87 14484 3.1 20 16:19 06.09.2019
2364 Clouds 15 1018 93 14484 1.5 40 15:42 06.09.2019
2365 Clouds 14 1018 93 14484 1.5 40 15:24 06.09.2019
2366 Clouds 13 1018 87 32767 4.6 20 14:57 06.09.2019
2367 Clouds 13 1018 87 32767 4.6 20 14:39 06.09.2019
2368 Clouds 13 1018 87 32767 4.6 20 14:18 06.09.2019
2369 Clouds 12 1019 93 14484 1.5 50 13:42 06.09.2019
2370 Clouds 12 1019 93 14484 1.5 50 13:20 06.09.2019
2371 Clouds 11 1018 87 24140 3.6 10 12:38 06.09.2019
2372 Clouds 11 1018 100 14484 3.1 350 12:20 06.09.2019
2373 Clouds 11 1018 93 14484 1 0 11:55 06.09.2019
2374 Clouds 11 1018 93 14484 1 0 11:36 06.09.2019
2375 Clouds 11 1018 93 14484 1 0 11:18 06.09.2019
2376 Clouds 11 1018 87 24140 4.1 20 10:41 06.09.2019
2377 Clouds 11 1018 87 24140 4.1 20 10:22 06.09.2019
2378 Clear 11 1018 93 14484 1.5 130 09:58 06.09.2019
2379 Clear 11 1018 93 14484 1.5 130 09:37 06.09.2019
2380 Clear 11 1018 93 14484 1.5 130 09:18 06.09.2019
2381 Clear 11 1018 93 14484 1 0 08:44 06.09.2019
2382 Clear 11 1018 93 14484 1 0 08:26 06.09.2019
2383 Clear 11 1018 93 14484 2.1 100 07:49 06.09.2019
2384 Clouds 12 1018 81 14484 1.01 358.304 07:28 06.09.2019
2385 Clouds 12 1018 81 14484 1.01 358.304 06:58 06.09.2019
2386 Clouds 12 1018 81 14484 1.01 358.304 06:31 06.09.2019
2387 Clear 13 1018 76 14484 1 150 05:44 06.09.2019
2388 Clear 13 1018 63 14484 2.1 190 04:54 06.09.2019
2389 Clear 13 1018 63 14484 2.1 190 04:23 06.09.2019
2390 Clouds 16 1018 52 14484 4.1 270 02:40 06.09.2019
2391 Clouds 19 1018 49 14484 4.1 250 00:57 06.09.2019
2392 Clouds 20 1018 49 14484 4.1 250 00:20 06.09.2019
2393 Clouds 20 1018 49 14484 4.1 250 00:20 06.09.2019
2394 Clouds 20 1018 46 14484 5.7 260 23:41 05.09.2019
2395 Clouds 21 1018 46 14484 5.7 260 23:22 05.09.2019
2396 Clear 21 1018 46 14484 4.6 260 22:45 05.09.2019
2397 Clear 20 1018 45 14484 4.6 300 22:25 05.09.2019
2398 Clear 20 1018 45 14484 4.6 300 21:57 05.09.2019
2399 Clear 20 1018 45 14484 4.6 300 21:38 05.09.2019
2400 Clear 20 1018 45 14484 4.6 300 21:20 05.09.2019
2401 Clouds 20 1019 43 14484 6.7 270 20:58 05.09.2019
2402 Clouds 20 1019 43 14484 6.7 270 20:38 05.09.2019
2403 Clouds 20 1019 43 14484 6.7 270 20:20 05.09.2019
2404 Clouds 20 1019 55 14484 6.7 230 19:57 05.09.2019
2405 Clouds 20 1019 55 14484 6.7 230 19:39 05.09.2019
2406 Clouds 20 1019 55 14484 6.7 230 19:20 05.09.2019
2407 Clouds 19 1019 52 14484 5.1 230 18:43 05.09.2019
2408 Clouds 19 1019 52 14484 5.1 230 18:43 05.09.2019
2409 Clouds 19 1019 52 14484 5.1 230 18:25 05.09.2019
2410 Clouds 19 1019 55 14484 5.1 230 17:59 05.09.2019
2411 Clouds 18 1019 55 14484 5.1 230 17:39 05.09.2019
2412 Clouds 18 1019 55 14484 5.1 230 17:39 05.09.2019
2413 Clouds 18 1019 55 14484 5.1 230 17:21 05.09.2019
2414 Clear 18 1020 67 14484 3.1 230 16:57 05.09.2019
2415 Clear 17 1020 67 14484 3.1 230 16:39 05.09.2019
2416 Clear 17 1020 67 14484 3.1 230 16:18 05.09.2019
2417 Clear 16 1020 67 14484 2.1 240 15:40 05.09.2019
2418 Clear 15 1020 67 14484 2.1 240 15:19 05.09.2019
2419 Clear 15 1020 67 14484 2.1 240 15:19 05.09.2019
2420 Clear 14 1020 76 14484 1.5 250 14:57 05.09.2019
2421 Clear 13 1020 76 14484 1.5 250 14:38 05.09.2019
2422 Clear 13 1020 76 14484 1.5 250 14:19 05.09.2019
2423 Clear 11 1019 93 14484 1 230 13:43 05.09.2019
2424 Clear 10 1019 93 14484 1 230 13:21 05.09.2019
2425 Clear 10 1019 87 14484 1 300 12:46 05.09.2019
2426 Clear 10 1018 87 14484 2.1 310 12:27 05.09.2019
2427 Clear 11 1018 87 14484 2.1 310 11:58 05.09.2019
2428 Clear 11 1018 87 14484 2.1 310 11:40 05.09.2019
2429 Clear 11 1018 87 14484 2.1 310 11:19 05.09.2019
2430 Clear 11 1018 81 14484 3.1 300 10:42 05.09.2019
2431 Clear 11 1018 81 14484 3.1 300 10:23 05.09.2019
2432 Clear 11 1018 81 14484 2.6 320 09:58 05.09.2019
2433 Clear 12 1018 81 14484 2.6 320 09:40 05.09.2019
2434 Clear 12 1018 81 14484 2.6 320 09:18 05.09.2019
2435 Clouds 13 1018 67 14484 2.6 300 08:46 05.09.2019
2436 Clouds 13 1018 67 14484 2.6 300 08:46 05.09.2019
2437 Clouds 13 1018 67 14484 2.6 300 08:27 05.09.2019
2438 Clouds 13 1018 67 14484 2.6 300 08:27 05.09.2019
2439 Clouds 14 1018 67 14484 4.6 300 07:46 05.09.2019
2440 Clouds 14 1018 67 14484 4.6 300 07:28 05.09.2019
2441 Clouds 14 1017 67 14484 1.5 290 06:58 05.09.2019
2442 Clouds 14 1017 67 14484 1.5 290 06:32 05.09.2019
2443 Clouds 15 1017 67 14484 1.5 290 05:51 05.09.2019
2444 Clouds 15 1017 67 14484 1.5 290 05:32 05.09.2019
2445 Clouds 15 1016 71 14484 2.1 320 04:55 05.09.2019
2446 Clouds 15 1016 71 14484 2.1 320 04:29 05.09.2019
2447 Clouds 15 1016 62 24140 2.6 300 03:40 05.09.2019
2448 Clouds 16 1013 59 14484 8.2 310 02:54 05.09.2019
2449 Clouds 16 1013 59 14484 8.2 310 02:27 05.09.2019
2450 Clouds 17 1012 67 32767 9.3 300 01:41 05.09.2019
2451 Clouds 18 1009 59 14484 10.8 280 00:51 05.09.2019
2452 Clouds 19 1009 59 14484 10.8 280 00:23 05.09.2019
2453 Clouds 19 1007 60 14484 11.8 280 23:57 04.09.2019
2454 Clouds 20 1007 60 14484 11.8 280 23:39 04.09.2019
2455 Clouds 20 1007 60 14484 11.8 280 23:18 04.09.2019
2456 Clouds 20 1007 60 14484 11.8 280 23:18 04.09.2019
2457 Clouds 20 1007 60 14484 11.8 280 23:18 04.09.2019
2458 Clouds 21 1006 60 14484 12.9 270 22:47 04.09.2019
2459 Clouds 22 1006 60 14484 12.9 270 22:19 04.09.2019
2460 Clouds 23 1005 60 14484 11.3 250 21:41 04.09.2019
2461 Clouds 23 1005 60 14484 11.3 250 21:21 04.09.2019
2462 Clouds 23 1004 64 14484 9.3 270 20:59 04.09.2019
2463 Clouds 23 1004 64 14484 9.3 270 20:40 04.09.2019
2464 Clouds 23 1004 64 14484 9.3 270 20:20 04.09.2019
2465 Rain 23 1004 60 32767 10.8 260 19:59 04.09.2019
2466 Rain 23 1004 73 32767 8.2 250 19:39 04.09.2019
2467 Rain 22 1004 73 32767 8.2 250 19:20 04.09.2019
2468 Clouds 22 1004 83 24140 7.2 210 18:41 04.09.2019
2469 Clouds 21 1004 83 24140 7.2 210 18:23 04.09.2019
2470 Clouds 21 1004 83 24140 7.2 210 18:23 04.09.2019
2471 Clouds 21 1004 94 14484 6.2 200 17:56 04.09.2019
2472 Clouds 21 1004 94 14484 6.2 200 17:56 04.09.2019
2473 Rain 20 1004 100 14484 5.7 180 17:38 04.09.2019
2474 Rain 19 1004 100 14484 5.7 180 17:20 04.09.2019
2475 Rain 19 1004 93 14484 7.2 180 16:48 04.09.2019
2476 Rain 19 1004 100 14484 6.2 180 16:28 04.09.2019
2477 Rain 19 1005 88 14484 8.2 180 15:59 04.09.2019
2478 Clouds 19 1005 88 14484 6.2 180 15:39 04.09.2019
2479 Clouds 19 1005 88 14484 6.2 180 15:21 04.09.2019
2480 Clouds 19 1005 93 14484 6.7 170 14:58 04.09.2019
2481 Rain 19 1005 93 12874 8.7 170 14:38 04.09.2019
2482 Rain 19 1005 93 12874 8.7 170 14:38 04.09.2019
2483 Rain 18 1005 93 12874 8.7 170 14:20 04.09.2019
2484 Clouds 18 1005 88 24140 6.2 170 13:57 04.09.2019
2485 Rain 18 1005 93 8047 8.7 180 13:38 04.09.2019
2486 Rain 18 1005 93 8047 8.7 180 13:19 04.09.2019
2487 Thunderstorm 18 1006 93 9656 7.2 170 12:43 04.09.2019
2488 Thunderstorm 18 1006 93 9656 7.2 170 12:24 04.09.2019
2489 Thunderstorm 18 1005 88 11265 9.8 180 11:56 04.09.2019
2490 Thunderstorm 18 1005 88 11265 8.2 170 11:37 04.09.2019
2491 Thunderstorm 18 1005 88 11265 8.2 170 11:19 04.09.2019
2492 Rain 18 1006 88 14484 7.2 180 10:55 04.09.2019
2493 Rain 18 1006 88 24140 6.2 150 10:36 04.09.2019
2494 Rain 18 1006 88 24140 6.2 150 10:18 04.09.2019
2495 Rain 18 1007 72 14484 7.7 170 09:42 04.09.2019
2496 Rain 18 1007 72 14484 7.7 170 09:19 04.09.2019
2497 Clouds 17 1009 82 14484 4.6 180 08:42 04.09.2019
2498 Clouds 17 1009 82 14484 4.6 180 08:24 04.09.2019
2499 Rain 17 1011 77 14484 2.6 130 07:58 04.09.2019
2500 Clouds 16 1012 67 14484 3.1 120 07:35 04.09.2019
2501 Clouds 16 1012 67 14484 3.1 120 06:53 04.09.2019
2502 Clouds 16 1012 67 14484 3.1 120 06:32 04.09.2019
2503 Clouds 16 1015 67 14484 2.6 90 04:54 04.09.2019
2504 Clouds 16 1015 67 14484 2.6 90 04:22 04.09.2019
2505 Clouds 17 1016 63 14484 3.1 110 02:36 04.09.2019
2506 Clouds 17 1016 52 14484 3.1 100 00:58 04.09.2019
2507 Clouds 18 1016 52 14484 3.1 100 00:39 04.09.2019
2508 Clouds 18 1016 52 14484 3.1 100 00:18 04.09.2019
2509 Clouds 19 1017 48 14484 3.1 120 23:48 03.09.2019
2510 Clouds 19 1017 48 14484 3.1 120 23:26 03.09.2019
2511 Clear 19 1017 48 14484 2.1 150 22:41 03.09.2019
2512 Clear 20 1017 48 14484 2.1 150 22:23 03.09.2019
2513 Clouds 19 1018 48 14484 1.5 0 21:57 03.09.2019
2514 Clouds 19 1018 48 14484 1.5 0 21:57 03.09.2019
2515 Clouds 19 1018 48 14484 1.5 0 21:38 03.09.2019
2516 Clouds 19 1018 48 14484 1.5 0 21:20 03.09.2019
2517 Clear 19 1018 52 14484 2.1 0 20:56 03.09.2019
2518 Clear 19 1018 52 14484 2.1 0 20:37 03.09.2019
2519 Clear 19 1018 52 14484 2.1 0 20:19 03.09.2019
2520 Clear 18 1019 55 14484 2.6 360 19:43 03.09.2019
2521 Clear 18 1019 55 14484 2.6 360 19:20 03.09.2019
2522 Clear 18 1019 51 14484 2.1 20 18:59 03.09.2019
2523 Clear 18 1019 51 14484 2.1 20 18:59 03.09.2019
2524 Clear 18 1019 51 14484 2.1 20 18:40 03.09.2019
2525 Clear 17 1019 51 14484 2.1 20 18:20 03.09.2019
2526 Clear 17 1020 55 14484 2.6 50 17:56 03.09.2019
2527 Clear 17 1020 55 14484 2.6 50 17:38 03.09.2019
2528 Clear 16 1020 55 14484 2.6 50 17:18 03.09.2019
2529 Haze 16 1020 62 8047 2.6 30 16:43 03.09.2019
2530 Haze 16 1020 62 8047 2.6 30 16:22 03.09.2019
2531 Haze 16 1020 62 8047 2.6 30 16:22 03.09.2019
2532 Clear 15 1020 71 14484 4.6 20 15:56 03.09.2019
2533 Clear 15 1020 71 14484 4.6 20 15:37 03.09.2019
2534 Clear 14 1020 71 14484 4.6 20 15:19 03.09.2019
2535 Clear 14 1020 71 14484 4.6 20 15:19 03.09.2019
2536 Clear 13 1020 76 14484 4.6 10 14:56 03.09.2019
2537 Clear 13 1020 76 14484 4.6 10 14:37 03.09.2019
2538 Clear 13 1020 76 14484 4.6 10 14:18 03.09.2019
2539 Clear 13 1020 76 14484 4.6 10 14:18 03.09.2019
2540 Clear 12 1019 93 14484 3.1 10 13:55 03.09.2019
2541 Clear 12 1019 93 14484 3.1 10 13:55 03.09.2019
2542 Clear 12 1019 93 14484 3.1 10 13:37 03.09.2019
2543 Clear 12 1019 93 14484 3.1 10 13:18 03.09.2019
2544 Clear 12 1018 81 14484 3.6 20 12:46 03.09.2019
2545 Clear 12 1018 81 14484 3.6 20 12:28 03.09.2019
2546 Clouds 13 1017 87 14484 2.6 10 11:43 03.09.2019
2547 Clouds 13 1017 87 14484 2.6 10 11:25 03.09.2019
2548 Clouds 13 1017 87 14484 2.1 360 10:59 03.09.2019
2549 Clouds 13 1017 87 14484 2.1 360 10:40 03.09.2019
2550 Clouds 14 1017 87 14484 2.1 360 10:21 03.09.2019
2551 Clouds 14 1016 82 14484 3.1 30 09:50 03.09.2019
2552 Clouds 14 1016 82 14484 3.1 30 09:50 03.09.2019
2553 Clouds 14 1016 82 14484 3.1 30 09:32 03.09.2019
2554 Clouds 14 1016 82 14484 4.1 20 08:57 03.09.2019
2555 Rain 14 1016 76 14484 5.7 20 08:38 03.09.2019
2556 Rain 14 1016 76 14484 5.7 20 08:38 03.09.2019
2557 Rain 14 1016 76 14484 5.7 20 08:19 03.09.2019
2558 Rain 15 1016 82 14484 5.1 360 07:43 03.09.2019
2559 Rain 15 1016 82 14484 5.1 360 07:24 03.09.2019
2560 Rain 17 1015 77 14484 4.6 360 06:54 03.09.2019
2561 Rain 17 1015 77 14484 3.1 360 06:35 03.09.2019
2562 Clear 17 1014 88 14484 3.6 220 03:44 03.09.2019
2563 Clear 18 1013 82 14484 4.1 230 02:49 03.09.2019
2564 Clear 18 1013 82 14484 4.1 230 02:30 03.09.2019
2565 Clear 19 1013 77 14484 3.6 240 01:58 03.09.2019
2566 Clear 19 1013 77 14484 3.6 240 01:40 03.09.2019
2567 Clear 19 1013 77 14484 3.6 240 01:21 03.09.2019
2568 Clouds 20 1012 77 14484 5.7 250 00:28 03.09.2019
2569 Clear 21 1012 77 14484 5.7 230 23:56 02.09.2019
2570 Clear 21 1012 77 14484 5.7 230 23:36 02.09.2019
2571 Clear 21 1012 77 14484 5.7 230 23:36 02.09.2019
2572 Clear 21 1012 77 14484 5.7 230 23:18 02.09.2019
2573 Clear 21 1012 77 14484 5.7 230 23:18 02.09.2019
2574 Clear 21 1012 77 14484 5.7 230 23:18 02.09.2019
2575 Clear 21 1012 77 14484 5.7 230 23:18 02.09.2019
2576 Clouds 21 1012 88 14484 5.1 240 22:54 02.09.2019
2577 Clouds 21 1012 88 14484 5.1 240 22:54 02.09.2019
2578 Clouds 21 1012 88 14484 5.1 240 22:36 02.09.2019
2579 Clouds 20 1012 88 14484 5.1 240 22:18 02.09.2019
2580 Clouds 19 1012 100 14484 4.6 220 21:54 02.09.2019
2581 Clouds 18 1013 93 24140 4.6 240 21:36 02.09.2019
2582 Rain 18 1013 93 24140 4.6 240 21:18 02.09.2019
2583 Rain 18 1013 100 11265 3.6 210 20:41 02.09.2019
2584 Rain 18 1013 100 11265 3.6 210 20:22 02.09.2019
2585 Rain 18 1013 93 8047 3.1 210 19:57 02.09.2019
2586 Rain 18 1013 93 14484 2.6 230 19:39 02.09.2019
2587 Rain 18 1013 93 14484 2.6 230 19:39 02.09.2019
2588 Rain 18 1013 93 14484 2.6 230 19:21 02.09.2019
2589 Clouds 18 1013 93 14484 2.6 180 18:41 02.09.2019
2590 Clouds 18 1013 93 14484 2.6 180 18:23 02.09.2019
2591 Clouds 18 1013 100 14484 2.6 190 17:59 02.09.2019
2592 Rain 18 1013 100 14484 4.6 210 17:40 02.09.2019
2593 Rain 18 1013 100 14484 4.6 210 17:21 02.09.2019
2594 Clouds 17 1014 93 24140 2.6 210 16:59 02.09.2019
2595 Rain 17 1014 100 14484 3.6 190 16:38 02.09.2019
2596 Rain 17 1014 100 14484 3.6 190 16:20 02.09.2019
2597 Rain 17 1014 93 8047 4.6 180 15:45 02.09.2019
2598 Rain 17 1014 100 9656 4.1 190 15:27 02.09.2019
2599 Rain 17 1014 100 2816 4.6 190 14:57 02.09.2019
2600 Rain 17 1014 100 9656 4.6 180 14:39 02.09.2019
2601 Rain 17 1014 100 9656 4.6 180 14:21 02.09.2019
2602 Rain 17 1014 93 16093 3.6 170 13:56 02.09.2019
2603 Rain 17 1014 93 8047 3.1 180 13:37 02.09.2019
2604 Rain 17 1014 93 8047 3.1 180 13:18 02.09.2019
2605 Rain 16 1015 93 4828 4.1 180 12:45 02.09.2019
2606 Rain 16 1015 93 4023 4.6 190 12:25 02.09.2019
2607 Rain 16 1015 93 6437 4.6 170 11:58 02.09.2019
2608 Rain 16 1015 100 8047 3.1 160 11:39 02.09.2019
2609 Rain 16 1015 100 8047 3.1 160 11:21 02.09.2019
2610 Rain 16 1016 100 6437 4.1 160 10:57 02.09.2019
2611 Rain 16 1016 100 4828 3.6 160 10:38 02.09.2019
2612 Rain 16 1016 100 4828 3.6 160 10:19 02.09.2019
2613 Rain 16 1017 100 8047 4.1 150 09:46 02.09.2019
2614 Rain 16 1018 100 11265 4.6 150 09:22 02.09.2019
2615 Rain 16 1019 93 9656 3.1 170 08:45 02.09.2019
2616 Rain 16 1019 93 9656 3.1 170 08:24 02.09.2019
2617 Rain 16 1019 93 8047 3.6 180 07:59 02.09.2019
2618 Rain 16 1020 87 11265 3.6 190 07:40 02.09.2019
2619 Rain 16 1020 87 11265 3.6 190 07:21 02.09.2019
2620 Rain 16 1020 82 14484 4.1 180 06:45 02.09.2019
2621 Rain 17 1020 82 14484 4.1 180 06:25 02.09.2019
2622 Rain 18 1019 82 32186 2.6 180 05:48 02.09.2019
2623 Rain 18 1020 68 14484 5.1 180 05:18 02.09.2019
2624 Rain 19 1020 63 14484 4.1 190 04:18 02.09.2019
2625 Clouds 20 1022 60 14484 2.6 170 01:46 02.09.2019
2626 Clear 21 1022 53 14484 5.1 160 00:49 02.09.2019
2627 Clear 22 1022 53 14484 5.1 160 00:30 02.09.2019
2628 Clear 23 1023 53 14484 3.6 190 23:45 01.09.2019
2629 Clear 23 1023 53 14484 3.6 190 23:23 01.09.2019
2630 Clear 23 1024 49 14484 4.1 180 22:59 01.09.2019
2631 Clear 23 1024 49 14484 4.1 180 22:40 01.09.2019
2632 Clear 23 1024 49 14484 4.1 180 22:19 01.09.2019
2633 Clear 23 1025 46 14484 5.7 190 21:57 01.09.2019
2634 Clear 23 1025 46 14484 5.7 190 21:38 01.09.2019
2635 Clear 23 1025 46 14484 5.7 190 21:20 01.09.2019
2636 Clouds 23 1025 46 14484 3.1 140 20:57 01.09.2019
2637 Clouds 22 1025 46 14484 3.1 140 20:38 01.09.2019
2638 Clouds 22 1025 46 14484 3.1 140 20:18 01.09.2019
2639 Clouds 22 1027 52 14484 3.1 160 19:57 01.09.2019
2640 Clouds 22 1027 52 14484 3.1 160 19:37 01.09.2019
2641 Clouds 22 1027 52 14484 3.1 160 19:19 01.09.2019
2642 Clouds 21 1027 52 14484 5.7 170 18:43 01.09.2019
2643 Clouds 20 1027 52 14484 5.7 170 18:25 01.09.2019
2644 Clear 20 1028 59 14484 3.6 200 17:55 01.09.2019
2645 Clear 20 1028 59 14484 3.6 200 17:55 01.09.2019
2646 Clear 19 1028 59 14484 3.6 200 17:37 01.09.2019
2647 Clear 19 1028 59 14484 3.6 200 17:19 01.09.2019
2648 Clear 19 1028 59 14484 3.6 200 17:19 01.09.2019
2649 Clear 18 1028 63 14484 3.6 100 16:41 01.09.2019
2650 Clear 18 1028 63 14484 3.6 100 16:19 01.09.2019
2651 Clear 17 1029 72 14484 1.5 40 15:49 01.09.2019
2652 Clear 16 1029 72 14484 1.5 40 15:31 01.09.2019
2653 Clouds 14 1029 93 14484 2.1 10 14:59 01.09.2019
2654 Clouds 13 1029 93 14484 2.1 10 14:40 01.09.2019
2655 Clouds 12 1029 93 14484 2.1 10 14:21 01.09.2019
2656 Clouds 11 1028 93 14484 1.5 360 13:54 01.09.2019
2657 Clouds 11 1028 93 14484 1.5 360 13:54 01.09.2019
2658 Clouds 11 1028 93 14484 1.5 360 13:36 01.09.2019
2659 Clouds 10 1028 93 14484 1.5 360 13:18 01.09.2019
2660 Clouds 9 1028 100 14484 1.5 30 12:41 01.09.2019
2661 Clouds 9 1028 100 14484 1.5 30 12:23 01.09.2019
2662 Clear 9 1028 93 14484 1 30 11:41 01.09.2019
2663 Clear 9 1028 93 14484 1 30 11:41 01.09.2019
2664 Clear 9 1028 93 14484 1 30 11:20 01.09.2019
2665 Clouds 9 1028 93 14484 1.74 15.229 10:59 01.09.2019
2666 Clouds 9 1027 92 0 1.74 15.229 10:41 01.09.2019
2667 Clouds 9 1028 81 14484 1.74 15.229 10:23 01.09.2019
2668 Clouds 10 1028 81 14484 1.74 15.229 09:43 01.09.2019
2669 Clouds 10 1028 81 14484 1.39 25.037 09:25 01.09.2019
2670 Clear 10 1027 87 14484 1 30 08:45 01.09.2019
2671 Clear 11 1027 87 14484 1 30 08:24 01.09.2019
2672 Clear 12 1027 87 14484 1.5 30 07:56 01.09.2019
2673 Clouds 12 1020 87 0 0.45 300 07:38 01.09.2019
2674 Clouds 12 1020 87 0 0.45 300 07:38 01.09.2019
2675 Clear 12 1027 71 14484 3.6 350 06:59 01.09.2019
2676 Clear 12 1027 71 14484 3.6 350 06:34 01.09.2019
2677 Clear 13 1026 71 14484 2.1 300 05:57 01.09.2019
2678 Clear 13 1026 71 14484 2.1 300 05:57 01.09.2019
2679 Clear 14 1026 55 14484 2.1 290 04:32 01.09.2019
2680 Clear 15 1025 52 14484 2.1 290 03:43 01.09.2019
2681 Clear 16 1025 52 14484 3.1 290 02:58 01.09.2019
2682 Clear 17 1025 52 14484 3.1 290 02:28 01.09.2019
2683 Clear 18 1024 45 14484 4.1 300 01:51 01.09.2019
2684 Clear 19 1024 45 14484 4.1 300 01:24 01.09.2019
2685 Clouds 20 1024 46 14484 5.1 310 00:47 01.09.2019
2686 Clouds 21 1024 46 14484 5.1 310 00:23 01.09.2019
2687 Clouds 20 1024 46 14484 6.2 310 23:56 31.08.2019
2688 Clouds 21 1024 46 14484 6.2 310 23:38 31.08.2019
2689 Clouds 21 1024 46 14484 6.2 310 23:18 31.08.2019
2690 Clouds 21 1023 46 14484 4.6 300 22:44 31.08.2019
2691 Clouds 21 1023 46 14484 4.6 300 22:26 31.08.2019
2692 Clouds 21 1023 46 14484 5.7 320 21:58 31.08.2019
2693 Clouds 21 1023 46 14484 5.7 320 21:39 31.08.2019
2694 Clouds 21 1023 46 14484 5.7 320 21:20 31.08.2019
2695 Clouds 21 1023 43 14484 6.7 300 20:49 31.08.2019
2696 Clouds 21 1023 43 14484 6.7 300 20:31 31.08.2019
2697 Clouds 21 1022 46 14484 4.6 310 19:57 31.08.2019
2698 Clouds 21 1022 46 14484 4.6 310 19:39 31.08.2019
2699 Clouds 20 1022 46 14484 4.6 310 19:21 31.08.2019
2700 Clouds 20 1022 46 14484 4.6 310 19:21 31.08.2019
2701 Clouds 20 1022 52 14484 6.2 300 18:40 31.08.2019
2702 Clouds 20 1022 52 14484 6.2 300 18:21 31.08.2019
2703 Clouds 20 1022 56 14484 6.2 270 17:58 31.08.2019
2704 Clouds 19 1022 56 14484 6.2 270 17:37 31.08.2019
2705 Clouds 19 1022 56 14484 6.2 270 17:37 31.08.2019
2706 Clouds 19 1022 56 14484 6.2 270 17:19 31.08.2019
2707 Clear 19 1022 67 14484 3.6 230 16:59 31.08.2019
2708 Clear 19 1022 67 14484 3.6 230 16:40 31.08.2019
2709 Clear 18 1022 67 14484 3.6 230 16:21 31.08.2019
2710 Clouds 17 1022 67 14484 5.1 280 15:59 31.08.2019
2711 Clouds 17 1022 67 14484 5.1 280 15:38 31.08.2019
2712 Clouds 17 1022 67 14484 5.1 280 15:18 31.08.2019
2713 Clear 15 1021 67 14484 4.1 240 14:41 31.08.2019
2714 Clear 15 1021 67 14484 4.1 240 14:22 31.08.2019
2715 Clear 14 1020 77 14484 5.1 250 13:42 31.08.2019
2716 Clear 14 1020 77 14484 5.1 250 13:23 31.08.2019
2717 Clear 13 1020 71 14484 4.6 240 12:59 31.08.2019
2718 Clear 13 1020 71 14484 4.6 240 12:40 31.08.2019
2719 Clear 13 1020 71 14484 4.6 240 12:21 31.08.2019
2720 Clear 13 1019 67 14484 4.6 280 11:56 31.08.2019
2721 Clear 13 1019 67 14484 4.6 280 11:38 31.08.2019
2722 Clear 13 1019 67 14484 4.6 280 11:20 31.08.2019
2723 Clear 14 1018 63 14484 4.1 280 10:43 31.08.2019
2724 Clear 14 1018 63 14484 4.1 280 10:19 31.08.2019
2725 Clear 14 1018 67 14484 4.1 260 10:00 31.08.2019
2726 Clear 15 1018 67 14484 4.1 260 09:39 31.08.2019
2727 Clear 15 1018 67 14484 4.1 260 09:21 31.08.2019
2728 Clear 15 1018 63 14484 4.1 270 08:44 31.08.2019
2729 Clear 15 1018 63 14484 4.1 270 08:26 31.08.2019
2730 Clouds 16 1017 59 14484 3.6 290 07:42 31.08.2019
2731 Clouds 16 1017 59 14484 3.6 290 07:23 31.08.2019
2732 Clouds 16 1017 55 14484 3.1 270 06:56 31.08.2019
2733 Clouds 16 1017 55 14484 3.1 270 06:56 31.08.2019
2734 Clouds 17 1017 55 14484 3.1 270 06:21 31.08.2019
2735 Clouds 17 1016 52 14484 3.1 270 05:35 31.08.2019
2736 Clouds 18 1016 52 14484 3.1 280 04:45 31.08.2019
2737 Clouds 18 1016 52 14484 3.1 280 04:27 31.08.2019
2738 Clouds 18 1015 52 14484 2.6 280 03:42 31.08.2019
2739 Clouds 20 1014 46 14484 4.6 270 02:00 31.08.2019
2740 Clouds 20 1014 46 14484 4.6 270 01:41 31.08.2019
2741 Clouds 20 1014 46 14484 4.6 270 01:41 31.08.2019
2742 Clouds 20 1014 46 14484 4.6 270 01:22 31.08.2019
2743 Clouds 22 1013 43 14484 7.7 280 00:43 31.08.2019
2744 Clouds 22 1013 43 14484 7.7 280 00:43 31.08.2019
2745 Clouds 22 1013 43 14484 7.7 280 00:24 31.08.2019
2746 Clouds 23 1012 38 14484 7.2 270 23:48 30.08.2019
2747 Clouds 23 1012 38 14484 7.2 270 23:19 30.08.2019
2748 Clouds 23 1012 40 14484 7.7 270 22:56 30.08.2019
2749 Clouds 23 1012 40 14484 7.7 270 22:37 30.08.2019
2750 Clouds 23 1012 40 14484 7.7 270 22:19 30.08.2019
2751 Clouds 23 1011 44 14484 8.2 270 21:55 30.08.2019
2752 Clouds 23 1011 44 14484 8.2 270 21:36 30.08.2019
2753 Clouds 24 1011 44 14484 8.2 270 21:18 30.08.2019
2754 Clouds 23 1011 46 14484 11.8 250 20:42 30.08.2019
2755 Clouds 23 1011 46 14484 11.8 250 20:22 30.08.2019
2756 Clouds 23 1010 56 14484 10.3 260 19:59 30.08.2019
2757 Clouds 23 1010 56 14484 10.3 260 19:41 30.08.2019
2758 Clouds 23 1010 56 14484 10.3 260 19:22 30.08.2019
2759 Clouds 23 1010 60 14484 8.2 250 18:59 30.08.2019
2760 Clouds 22 1010 60 14484 8.2 250 18:41 30.08.2019
2761 Clouds 22 1010 60 14484 8.2 250 18:22 30.08.2019
2762 Clouds 21 1009 88 14484 4.1 210 17:56 30.08.2019
2763 Clouds 21 1009 88 14484 4.1 210 17:38 30.08.2019
2764 Clouds 21 1009 88 14484 4.1 210 17:18 30.08.2019
2765 Clouds 21 1009 88 14484 4.1 210 17:18 30.08.2019
2766 Clouds 19 1009 82 32767 3.6 260 16:46 30.08.2019
2767 Clouds 18 1009 88 14484 2.6 200 16:27 30.08.2019
2768 Clouds 18 1008 93 32186 1.5 250 15:57 30.08.2019
2769 Rain 17 1008 93 14484 5.1 190 15:37 30.08.2019
2770 Rain 17 1008 93 14484 5.1 190 15:37 30.08.2019
2771 Rain 17 1008 93 14484 5.1 190 15:19 30.08.2019
2772 Rain 16 1008 88 9656 5.7 190 14:42 30.08.2019
2773 Rain 16 1008 88 9656 5.7 190 14:24 30.08.2019
2774 -273 0 0 0 0 0 13:56 30.08.2019
2775 Rain 17 1008 87 24140 4.6 170 13:56 30.08.2019
2776 Rain 17 1008 82 14484 5.7 180 13:36 30.08.2019
2777 Rain 17 1008 82 14484 5.7 180 13:18 30.08.2019
2778 Clouds 17 1009 77 14484 4.1 170 12:42 30.08.2019
2779 Clouds 16 1009 77 14484 4.1 170 12:22 30.08.2019
2780 Clouds 16 1009 87 14484 2.1 170 11:43 30.08.2019
2781 Clouds 15 1009 87 14484 2.1 170 11:25 30.08.2019
2782 Clear 15 1009 87 14484 3.1 170 10:59 30.08.2019
2783 Clear 15 1009 87 14484 3.1 170 10:37 30.08.2019
2784 Clear 15 1009 87 14484 3.1 170 10:18 30.08.2019
2785 Clear 15 1010 87 14484 2.6 190 09:42 30.08.2019
2786 Clear 15 1010 87 14484 2.6 190 09:20 30.08.2019
2787 Clear 15 1010 82 14484 3.6 180 08:58 30.08.2019
2788 Clear 15 1010 78 0 2.61 216.554 08:39 30.08.2019
2789 Clear 16 1011 77 14484 4.1 200 08:21 30.08.2019
2790 Clear 16 1011 77 14484 4.1 200 07:43 30.08.2019
2791 Clear 16 1011 77 14484 4.1 200 07:23 30.08.2019
2792 Clear 17 1011 72 14484 5.7 220 06:47 30.08.2019
2793 Clear 17 1011 72 14484 5.7 220 06:29 30.08.2019
2794 Clear 17 1011 68 14484 7.2 230 05:54 30.08.2019
2795 Clear 17 1011 68 14484 7.2 230 05:54 30.08.2019
2796 Clear 18 1011 68 14484 5.7 230 04:20 30.08.2019
2797 Clear 19 1011 68 14484 5.1 240 03:46 30.08.2019
2798 Clouds 19 1011 64 14484 6.2 250 03:27 30.08.2019
2799 Clouds 20 1011 64 14484 6.2 250 02:32 30.08.2019
2800 Clouds 21 1010 60 14484 6.7 250 01:38 30.08.2019
2801 Clouds 22 1009 60 14484 7.2 260 00:45 30.08.2019
2802 Clouds 22 1009 60 14484 7.2 260 00:18 30.08.2019
2803 Clouds 23 1009 56 14484 5.1 240 23:41 29.08.2019
2804 Clouds 23 1009 56 14484 5.1 240 23:21 29.08.2019
2805 Clear 23 1009 56 14484 7.2 250 22:44 29.08.2019
2806 Clear 23 1010 53 14484 6.7 230 22:26 29.08.2019
2807 Clear 23 1010 53 14484 6.7 230 21:58 29.08.2019
2808 Clear 24 1010 53 14484 6.7 230 21:39 29.08.2019
2809 Clear 24 1010 53 14484 6.7 230 21:21 29.08.2019
2810 Clouds 24 1010 53 14484 6.2 240 20:56 29.08.2019
2811 Clouds 24 1010 53 14484 6.2 240 20:37 29.08.2019
2812 Clouds 24 1010 53 14484 6.2 240 20:37 29.08.2019
2813 Clouds 24 1010 57 14484 7.2 220 20:18 29.08.2019
2814 Clouds 24 1010 57 14484 7.2 220 19:46 29.08.2019
2815 Clouds 24 1010 57 14484 7.2 220 19:25 29.08.2019
2816 Clear 23 1010 56 14484 4.6 270 18:57 29.08.2019
2817 Clear 23 1010 56 14484 4.6 270 18:38 29.08.2019
2818 Clear 23 1010 60 14484 4.1 270 18:18 29.08.2019
2819 Clear 23 1010 60 14484 4.1 270 17:54 29.08.2019
2820 Clear 22 1010 60 14484 4.1 270 17:36 29.08.2019
2821 Clouds 22 1010 83 32767 1 0 17:18 29.08.2019
2822 Clear 21 1010 77 14484 4.1 250 16:41 29.08.2019
2823 Clear 21 1010 77 14484 4.1 250 16:22 29.08.2019
2824 Clouds 20 1010 88 14484 5.1 220 15:41 29.08.2019
2825 Clouds 19 1010 88 14484 5.1 220 15:21 29.08.2019
2826 Mist 18 1009 93 14484 4.6 220 14:58 29.08.2019
2827 Mist 18 1009 93 14484 4.6 220 14:39 29.08.2019
2828 Mist 18 1009 93 14484 4.6 220 14:20 29.08.2019
2829 Mist 18 1009 100 14484 3.1 210 13:56 29.08.2019
2830 Mist 17 1009 100 14484 2.1 180 13:37 29.08.2019
2831 Mist 17 1009 100 14484 2.1 180 13:18 29.08.2019
2832 Mist 17 1009 93 14484 2.1 200 12:56 29.08.2019
2833 Mist 17 1009 93 24140 3.1 220 12:37 29.08.2019
2834 Mist 17 1009 93 24140 3.1 220 12:19 29.08.2019
2835 Mist 17 1009 100 14484 3.1 200 11:42 29.08.2019
2836 Mist 17 1009 100 14484 3.1 200 11:21 29.08.2019
2837 Mist 17 1009 100 6437 2.1 260 10:57 29.08.2019
2838 Clouds 17 1008 93 14484 3.1 190 10:38 29.08.2019
2839 Clouds 17 1008 93 14484 3.1 190 10:38 29.08.2019
2840 Fog 18 1008 93 14484 3.1 190 10:19 29.08.2019
2841 Fog 18 1008 100 14484 2.6 180 09:41 29.08.2019
2842 Fog 18 1008 100 14484 2.6 180 09:19 29.08.2019
2843 Clouds 18 1008 93 14484 2.1 190 08:49 29.08.2019
2844 Clouds 18 1008 93 14484 2.1 190 08:31 29.08.2019
2845 Clouds 18 1009 100 14484 3.6 180 07:58 29.08.2019
2846 Clouds 18 1009 100 14484 3.6 180 07:37 29.08.2019
2847 Clouds 18 1009 100 14484 3.6 180 07:18 29.08.2019
2848 Clouds 18 1009 100 14484 3.6 180 06:40 29.08.2019
2849 Clouds 18 1009 100 14484 3.6 180 05:52 29.08.2019
2850 Clouds 19 1009 100 14484 3.1 190 05:32 29.08.2019
2851 Clouds 19 1009 100 16093 2.6 150 04:49 29.08.2019
2852 Clouds 19 1009 100 14484 3.1 160 04:28 29.08.2019
2853 Rain 19 1009 100 12874 3.1 160 02:18 29.08.2019
2854 Rain 20 1008 100 14484 3.6 130 01:40 29.08.2019
2855 Rain 20 1009 94 14484 3.1 170 00:48 29.08.2019
2856 Rain 20 1009 94 14484 3.1 170 00:24 29.08.2019
2857 Rain 20 1009 94 9656 2.6 160 23:59 28.08.2019
2858 Rain 20 1009 100 8047 1 160 23:40 28.08.2019
2859 Rain 20 1009 100 8047 1 160 23:22 28.08.2019
2860 Rain 20 1009 100 8047 1 160 23:22 28.08.2019
2861 Rain 21 1009 100 9656 1.5 200 22:56 28.08.2019
2862 Rain 21 1004 80 0 1.28 86.768 22:38 28.08.2019
2863 Rain 21 1009 94 14484 4.1 180 22:18 28.08.2019
2864 Rain 21 1009 94 14484 4.1 180 22:18 28.08.2019
2865 Rain 21 1009 94 14484 4.1 180 21:46 28.08.2019
2866 Rain 20 1009 94 14484 4.1 180 21:26 28.08.2019
2867 Rain 20 1009 94 9656 2.6 180 20:59 28.08.2019
2868 Rain 20 1009 94 8047 3.1 170 20:40 28.08.2019
2869 Rain 20 1009 94 8047 3.1 170 20:22 28.08.2019
2870 Rain 20 1010 94 9656 3.1 190 19:44 28.08.2019
2871 Rain 19 1010 94 9656 3.1 190 19:22 28.08.2019
2872 Rain 20 1010 100 4023 1 0 18:59 28.08.2019
2873 Rain 20 1010 78 14484 3.6 200 18:41 28.08.2019
2874 Rain 20 1010 78 14484 3.6 200 18:21 28.08.2019
2875 Rain 21 1010 73 14484 3.6 160 17:39 28.08.2019
2876 Rain 21 1010 73 14484 3.6 160 17:20 28.08.2019
2877 Rain 21 1010 73 24140 2.1 120 16:56 28.08.2019
2878 Rain 21 1010 73 24140 2.1 120 16:38 28.08.2019
2879 Rain 21 1010 73 24140 2.1 120 16:38 28.08.2019
2880 Rain 21 1010 73 24140 2.1 120 16:18 28.08.2019
2881 Rain 20 1011 73 14484 2.6 180 15:38 28.08.2019
2882 Rain 20 1011 73 14484 2.6 180 15:20 28.08.2019
2883 Rain 20 1011 73 14484 2.6 180 15:20 28.08.2019
2884 Clouds 20 1011 77 14484 3.6 150 14:58 28.08.2019
2885 Clouds 20 1011 77 14484 3.6 150 14:40 28.08.2019
2886 Clouds 20 1011 77 14484 3.6 150 14:21 28.08.2019
2887 Clouds 20 1011 77 14484 3.6 150 14:21 28.08.2019
2888 Clouds 20 1011 77 14484 2.1 150 13:59 28.08.2019
2889 Clouds 20 1011 77 14484 2.1 150 13:59 28.08.2019
2890 Clouds 19 1011 77 14484 2.1 150 13:39 28.08.2019
2891 Clouds 20 1011 77 14484 2.1 150 13:20 28.08.2019
2892 Clouds 19 1011 77 14484 2.1 120 12:43 28.08.2019
2893 Clouds 20 1011 77 14484 2.1 120 12:25 28.08.2019
2894 Clouds 20 1011 77 14484 1.5 160 11:59 28.08.2019
2895 Clouds 19 1011 77 14484 1.5 160 11:40 28.08.2019
2896 Clouds 19 1011 77 14484 1.5 160 11:21 28.08.2019
2897 Clouds 19 1012 77 14484 1.5 160 10:56 28.08.2019
2898 Clouds 19 1012 77 14484 1.5 160 10:38 28.08.2019
2899 Clouds 19 1012 77 14484 1.5 160 10:19 28.08.2019
2900 Clouds 19 1012 72 14484 3.1 190 09:42 28.08.2019
2901 Clouds 19 1012 72 14484 3.1 190 09:21 28.08.2019
2902 Clouds 19 1012 72 14484 3.1 190 08:57 28.08.2019
2903 Clouds 19 1012 72 14484 3.1 190 08:38 28.08.2019
2904 Clouds 19 1012 72 14484 3.1 190 08:19 28.08.2019
2905 Clouds 19 1012 68 14484 3.1 180 07:38 28.08.2019
2906 Clouds 19 1012 68 14484 3.1 180 07:20 28.08.2019
2907 Clouds 19 1012 68 14484 3.1 180 07:20 28.08.2019
2908 Clouds 20 1013 68 14484 3.1 190 06:49 28.08.2019
2909 Clear 20 1013 63 14484 3.1 180 05:59 28.08.2019
2910 Clear 20 1013 63 14484 3.1 180 05:24 28.08.2019
2911 Clouds 22 1012 53 14484 3.1 140 02:18 28.08.2019
2912 Clouds 23 1013 49 14484 3.1 150 01:30 28.08.2019
2913 Clouds 24 1013 44 14484 5.1 160 00:52 28.08.2019
2914 Clouds 24 1013 44 14484 5.1 160 00:33 28.08.2019
2915 Clear 25 1013 44 14484 5.1 170 23:58 27.08.2019
2916 Clouds 25 1007 38 0 4.19 129.772 23:38 27.08.2019
2917 Clouds 25 1013 41 14484 5.7 150 23:19 27.08.2019
2918 Clouds 26 1013 41 14484 5.7 150 22:41 27.08.2019
2919 Clouds 26 1013 41 14484 5.7 150 22:23 27.08.2019
2920 Clear 26 1014 47 14484 5.1 160 21:57 27.08.2019
2921 Clouds 26 1014 41 32767 4.1 140 21:38 27.08.2019
2922 Clear 26 1014 47 14484 5.1 160 21:20 27.08.2019
2923 Clear 25 1014 50 14484 7.2 140 20:58 27.08.2019
2924 Clear 25 1014 50 14484 7.2 140 20:39 27.08.2019
2925 Clear 25 1014 50 14484 7.2 140 20:19 27.08.2019
2926 Clear 25 1015 47 14484 6.2 180 19:44 27.08.2019
2927 Clear 25 1015 47 14484 6.2 180 19:26 27.08.2019
2928 Clear 24 1016 50 14484 5.7 140 18:57 27.08.2019
2929 Clear 24 1016 50 14484 5.7 140 18:39 27.08.2019
2930 Clear 24 1016 50 14484 5.7 140 18:18 27.08.2019
2931 Clear 23 1017 56 14484 3.1 140 17:55 27.08.2019
2932 Clear 23 1017 56 14484 3.1 140 17:37 27.08.2019
2933 Clear 22 1017 56 14484 3.1 140 17:18 27.08.2019
2934 Clear 22 1017 64 14484 3.1 170 16:42 27.08.2019
2935 Clear 21 1017 64 14484 3.1 170 16:23 27.08.2019
2936 Clear 20 1018 68 14484 4.1 170 15:55 27.08.2019
2937 Clear 20 1018 68 14484 4.1 170 15:37 27.08.2019
2938 Clear 19 1018 68 14484 4.1 170 15:19 27.08.2019
2939 Clear 17 1018 87 14484 3.1 180 14:42 27.08.2019
2940 Clear 16 1018 87 14484 3.1 180 14:23 27.08.2019
2941 Clear 15 1018 87 14484 1.79 77.731 13:43 27.08.2019
2942 Fog 14 1018 100 14484 1 0 13:25 27.08.2019
2943 Fog 13 1018 100 14484 1 0 12:59 27.08.2019
2944 Fog 13 1018 100 14484 1 0 12:39 27.08.2019
2945 Fog 13 1018 100 14484 1 0 12:20 27.08.2019
2946 Clear 13 1018 100 14484 1.13 73.866 11:47 27.08.2019
2947 Clear 13 1018 100 14484 1.13 73.866 11:27 27.08.2019
2948 Clear 13 1018 100 14484 1.13 73.866 10:56 27.08.2019
2949 Clear 13 1018 100 14484 1.13 73.866 10:38 27.08.2019
2950 Clear 13 1018 100 14484 1.13 73.866 10:18 27.08.2019
2951 Clear 13 1018 87 14484 1.5 90 09:41 27.08.2019
2952 Clear 14 1018 87 14484 1.5 90 09:21 27.08.2019
2953 Clear 14 1018 87 14484 1 100 08:59 27.08.2019
2954 Clear 14 1018 87 14484 1 100 08:59 27.08.2019
2955 Clear 14 1018 87 14484 1 100 08:40 27.08.2019
2956 Clear 14 1018 87 14484 1 100 08:22 27.08.2019
2957 Clear 14 1019 87 14484 0.85 96.445 07:41 27.08.2019
2958 Clear 14 1019 87 14484 0.85 96.445 07:20 27.08.2019
2959 Clear 14 1019 77 14484 0.85 96.445 06:54 27.08.2019
2960 Clear 15 1019 77 14484 0.85 96.445 06:28 27.08.2019
2961 Clear 16 1019 72 14484 1.5 40 05:52 27.08.2019
2962 Clear 16 1019 72 14484 1.5 40 05:20 27.08.2019
2963 Clear 18 1020 5 0 0.94 102.726 03:40 27.08.2019
2964 Clear 20 1020 60 14484 1.5 40 02:26 27.08.2019
2965 Clear 23 1020 41 14484 2.1 110 01:44 27.08.2019
2966 Clear 24 1020 41 14484 2.1 110 01:23 27.08.2019
2967 Clear 25 1020 38 14484 2.6 110 00:45 27.08.2019
2968 Clear 25 1020 38 14484 2.6 110 00:25 27.08.2019
2969 Clear 26 1021 31 14484 1 0 23:40 26.08.2019
2970 Clear 26 1021 31 14484 1 0 23:21 26.08.2019
2971 Clear 26 1021 39 14484 3.1 130 22:54 26.08.2019
2972 Clear 26 1021 39 14484 3.1 130 22:36 26.08.2019
2973 Clear 26 1021 39 14484 3.1 130 22:18 26.08.2019
2974 Clear 26 1021 39 14484 3.1 130 22:18 26.08.2019
2975 Clear 26 1022 36 14484 3.6 110 21:38 26.08.2019
2976 Clear 26 1022 36 14484 3.6 110 21:20 26.08.2019
2977 Clear 25 1023 41 14484 4.6 110 20:57 26.08.2019
2978 Clear 25 1023 41 14484 4.6 110 20:38 26.08.2019
2979 Haze 25 1023 39 8047 3.6 100 20:19 26.08.2019
2980 Haze 25 1023 39 8047 3.6 100 19:54 26.08.2019
2981 Clear 25 1023 41 14484 5.1 120 19:36 26.08.2019
2982 Clear 24 1024 53 14484 3.1 90 19:18 26.08.2019
2983 Clear 24 1024 53 14484 3.1 90 18:39 26.08.2019
2984 Clear 23 1025 64 14484 3.1 120 18:20 26.08.2019
2985 Clear 22 1025 64 14484 3.1 120 17:56 26.08.2019
2986 Clear 22 1025 64 14484 3.1 120 17:37 26.08.2019
2987 Clear 21 1025 68 14484 1.5 0 17:18 26.08.2019
2988 Clear 21 1025 68 14484 1.5 0 16:55 26.08.2019
2989 Clear 20 1025 68 14484 1.5 0 16:37 26.08.2019
2990 Clouds 20 1025 68 32767 2.6 40 16:18 26.08.2019
2991 Clear 18 1026 72 14484 1.5 50 15:41 26.08.2019
2992 Clear 18 1026 72 14484 1.5 50 15:21 26.08.2019
2993 Clouds 17 1026 77 32767 2.6 30 14:46 26.08.2019
2994 Clear 15 1026 82 14484 1.5 40 14:23 26.08.2019
2995 Clouds 15 1026 87 32767 2.6 30 13:59 26.08.2019
2996 Clear 14 1026 100 14484 1 0 13:38 26.08.2019
2997 Clear 13 1026 100 14484 1.5 10 13:19 26.08.2019
2998 Clear 12 1026 100 14484 1.5 10 12:43 26.08.2019
2999 Clear 12 1026 100 14484 1.5 10 12:43 26.08.2019
3000 Clear 12 1026 100 14484 1.5 10 12:25 26.08.2019
3001 Mist 12 1025 93 2816 1 50 11:56 26.08.2019
3002 Clear 12 1025 100 14484 2.3 36.196 11:36 26.08.2019
3003 Clear 12 1025 93 14484 1 0 11:18 26.08.2019
3004 Clear 12 1025 93 14484 1 0 10:42 26.08.2019
3005 Clear 13 1025 93 14484 1 0 10:21 26.08.2019
3006 Clear 13 1025 87 14484 2.3 36.196 09:57 26.08.2019
3007 Clear 13 1025 87 14484 2.22 50.109 09:38 26.08.2019
3008 Clear 14 1025 87 14484 1.87 51.87 09:19 26.08.2019
3009 Clear 14 1025 87 14484 1.87 51.87 08:42 26.08.2019
3010 Clear 14 1025 87 14484 1.87 51.87 08:23 26.08.2019
3011 Clear 14 1025 87 14484 1 0 07:59 26.08.2019
3012 Clear 14 1025 87 14484 1 0 07:40 26.08.2019
3013 Clear 15 1025 87 14484 1 0 07:21 26.08.2019
3014 Clear 15 1025 87 14484 1.5 20 06:42 26.08.2019
3015 Clear 16 1025 87 14484 1.5 20 06:22 26.08.2019
3016 Clear 16 1025 82 14484 2.6 20 05:49 26.08.2019
3017 Clear 17 1025 82 14484 3.6 30 04:28 26.08.2019
3018 Clear 19 1025 64 14484 1 360 02:55 26.08.2019
3019 Clear 23 1025 53 14484 1.5 80 01:39 26.08.2019
3020 Clear 23 1025 50 14484 2.6 150 01:18 26.08.2019
3021 Clear 24 1025 50 14484 2.6 150 00:29 26.08.2019
3022 Clear 24 1025 44 14484 2.6 90 23:59 25.08.2019
3023 Clear 25 1025 44 14484 2.6 90 23:40 25.08.2019
3024 Clouds 25 1025 44 14484 2.6 100 23:18 25.08.2019
3025 Clouds 25 1025 44 14484 2.6 100 23:18 25.08.2019
3026 Clouds 25 1025 44 14484 2.6 100 22:56 25.08.2019
3027 Clouds 25 1025 44 14484 2.6 100 22:38 25.08.2019
3028 Haze 25 1026 44 9656 3.1 0 22:19 25.08.2019
3029 Haze 25 1026 44 9656 3.1 0 21:56 25.08.2019
3030 Haze 24 1026 44 9656 3.1 0 21:37 25.08.2019
3031 Clear 25 1027 47 14484 3.6 140 21:18 25.08.2019
3032 Clear 24 1027 47 14484 3.6 140 20:40 25.08.2019
3033 Clear 24 1027 44 14484 4.6 100 20:20 25.08.2019
3034 Clear 24 1027 44 14484 4.6 100 19:56 25.08.2019
3035 Clear 24 1027 44 14484 4.6 100 19:38 25.08.2019
3036 Clear 24 1028 49 14484 3.6 20 19:18 25.08.2019
3037 Clear 23 1028 49 14484 3.6 20 18:57 25.08.2019
3038 Clear 23 1028 49 14484 3.6 20 18:39 25.08.2019
3039 Clear 22 1028 56 14484 2.1 70 18:19 25.08.2019
3040 Clear 21 1028 56 14484 2.1 70 17:42 25.08.2019
3041 Clear 21 1028 56 14484 2.1 70 17:24 25.08.2019
3042 Clear 20 1028 63 14484 2.1 50 16:45 25.08.2019
3043 Clear 19 1028 63 14484 2.1 50 16:25 25.08.2019
3044 Clear 18 1029 72 14484 2.6 50 15:59 25.08.2019
3045 Clear 17 1029 72 14484 2.6 50 15:41 25.08.2019
3046 Clear 16 1029 72 14484 2.6 50 15:23 25.08.2019
3047 Clear 15 1028 82 14484 2.1 20 14:42 25.08.2019
3048 Clear 14 1028 82 14484 2.1 20 14:24 25.08.2019
3049 Clear 13 1028 93 14484 2.6 10 13:56 25.08.2019
3050 Clear 13 1028 93 14484 2.6 10 13:37 25.08.2019
3051 Clear 12 1027 93 14484 3.1 10 13:18 25.08.2019
3052 Clear 11 1027 93 14484 3.1 10 12:42 25.08.2019
3053 Clear 11 1027 93 14484 3.1 10 12:24 25.08.2019
3054 Clear 11 1027 87 14484 2.6 360 11:58 25.08.2019
3055 Clear 11 1027 87 14484 2.6 360 11:38 25.08.2019
3056 Clear 11 1027 87 14484 2.6 360 11:20 25.08.2019
3057 Clear 11 1027 93 14484 3.1 360 10:56 25.08.2019
3058 Clear 11 1027 93 14484 3.1 360 10:37 25.08.2019
3059 Clear 12 1027 87 14484 1 10 10:19 25.08.2019
3060 Clear 12 1027 87 14484 1 10 09:43 25.08.2019
3061 Clear 12 1027 87 14484 1 10 09:24 25.08.2019
3062 Clear 12 1027 87 14484 1 0 08:47 25.08.2019
3063 Clear 12 1027 87 14484 1 0 08:29 25.08.2019
3064 Clear 12 1027 82 14484 1.5 350 07:55 25.08.2019
3065 Clear 12 1027 82 14484 1.5 350 07:33 25.08.2019
3066 Clear 13 1027 72 14484 2.77 29.886 06:39 25.08.2019
3067 Clear 14 1026 67 14484 2.1 90 05:27 25.08.2019
3068 Clear 16 1026 72 14484 3.1 70 03:48 25.08.2019
3069 Clear 18 1026 63 14484 2.1 30 02:44 25.08.2019
3070 Clear 19 1026 63 14484 2.1 30 02:20 25.08.2019
3071 Clear 21 1025 56 14484 2.1 30 00:58 25.08.2019
3072 Clear 22 1025 53 14484 1.5 0 00:24 25.08.2019
3073 Clear 22 1025 53 14484 1.5 0 23:59 24.08.2019
3074 Clear 22 1025 53 14484 1.5 0 23:40 24.08.2019
3075 Clear 22 1025 53 14484 1.5 0 23:22 24.08.2019
3076 Clouds 22 1025 49 14484 2.6 0 22:54 24.08.2019
3077 Clouds 23 1025 49 14484 2.6 0 22:36 24.08.2019
3078 Clouds 22 1025 56 14484 1.5 270 22:18 24.08.2019
3079 Clouds 22 1025 56 14484 1.5 270 21:42 24.08.2019
3080 Clouds 22 1025 56 14484 1.5 270 21:24 24.08.2019
3081 Clouds 21 1025 60 14484 1 0 20:59 24.08.2019
3082 Clouds 21 1025 60 14484 1 0 20:41 24.08.2019
3083 Clouds 21 1025 60 14484 1 0 20:20 24.08.2019
3084 Clouds 21 1025 63 14484 3.1 80 19:59 24.08.2019
3085 Clouds 20 1025 63 14484 3.1 80 19:40 24.08.2019
3086 Clouds 20 1025 63 14484 3.1 80 19:22 24.08.2019
3087 Clouds 20 1024 63 14484 3.6 30 18:56 24.08.2019
3088 Clouds 20 1024 63 14484 3.6 30 18:36 24.08.2019
3089 Clouds 19 1024 68 14484 3.1 20 18:18 24.08.2019
3090 Clouds 19 1024 68 14484 3.1 20 17:42 24.08.2019
3091 Clouds 19 1024 68 14484 3.1 20 17:23 24.08.2019
3092 Clouds 18 1024 67 14484 5.1 30 16:42 24.08.2019
3093 Clouds 18 1024 72 14484 2.6 350 16:19 24.08.2019
3094 Clouds 17 1024 72 14484 2.6 350 15:57 24.08.2019
3095 Clouds 17 1024 72 14484 2.6 350 15:38 24.08.2019
3096 Clouds 17 1023 77 14484 3.1 340 15:20 24.08.2019
3097 Clouds 16 1023 77 14484 3.1 340 14:42 24.08.2019
3098 Clouds 15 1023 77 14484 3.1 340 14:21 24.08.2019
3099 Clouds 15 1023 82 14484 1.5 20 13:56 24.08.2019
3100 Clouds 14 1023 82 14484 1.5 20 13:37 24.08.2019
3101 Clouds 14 1022 82 14484 2.6 310 13:18 24.08.2019
3102 Clouds 13 1022 82 14484 2.6 310 12:42 24.08.2019
3103 Clouds 13 1022 82 14484 2.6 310 12:24 24.08.2019
3104 Clouds 13 1022 82 14484 2.1 320 11:57 24.08.2019
3105 Clouds 12 1022 82 14484 2.1 320 11:38 24.08.2019
3106 Clear 12 1021 76 14484 2.1 320 11:19 24.08.2019
3107 Clear 12 1021 76 14484 2.1 320 10:44 24.08.2019
3108 Clear 12 1021 76 14484 2.1 320 10:23 24.08.2019
3109 Clouds 12 1020 76 14484 3.6 340 09:44 24.08.2019
3110 Clouds 13 1020 76 14484 3.6 340 09:20 24.08.2019
3111 Clouds 13 1020 67 14484 3.6 340 08:58 24.08.2019
3112 Clouds 14 1020 67 14484 3.6 340 08:39 24.08.2019
3113 Clouds 14 1020 67 14484 3.6 340 08:21 24.08.2019
3114 Clouds 14 1020 67 14484 4.1 340 07:47 24.08.2019
3115 Clouds 14 1020 67 14484 4.1 340 07:26 24.08.2019
3116 Clouds 15 1019 67 14484 4.6 350 06:28 24.08.2019
3117 Clouds 16 1019 59 14484 3.6 350 05:41 24.08.2019
3118 Clear 16 1018 59 14484 4.6 340 04:36 24.08.2019
3119 Clouds 17 1018 59 14484 4.1 340 03:36 24.08.2019
3120 Clouds 18 1018 48 14484 5.7 340 02:25 24.08.2019
3121 Clouds 19 1018 42 32767 5.7 300 01:31 24.08.2019
3122 Clouds 20 1017 40 14484 5.7 320 00:52 24.08.2019
3123 Clouds 21 1017 40 14484 5.7 320 00:25 24.08.2019
3124 Clouds 21 1016 37 14484 3.6 310 23:58 23.08.2019
3125 Clouds 22 1016 37 14484 3.6 310 23:37 23.08.2019
3126 Clouds 22 1016 35 14484 7.2 310 23:18 23.08.2019
3127 Clouds 22 1016 35 14484 7.2 310 22:42 23.08.2019
3128 Clouds 22 1016 35 14484 7.2 310 22:23 23.08.2019
3129 Clouds 22 1016 37 14484 6.7 290 21:40 23.08.2019
3130 Clouds 22 1016 37 14484 6.7 290 21:21 23.08.2019
3131 Clouds 22 1016 40 14484 6.7 300 20:57 23.08.2019
3132 Clouds 22 1016 40 14484 6.7 300 20:38 23.08.2019
3133 Clouds 22 1016 35 14484 7.7 320 20:19 23.08.2019
3134 Clouds 22 1016 35 14484 7.7 320 19:44 23.08.2019
3135 Clear 22 1016 40 14484 6.2 310 19:19 23.08.2019
3136 Clear 22 1016 40 14484 6.2 310 19:19 23.08.2019
3137 Clear 22 1016 40 14484 6.2 310 18:48 23.08.2019
3138 Clear 21 1016 40 14484 6.2 310 18:30 23.08.2019
3139 Clear 21 1016 49 14484 4.6 300 17:58 23.08.2019
3140 Clear 20 1016 49 14484 4.6 300 17:39 23.08.2019
3141 Clear 20 1016 49 14484 4.6 300 17:20 23.08.2019
3142 Clear 19 1016 55 14484 4.1 290 16:48 23.08.2019
3143 Clear 19 1016 55 14484 4.1 290 16:29 23.08.2019
3144 Clear 18 1016 63 14484 3.6 310 15:57 23.08.2019
3145 Clear 18 1016 63 14484 3.6 310 15:37 23.08.2019
3146 Clear 17 1016 67 14484 4.1 310 15:19 23.08.2019
3147 Clear 16 1016 67 14484 4.1 310 14:42 23.08.2019
3148 Clear 16 1016 67 14484 4.1 310 14:21 23.08.2019
3149 Clear 15 1015 77 14484 3.6 300 13:58 23.08.2019
3150 Clear 15 1015 77 14484 3.6 300 13:58 23.08.2019
3151 Clear 15 1015 77 14484 3.6 300 13:40 23.08.2019
3152 Clear 14 1015 77 14484 3.6 300 13:22 23.08.2019
3153 Clear 14 1014 77 14484 3.1 300 12:58 23.08.2019
3154 Clear 13 1014 77 14484 3.1 300 12:40 23.08.2019
3155 Clear 13 1014 77 14484 3.1 300 12:21 23.08.2019
3156 Clear 14 1013 77 14484 3.1 310 11:56 23.08.2019
3157 Clear 14 1013 77 14484 3.1 310 11:38 23.08.2019
3158 Clear 14 1013 77 14484 2.1 310 11:18 23.08.2019
3159 Clear 14 1013 77 14484 2.1 310 11:18 23.08.2019
3160 Clear 14 1013 77 14484 2.1 310 10:44 23.08.2019
3161 Clear 14 1013 77 14484 2.1 310 10:23 23.08.2019
3162 Clear 14 1013 77 14484 2.6 310 09:58 23.08.2019
3163 Clear 14 1013 77 14484 2.6 310 09:39 23.08.2019
3164 Clear 15 1013 67 14484 1.5 250 09:20 23.08.2019
3165 Clear 16 1013 67 14484 1.5 250 08:44 23.08.2019
3166 Clouds 16 1012 68 14484 2.1 290 08:20 23.08.2019
3167 Clouds 16 1012 68 14484 2.1 290 07:43 23.08.2019
3168 Clouds 16 1012 68 14484 2.1 290 07:24 23.08.2019
3169 Clear 16 1012 63 14484 2.6 320 06:59 23.08.2019
3170 Clear 16 1012 63 14484 2.6 320 06:40 23.08.2019
3171 Clear 17 1012 63 14484 2.6 320 06:21 23.08.2019
3172 Clear 17 1011 59 14484 3.6 320 05:43 23.08.2019
3173 Clear 18 1011 59 14484 3.6 320 05:22 23.08.2019
3174 Clouds 20 1010 46 14484 6.7 270 03:23 23.08.2019
3175 Clouds 21 1010 46 14484 6.7 270 02:24 23.08.2019
3176 Clear 22 1009 50 14484 8.2 260 01:52 23.08.2019
3177 Clouds 24 1009 44 14484 7.7 280 00:46 23.08.2019
3178 Clouds 24 1009 44 14484 7.7 280 00:22 23.08.2019
3179 Clouds 24 1009 39 14484 6.7 260 23:50 22.08.2019
3180 Clouds 24 1009 39 14484 6.7 260 23:32 22.08.2019
3181 Clouds 25 1009 44 14484 5.7 300 22:59 22.08.2019
3182 Clouds 25 1009 44 14484 5.7 300 22:41 22.08.2019
3183 Clouds 25 1009 44 14484 5.7 300 22:22 22.08.2019
3184 Haze 25 1009 47 9656 5.7 300 21:57 22.08.2019
3185 Clouds 25 1008 57 14484 7.7 220 21:39 22.08.2019
3186 Clouds 25 1008 57 14484 7.7 220 21:20 22.08.2019
3187 Clouds 25 1009 61 14484 7.7 220 20:57 22.08.2019
3188 Clouds 25 1009 61 14484 7.7 220 20:39 22.08.2019
3189 Clouds 24 1009 69 14484 7.2 230 20:19 22.08.2019
3190 Clouds 24 1009 69 14484 7.2 230 19:56 22.08.2019
3191 Clouds 24 1009 69 14484 7.2 230 19:55 22.08.2019
3192 Clouds 24 1009 69 14484 7.2 230 19:37 22.08.2019
3193 Clouds 24 1008 69 14484 8.2 210 19:19 22.08.2019
3194 Clouds 24 1008 69 14484 8.2 210 18:56 22.08.2019
3195 Clouds 24 1008 69 14484 8.2 210 18:37 22.08.2019
3196 Clouds 24 1008 73 14484 7.2 230 18:18 22.08.2019
3197 Clouds 24 1008 73 14484 7.2 230 17:42 22.08.2019
3198 Clouds 24 1008 69 32767 6.2 230 17:21 22.08.2019
3199 Clouds 24 1008 69 32767 6.2 230 17:21 22.08.2019
3200 Clouds 23 1008 73 14484 5.1 240 16:58 22.08.2019
3201 Clouds 23 1008 73 14484 5.1 240 16:39 22.08.2019
3202 Clouds 23 1008 73 14484 5.1 240 16:21 22.08.2019
3203 Clouds 23 1007 73 14484 4.6 270 15:58 22.08.2019
3204 Clouds 23 1007 78 14484 6.7 240 15:38 22.08.2019
3205 Clouds 23 1007 78 14484 6.7 240 15:38 22.08.2019
3206 Clouds 23 1007 78 14484 6.7 240 15:38 22.08.2019
3207 Clouds 23 1007 78 14484 6.7 240 15:38 22.08.2019
3208 Clouds 22 1007 78 14484 5.7 250 15:19 22.08.2019
3209 Clouds 22 1007 78 14484 5.7 250 15:19 22.08.2019
3210 Clouds 22 1007 78 14484 5.7 250 14:41 22.08.2019
3211 Clouds 22 1007 78 14484 5.7 250 14:22 22.08.2019
3212 Clouds 21 1007 94 14484 5.1 220 13:59 22.08.2019
3213 Clouds 21 1007 94 14484 5.1 220 13:41 22.08.2019
3214 Clouds 21 1007 94 14484 5.1 220 13:41 22.08.2019
3215 Clouds 21 1007 94 14484 5.1 220 13:22 22.08.2019
3216 Clouds 21 1007 94 14484 4.1 220 12:59 22.08.2019
3217 Rain 20 1006 94 14484 4.1 210 12:39 22.08.2019
3218 Clouds 21 1006 88 14484 4.1 210 12:20 22.08.2019
3219 Clouds 21 1006 88 14484 4.1 210 11:43 22.08.2019
3220 Clouds 21 1006 88 14484 4.1 210 11:22 22.08.2019
3221 Clouds 21 1006 94 14484 4.1 210 10:59 22.08.2019
3222 Clouds 21 1006 94 14484 4.1 210 10:41 22.08.2019
3223 Clouds 21 1006 94 14484 4.1 210 10:23 22.08.2019
3224 Clouds 21 1006 88 14484 4.1 210 10:00 22.08.2019
3225 Clouds 21 1006 88 14484 4.1 210 09:39 22.08.2019
3226 Clouds 21 1006 88 14484 4.1 210 09:21 22.08.2019
3227 Clouds 21 1006 94 14484 4.1 180 08:57 22.08.2019
3228 Clouds 21 1006 94 14484 4.1 180 08:38 22.08.2019
3229 Clouds 21 1006 83 24140 4.6 220 08:20 22.08.2019
3230 Clouds 21 1006 94 14484 4.6 180 07:41 22.08.2019
3231 Clouds 21 1006 100 14484 3.6 170 07:20 22.08.2019
3232 Clouds 21 1006 100 14484 3.6 170 06:55 22.08.2019
3233 Clouds 21 1006 100 14484 3.6 170 06:24 22.08.2019
3234 Clear 20 1006 100 14484 3.1 190 05:59 22.08.2019
3235 Clouds 21 1007 94 14484 3.6 180 04:39 22.08.2019
3236 Clear 21 1008 88 14484 3.6 170 02:52 22.08.2019
3237 Clear 21 1008 88 14484 3.6 170 02:34 22.08.2019
3238 Clear 23 1008 83 14484 4.1 170 01:25 22.08.2019
3239 Clouds 24 1009 83 14484 3.1 180 00:45 22.08.2019
3240 Clouds 24 1009 83 14484 3.1 180 00:27 22.08.2019
3241 Clouds 24 1009 83 14484 3.6 160 23:55 21.08.2019
3242 Clouds 24 1009 83 14484 3.6 160 23:37 21.08.2019
3243 Clouds 24 1009 88 14484 4.6 160 23:18 21.08.2019
3244 Clouds 24 1009 88 14484 4.6 160 22:55 21.08.2019
3245 Clouds 24 1009 88 14484 4.6 160 22:36 21.08.2019
3246 Clouds 23 1010 94 14484 3.1 170 22:18 21.08.2019
3247 Clouds 23 1010 94 14484 3.1 170 21:55 21.08.2019
3248 Clouds 23 1010 94 14484 3.1 170 21:55 21.08.2019
3249 Clouds 22 1011 94 14484 2.6 180 21:36 21.08.2019
3250 Rain 22 1011 94 14484 4.1 190 21:18 21.08.2019
3251 Rain 22 1011 88 24140 4.1 210 20:42 21.08.2019
3252 Rain 22 1011 88 24140 4.1 210 20:42 21.08.2019
3253 Clouds 21 1011 94 14484 4.1 180 20:23 21.08.2019
3254 Clouds 22 1010 94 14484 3.6 170 19:56 21.08.2019
3255 Clouds 22 1010 88 24140 3.6 170 19:38 21.08.2019
3256 Rain 21 1011 83 24140 2.1 210 19:19 21.08.2019
3257 Rain 21 1012 100 14484 2.6 190 18:43 21.08.2019
3258 Rain 21 1012 100 14484 2.6 190 18:23 21.08.2019
3259 Rain 20 1011 94 11265 2.1 170 17:57 21.08.2019
3260 Rain 20 1011 94 11265 2.1 170 17:38 21.08.2019
3261 Thunderstorm 20 1011 94 9656 2.1 160 17:20 21.08.2019
3262 Thunderstorm 21 1011 83 14484 1.5 140 16:45 21.08.2019
3263 Thunderstorm 21 1011 83 14484 1.5 140 16:24 21.08.2019
3264 Rain 21 1011 68 19312 4.6 150 15:59 21.08.2019
3265 Thunderstorm 21 1011 82 14484 3.1 80 15:41 21.08.2019
3266 Thunderstorm 21 1011 82 14484 3.1 80 15:41 21.08.2019
3267 Thunderstorm 21 1011 82 14484 3.1 80 15:22 21.08.2019
3268 Clouds 21 1012 73 14484 3.1 360 14:58 21.08.2019
3269 Clouds 21 1012 73 14484 3.1 360 14:39 21.08.2019
3270 Clouds 20 1012 73 14484 3.1 360 14:20 21.08.2019
3271 Clouds 20 1012 82 14484 2.6 150 13:56 21.08.2019
3272 Clouds 20 1012 82 14484 2.6 150 13:38 21.08.2019
3273 Clouds 20 1012 88 14484 2.6 150 13:19 21.08.2019
3274 Clouds 19 1012 88 14484 2.6 150 12:43 21.08.2019
3275 Clouds 19 1012 88 14484 2.6 150 12:25 21.08.2019
3276 Clouds 18 1012 88 14484 2.1 140 11:59 21.08.2019
3277 Clouds 18 1012 88 14484 2.1 140 11:41 21.08.2019
3278 Clouds 18 1012 88 14484 2.1 140 11:22 21.08.2019
3279 Clouds 18 1013 88 14484 3.1 160 10:57 21.08.2019
3280 Clouds 18 1013 88 14484 3.1 160 10:38 21.08.2019
3281 Clear 18 1013 82 14484 1 90 10:19 21.08.2019
3282 Clear 18 1013 82 14484 1 90 09:57 21.08.2019
3283 Clear 18 1013 82 14484 1 90 09:37 21.08.2019
3284 Clear 18 1013 82 14484 1 90 09:37 21.08.2019
3285 Clear 18 1014 72 14484 1.5 180 09:18 21.08.2019
3286 Clear 18 1014 72 14484 1.5 180 08:44 21.08.2019
3287 Clear 18 1014 72 14484 1.5 180 08:44 21.08.2019
3288 Clear 18 1014 72 14484 1.5 180 08:24 21.08.2019
3289 Clear 18 1014 68 14484 1.5 200 07:43 21.08.2019
3290 Clear 18 1014 68 14484 1.5 200 07:24 21.08.2019
3291 Clear 18 1014 68 14484 2.1 170 06:50 21.08.2019
3292 Clear 18 1014 68 14484 2.1 170 06:28 21.08.2019
3293 Clear 18 1015 64 14484 1.5 180 05:56 21.08.2019
3294 Clear 18 1015 64 14484 1.5 180 05:28 21.08.2019
3295 Clear 19 1015 64 14484 2.6 130 04:26 21.08.2019
3296 Clouds 24 1014 64 32767 1.5 210 01:55 21.08.2019
3297 Clouds 25 1014 64 32767 1.5 210 01:23 21.08.2019
3298 Clear 27 1015 44 14484 6.2 240 00:38 21.08.2019
3299 Clear 27 1016 42 14484 5.1 240 00:18 21.08.2019
3300 Clear 28 1016 42 14484 5.1 240 23:44 20.08.2019
3301 Clear 28 1016 39 14484 5.7 240 23:19 20.08.2019
3302 Clear 28 1016 39 14484 5.7 240 22:58 20.08.2019
3303 Clear 28 1016 39 14484 5.7 240 22:58 20.08.2019
3304 Clear 28 1016 39 14484 5.7 240 22:58 20.08.2019
3305 Clear 28 1016 39 14484 5.7 240 22:40 20.08.2019
3306 Clear 28 1016 39 14484 5.7 240 22:21 20.08.2019
3307 Clear 28 1016 39 14484 5.7 240 22:21 20.08.2019
3308 Clear 28 1016 37 14484 6.2 240 21:58 20.08.2019
3309 Clear 28 1016 37 14484 6.2 240 21:39 20.08.2019
3310 Clear 28 1017 37 14484 6.7 230 21:19 20.08.2019
3311 Clear 28 1017 37 14484 6.7 230 20:58 20.08.2019
3312 Clear 28 1017 37 14484 6.7 230 20:39 20.08.2019
3313 Clear 27 1017 37 14484 6.7 230 20:21 20.08.2019
3314 Clear 27 1017 39 14484 5.1 230 19:39 20.08.2019
3315 Clear 27 1017 39 14484 5.1 230 19:21 20.08.2019
3316 Clear 27 1018 36 14484 5.1 230 18:56 20.08.2019
3317 Clear 27 1018 36 14484 5.1 230 18:38 20.08.2019
3318 Clear 25 1018 47 14484 5.1 240 18:19 20.08.2019
3319 Clear 25 1018 47 14484 5.1 240 17:55 20.08.2019
3320 Clear 25 1018 47 14484 5.1 240 17:37 20.08.2019
3321 Clear 24 1018 47 14484 5.1 240 17:19 20.08.2019
3322 Clear 24 1018 47 14484 5.1 240 17:19 20.08.2019
3323 Clear 23 1018 60 14484 3.6 210 16:43 20.08.2019
3324 Clear 23 1018 60 14484 3.6 210 16:24 20.08.2019
3325 Clear 22 1018 64 14484 3.1 210 15:43 20.08.2019
3326 Clear 20 1018 64 14484 3.1 210 15:19 20.08.2019
3327 Clear 20 1018 77 14484 3.1 220 14:59 20.08.2019
3328 Clear 19 1018 77 14484 3.1 220 14:40 20.08.2019
3329 Clear 18 1018 77 14484 3.1 220 14:21 20.08.2019
3330 Clear 18 1018 77 14484 3.1 220 14:21 20.08.2019
3331 Clear 17 1018 100 14484 1.5 210 13:56 20.08.2019
3332 Clear 16 1018 100 14484 1.5 210 13:37 20.08.2019
3333 Clear 16 1018 100 14484 1.5 210 13:19 20.08.2019
3334 Clear 16 1017 100 14484 1.5 200 12:50 20.08.2019
3335 Clear 15 1017 100 14484 1.5 200 12:26 20.08.2019
3336 Clear 15 1017 100 14484 1.5 210 11:58 20.08.2019
3337 Clear 15 1017 100 14484 1.5 210 11:38 20.08.2019
3338 Clear 15 1017 100 14484 1.5 210 11:18 20.08.2019
3339 Clear 16 1017 82 14484 2.1 200 10:56 20.08.2019
3340 Clear 15 1017 82 14484 2.1 200 10:38 20.08.2019
3341 Clear 16 1017 82 14484 2.1 200 10:19 20.08.2019
3342 Clear 16 1016 77 14484 1 0 09:43 20.08.2019
3343 Clear 16 1016 77 14484 1 0 09:24 20.08.2019
3344 Clear 17 1016 67 14484 1 260 08:43 20.08.2019
3345 Clear 17 1016 67 14484 1 260 08:43 20.08.2019
3346 Clear 17 1016 67 14484 1 260 08:25 20.08.2019
3347 Clear 17 1016 67 14484 1 260 08:25 20.08.2019
3348 Clear 18 1015 56 14484 1.5 300 07:59 20.08.2019
3349 Clear 18 1015 56 14484 1.5 300 07:59 20.08.2019
3350 Clear 18 1015 56 14484 1.5 300 07:41 20.08.2019
3351 Clear 18 1015 56 14484 1.5 300 07:22 20.08.2019
3352 Clear 18 1015 46 14484 2.6 290 06:59 20.08.2019
3353 Clear 19 1015 46 14484 2.6 290 06:25 20.08.2019
3354 Clear 20 1014 43 14484 1 270 05:49 20.08.2019
3355 Clear 20 1014 43 14484 1 270 05:18 20.08.2019
3356 Clear 21 1012 36 14484 4.1 280 03:52 20.08.2019
3357 Clear 25 1011 32 14484 5.7 260 02:42 20.08.2019
3358 Clear 27 1010 48 14484 7.7 240 01:39 20.08.2019
3359 Clouds 28 1009 54 14484 7.2 240 00:57 20.08.2019
3360 Clouds 28 1009 54 14484 7.2 240 00:39 20.08.2019
3361 Clouds 28 1009 54 14484 7.2 240 00:19 20.08.2019
3362 Clear 29 1009 51 14484 12.3 240 23:40 19.08.2019
3363 Clear 29 1009 51 14484 12.3 240 23:18 19.08.2019
3364 Clouds 29 1009 54 14484 10.3 240 22:56 19.08.2019
3365 Clouds 29 1009 54 14484 10.3 240 22:38 19.08.2019
3366 Clouds 29 1009 54 14484 10.3 240 22:18 19.08.2019
3367 Clouds 29 1010 58 14484 10.8 210 21:56 19.08.2019
3368 Clouds 29 1010 58 14484 10.8 210 21:37 19.08.2019
3369 Clouds 29 1010 58 14484 10.8 210 21:18 19.08.2019
3370 Clouds 28 1010 61 14484 8.7 230 20:40 19.08.2019
3371 Clouds 28 1010 61 14484 8.7 230 20:40 19.08.2019
3372 Clouds 28 1010 61 14484 8.7 230 20:40 19.08.2019
3373 Clouds 28 1010 61 14484 8.7 230 20:20 19.08.2019
3374 Rain 28 1011 65 14484 8.7 240 19:59 19.08.2019
3375 Rain 27 1011 65 14484 8.7 240 19:40 19.08.2019
3376 Rain 27 1011 65 14484 8.7 240 19:19 19.08.2019
3377 Clouds 26 1011 73 14484 9.8 250 18:57 19.08.2019
3378 Clouds 26 1011 73 14484 9.8 250 18:39 19.08.2019
3379 Clouds 26 1011 73 14484 9.8 250 18:20 19.08.2019
3380 Clouds 25 1011 78 14484 7.7 240 17:54 19.08.2019
3381 Clouds 25 1011 78 14484 7.7 240 17:36 19.08.2019
3382 Clouds 25 1011 78 14484 7.7 240 17:18 19.08.2019
3383 Clouds 24 1011 83 14484 4.1 220 16:38 19.08.2019
3384 Clouds 23 1011 100 14484 3.1 200 16:20 19.08.2019
3385 Clouds 23 1011 100 14484 3.1 200 15:56 19.08.2019
3386 Clouds 23 1011 100 14484 3.1 200 15:37 19.08.2019
3387 Clouds 23 1011 94 14484 4.1 190 15:19 19.08.2019
3388 Rain 22 1011 94 11265 3.6 190 14:43 19.08.2019
3389 Rain 22 1011 94 11265 3.6 190 14:23 19.08.2019
3390 Rain 21 1011 94 14484 5.1 170 13:58 19.08.2019
3391 Rain 21 1010 88 24140 5.1 150 13:38 19.08.2019
3392 Clear 21 1010 94 12874 3.1 160 13:19 19.08.2019
3393 Clear 21 1010 94 12874 3.1 160 12:57 19.08.2019
3394 Clear 20 1010 94 12874 3.1 160 12:39 19.08.2019
3395 Clear 20 1011 100 14484 2.6 150 12:19 19.08.2019
3396 Clear 21 1011 100 14484 2.6 150 11:40 19.08.2019
3397 Clear 21 1011 100 14484 2.6 150 11:21 19.08.2019
3398 Clouds 21 1011 88 24140 1.5 240 10:58 19.08.2019
3399 Clouds 21 1011 88 24140 1.5 240 10:37 19.08.2019
3400 Clouds 21 1011 94 14484 1 0 10:18 19.08.2019
3401 Clouds 21 1011 94 14484 1 0 09:45 19.08.2019
3402 Clouds 21 1011 94 14484 1 0 09:24 19.08.2019
3403 Clouds 22 1011 88 14484 2.1 190 08:59 19.08.2019
3404 Clouds 22 1011 88 14484 2.1 190 08:41 19.08.2019
3405 Clouds 22 1011 88 14484 2.1 190 08:41 19.08.2019
3406 Clouds 22 1011 88 14484 2.1 190 08:20 19.08.2019
3407 Clear 22 1010 88 14484 2.6 180 07:50 19.08.2019
3408 Clear 22 1010 88 14484 2.6 180 07:31 19.08.2019
3409 Clear 22 1010 78 14484 2.6 130 06:58 19.08.2019
3410 Clear 22 1010 78 14484 2.6 130 06:36 19.08.2019
3411 Clouds 23 1011 78 14484 2.6 120 05:25 19.08.2019
3412 Clouds 24 1012 78 14484 1.5 130 04:32 19.08.2019
3413 Rain 24 1012 78 14484 1.5 170 03:24 19.08.2019
3414 Clouds 25 1012 73 14484 2.6 140 02:29 19.08.2019
3415 Clouds 25 1013 65 14484 3.1 170 01:36 19.08.2019
3416 Clouds 26 1013 61 14484 4.1 160 00:44 19.08.2019
3417 Clouds 27 1013 61 14484 3.6 150 00:23 19.08.2019
3418 Clouds 27 1013 61 14484 3.6 150 23:43 18.08.2019
3419 Clouds 27 1013 61 14484 3.6 150 23:22 18.08.2019
3420 Clouds 27 1014 61 14484 4.1 160 22:59 18.08.2019
3421 Clouds 27 1014 61 14484 4.1 160 22:39 18.08.2019
3422 Clouds 27 1014 61 14484 4.1 160 22:21 18.08.2019
3423 Clouds 27 1014 61 14484 3.6 160 21:56 18.08.2019
3424 Clouds 27 1014 61 14484 3.6 160 21:37 18.08.2019
3425 Clouds 26 1015 65 14484 3.6 180 21:19 18.08.2019
3426 Clouds 26 1015 65 14484 3.6 180 20:45 18.08.2019
3427 Clouds 26 1015 65 14484 3.6 180 20:26 18.08.2019
3428 Clouds 26 1014 61 14484 4.1 180 19:59 18.08.2019
3429 Clouds 26 1014 61 14484 4.1 180 19:40 18.08.2019
3430 Clouds 26 1014 61 14484 4.1 180 19:40 18.08.2019
3431 Clouds 25 1014 61 14484 4.1 180 19:22 18.08.2019
3432 Clear 25 1015 69 14484 4.1 170 18:56 18.08.2019
3433 Clear 25 1015 69 14484 4.1 170 18:38 18.08.2019
3434 Clouds 24 1015 73 14484 3.6 210 18:19 18.08.2019
3435 Clouds 23 1015 73 14484 3.6 210 17:43 18.08.2019
3436 Clouds 23 1016 78 14484 4.6 170 17:19 18.08.2019
3437 Clouds 23 1016 78 14484 4.6 170 17:19 18.08.2019
3438 Clouds 23 1016 78 14484 4.6 170 17:19 18.08.2019
3439 Clouds 23 1016 78 14484 4.6 170 16:59 18.08.2019
3440 Clouds 23 1016 78 14484 3.1 200 16:41 18.08.2019
3441 Clouds 23 1016 78 14484 3.1 200 16:20 18.08.2019
3442 Clouds 23 1016 78 14484 3.6 170 15:58 18.08.2019
3443 Clouds 22 1016 83 14484 4.1 170 15:39 18.08.2019
3444 Clouds 22 1015 83 14484 1.5 120 15:20 18.08.2019
3445 Clouds 22 1015 83 14484 1.5 120 15:20 18.08.2019
3446 Clouds 21 1015 83 14484 1.5 120 14:56 18.08.2019
3447 Clouds 21 1015 83 24140 1.5 360 14:37 18.08.2019
3448 Clouds 21 1015 88 14484 1 170 14:19 18.08.2019
3449 Clouds 21 1015 88 14484 1 170 13:55 18.08.2019
3450 Clouds 20 1015 94 14484 2.6 190 13:36 18.08.2019
3451 Mist 19 1015 100 9656 1 360 13:18 18.08.2019
3452 Mist 19 1015 94 14484 2.1 200 12:40 18.08.2019
3453 Clouds 19 1015 94 14484 2.1 200 12:22 18.08.2019
3454 Clouds 19 1015 94 14484 1.5 180 11:55 18.08.2019
3455 Clouds 19 1015 94 14484 1.5 180 11:36 18.08.2019
3456 Clouds 19 1014 94 14484 3.1 170 11:18 18.08.2019
3457 Clouds 19 1014 94 14484 3.1 170 10:41 18.08.2019
3458 Fog 19 1014 94 14484 3.1 170 10:21 18.08.2019
3459 Fog 19 1014 100 14484 1.5 190 09:51 18.08.2019
3460 Fog 19 1014 100 14484 1.5 190 09:23 18.08.2019
3461 Fog 19 1014 94 14484 1 230 08:55 18.08.2019
3462 Fog 19 1014 94 14484 1 230 08:37 18.08.2019
3463 Fog 20 1014 94 14484 2.1 220 08:18 18.08.2019
3464 Fog 20 1014 94 14484 2.1 220 07:44 18.08.2019
3465 Fog 20 1014 94 14484 2.1 220 07:25 18.08.2019
3466 Clouds 21 1013 88 14484 2.6 170 05:48 18.08.2019
3467 Clouds 21 1014 88 14484 2.6 130 04:53 18.08.2019
3468 Clouds 22 1013 73 14484 2.1 200 03:41 18.08.2019
3469 Clouds 23 1013 69 14484 2.6 230 02:46 18.08.2019
3470 Clouds 23 1013 69 14484 2.6 230 02:23 18.08.2019
3471 Clouds 24 1013 73 14484 3.6 220 01:44 18.08.2019
3472 Clouds 24 1013 73 14484 2.6 220 01:19 18.08.2019
3473 Clouds 24 1013 73 14484 2.6 220 00:38 18.08.2019
3474 Clouds 25 1013 69 14484 3.6 180 00:19 18.08.2019
3475 Clouds 25 1013 69 14484 3.6 180 23:57 17.08.2019
3476 Clouds 25 1013 69 14484 3.6 180 23:37 17.08.2019
3477 Clouds 25 1013 65 14484 4.1 170 23:18 17.08.2019
3478 Clouds 25 1013 65 14484 4.1 170 22:56 17.08.2019
3479 Clouds 25 1013 65 14484 4.1 170 22:37 17.08.2019
3480 Rain 26 1014 65 14484 5.1 180 22:18 17.08.2019
3481 Rain 26 1014 65 14484 5.1 180 21:41 17.08.2019
3482 Clouds 26 1014 74 14484 1.5 350 21:23 17.08.2019
3483 Clouds 26 1014 74 14484 1.5 350 20:41 17.08.2019
3484 Haze 25 1014 74 14484 1.5 350 20:21 17.08.2019
3485 Haze 25 1014 78 14484 1.5 340 19:59 17.08.2019
3486 Haze 25 1014 78 14484 1.5 340 19:41 17.08.2019
3487 Clouds 25 1014 78 14484 1.5 340 19:22 17.08.2019
3488 Clouds 25 1015 83 16093 2.6 360 18:54 17.08.2019
3489 Mist 25 1015 83 8047 1.5 90 18:36 17.08.2019
3490 Mist 23 1015 78 14484 2.6 340 18:18 17.08.2019
3491 Mist 23 1015 78 14484 2.6 340 18:18 17.08.2019
3492 Clouds 24 1015 83 24140 1 0 17:42 17.08.2019
3493 Mist 23 1015 78 14484 1.5 360 17:21 17.08.2019
3494 Mist 23 1015 83 24140 1.5 310 16:56 17.08.2019
3495 Mist 22 1015 83 16093 1.5 50 16:37 17.08.2019
3496 Clouds 22 1015 94 11265 1 0 16:18 17.08.2019
3497 Clouds 21 1015 94 11265 1 0 15:42 17.08.2019
3498 Clouds 21 1015 94 11265 1 0 15:42 17.08.2019
3499 Clouds 20 1015 94 11265 1 0 15:22 17.08.2019
3500 Clouds 20 1015 100 11265 2.1 30 14:58 17.08.2019
3501 Mist 19 1015 93 9656 3.6 40 14:39 17.08.2019
3502 Mist 19 1015 93 9656 3.6 40 14:21 17.08.2019
3503 Mist 19 1015 93 9656 3.6 40 14:21 17.08.2019
3504 Mist 19 1015 100 9656 2.6 350 13:44 17.08.2019
3505 Mist 18 1015 100 24140 2.6 350 13:19 17.08.2019
3506 Mist 18 1015 100 24140 2.6 350 12:44 17.08.2019
3507 Mist 18 1014 93 24140 3.1 20 12:20 17.08.2019
3508 Mist 18 1014 93 24140 3.1 20 11:58 17.08.2019
3509 Mist 18 1015 100 9656 2.1 360 11:39 17.08.2019
3510 Mist 19 1014 100 8047 2.6 20 11:20 17.08.2019
3511 Rain 19 1015 94 24140 2.6 360 10:42 17.08.2019
3512 Rain 19 1015 100 8047 2.1 40 10:21 17.08.2019
3513 Rain 19 1015 100 11265 1.5 100 09:59 17.08.2019
3514 Thunderstorm 19 1015 100 14484 2.1 10 09:40 17.08.2019
3515 Thunderstorm 19 1015 100 14484 2.1 10 09:21 17.08.2019
3516 Thunderstorm 19 1015 93 14484 1 0 08:51 17.08.2019
3517 Clouds 19 1015 93 14484 1 40 08:22 17.08.2019
3518 Clouds 19 1015 93 14484 1.5 10 07:44 17.08.2019
3519 Clouds 20 1015 93 14484 2.6 40 07:20 17.08.2019
3520 Clouds 20 1015 93 14484 2.6 40 06:34 17.08.2019
3521 Clouds 21 1015 88 14484 1.5 100 04:48 17.08.2019
3522 Clouds 21 1015 88 14484 1.5 100 04:23 17.08.2019
3523 Clouds 23 1015 78 14484 3.1 100 02:45 17.08.2019
3524 Clouds 24 1015 69 14484 3.1 130 01:40 17.08.2019
3525 Clouds 24 1015 64 14484 2.1 150 01:20 17.08.2019
3526 Clouds 24 1015 64 14484 2.1 150 00:48 17.08.2019
3527 Clouds 25 1015 64 14484 2.1 150 00:25 17.08.2019
3528 Clouds 25 1015 64 14484 2.6 180 23:47 16.08.2019
3529 Clouds 25 1015 64 14484 2.6 180 23:25 16.08.2019
3530 Clouds 25 1015 57 14484 3.1 160 22:44 16.08.2019
3531 Clouds 25 1016 57 14484 2.1 70 22:20 16.08.2019
3532 Clouds 25 1016 57 14484 2.1 70 21:59 16.08.2019
3533 Clouds 25 1016 57 14484 2.1 70 21:39 16.08.2019
3534 Clouds 25 1016 61 14484 3.1 110 21:19 16.08.2019
3535 Clouds 25 1016 61 14484 3.1 110 20:43 16.08.2019
3536 Clouds 24 1016 61 14484 3.1 110 20:22 16.08.2019
3537 Clouds 24 1016 64 12874 2.6 40 19:59 16.08.2019
3538 Clouds 24 1016 64 12874 2.6 40 19:40 16.08.2019
3539 Clouds 23 1017 64 14484 1.5 0 19:20 16.08.2019
3540 Clouds 23 1017 64 14484 1.5 0 18:42 16.08.2019
3541 Clouds 22 1017 64 14484 1.5 0 18:23 16.08.2019
3542 Clear 21 1017 68 14484 3.1 40 17:49 16.08.2019
3543 Clear 21 1017 68 14484 3.1 40 17:31 16.08.2019
3544 Clouds 20 1017 68 14484 2.1 60 16:59 16.08.2019
3545 Clouds 20 1017 68 14484 2.1 60 16:41 16.08.2019
3546 Clouds 19 1017 68 14484 2.1 60 16:21 16.08.2019
3547 Clear 18 1017 77 14484 3.1 100 15:56 16.08.2019
3548 Clear 18 1017 77 14484 3.1 100 15:38 16.08.2019
3549 Clouds 17 1017 82 24140 3.6 40 15:20 16.08.2019
3550 Clouds 17 1017 82 24140 3.6 40 14:57 16.08.2019
3551 Clouds 16 1017 93 14484 2.6 40 14:38 16.08.2019
3552 Clouds 16 1017 87 24140 2.6 10 14:18 16.08.2019
3553 Clouds 15 1016 100 14484 2.1 60 13:41 16.08.2019
3554 Clouds 15 1016 100 14484 2.1 60 13:22 16.08.2019
3555 Clouds 15 1016 100 14484 2.6 350 12:55 16.08.2019
3556 Clouds 15 1016 100 14484 2.6 350 12:37 16.08.2019
3557 Rain 15 1016 87 24140 4.6 40 12:18 16.08.2019
3558 Rain 15 1016 87 14484 2.6 330 11:41 16.08.2019
3559 Rain 15 1016 87 14484 2.6 330 11:23 16.08.2019
3560 Rain 15 1015 93 14484 3.6 330 10:43 16.08.2019
3561 Rain 16 1015 93 14484 3.6 330 10:22 16.08.2019
3562 Rain 16 1015 87 14484 1.5 50 09:55 16.08.2019
3563 Rain 16 1015 87 14484 1.5 50 09:37 16.08.2019
3564 Rain 16 1015 87 14484 2.1 40 09:18 16.08.2019
3565 Rain 16 1016 82 14484 2.85 34.025 08:40 16.08.2019
3566 Rain 17 1016 82 14484 2.85 34.025 08:20 16.08.2019
3567 Rain 17 1016 77 14484 3.6 230 07:52 16.08.2019
3568 Clouds 17 1016 77 14484 3.1 30 07:30 16.08.2019
3569 Clear 17 1016 72 14484 2.6 40 06:56 16.08.2019
3570 Clear 18 1016 67 14484 2.6 30 06:19 16.08.2019
3571 Clear 18 1016 67 14484 2.6 30 05:36 16.08.2019
3572 Clear 19 1017 67 14484 2.1 50 03:22 16.08.2019
3573 Clear 20 1016 59 14484 2.6 60 02:28 16.08.2019
3574 Clouds 23 1016 38 32767 3.6 90 01:29 16.08.2019
3575 Clear 23 1017 38 14484 4.1 70 00:57 16.08.2019
3576 Clear 23 1017 38 14484 4.1 70 00:39 16.08.2019
3577 Clear 24 1017 38 14484 2.1 100 00:20 16.08.2019
3578 Clear 24 1017 38 14484 2.1 100 23:42 15.08.2019
3579 Clear 24 1017 38 14484 2.1 100 23:21 15.08.2019
3580 Clouds 24 1017 40 14484 4.1 40 22:57 15.08.2019
3581 Clouds 24 1017 40 14484 4.1 40 22:39 15.08.2019
3582 Clouds 24 1017 40 14484 4.1 40 22:20 15.08.2019
3583 Clouds 24 1017 38 32767 2.1 160 21:54 15.08.2019
3584 Clouds 24 1017 38 32767 2.1 160 21:36 15.08.2019
3585 Clear 24 1018 41 14484 2.6 60 21:18 15.08.2019
3586 Clear 24 1018 41 14484 2.6 60 20:42 15.08.2019
3587 Clear 24 1018 41 14484 2.6 60 20:21 15.08.2019
3588 Clouds 23 1018 46 14484 3.6 40 19:57 15.08.2019
3589 Clouds 23 1018 46 14484 3.6 40 19:38 15.08.2019
3590 Clear 23 1019 43 14484 3.1 30 19:19 15.08.2019
3591 Clear 23 1019 43 14484 3.1 30 18:46 15.08.2019
3592 Clear 22 1019 43 14484 3.1 30 18:23 15.08.2019
3593 Clouds 22 1019 40 32767 2.6 60 17:57 15.08.2019
3594 Clear 21 1019 56 14484 1.5 80 17:37 15.08.2019
3595 Clear 21 1019 59 14484 2.6 50 17:19 15.08.2019
3596 Clear 20 1019 59 14484 2.6 50 16:48 15.08.2019
3597 Clear 20 1019 59 14484 2.6 50 16:27 15.08.2019
3598 Clear 19 1019 72 14484 2.6 40 15:59 15.08.2019
3599 Clear 19 1019 72 14484 2.6 40 15:38 15.08.2019
3600 Clear 17 1019 77 14484 2.1 40 15:19 15.08.2019
3601 Clear 16 1019 77 14484 2.1 40 14:43 15.08.2019
3602 Clear 15 1019 77 14484 2.1 40 14:24 15.08.2019
3603 Clear 14 1018 93 14484 1 30 13:59 15.08.2019
3604 Clear 14 1018 93 14484 1 30 13:59 15.08.2019
3605 Clear 14 1018 93 14484 1 30 13:41 15.08.2019
3606 Clear 13 1018 93 14484 1 30 13:21 15.08.2019
3607 Clear 11 1018 87 14484 1.5 20 12:59 15.08.2019
3608 Clear 11 1018 87 14484 1.5 20 12:39 15.08.2019
3609 Clear 11 1018 81 14484 2.1 10 12:20 15.08.2019
3610 Clear 11 1018 81 14484 2.1 10 11:57 15.08.2019
3611 Clear 12 1018 81 14484 2.1 10 11:37 15.08.2019
3612 Clear 12 1017 81 14484 2.1 10 11:18 15.08.2019
3613 Clear 12 1017 81 14484 2.1 10 10:57 15.08.2019
3614 Clear 13 1017 81 14484 2.1 10 10:36 15.08.2019
3615 Clear 13 1017 81 14484 2.6 10 10:18 15.08.2019
3616 Clear 13 1017 81 14484 2.6 10 09:42 15.08.2019
3617 Clear 13 1017 81 14484 2.6 10 09:22 15.08.2019
3618 Clouds 14 1017 76 14484 2.6 20 08:39 15.08.2019
3619 Clouds 14 1017 76 14484 2.6 20 08:21 15.08.2019
3620 Clouds 15 1017 76 14484 2.1 360 07:56 15.08.2019
3621 Clouds 15 1017 76 14484 2.1 360 07:38 15.08.2019
3622 Clouds 16 1017 76 14484 1.5 10 07:20 15.08.2019
3623 Clouds 16 1017 76 14484 1.5 10 06:47 15.08.2019
3624 Clouds 16 1017 76 14484 1.5 10 06:25 15.08.2019
3625 Clouds 17 1016 71 14484 3.1 10 05:30 15.08.2019
3626 Clouds 17 1016 67 14484 2.6 20 04:57 15.08.2019
3627 Clouds 19 1015 55 14484 4.6 10 03:53 15.08.2019
3628 Clouds 19 1014 68 14484 3.1 30 03:18 15.08.2019
3629 Clouds 20 1014 68 14484 3.1 30 02:26 15.08.2019
3630 Clouds 22 1014 56 14484 2.1 30 01:41 15.08.2019
3631 Clouds 23 1013 49 14484 2.6 60 00:56 15.08.2019
3632 Clouds 23 1013 49 14484 2.6 60 00:36 15.08.2019
3633 Clouds 23 1013 49 14484 2.6 50 00:18 15.08.2019
3634 Clouds 23 1013 49 14484 2.6 50 23:55 14.08.2019
3635 Clouds 24 1013 49 14484 2.6 50 23:36 14.08.2019
3636 Clouds 24 1013 44 14484 4.6 20 23:18 14.08.2019
3637 Clouds 24 1013 44 14484 4.6 20 22:41 14.08.2019
3638 Clouds 24 1013 44 14484 4.6 20 22:22 14.08.2019
3639 Clouds 24 1013 41 14484 4.1 20 21:57 14.08.2019
3640 Clouds 24 1013 41 14484 4.1 20 21:39 14.08.2019
3641 Clouds 23 1013 46 14484 3.6 20 21:20 14.08.2019
3642 Clouds 23 1013 46 14484 3.6 20 20:56 14.08.2019
3643 Clouds 23 1013 46 14484 3.6 20 20:37 14.08.2019
3644 Clear 23 1013 53 14484 4.1 40 20:18 14.08.2019
3645 Clear 22 1013 53 14484 4.1 40 19:40 14.08.2019
3646 Clouds 21 1014 56 14484 1.5 0 19:22 14.08.2019
3647 Clouds 21 1014 56 14484 1.5 0 18:59 14.08.2019
3648 Clouds 21 1014 56 14484 1.5 0 18:39 14.08.2019
3649 Clouds 21 1014 56 14484 1.5 0 18:21 14.08.2019
3650 Clouds 20 1014 59 14484 4.6 30 17:59 14.08.2019
3651 Clouds 20 1014 59 14484 4.6 30 17:39 14.08.2019
3652 Clouds 19 1014 59 14484 4.6 30 17:21 14.08.2019
3653 Clouds 18 1014 68 14484 4.1 20 16:56 14.08.2019
3654 Clouds 18 1014 68 14484 4.1 20 16:38 14.08.2019
3655 Clouds 17 1014 67 14484 5.7 20 16:19 14.08.2019
3656 Clouds 17 1014 67 14484 5.7 20 16:19 14.08.2019
3657 Clouds 17 1014 67 14484 5.7 20 15:43 14.08.2019
3658 Clouds 15 1013 72 14484 5.1 20 15:18 14.08.2019
3659 Clouds 15 1013 72 14484 5.1 20 14:56 14.08.2019
3660 Clouds 15 1013 72 14484 5.1 20 14:38 14.08.2019
3661 Clouds 14 1013 76 14484 3.6 20 14:18 14.08.2019
3662 Clouds 14 1013 76 14484 3.6 20 13:43 14.08.2019
3663 Clouds 14 1013 76 14484 3.6 20 13:24 14.08.2019
3664 Clouds 14 1012 76 14484 3.6 10 12:57 14.08.2019
3665 Clouds 14 1012 76 14484 3.6 10 12:39 14.08.2019
3666 Clouds 14 1012 76 14484 3.6 10 12:21 14.08.2019
3667 Clouds 14 1012 82 14484 2.6 360 11:56 14.08.2019
3668 Clouds 14 1012 82 14484 2.6 360 11:38 14.08.2019
3669 Clouds 14 1012 82 14484 2.6 360 11:38 14.08.2019
3670 Clouds 14 1012 82 14484 2.6 360 11:38 14.08.2019
3671 Clouds 14 1012 82 14484 2.6 360 11:38 14.08.2019
3672 Clouds 15 1012 76 14484 3.1 10 11:20 14.08.2019
3673 Clouds 15 1012 76 14484 3.1 10 10:45 14.08.2019
3674 Clouds 15 1012 76 14484 3.1 10 10:24 14.08.2019
3675 Clouds 15 1012 77 14484 3.1 10 09:57 14.08.2019
3676 Clouds 15 1012 77 14484 3.1 10 09:38 14.08.2019
3677 Clouds 16 1011 72 14484 3.1 40 09:19 14.08.2019
3678 Clouds 16 1011 72 14484 3.1 40 08:40 14.08.2019
3679 Clouds 17 1011 72 14484 3.1 40 08:21 14.08.2019
3680 Clouds 17 1012 63 14484 3.6 30 07:51 14.08.2019
3681 Clouds 17 1012 63 14484 3.6 30 07:32 14.08.2019
3682 Clouds 18 1011 67 14484 3.6 30 06:46 14.08.2019
3683 Clouds 18 1011 72 14484 3.6 40 05:54 14.08.2019
3684 Clouds 18 1011 72 14484 3.6 40 05:25 14.08.2019
3685 Clouds 20 1010 68 14484 3.6 40 03:38 14.08.2019
3686 Clouds 22 1009 72 14484 2.1 50 02:34 14.08.2019
3687 Clouds 24 1008 53 14484 3.1 60 01:49 14.08.2019
3688 Clouds 24 1008 56 14484 2.6 50 01:19 14.08.2019
3689 -273 0 0 0 0 0 23:55 13.08.2019
3690 Clouds 26 1007 44 14484 2.1 60 23:37 13.08.2019
3691 Clouds 26 1007 36 32767 4.6 350 23:18 13.08.2019
3692 Clouds 26 1007 47 14484 2.6 40 22:42 13.08.2019
3693 Clouds 26 1007 47 14484 2.6 40 22:24 13.08.2019
3694 Clouds 26 1007 39 14484 2.1 0 21:59 13.08.2019
3695 Clouds 26 1007 39 14484 2.1 0 21:39 13.08.2019
3696 Clouds 26 1008 39 32767 3.1 310 21:19 13.08.2019
3697 Clouds 26 1008 39 32767 3.1 310 20:57 13.08.2019
3698 Clear 26 1008 39 14484 4.6 340 20:38 13.08.2019
3699 Clear 25 1008 41 14484 4.1 320 20:18 13.08.2019
3700 Clear 25 1008 41 14484 4.1 320 19:54 13.08.2019
3701 Clear 25 1008 41 14484 4.1 320 19:36 13.08.2019
3702 Clouds 24 1008 53 14484 2.1 120 19:18 13.08.2019
3703 Clouds 24 1008 53 14484 2.1 120 18:41 13.08.2019
3704 Clouds 23 1008 53 14484 2.1 120 18:21 13.08.2019
3705 Clouds 23 1008 56 14484 3.6 40 17:43 13.08.2019
3706 Clouds 22 1008 56 14484 3.6 40 17:22 13.08.2019
3707 Clouds 21 1008 72 14484 2.1 30 16:58 13.08.2019
3708 Clouds 21 1008 72 14484 2.1 30 16:40 13.08.2019
3709 Clouds 21 1008 72 14484 2.1 30 16:21 13.08.2019
3710 Clouds 20 1008 77 14484 3.1 40 15:59 13.08.2019
3711 Clouds 20 1008 77 14484 3.1 40 15:38 13.08.2019
3712 Clouds 19 1008 88 14484 3.6 40 15:19 13.08.2019
3713 Clouds 19 1008 88 14484 3.6 40 14:43 13.08.2019
3714 Clouds 18 1008 88 14484 3.6 40 14:20 13.08.2019
3715 Mist 18 1008 100 9656 1.5 0 13:58 13.08.2019
3716 Mist 18 1008 100 9656 1.5 0 13:40 13.08.2019
3717 Mist 18 1008 100 9656 1.5 0 13:20 13.08.2019
3718 Mist 17 1008 93 8047 1 30 12:56 13.08.2019
3719 Mist 17 1007 100 9656 2.6 20 12:38 13.08.2019
3720 Mist 17 1008 93 12874 3.6 360 12:19 13.08.2019
3721 Mist 17 1007 100 4023 1 10 11:42 13.08.2019
3722 Mist 18 1007 100 4023 1 10 11:22 13.08.2019
3723 Fog 18 1007 100 402 2.1 290 10:57 13.08.2019
3724 Mist 18 1007 100 11265 1.95 250.19 10:38 13.08.2019
3725 Fog 18 1007 100 14484 2.6 220 10:19 13.08.2019
3726 Fog 18 1007 100 14484 2.6 220 09:46 13.08.2019
3727 Fog 18 1007 100 14484 2.6 220 09:25 13.08.2019
3728 Mist 18 1007 100 1207 2.1 260 08:57 13.08.2019
3729 Clear 18 1007 93 14484 2.1 250 08:39 13.08.2019
3730 Fog 19 1007 93 14484 2.1 250 08:20 13.08.2019
3731 Fog 19 1007 94 14484 5.1 230 07:45 13.08.2019
3732 Fog 19 1007 94 14484 5.1 230 07:23 13.08.2019
3733 Clouds 19 1007 88 14484 3.6 230 06:44 13.08.2019
3734 Clear 19 1007 88 14484 4.1 230 05:53 13.08.2019
3735 Clouds 19 1007 88 14484 5.7 230 05:20 13.08.2019
3736 Rain 20 1007 83 14484 4.1 220 02:22 13.08.2019
3737 Rain 20 1007 83 14484 5.7 210 01:38 13.08.2019
3738 Rain 23 1007 83 14484 3.1 280 00:49 13.08.2019
3739 Rain 24 1007 83 14484 3.1 280 00:22 13.08.2019
3740 Rain 25 1007 61 24140 2.6 220 23:43 12.08.2019
3741 Clouds 26 1007 57 14484 5.7 220 23:21 12.08.2019
3742 Clouds 26 1008 57 14484 6.2 210 22:55 12.08.2019
3743 Clouds 26 1008 57 14484 6.2 210 22:37 12.08.2019
3744 Clouds 26 1008 57 14484 5.7 240 22:18 12.08.2019
3745 Clouds 26 1008 57 14484 5.7 240 21:54 12.08.2019
3746 Clouds 26 1008 57 14484 5.7 240 21:36 12.08.2019
3747 Clouds 26 1009 57 14484 6.7 230 21:18 12.08.2019
3748 Clouds 25 1009 57 14484 6.7 230 20:41 12.08.2019
3749 Clouds 25 1009 61 14484 5.7 210 20:21 12.08.2019
3750 Clouds 26 1009 61 14484 5.7 210 19:58 12.08.2019
3751 Clouds 25 1009 61 14484 5.7 210 19:39 12.08.2019
3752 Clouds 25 1009 61 14484 5.7 210 19:21 12.08.2019
3753 Clouds 25 1010 64 14484 4.6 230 18:59 12.08.2019
3754 Clouds 24 1010 64 14484 4.6 230 18:39 12.08.2019
3755 Clouds 23 1011 82 32767 1.5 250 18:20 12.08.2019
3756 Clouds 23 1011 82 32767 1.5 250 17:55 12.08.2019
3757 Clouds 23 1011 73 14484 4.1 240 17:37 12.08.2019
3758 Rain 22 1011 82 14484 5.1 230 17:19 12.08.2019
3759 Rain 21 1011 82 14484 5.1 230 16:41 12.08.2019
3760 Rain 20 1011 82 14484 5.1 230 16:20 12.08.2019
3761 Rain 20 1011 82 14484 4.6 220 15:59 12.08.2019
3762 -273 0 0 0 0 0 15:41 12.08.2019
3763 Rain 19 1011 82 14484 4.6 220 15:22 12.08.2019
3764 Rain 19 1011 82 14484 3.6 230 14:58 12.08.2019
3765 Rain 19 1011 88 14484 2.6 250 14:39 12.08.2019
3766 Rain 19 1011 88 14484 2.6 250 14:39 12.08.2019
3767 Rain 19 1011 88 14484 2.6 250 14:39 12.08.2019
3768 Rain 19 1011 88 14484 2.6 250 14:20 12.08.2019
3769 Rain 19 1011 72 14484 5.7 260 13:55 12.08.2019
3770 Rain 19 1011 72 14484 5.7 260 13:55 12.08.2019
3771 Rain 19 1011 72 14484 5.7 260 13:55 12.08.2019
3772 Rain 19 1011 72 32767 7.2 260 13:37 12.08.2019
3773 Rain 19 1011 88 32767 1.5 250 13:19 12.08.2019
3774 Clouds 19 1011 82 14484 3.1 210 12:43 12.08.2019
3775 Clouds 19 1011 77 14484 3.6 240 12:19 12.08.2019
3776 Clouds 19 1011 77 14484 3.6 240 11:45 12.08.2019
3777 Clouds 19 1011 77 14484 3.6 240 11:26 12.08.2019
3778 Clouds 19 1011 77 14484 4.1 240 10:58 12.08.2019
3779 Clouds 19 1011 77 14484 4.1 240 10:40 12.08.2019
3780 Clouds 19 1011 77 14484 4.1 240 10:21 12.08.2019
3781 Clouds 19 1011 72 14484 4.1 260 09:55 12.08.2019
3782 Clouds 19 1011 72 14484 4.1 260 09:36 12.08.2019
3783 Clouds 19 1011 72 14484 4.1 260 09:36 12.08.2019
3784 Clouds 20 1011 68 14484 6.2 230 09:18 12.08.2019
3785 Clouds 20 1011 68 14484 6.2 230 09:18 12.08.2019
3786 Clouds 20 1011 68 14484 6.2 230 08:40 12.08.2019
3787 Clouds 20 1011 68 14484 6.2 230 08:22 12.08.2019
3788 Clouds 20 1011 64 14484 5.7 230 07:56 12.08.2019
3789 Clouds 20 1011 64 14484 5.7 230 07:35 12.08.2019
3790 Clouds 20 1011 64 14484 6.7 230 06:54 12.08.2019
3791 Clouds 21 1011 64 14484 7.2 230 06:20 12.08.2019
3792 Clouds 21 1011 60 24140 7.7 240 04:29 12.08.2019
3793 Clear 22 1011 50 14484 5.1 270 02:43 12.08.2019
3794 Clouds 24 1011 47 14484 9.3 270 01:45 12.08.2019
3795 Clouds 24 1011 47 14484 7.2 270 01:18 12.08.2019
3796 Clouds 25 1011 47 14484 7.2 270 00:54 12.08.2019
3797 Clouds 25 1011 47 14484 7.2 270 00:36 12.08.2019
3798 Clouds 25 1011 57 32767 2.6 240 00:18 12.08.2019
3799 Rain 25 1011 47 14484 7.7 270 23:39 11.08.2019
3800 Clouds 25 1011 47 14484 9.3 250 23:20 11.08.2019
3801 Clouds 26 1011 47 14484 9.3 250 22:56 11.08.2019
3802 Clouds 26 1011 47 14484 9.3 250 22:37 11.08.2019
3803 Clouds 26 1011 44 14484 7.7 250 22:18 11.08.2019
3804 Clouds 26 1011 44 14484 7.7 250 22:18 11.08.2019
3805 Clouds 26 1011 44 14484 7.7 250 21:56 11.08.2019
3806 Clouds 26 1011 44 14484 7.7 250 21:38 11.08.2019
3807 Clouds 25 1012 41 14484 8.2 260 21:19 11.08.2019
3808 Clouds 25 1012 41 14484 8.2 260 21:19 11.08.2019
3809 Clouds 25 1012 41 14484 8.2 260 20:44 11.08.2019
3810 Clouds 25 1012 41 14484 8.2 260 20:23 11.08.2019
3811 Clear 25 1012 41 14484 8.2 270 19:56 11.08.2019
3812 Clear 24 1012 41 14484 8.2 270 19:37 11.08.2019
3813 Clear 24 1012 46 14484 8.2 270 19:18 11.08.2019
3814 Clear 23 1012 46 14484 8.2 270 18:40 11.08.2019
3815 Clear 23 1013 46 14484 6.7 280 18:20 11.08.2019
3816 Clear 23 1013 46 14484 6.7 280 17:56 11.08.2019
3817 Clear 22 1013 46 14484 6.7 280 17:38 11.08.2019
3818 Clear 22 1013 49 14484 7.2 290 17:19 11.08.2019
3819 Clear 22 1013 49 14484 7.2 290 16:55 11.08.2019
3820 Clear 21 1013 49 14484 7.2 290 16:37 11.08.2019
3821 Clouds 20 1013 63 14484 6.2 280 16:18 11.08.2019
3822 Clouds 19 1013 63 14484 6.2 280 15:42 11.08.2019
3823 Clouds 18 1013 63 14484 6.2 280 15:22 11.08.2019
3824 Clouds 17 1013 72 14484 5.1 240 14:56 11.08.2019
3825 Clouds 16 1013 72 14484 5.1 240 14:37 11.08.2019
3826 Clouds 16 1013 82 14484 4.1 240 14:19 11.08.2019
3827 Clouds 15 1013 82 14484 4.1 240 13:43 11.08.2019
3828 Clouds 15 1013 82 14484 4.1 240 13:24 11.08.2019
3829 Clouds 14 1012 87 14484 3.6 240 12:48 11.08.2019
3830 Clouds 14 1012 87 14484 3.6 240 12:23 11.08.2019
3831 Clouds 14 1012 87 14484 3.1 250 11:54 11.08.2019
3832 Clouds 14 1012 87 14484 3.1 250 11:36 11.08.2019
3833 Clear 13 1011 93 14484 3.6 250 11:18 11.08.2019
3834 Clear 13 1011 93 14484 3.6 250 10:40 11.08.2019
3835 Clear 13 1011 93 14484 3.6 250 10:22 11.08.2019
3836 Clear 13 1011 82 14484 4.1 250 09:58 11.08.2019
3837 Clear 13 1011 82 14484 4.1 250 09:38 11.08.2019
3838 Clouds 14 1011 87 24140 3.1 240 09:19 11.08.2019
3839 Clouds 14 1011 87 24140 3.1 240 08:44 11.08.2019
3840 Clouds 14 1011 87 24140 3.1 240 08:25 11.08.2019
3841 Clouds 14 1011 82 24140 3.1 240 07:54 11.08.2019
3842 Clouds 14 1011 93 32767 2.6 250 07:23 11.08.2019
3843 Clear 14 1011 77 14484 3.1 250 06:44 11.08.2019
3844 Clear 15 1011 72 14484 3.6 280 05:35 11.08.2019
3845 Clouds 16 1010 63 14484 3.6 290 03:41 11.08.2019
3846 Clear 17 1009 59 14484 4.1 290 02:48 11.08.2019
3847 Clear 19 1008 56 14484 4.1 290 01:38 11.08.2019
3848 Clouds 19 1007 49 14484 6.7 300 01:19 11.08.2019
3849 Clouds 20 1007 49 14484 6.7 300 00:44 11.08.2019
3850 Clouds 20 1007 49 14484 6.7 300 00:25 11.08.2019
3851 Clear 20 1007 56 14484 6.7 320 23:45 10.08.2019
3852 Clear 20 1007 56 14484 6.7 320 23:27 10.08.2019
3853 Rain 20 1007 68 14484 5.1 280 22:43 10.08.2019
3854 Rain 20 1007 68 14484 5.1 280 22:25 10.08.2019
3855 Rain 18 1007 63 14484 6.7 290 21:58 10.08.2019
3856 Rain 18 1008 72 24140 4.1 280 21:38 10.08.2019
3857 Rain 19 1007 77 14484 5.7 300 21:20 10.08.2019
3858 Rain 19 1007 77 14484 5.7 300 20:56 10.08.2019
3859 Rain 19 1007 68 24140 6.2 290 20:37 10.08.2019
3860 Rain 19 1007 77 14484 9.3 310 20:18 10.08.2019
3861 Thunderstorm 19 1007 59 14484 6.7 290 19:39 10.08.2019
3862 Thunderstorm 19 1007 59 14484 6.7 290 19:21 10.08.2019
3863 Rain 19 1007 63 14484 5.7 280 18:41 10.08.2019
3864 Rain 19 1007 63 14484 5.7 280 18:23 10.08.2019
3865 Rain 19 1007 68 14484 5.1 260 17:46 10.08.2019
3866 Rain 19 1007 68 14484 5.1 260 17:25 10.08.2019
3867 Rain 18 1007 68 32767 6.2 270 16:48 10.08.2019
3868 Rain 18 1007 68 32767 6.2 270 16:29 10.08.2019
3869 Clouds 17 1007 72 14484 4.1 300 15:59 10.08.2019
3870 Clouds 17 1007 72 14484 4.1 300 15:40 10.08.2019
3871 Clouds 17 1007 72 14484 4.1 300 15:21 10.08.2019
3872 Clear 16 1006 72 14484 3.1 290 14:43 10.08.2019
3873 Clouds 15 1006 87 14484 4.1 280 14:19 10.08.2019
3874 Clouds 15 1006 87 14484 4.1 280 13:40 10.08.2019
3875 Clouds 15 1005 87 14484 4.1 270 13:19 10.08.2019
3876 Clouds 14 1005 87 14484 4.1 270 12:43 10.08.2019
3877 Clouds 14 1005 87 14484 4.1 270 12:23 10.08.2019
3878 Clouds 14 1005 87 14484 3.6 260 11:58 10.08.2019
3879 Clouds 14 1005 87 14484 3.6 260 11:39 10.08.2019
3880 Clouds 14 1005 87 14484 3.6 260 11:21 10.08.2019
3881 Clouds 15 1005 87 14484 4.1 270 10:39 10.08.2019
3882 Clouds 15 1005 87 14484 4.1 270 10:20 10.08.2019
3883 Clouds 15 1005 93 14484 4.1 250 10:00 10.08.2019
3884 Clouds 15 1005 93 14484 4.1 250 09:39 10.08.2019
3885 Clouds 15 1005 93 14484 4.1 250 09:39 10.08.2019
3886 Clouds 15 1005 93 14484 2.1 190 09:21 10.08.2019
3887 Clouds 15 1005 93 14484 2.1 190 08:39 10.08.2019
3888 Clouds 15 1005 93 14484 2.6 220 08:20 10.08.2019
3889 Clouds 15 1005 93 14484 2.6 220 07:54 10.08.2019
3890 Clouds 15 1005 93 14484 2.6 220 07:28 10.08.2019
3891 Rain 15 1005 93 14484 5.7 250 06:49 10.08.2019
3892 Rain 15 1005 93 14484 5.7 250 06:25 10.08.2019
3893 Rain 15 1004 87 14484 4.6 240 05:24 10.08.2019
3894 Rain 15 1005 87 14484 6.7 290 04:31 10.08.2019
3895 Thunderstorm 19 1004 68 14484 4.6 230 02:54 10.08.2019
3896 Rain 20 1004 56 32767 6.7 250 02:24 10.08.2019
3897 Rain 20 1003 60 14484 8.2 260 01:42 10.08.2019
3898 Rain 21 1003 60 14484 8.2 260 01:21 10.08.2019
3899 Rain 21 1003 56 14484 8.7 250 00:48 10.08.2019
3900 Rain 22 1003 56 14484 8.7 250 00:22 10.08.2019
3901 Clouds 22 1003 60 14484 6.2 240 23:44 09.08.2019
3902 Clouds 23 1003 60 14484 6.2 240 23:24 09.08.2019
3903 Rain 22 1003 68 32767 3.1 300 22:58 09.08.2019
3904 Clouds 23 1003 73 32767 5.7 220 22:39 09.08.2019
3905 Clouds 22 1003 72 24140 4.1 220 22:20 09.08.2019
3906 Thunderstorm 22 1003 68 14484 10.3 250 21:55 09.08.2019
3907 Thunderstorm 22 1003 60 14484 2.6 250 21:36 09.08.2019
3908 Rain 22 1003 64 14484 8.7 270 21:18 09.08.2019
3909 Rain 22 1003 64 14484 8.7 270 20:54 09.08.2019
3910 Thunderstorm 23 1003 77 24140 3.1 250 20:36 09.08.2019
3911 Rain 23 1003 73 24140 7.2 290 20:18 09.08.2019
3912 Thunderstorm 25 1002 53 32767 5.7 250 19:41 09.08.2019
3913 Rain 24 1003 64 14484 9.8 260 19:20 09.08.2019
3914 Rain 24 1003 64 14484 9.8 260 18:42 09.08.2019
3915 Clouds 24 1003 64 14484 9.8 260 18:23 09.08.2019
3916 Clouds 23 1003 64 14484 7.7 220 17:59 09.08.2019
3917 Clouds 23 1003 64 14484 7.7 220 17:41 09.08.2019
3918 Clouds 23 1003 64 14484 7.7 220 17:22 09.08.2019
3919 Clouds 22 1003 68 14484 8.2 240 16:42 09.08.2019
3920 Clouds 22 1003 68 14484 8.2 240 16:41 09.08.2019
3921 Clouds 22 1003 68 14484 8.2 240 16:41 09.08.2019
3922 Clouds 22 1003 68 14484 8.2 240 16:22 09.08.2019
3923 Clouds 21 1003 77 14484 5.7 240 15:57 09.08.2019
3924 Clouds 21 1003 77 14484 5.7 240 15:57 09.08.2019
3925 -273 0 0 0 0 0 15:38 09.08.2019
3926 Clouds 20 1003 82 14484 6.7 230 15:19 09.08.2019
3927 Clouds 20 1003 88 14484 4.1 240 14:44 09.08.2019
3928 Clouds 19 1003 88 14484 4.1 240 14:23 09.08.2019
3929 Clear 19 1003 93 14484 3.6 220 13:59 09.08.2019
3930 Clear 19 1003 93 14484 3.6 220 13:59 09.08.2019
3931 Clear 18 1003 93 14484 3.6 220 13:40 09.08.2019
3932 Clear 18 1003 100 14484 3.6 210 13:20 09.08.2019
3933 Mist 17 1003 100 14484 3.6 210 12:46 09.08.2019
3934 Mist 16 1003 100 14484 3.6 210 12:24 09.08.2019
3935 Clear 16 1002 93 14484 3.6 200 11:58 09.08.2019
3936 Clear 16 1002 93 14484 3.6 200 11:37 09.08.2019
3937 Clear 17 1002 82 14484 3.6 230 11:18 09.08.2019
3938 Clear 17 1002 82 14484 3.6 230 10:40 09.08.2019
3939 Clear 17 1002 82 14484 3.6 230 10:21 09.08.2019
3940 Clouds 17 1002 77 14484 4.1 230 09:46 09.08.2019
3941 Clouds 18 1002 77 24140 4.1 230 09:20 09.08.2019
3942 Clouds 18 1002 77 24140 4.1 230 08:58 09.08.2019
3943 Clouds 18 1002 72 14484 5.1 260 08:39 09.08.2019
3944 Clouds 19 1001 72 14484 4.6 250 08:19 09.08.2019
3945 Clouds 19 1001 72 14484 4.6 250 07:44 09.08.2019
3946 Clouds 19 1001 72 14484 4.6 250 07:23 09.08.2019
3947 Clear 19 1001 72 14484 7.2 270 06:56 09.08.2019
3948 Clear 19 1001 72 14484 7.2 270 06:56 09.08.2019
3949 Clear 19 1001 72 14484 7.2 270 06:56 09.08.2019
3950 Clear 19 1001 72 14484 7.2 270 06:30 09.08.2019
3951 Clouds 20 1001 73 14484 7.2 260 05:57 09.08.2019
3952 Clouds 21 1001 73 14484 7.2 260 04:21 09.08.2019
3953 Clouds 23 1000 57 24140 11.8 260 01:58 09.08.2019
3954 Clouds 26 999 48 14484 7.7 240 00:49 09.08.2019
3955 Clouds 27 999 48 14484 7.7 240 00:26 09.08.2019
3956 Clear 28 999 47 14484 6.7 220 23:59 08.08.2019
3957 Clear 28 999 47 14484 6.7 220 23:38 08.08.2019
3958 Clear 28 999 42 14484 7.7 230 23:20 08.08.2019
3959 Clear 28 999 42 14484 7.7 230 22:59 08.08.2019
3960 Clear 28 999 42 14484 7.7 230 22:37 08.08.2019
3961 Clear 28 1000 51 14484 9.8 230 22:18 08.08.2019
3962 Clear 28 1000 51 14484 9.8 230 21:58 08.08.2019
3963 Clear 28 1000 51 14484 9.8 230 21:40 08.08.2019
3964 Clear 28 1000 51 14484 9.8 230 21:21 08.08.2019
3965 Clear 27 1000 57 14484 7.7 240 20:55 08.08.2019
3966 Clear 27 1000 57 14484 7.7 240 20:36 08.08.2019
3967 Clouds 27 1001 69 14484 6.7 230 20:18 08.08.2019
3968 Clouds 27 1001 69 14484 6.7 230 19:42 08.08.2019
3969 Clouds 26 1001 69 14484 6.7 230 19:21 08.08.2019
3970 Clouds 26 1001 69 14484 5.7 240 18:43 08.08.2019
3971 Clouds 25 1001 73 24140 5.7 210 18:23 08.08.2019
3972 Clouds 25 1001 73 24140 5.7 210 17:56 08.08.2019
3973 Clouds 24 1002 88 14484 4.1 230 17:37 08.08.2019
3974 Clouds 23 1002 94 12874 3.1 220 17:19 08.08.2019
3975 Mist 23 1002 94 9656 5.7 220 16:43 08.08.2019
3976 Mist 23 1002 94 9656 5.7 220 16:43 08.08.2019
3977 Mist 22 1002 94 9656 5.7 220 16:25 08.08.2019
3978 Mist 21 1002 94 6437 2.1 230 15:59 08.08.2019
3979 Mist 21 1002 94 6437 2.1 230 15:41 08.08.2019
3980 Mist 21 1002 94 6437 2.1 230 15:23 08.08.2019
3981 Mist 21 1002 100 4828 1.5 260 14:55 08.08.2019
3982 Rain 21 1003 94 16093 1.5 250 14:36 08.08.2019
3983 Rain 20 1003 100 8047 1.5 280 14:18 08.08.2019
3984 Rain 20 1003 100 4828 1 0 13:39 08.08.2019
3985 Rain 20 1003 100 3219 1.09 247.663 13:20 08.08.2019
3986 Rain 20 1003 100 2816 1.5 30 12:40 08.08.2019
3987 Rain 20 1003 100 1609 0.84 304.259 12:21 08.08.2019
3988 Rain 20 1003 100 1609 0.84 304.259 11:58 08.08.2019
3989 Rain 20 1003 100 8047 1.5 140 11:39 08.08.2019
3990 Rain 20 1003 100 11265 1 100 11:20 08.08.2019
3991 Rain 21 1003 100 12874 1.5 10 10:41 08.08.2019
3992 Rain 21 1003 94 8047 1.5 120 10:21 08.08.2019
3993 Fog 21 1004 94 11265 1.5 130 09:49 08.08.2019
3994 Fog 21 1004 94 11265 1.5 130 09:30 08.08.2019
3995 Mist 21 1004 94 11265 1.5 120 08:57 08.08.2019
3996 Mist 21 1004 94 11265 1 0 08:39 08.08.2019
3997 Mist 21 1005 100 9656 1.5 110 08:19 08.08.2019
3998 Mist 21 1005 100 6437 2.1 40 07:40 08.08.2019
3999 Mist 21 1005 100 8047 1 40 07:20 08.08.2019
4000 Mist 21 1005 100 8047 1 40 06:49 08.08.2019
4001 Mist 21 1005 100 8047 1 40 06:30 08.08.2019
4002 Mist 21 1005 100 9656 1.5 40 05:53 08.08.2019
4003 Clouds 22 1006 94 14484 1 190 05:18 08.08.2019
4004 Clouds 22 1006 94 14484 1.5 130 03:53 08.08.2019
4005 Clouds 22 1006 78 14484 1 140 02:30 08.08.2019
4006 Clouds 23 1007 78 14484 2.6 150 01:37 08.08.2019
4007 Clouds 24 1007 78 14484 1.5 70 00:26 08.08.2019
4008 Clouds 24 1007 73 14484 2.1 310 23:56 07.08.2019
4009 Clouds 24 1007 73 14484 2.1 310 23:21 07.08.2019
4010 Clouds 24 1007 78 14484 3.1 250 22:57 07.08.2019
4011 Clouds 24 1007 78 14484 3.1 250 22:39 07.08.2019
4012 Clouds 24 1007 83 14484 3.6 250 22:20 07.08.2019
4013 Clouds 24 1007 83 14484 3.6 250 22:20 07.08.2019
4014 Rain 23 1007 83 14484 3.6 250 21:56 07.08.2019
4015 Rain 23 1007 83 14484 3.6 240 21:37 07.08.2019
4016 Rain 23 1008 88 14484 3.6 220 21:19 07.08.2019
4017 Rain 23 1008 88 14484 3.6 220 20:55 07.08.2019
4018 Rain 23 1008 83 14484 4.1 230 20:36 07.08.2019
4019 Rain 23 1008 88 14484 3.1 240 20:18 07.08.2019
4020 Rain 24 1008 88 9656 3.1 230 19:40 07.08.2019
4021 Clouds 24 1008 78 24140 2.6 220 19:22 07.08.2019
4022 Clouds 24 1008 78 24140 2.6 220 18:55 07.08.2019
4023 Clouds 24 1008 78 24140 2.6 220 18:37 07.08.2019
4024 Drizzle 24 1008 73 12874 4.6 210 18:19 07.08.2019
4025 Clouds 24 1008 78 14484 1 0 17:54 07.08.2019
4026 Clouds 24 1008 78 14484 1 0 17:36 07.08.2019
4027 Clouds 24 1008 83 14484 3.6 200 17:18 07.08.2019
4028 Clouds 23 1008 83 14484 3.6 200 16:54 07.08.2019
4029 Clouds 23 1008 83 14484 3.6 200 16:36 07.08.2019
4030 Clouds 23 1008 78 14484 3.6 190 16:18 07.08.2019
4031 Clouds 22 1009 78 14484 3.1 190 15:41 07.08.2019
4032 Clouds 22 1008 83 14484 3.1 230 15:19 07.08.2019
4033 Clouds 22 1008 83 14484 3.1 230 14:49 07.08.2019
4034 Clouds 22 1008 83 14484 3.1 230 14:30 07.08.2019
4035 Clouds 21 1008 83 14484 3.6 220 13:57 07.08.2019
4036 Clouds 21 1008 83 14484 2.6 180 13:38 07.08.2019
4037 Clouds 21 1008 88 14484 1.5 170 13:18 07.08.2019
4038 Fog 20 1008 88 14484 1.5 170 12:56 07.08.2019
4039 Fog 20 1008 88 14484 1.5 170 12:37 07.08.2019
4040 Clouds 20 1008 88 14484 1.5 170 12:19 07.08.2019
4041 Clouds 20 1008 88 14484 1 170 11:43 07.08.2019
4042 Clouds 20 1008 88 14484 1 170 11:21 07.08.2019
4043 Clouds 20 1007 88 14484 1.5 200 10:58 07.08.2019
4044 Clouds 20 1007 88 14484 1.5 200 10:40 07.08.2019
4045 Fog 20 1007 88 14484 2.6 180 10:19 07.08.2019
4046 Fog 19 1007 88 14484 2.6 180 09:46 07.08.2019
4047 Fog 19 1007 88 14484 2.6 180 09:46 07.08.2019
4048 Mist 20 1007 88 14484 2.6 180 09:23 07.08.2019
4049 Mist 20 1007 83 14484 2.1 200 08:59 07.08.2019
4050 Clouds 20 1007 83 14484 2.1 200 08:41 07.08.2019
4051 Clouds 20 1007 83 14484 2.1 200 08:23 07.08.2019
4052 Clouds 21 1007 83 14484 3.1 210 07:43 07.08.2019
4053 Clouds 21 1007 83 14484 3.1 210 07:21 07.08.2019
4054 Clouds 21 1007 83 14484 2.6 170 06:40 07.08.2019
4055 Clouds 21 1007 78 14484 2.6 200 06:20 07.08.2019
4056 Clouds 22 1007 78 14484 2.6 200 05:40 07.08.2019
4057 Clouds 22 1007 83 14484 2.1 330 03:23 07.08.2019
4058 Rain 23 1007 61 14484 4.6 280 02:51 07.08.2019
4059 Rain 23 1007 61 14484 4.6 280 02:26 07.08.2019
4060 Rain 24 1006 51 14484 5.7 280 01:48 07.08.2019
4061 Rain 26 1005 54 14484 6.2 210 00:53 07.08.2019
4062 Clouds 27 1005 54 14484 6.2 210 00:23 07.08.2019
4063 Clouds 28 1005 51 14484 6.7 190 23:47 06.08.2019
4064 Clouds 28 1005 51 14484 6.7 190 23:23 06.08.2019
4065 Clear 29 1006 51 14484 5.7 170 22:59 06.08.2019
4066 Clear 30 1006 51 14484 5.7 170 22:40 06.08.2019
4067 Clear 30 1006 51 14484 5.7 170 22:21 06.08.2019
4068 Clear 30 1006 45 14484 4.1 180 21:56 06.08.2019
4069 Clear 30 1006 45 14484 4.1 180 21:38 06.08.2019
4070 Clear 30 1007 48 14484 4.1 180 21:18 06.08.2019
4071 Clear 30 1007 48 14484 4.1 180 20:42 06.08.2019
4072 Clear 29 1007 48 14484 4.1 180 20:23 06.08.2019
4073 Clear 29 1007 48 14484 6.2 180 19:49 06.08.2019
4074 Clear 29 1007 48 14484 6.2 180 19:29 06.08.2019
4075 Clear 28 1008 51 14484 5.1 160 18:57 06.08.2019
4076 Clear 28 1008 51 14484 5.1 160 18:38 06.08.2019
4077 Clear 27 1009 50 14484 5.1 170 18:20 06.08.2019
4078 Clear 27 1009 50 14484 5.1 170 17:56 06.08.2019
4079 Clear 26 1009 50 14484 5.1 170 17:37 06.08.2019
4080 Clear 26 1009 57 14484 5.1 150 17:19 06.08.2019
4081 Clear 25 1009 57 14484 5.1 150 16:44 06.08.2019
4082 Clear 26 1009 57 14484 5.1 150 16:25 06.08.2019
4083 Clear 24 1009 60 14484 5.7 160 15:58 06.08.2019
4084 Clear 23 1009 60 14484 5.7 160 15:40 06.08.2019
4085 Clear 22 1009 60 14484 5.7 160 15:21 06.08.2019
4086 Clear 21 1010 68 14484 3.6 160 14:54 06.08.2019
4087 Clear 21 1010 68 14484 3.6 160 14:36 06.08.2019
4088 Clear 20 1010 82 14484 4.1 160 14:18 06.08.2019
4089 Clear 20 1010 82 14484 4.1 160 13:45 06.08.2019
4090 Clear 19 1010 82 14484 4.1 160 13:26 06.08.2019
4091 Clear 18 1010 87 14484 2.1 150 12:59 06.08.2019
4092 Clear 17 1010 87 14484 2.1 150 12:40 06.08.2019
4093 Clear 16 1011 82 14484 1.5 140 12:21 06.08.2019
4094 Clear 16 1011 82 14484 1.5 140 11:45 06.08.2019
4095 -273 0 0 0 0 0 11:20 06.08.2019
4096 Clear 16 1011 87 14484 2.1 150 10:59 06.08.2019
4097 Clear 16 1011 87 14484 2.1 150 10:39 06.08.2019
4098 Clear 16 1011 87 14484 2.1 150 10:21 06.08.2019
4099 Clear 17 1010 87 14484 1 0 09:43 06.08.2019
4100 Clear 17 1010 87 14484 1 0 09:22 06.08.2019
4101 Clear 17 1011 77 14484 2.1 180 08:51 06.08.2019
4102 Clear 17 1011 77 14484 2.1 180 08:29 06.08.2019
4103 Clear 17 1011 72 14484 3.1 180 07:59 06.08.2019
4104 Clear 17 1011 72 14484 3.1 180 07:31 06.08.2019
4105 Clear 18 1011 68 14484 2.1 190 06:45 06.08.2019
4106 Clear 19 1011 68 14484 2.1 190 06:23 06.08.2019
4107 Clear 19 1011 64 14484 3.1 170 05:46 06.08.2019
4108 Clear 23 1012 50 14484 4.6 170 02:51 06.08.2019
4109 Clear 25 1012 47 14484 5.1 170 01:26 06.08.2019
4110 Clear 26 1012 39 14484 5.1 220 00:55 06.08.2019
4111 Clear 27 1012 39 14484 5.1 220 00:23 06.08.2019
4112 Clear 27 1012 34 14484 3.6 240 23:21 05.08.2019
4113 Clouds 27 1013 32 14484 7.2 240 22:58 05.08.2019
4114 Clouds 27 1013 32 14484 7.2 240 22:39 05.08.2019
4115 Clouds 27 1013 32 14484 7.2 240 22:20 05.08.2019
4116 Clear 27 1014 36 14484 5.7 280 21:42 05.08.2019
4117 Clear 26 1014 36 14484 5.7 280 21:21 05.08.2019
4118 Clear 26 1014 39 14484 5.1 240 20:58 05.08.2019
4119 Clear 26 1014 39 14484 5.1 240 20:39 05.08.2019
4120 Clear 26 1014 39 14484 5.1 240 20:21 05.08.2019
4121 Clouds 26 1014 44 14484 5.1 220 19:57 05.08.2019
4122 Clouds 25 1014 44 14484 5.1 220 19:38 05.08.2019
4123 Clear 25 1015 47 14484 3.6 0 19:19 05.08.2019
4124 Clear 24 1015 47 14484 3.6 0 18:42 05.08.2019
4125 Clear 24 1015 46 14484 4.1 210 18:21 05.08.2019
4126 Clear 23 1015 46 14484 4.1 210 17:51 05.08.2019
4127 Clear 23 1015 46 14484 4.1 210 17:31 05.08.2019
4128 Clear 22 1016 52 14484 4.6 240 16:59 05.08.2019
4129 Clear 22 1016 52 14484 4.6 240 16:41 05.08.2019
4130 Clear 21 1016 52 14484 4.6 240 16:23 05.08.2019
4131 Clear 20 1016 59 14484 3.25 246.138 15:43 05.08.2019
4132 Clear 19 1016 59 14484 2.16 252.438 15:20 05.08.2019
4133 Clear 17 1016 67 14484 1 40 14:42 05.08.2019
4134 Clear 17 1016 67 14484 1 40 14:42 05.08.2019
4135 Clear 17 1016 67 14484 1 40 14:23 05.08.2019
4136 Clear 15 1016 87 14484 2.16 252.438 13:57 05.08.2019
4137 Clear 15 1016 87 14484 2.16 252.438 13:38 05.08.2019
4138 Clear 13 1015 87 14484 1 0 13:18 05.08.2019
4139 Clear 12 1015 87 14484 1 0 12:42 05.08.2019
4140 Clear 12 1015 87 14484 1 0 12:19 05.08.2019
4141 Clear 12 1015 87 14484 1 0 11:43 05.08.2019
4142 Clear 12 1015 87 14484 1 0 11:43 05.08.2019
4143 Clear 12 1015 87 14484 1 0 11:25 05.08.2019
4144 Clear 12 1015 81 14484 1.89 257.353 10:48 05.08.2019
4145 Clear 12 1015 81 14484 1.89 257.353 10:30 05.08.2019
4146 Clear 13 1015 76 14484 1 10 09:57 05.08.2019
4147 Clear 13 1015 76 14484 1 10 09:37 05.08.2019
4148 Clear 13 1015 71 14484 1 340 09:19 05.08.2019
4149 Clear 13 1015 71 14484 1 340 08:44 05.08.2019
4150 Clear 14 1015 71 14484 1 340 08:24 05.08.2019
4151 Clear 14 1015 71 14484 1 30 07:48 05.08.2019
4152 Clear 14 1015 71 14484 1 30 07:28 05.08.2019
4153 Clear 14 1015 59 14484 2.1 10 06:56 05.08.2019
4154 Clear 16 1015 48 14484 3.1 310 06:21 05.08.2019
4155 Clear 16 1015 48 14484 3.1 310 05:31 05.08.2019
4156 Clear 16 1014 42 14484 4.6 320 04:50 05.08.2019
4157 Clear 18 1014 40 14484 4.6 310 03:50 05.08.2019
4158 Clouds 20 1014 40 14484 3.6 290 02:46 05.08.2019
4159 Clouds 22 1014 38 14484 3.6 330 01:55 05.08.2019
4160 Clouds 23 1014 38 14484 3.6 330 01:22 05.08.2019
4161 Clouds 23 1013 33 14484 3.6 280 00:40 05.08.2019
4162 Clouds 24 1014 36 14484 2.6 0 00:20 05.08.2019
4163 Clouds 24 1014 36 14484 2.6 0 23:43 04.08.2019
4164 Clouds 24 1014 36 14484 2.6 0 23:23 04.08.2019
4165 Clouds 24 1014 36 14484 2.6 0 23:23 04.08.2019
4166 Clouds 24 1014 38 14484 3.6 240 22:57 04.08.2019
4167 Clouds 24 1014 38 14484 3.6 240 22:38 04.08.2019
4168 Clear 24 1014 38 14484 5.7 300 22:20 04.08.2019
4169 Clear 23 1014 38 14484 5.7 300 21:56 04.08.2019
4170 Clear 23 1014 38 14484 5.7 300 21:37 04.08.2019
4171 Clear 23 1015 38 14484 5.1 330 21:19 04.08.2019
4172 Clear 23 1015 38 14484 5.1 330 20:41 04.08.2019
4173 Clouds 22 1015 40 32767 4.1 280 20:19 04.08.2019
4174 Clouds 22 1015 40 32767 4.1 280 19:54 04.08.2019
4175 Clouds 22 1015 40 32767 4.1 280 19:36 04.08.2019
4176 Clear 22 1016 49 14484 2.6 330 19:18 04.08.2019
4177 Clear 21 1016 49 14484 2.6 330 18:41 04.08.2019
4178 Clear 21 1016 48 14484 2.6 0 18:20 04.08.2019
4179 Clear 20 1016 48 14484 2.6 0 17:44 04.08.2019
4180 Clear 19 1016 48 14484 2.6 0 17:24 04.08.2019
4181 Clear 19 1016 59 14484 2.6 40 16:46 04.08.2019
4182 Clear 19 1016 59 14484 2.6 40 16:28 04.08.2019
4183 Clear 18 1016 59 14484 4.1 360 15:58 04.08.2019
4184 Clear 17 1016 59 14484 4.1 360 15:38 04.08.2019
4185 Clear 16 1016 67 14484 4.1 10 15:19 04.08.2019
4186 Clear 16 1016 67 14484 4.1 10 14:43 04.08.2019
4187 Clear 16 1016 67 14484 4.1 10 14:25 04.08.2019
4188 Clear 16 1016 76 14484 3.6 20 13:47 04.08.2019
4189 Clear 15 1016 76 14484 3.6 20 13:27 04.08.2019
4190 Clear 14 1015 81 14484 3.1 360 12:57 04.08.2019
4191 Clear 14 1015 81 14484 3.1 360 12:39 04.08.2019
4192 Clear 14 1015 81 14484 3.1 360 12:21 04.08.2019
4193 Clear 14 1015 76 14484 3.6 10 11:49 04.08.2019
4194 Clear 15 1015 76 14484 3.6 10 11:23 04.08.2019
4195 Clear 15 1015 76 14484 4.1 360 10:51 04.08.2019
4196 Clear 16 1015 76 14484 4.1 360 10:23 04.08.2019
4197 Clouds 16 1015 67 14484 4.6 360 09:55 04.08.2019
4198 Clouds 17 1015 67 14484 4.6 360 09:37 04.08.2019
4199 Clear 17 1014 67 14484 5.1 10 09:18 04.08.2019
4200 Clear 18 1014 67 14484 5.1 10 08:38 04.08.2019
4201 Clouds 18 1014 63 14484 4.6 10 08:18 04.08.2019
4202 Clouds 19 1014 63 14484 4.6 10 07:44 04.08.2019
4203 Clouds 20 1013 60 14484 4.1 10 06:46 04.08.2019
4204 Clouds 20 1013 60 14484 4.1 10 06:24 04.08.2019
4205 Clouds 23 1012 64 14484 3.1 360 03:44 04.08.2019
4206 Clouds 24 1012 57 14484 4.1 300 02:20 04.08.2019
4207 Clouds 25 1011 54 14484 5.7 280 01:33 04.08.2019
4208 Clouds 26 1011 54 14484 6.2 290 00:44 04.08.2019
4209 -273 0 0 0 0 0 00:26 04.08.2019
4210 Clouds 26 1011 47 14484 6.7 290 23:56 03.08.2019
4211 Clouds 26 1011 47 14484 6.7 290 23:38 03.08.2019
4212 Clouds 26 1012 47 14484 7.2 260 23:18 03.08.2019
4213 Clouds 26 1012 47 14484 7.2 260 22:42 03.08.2019
4214 Clouds 26 1012 44 14484 6.2 290 22:20 03.08.2019
4215 Clouds 27 1012 44 14484 6.2 290 21:40 03.08.2019
4216 Clouds 27 1012 44 14484 6.2 290 21:22 03.08.2019
4217 Clouds 27 1012 47 14484 5.7 230 20:46 03.08.2019
4218 Clouds 26 1012 47 14484 5.7 230 20:26 03.08.2019
4219 Clouds 27 1013 42 14484 7.2 250 19:58 03.08.2019
4220 Clouds 27 1013 42 14484 7.2 250 19:40 03.08.2019
4221 Clouds 27 1013 42 14484 7.2 250 19:21 03.08.2019
4222 Clear 27 1013 47 14484 6.2 240 18:46 03.08.2019
4223 Clear 27 1013 47 14484 6.2 240 18:26 03.08.2019
4224 Clear 26 1014 57 14484 5.7 210 17:46 03.08.2019
4225 Clear 25 1014 57 14484 5.7 210 17:20 03.08.2019
4226 Clear 25 1014 60 14484 5.1 230 16:54 03.08.2019
4227 Clear 25 1014 60 14484 5.1 230 16:36 03.08.2019
4228 Clear 24 1015 60 14484 5.1 230 16:18 03.08.2019
4229 Clear 22 1015 60 14484 5.1 230 15:42 03.08.2019
4230 Clear 21 1015 64 14484 3.6 210 15:20 03.08.2019
4231 Clear 20 1015 64 14484 3.6 210 14:38 03.08.2019
4232 Clear 20 1015 72 14484 3.1 170 14:19 03.08.2019
4233 Clear 20 1015 72 14484 3.1 170 13:49 03.08.2019
4234 Clear 19 1015 72 14484 3.1 170 13:23 03.08.2019
4235 Clear 18 1015 72 14484 3.6 200 12:56 03.08.2019
4236 Clear 17 1015 72 14484 3.6 200 12:37 03.08.2019
4237 Clear 17 1015 77 14484 2.6 190 12:19 03.08.2019
4238 Clear 17 1015 77 14484 2.6 190 11:45 03.08.2019
4239 Clear 17 1015 77 14484 2.6 190 11:25 03.08.2019
4240 Clear 17 1015 77 14484 1.5 180 10:39 03.08.2019
4241 Clear 17 1015 77 14484 1.5 180 10:21 03.08.2019
4242 Clear 18 1016 68 14484 1.5 200 09:38 03.08.2019
4243 Clear 18 1016 59 14484 1.5 170 09:19 03.08.2019
4244 Clear 18 1016 59 14484 1.5 170 08:46 03.08.2019
4245 Clear 18 1016 59 14484 3.1 230 07:41 03.08.2019
4246 Clear 18 1016 59 14484 3.1 230 07:22 03.08.2019
4247 Clear 19 1017 56 14484 3.1 200 06:21 03.08.2019
4248 Clear 21 1017 44 14484 3.1 200 03:58 03.08.2019
4249 Clear 25 1017 41 14484 4.6 210 02:28 03.08.2019
4250 Clear 26 1017 41 14484 4.6 220 01:22 03.08.2019
4251 Clear 28 1017 34 14484 6.7 210 00:32 03.08.2019
4252 Clear 28 1017 34 14484 6.7 210 00:32 03.08.2019
4253 Clear 28 1017 34 14484 5.7 230 23:57 02.08.2019
4254 Clear 28 1017 34 14484 5.7 230 23:37 02.08.2019
4255 Clear 29 1018 32 14484 7.2 210 23:18 02.08.2019
4256 Clear 29 1018 32 14484 7.2 210 22:54 02.08.2019
4257 Clear 29 1018 32 14484 7.2 210 22:36 02.08.2019
4258 Clouds 28 1018 32 14484 6.2 230 22:18 02.08.2019
4259 Clouds 28 1018 32 14484 6.2 230 21:41 02.08.2019
4260 Clouds 28 1018 32 14484 6.2 230 21:22 02.08.2019
4261 Clouds 28 1018 34 14484 6.2 210 20:45 02.08.2019
4262 Clouds 28 1018 34 14484 6.2 210 20:27 02.08.2019
4263 Clouds 28 1019 34 14484 7.2 210 19:56 02.08.2019
4264 Clouds 28 1019 34 14484 7.2 210 19:34 02.08.2019
4265 Clear 27 1020 39 14484 5.1 230 18:57 02.08.2019
4266 Clear 27 1020 39 14484 5.1 230 18:39 02.08.2019
4267 Clear 26 1020 50 14484 4.6 220 18:20 02.08.2019
4268 Clear 26 1020 50 14484 4.6 220 17:42 02.08.2019
4269 Clear 25 1020 57 14484 3.6 230 17:22 02.08.2019
4270 Clear 24 1020 57 14484 3.6 230 16:40 02.08.2019
4271 Clear 22 1020 57 14484 3.6 230 16:21 02.08.2019
4272 Clear 22 1020 64 14484 3.6 210 15:58 02.08.2019
4273 Clear 22 1020 64 14484 3.6 210 15:38 02.08.2019
4274 Clear 21 1020 68 14484 3.6 210 15:18 02.08.2019
4275 Clear 20 1020 68 14484 3.6 210 14:45 02.08.2019
4276 Clouds 18 1020 72 14484 2.6 160 14:18 02.08.2019
4277 Clouds 18 1020 72 14484 2.6 160 13:47 02.08.2019
4278 Clouds 17 1020 72 14484 2.6 160 13:23 02.08.2019
4279 Clear 16 1020 82 14484 2.1 150 12:44 02.08.2019
4280 Clear 15 1020 82 14484 2.1 150 12:21 02.08.2019
4281 Clear 15 1020 67 14484 1 220 11:46 02.08.2019
4282 Clear 15 1020 67 14484 1 220 11:26 02.08.2019
4283 Clear 15 1020 59 14484 3.1 250 10:55 02.08.2019
4284 Clear 15 1020 59 14484 3.1 250 10:37 02.08.2019
4285 Clear 16 1019 63 14484 3.6 260 10:18 02.08.2019
4286 Clear 16 1019 63 14484 3.6 260 09:44 02.08.2019
4287 Clear 17 1019 63 14484 3.6 260 09:24 02.08.2019
4288 Clear 17 1019 72 14484 3.6 230 08:44 02.08.2019
4289 Clear 17 1019 72 14484 3.6 230 08:21 02.08.2019
4290 Clear 17 1019 68 14484 4.1 230 07:48 02.08.2019
4291 Clear 17 1019 68 14484 4.1 230 07:28 02.08.2019
4292 Clear 18 1019 64 14484 3.1 220 06:42 02.08.2019
4293 Clear 18 1019 60 14484 4.1 240 05:50 02.08.2019
4294 Clear 21 1019 40 14484 4.6 250 03:55 02.08.2019
4295 Clear 21 1019 40 14484 4.6 250 03:25 02.08.2019
4296 Clear 24 1018 36 14484 4.6 250 01:44 02.08.2019
4297 Clear 26 1019 31 14484 3.6 210 00:35 02.08.2019
4298 Clear 27 1019 32 14484 4.1 240 23:46 01.08.2019
4299 Clear 27 1019 32 14484 4.1 240 23:27 01.08.2019
4300 Clear 27 1019 31 14484 2.1 10 22:56 01.08.2019
4301 Clear 27 1019 31 14484 2.1 10 22:37 01.08.2019
4302 Clear 27 1020 34 14484 3.6 110 22:19 01.08.2019
4303 Clear 27 1020 34 14484 3.6 110 21:42 01.08.2019
4304 Clear 27 1020 34 14484 3.6 110 21:23 01.08.2019
4305 Clear 27 1020 24 14484 4.1 40 20:47 01.08.2019
4306 Clear 26 1020 24 14484 4.1 40 20:24 01.08.2019
4307 Clear 26 1020 29 14484 3.6 330 20:00 01.08.2019
4308 Clear 26 1020 29 14484 3.6 330 20:00 01.08.2019
4309 Clear 26 1020 29 14484 3.6 330 19:38 01.08.2019
4310 Clear 26 1020 44 14484 2.6 10 19:19 01.08.2019
4311 Clear 26 1020 44 14484 2.6 10 18:43 01.08.2019
4312 Clear 25 1020 44 14484 2.6 10 18:24 01.08.2019
4313 Clear 24 1020 44 14484 2.6 350 17:51 01.08.2019
4314 Clear 24 1020 44 14484 2.6 350 17:32 01.08.2019
4315 Clear 23 1020 53 14484 2.6 20 16:45 01.08.2019
4316 Clear 23 1020 53 14484 2.6 20 16:23 01.08.2019
4317 Clear 22 1020 56 14484 2.6 40 15:59 01.08.2019
4318 Clear 21 1020 56 14484 2.6 40 15:41 01.08.2019
4319 Clear 20 1020 63 14484 2.1 340 15:19 01.08.2019
4320 Clear 20 1020 63 14484 2.1 340 15:19 01.08.2019
4321 Clear 19 1020 63 14484 2.1 340 14:42 01.08.2019
4322 Clear 19 1020 63 14484 2.1 340 14:42 01.08.2019
4323 Clear 18 1019 82 14484 1 0 14:19 01.08.2019
4324 Clear 18 1019 82 14484 1 0 14:19 01.08.2019
4325 Clear 18 1019 82 14484 1 0 13:58 01.08.2019
4326 Clear 17 1019 82 14484 1 0 13:39 01.08.2019
4327 Clear 17 1019 82 14484 1 330 13:20 01.08.2019
4328 Clear 16 1019 82 14484 1 330 12:45 01.08.2019
4329 Clear 15 1019 82 14484 1 330 12:27 01.08.2019
4330 Clear 15 1019 87 14484 1.5 40 11:43 01.08.2019
4331 Clear 15 1019 87 14484 1.5 40 11:24 01.08.2019
4332 Clear 15 1018 72 14484 1.63 304.831 10:56 01.08.2019
4333 Clear 15 1018 72 14484 1.63 304.831 10:38 01.08.2019
4334 Clear 15 1018 67 14484 2.6 330 10:20 01.08.2019
4335 Clear 15 1018 67 14484 2.6 330 09:44 01.08.2019
4336 Clear 17 1018 67 14484 2.6 330 09:23 01.08.2019
4337 Clear 17 1017 63 14484 3.6 330 08:47 01.08.2019
4338 Clear 17 1017 63 14484 3.6 330 08:21 01.08.2019
4339 Clear 17 1017 63 14484 3.6 330 08:21 01.08.2019
4340 Clear 17 1017 56 14484 3.1 320 07:51 01.08.2019
4341 Clear 18 1017 56 14484 3.1 320 07:28 01.08.2019
4342 Clear 18 1017 49 14484 3.6 310 06:49 01.08.2019
4343 Clear 18 1017 49 14484 3.6 310 06:49 01.08.2019
4344 Clear 18 1017 49 14484 3.6 310 06:49 01.08.2019
4345 Clear 20 1017 49 14484 3.6 310 06:29 01.08.2019
4346 Clear 20 1016 46 14484 5.1 320 05:30 01.08.2019
4347 Clouds 25 1015 50 14484 5.7 290 02:35 01.08.2019
4348 Clouds 27 1014 45 14484 7.2 280 00:51 01.08.2019
4349 Clouds 27 1014 45 14484 7.2 280 00:26 01.08.2019
4350 Clouds 28 1014 48 14484 7.7 300 23:55 31.07.2019
4351 Clouds 28 1014 48 14484 7.7 300 23:36 31.07.2019
4352 Clouds 28 1014 45 14484 6.7 250 23:18 31.07.2019
4353 Clouds 28 1014 45 14484 6.7 250 22:42 31.07.2019
4354 Clouds 28 1014 45 14484 6.7 250 22:23 31.07.2019
4355 Clouds 28 1014 45 14484 5.7 290 21:40 31.07.2019
4356 Clouds 28 1014 45 14484 5.7 290 21:22 31.07.2019
4357 Clear 28 1014 40 14484 7.2 220 20:49 31.07.2019
4358 Clear 28 1014 40 14484 7.2 220 20:49 31.07.2019
4359 Clear 29 1014 40 14484 7.2 220 20:23 31.07.2019
4360 Clear 28 1015 51 14484 4.6 230 19:48 31.07.2019
4361 Clear 28 1015 51 14484 4.6 230 19:29 31.07.2019
4362 Clouds 28 1015 65 14484 2.6 230 18:57 31.07.2019
4363 Clouds 28 1015 65 14484 2.6 230 18:37 31.07.2019
4364 Clouds 27 1015 69 14484 2.6 220 18:18 31.07.2019
4365 Clouds 27 1015 69 14484 2.6 220 17:44 31.07.2019
4366 Clouds 26 1015 73 14484 3.1 210 17:20 31.07.2019
4367 Clouds 25 1015 73 14484 3.1 210 16:52 31.07.2019
4368 Clouds 24 1015 73 14484 3.1 210 16:26 31.07.2019
4369 Clouds 24 1015 69 14484 3.6 270 15:55 31.07.2019
4370 Clouds 24 1015 69 14484 3.6 270 15:37 31.07.2019
4371 Clear 23 1015 78 14484 4.1 250 15:18 31.07.2019
4372 Clear 22 1015 78 14484 4.1 250 14:42 31.07.2019
4373 Clouds 22 1015 94 16093 2.1 260 14:19 31.07.2019
4374 Clouds 21 1015 94 16093 2.1 260 13:55 31.07.2019
4375 Mist 21 1015 94 4023 1 240 13:36 31.07.2019
4376 Mist 21 1014 94 14484 3.1 220 13:18 31.07.2019
4377 Mist 21 1014 94 14484 3.1 220 12:40 31.07.2019
4378 Mist 21 1014 94 14484 3.1 220 12:21 31.07.2019
4379 Mist 21 1013 94 14484 3.1 220 11:39 31.07.2019
4380 Clouds 21 1013 94 14484 3.1 220 11:20 31.07.2019
4381 Clouds 21 1013 100 16093 1.5 250 10:46 31.07.2019
4382 Clouds 21 1013 88 14484 3.6 210 10:21 31.07.2019
4383 Clouds 22 1013 88 14484 4.1 230 09:59 31.07.2019
4384 Clouds 22 1013 88 14484 4.1 230 09:41 31.07.2019
4385 Clouds 22 1013 88 14484 4.1 230 09:23 31.07.2019
4386 Clouds 22 1013 88 14484 3.6 220 08:43 31.07.2019
4387 Clouds 22 1013 88 14484 3.6 220 08:23 31.07.2019
4388 Clouds 22 1013 94 14484 3.1 180 07:42 31.07.2019
4389 Clouds 22 1013 94 14484 3.1 180 07:22 31.07.2019
4390 Clouds 22 1013 94 14484 3.6 150 05:20 31.07.2019
4391 Clouds 22 1013 83 14484 3.6 130 03:55 31.07.2019
4392 Clouds 25 1011 83 14484 4.6 140 00:37 31.07.2019
4393 Clear 26 1011 78 14484 4.6 230 23:47 30.07.2019
4394 Clear 26 1011 78 14484 4.6 230 23:47 30.07.2019
4395 Clear 26 1011 78 14484 4.6 230 23:25 30.07.2019
4396 Rain 25 1012 83 4828 4.6 210 22:49 30.07.2019
4397 Rain 24 1012 83 4828 4.6 210 22:26 30.07.2019
4398 Rain 24 1012 83 4828 4.6 210 22:26 30.07.2019
4399 Rain 25 1011 73 14484 3.1 190 21:59 30.07.2019
4400 Thunderstorm 25 1012 65 24140 4.1 210 21:37 30.07.2019
4401 Thunderstorm 26 1012 73 14484 6.2 140 21:19 30.07.2019
4402 Thunderstorm 25 1012 73 14484 6.2 140 20:55 30.07.2019
4403 Thunderstorm 27 1011 54 12874 9.3 260 20:36 30.07.2019
4404 Thunderstorm 29 1012 51 16093 15.4 260 20:18 30.07.2019
4405 Clear 30 1011 58 14484 4.6 210 19:42 30.07.2019
4406 Clear 30 1011 58 14484 4.6 210 19:24 30.07.2019
4407 Clear 30 1012 55 14484 6.7 230 18:45 30.07.2019
4408 Clear 29 1012 55 14484 6.7 230 18:21 30.07.2019
4409 Clouds 29 1013 61 14484 5.7 220 17:43 30.07.2019
4410 Clouds 28 1012 65 14484 6.2 230 17:20 30.07.2019
4411 Clouds 28 1012 65 14484 6.2 230 16:55 30.07.2019
4412 Clouds 28 1012 65 14484 6.2 230 16:37 30.07.2019
4413 Clear 28 1012 69 14484 4.1 230 16:18 30.07.2019
4414 Clear 26 1012 69 14484 4.1 230 15:39 30.07.2019
4415 Clear 26 1012 69 14484 4.1 230 15:39 30.07.2019
4416 Clouds 26 1012 69 14484 4.1 200 15:19 30.07.2019
4417 Clouds 26 1012 69 14484 4.1 200 14:43 30.07.2019
4418 Clouds 25 1012 69 14484 4.1 200 14:22 30.07.2019
4419 Clear 25 1012 78 14484 3.6 190 13:55 30.07.2019
4420 Clear 24 1012 78 14484 3.6 190 13:36 30.07.2019
4421 Clear 24 1011 83 14484 3.6 170 13:18 30.07.2019
4422 Clear 23 1011 83 14484 3.6 170 12:43 30.07.2019
4423 Clear 23 1011 83 14484 3.6 170 12:24 30.07.2019
4424 Clouds 23 1011 78 14484 2.6 180 11:44 30.07.2019
4425 Clouds 23 1011 78 14484 2.6 180 11:23 30.07.2019
4426 Clear 23 1011 73 14484 3.6 190 10:56 30.07.2019
4427 Clear 23 1011 73 14484 3.6 190 10:38 30.07.2019
4428 Clear 23 1010 73 14484 3.6 190 10:20 30.07.2019
4429 Clear 24 1010 73 14484 3.6 190 09:46 30.07.2019
4430 Clear 24 1010 73 14484 3.6 190 09:27 30.07.2019
4431 Clear 24 1011 73 14484 2.6 200 08:39 30.07.2019
4432 Clear 24 1011 73 14484 3.1 190 08:18 30.07.2019
4433 Clear 25 1011 73 14484 3.1 190 07:40 30.07.2019
4434 Clouds 25 1011 73 14484 3.6 200 07:22 30.07.2019
4435 Clouds 25 1011 73 14484 3.6 200 06:43 30.07.2019
4436 Clouds 26 1011 69 14484 3.6 170 05:35 30.07.2019
4437 Clear 26 1011 65 14484 3.6 180 04:29 30.07.2019
4438 Clear 29 1011 51 14484 4.6 230 01:23 30.07.2019
4439 Clear 30 1011 42 14484 6.7 230 00:27 30.07.2019
4440 Clear 30 1011 42 14484 6.7 230 00:27 30.07.2019
4441 Clear 31 1011 43 14484 6.2 240 23:59 29.07.2019
4442 Clear 31 1011 43 14484 6.2 240 23:40 29.07.2019
4443 Clear 31 1011 43 14484 6.2 240 23:21 29.07.2019
4444 Clear 31 1011 37 14484 4.6 230 22:55 29.07.2019
4445 Clear 31 1011 37 14484 4.6 230 22:37 29.07.2019
4446 Clear 31 1011 40 14484 6.2 220 22:18 29.07.2019
4447 Clear 31 1011 40 14484 6.2 220 21:42 29.07.2019
4448 Clear 31 1011 40 14484 6.2 220 21:23 29.07.2019
4449 Clear 30 1012 48 14484 5.1 230 20:57 29.07.2019
4450 Clear 30 1012 48 14484 5.1 230 20:39 29.07.2019
4451 Clear 30 1012 51 14484 5.7 260 20:19 29.07.2019
4452 Clear 30 1012 51 14484 5.7 260 19:47 29.07.2019
4453 Clear 29 1012 51 14484 5.7 260 19:23 29.07.2019
4454 Clear 29 1013 58 14484 5.7 220 18:58 29.07.2019
4455 Clear 29 1013 58 14484 5.7 220 18:38 29.07.2019
4456 Clear 28 1013 69 14484 5.1 230 18:19 29.07.2019
4457 Clear 28 1013 69 14484 5.1 230 17:47 29.07.2019
4458 Clear 28 1013 69 14484 5.1 230 17:28 29.07.2019
4459 Clear 27 1013 78 14484 4.1 220 16:55 29.07.2019
4460 Clear 27 1013 78 14484 4.1 220 16:55 29.07.2019
4461 Clear 27 1013 78 14484 4.1 220 16:37 29.07.2019
4462 Clear 27 1013 78 14484 4.1 220 16:37 29.07.2019
4463 Clear 26 1013 78 14484 4.1 250 16:18 29.07.2019
4464 Clear 25 1013 78 14484 4.1 250 15:43 29.07.2019
4465 Clear 25 1013 78 14484 4.1 250 15:43 29.07.2019
4466 Clear 24 1013 78 14484 4.1 250 15:24 29.07.2019
4467 Clear 24 1013 83 14484 4.6 230 14:42 29.07.2019
4468 Fog 23 1013 83 14484 4.6 230 14:21 29.07.2019
4469 Fog 22 1013 94 12874 5.7 220 13:46 29.07.2019
4470 Clouds 22 1013 94 12874 5.7 220 13:24 29.07.2019
4471 Mist 21 1013 94 24140 2.6 240 12:57 29.07.2019
4472 Mist 21 1013 94 24140 2.6 240 12:38 29.07.2019
4473 Fog 21 1013 88 24140 1.5 240 12:20 29.07.2019
4474 Fog 21 1013 100 6437 1 260 11:41 29.07.2019
4475 Clouds 21 1012 88 14484 2.6 210 11:19 29.07.2019
4476 Clouds 21 1012 88 14484 2.6 210 10:43 29.07.2019
4477 Clouds 21 1012 88 14484 2.6 210 10:21 29.07.2019
4478 Clear 21 1012 88 14484 3.1 230 09:44 29.07.2019
4479 Clear 21 1012 88 14484 3.1 230 09:21 29.07.2019
4480 Clear 21 1012 88 14484 2.6 250 08:47 29.07.2019
4481 Clear 22 1012 88 14484 2.6 250 08:26 29.07.2019
4482 Clouds 22 1013 83 24140 1.5 240 07:46 29.07.2019
4483 Clear 22 1012 78 14484 4.1 260 07:27 29.07.2019
4484 Clouds 23 1013 78 14484 6.2 250 06:40 29.07.2019
4485 Clouds 23 1013 73 14484 6.7 240 05:37 29.07.2019
4486 Rain 24 1012 74 14484 4.6 240 03:57 29.07.2019
4487 Clouds 26 1012 65 14484 6.2 230 01:52 29.07.2019
4488 Clouds 26 1012 65 14484 6.2 230 01:33 29.07.2019
4489 Clear 27 1012 69 14484 6.7 230 00:58 29.07.2019
4490 Clear 27 1012 69 14484 6.7 230 00:29 29.07.2019
4491 Clear 28 1012 58 14484 7.7 220 23:43 28.07.2019
4492 Clear 28 1012 58 14484 7.7 220 23:24 28.07.2019
4493 Clouds 28 1012 62 14484 7.2 240 22:44 28.07.2019
4494 Clouds 28 1012 62 14484 7.2 240 22:44 28.07.2019
4495 Clouds 28 1012 62 14484 7.2 240 22:26 28.07.2019
4496 Rain 28 1012 78 3219 9.8 220 21:52 28.07.2019
4497 Clouds 28 1012 61 14484 6.7 230 21:20 28.07.2019
4498 Clouds 28 1012 61 14484 6.7 230 20:57 28.07.2019
4499 Clouds 28 1012 61 14484 6.7 230 20:39 28.07.2019
4500 Clouds 28 1012 61 14484 6.7 230 20:21 28.07.2019
4501 Clouds 28 1013 61 14484 6.2 230 19:40 28.07.2019
4502 Clouds 28 1013 61 14484 6.2 230 19:21 28.07.2019
4503 Clouds 28 1014 61 14484 7.2 220 18:46 28.07.2019
4504 Clouds 28 1014 61 14484 7.2 220 18:27 28.07.2019
4505 Clouds 27 1014 61 24140 5.7 240 17:56 28.07.2019
4506 Clouds 27 1014 61 14484 7.7 240 17:38 28.07.2019
4507 Clouds 27 1014 65 14484 5.1 220 17:19 28.07.2019
4508 Clouds 27 1014 65 14484 5.1 220 16:42 28.07.2019
4509 Clouds 26 1014 65 14484 5.1 220 16:23 28.07.2019
4510 Clouds 25 1015 69 14484 3.6 210 15:46 28.07.2019
4511 Clouds 24 1015 69 14484 3.6 210 15:27 28.07.2019
4512 Clouds 24 1014 73 14484 4.6 200 14:41 28.07.2019
4513 Clouds 23 1014 73 14484 4.6 200 14:21 28.07.2019
4514 Clouds 23 1014 78 14484 3.6 210 14:00 28.07.2019
4515 Clouds 23 1014 78 14484 3.6 210 13:39 28.07.2019
4516 Clear 23 1014 83 14484 4.1 190 13:19 28.07.2019
4517 Clear 22 1014 83 14484 4.1 190 12:45 28.07.2019
4518 Clear 22 1014 83 14484 4.1 190 12:27 28.07.2019
4519 Clouds 21 1015 83 14484 3.1 180 11:50 28.07.2019
4520 Clouds 22 1015 83 14484 3.1 180 11:29 28.07.2019
4521 Clouds 21 1015 83 14484 3.6 180 10:59 28.07.2019
4522 Clouds 22 1015 83 14484 3.6 180 10:38 28.07.2019
4523 Clouds 22 1016 77 14484 3.1 190 10:18 28.07.2019
4524 Clouds 22 1016 77 14484 3.1 190 09:40 28.07.2019
4525 Clouds 22 1016 77 14484 3.1 190 09:22 28.07.2019
4526 Clear 22 1016 77 14484 4.1 190 08:42 28.07.2019
4527 Clear 22 1016 77 14484 4.1 190 08:22 28.07.2019
4528 Clouds 22 1017 77 14484 3.1 190 07:42 28.07.2019
4529 Clouds 22 1017 77 14484 3.1 190 07:24 28.07.2019
4530 Clear 22 1017 73 14484 2.1 200 06:36 28.07.2019
4531 Clear 22 1017 69 14484 4.1 180 05:21 28.07.2019
4532 Clouds 25 1017 61 14484 3.6 220 02:39 28.07.2019
4533 Clouds 26 1017 65 14484 5.7 180 01:59 28.07.2019
4534 Thunderstorm 26 1018 65 9656 3.6 0 01:18 28.07.2019
4535 Rain 27 1018 48 24140 6.7 200 00:42 28.07.2019
4536 Clouds 30 1018 45 14484 8.2 170 23:54 27.07.2019
4537 Clouds 30 1018 45 14484 8.2 170 23:29 27.07.2019
4538 Clouds 31 1019 43 14484 4.6 240 22:47 27.07.2019
4539 Clouds 31 1019 43 14484 4.6 240 22:29 27.07.2019
4540 Clouds 31 1019 43 14484 3.6 280 21:59 27.07.2019
4541 Clouds 31 1019 43 14484 3.6 280 21:38 27.07.2019
4542 Clear 30 1020 42 14484 2.6 0 21:19 27.07.2019
4543 Clear 31 1020 42 14484 2.6 0 20:45 27.07.2019
4544 Clear 30 1020 42 14484 2.6 0 20:22 27.07.2019
4545 Clear 31 1021 42 14484 4.1 160 19:42 27.07.2019
4546 Clear 30 1021 42 14484 4.1 160 19:22 27.07.2019
4547 Clear 30 1022 42 14484 5.1 220 18:49 27.07.2019
4548 Clear 29 1022 42 14484 5.1 220 18:30 27.07.2019
4549 Clear 28 1023 51 14484 3.6 160 17:52 27.07.2019
4550 Clear 28 1023 51 14484 3.6 160 17:32 27.07.2019
4551 Clear 28 1023 51 14484 3.6 160 17:32 27.07.2019
4552 Clear 27 1023 57 14484 3.6 210 16:57 27.07.2019
4553 Clear 26 1023 57 14484 3.6 210 16:38 27.07.2019
4554 Clear 26 1023 65 14484 2.6 190 16:18 27.07.2019
4555 Clear 25 1023 65 14484 2.6 190 15:43 27.07.2019
4556 Clear 23 1024 68 14484 3.6 210 15:19 27.07.2019
4557 Clear 23 1024 68 14484 3.6 210 14:46 27.07.2019
4558 Clear 22 1024 68 14484 3.6 210 14:27 27.07.2019
4559 Clear 21 1024 82 14484 2.6 180 13:51 27.07.2019
4560 Clear 20 1024 82 14484 2.6 180 13:25 27.07.2019
4561 Clear 19 1023 88 14484 1.5 150 12:54 27.07.2019
4562 Clear 19 1023 88 14484 1.5 150 12:36 27.07.2019
4563 Clear 18 1023 93 14484 1.5 170 12:18 27.07.2019
4564 Clear 18 1023 93 14484 1.5 170 11:39 27.07.2019
4565 Clear 18 1023 93 14484 2.1 130 11:20 27.07.2019
4566 Clear 18 1023 93 14484 2.1 130 10:41 27.07.2019
4567 Clear 19 1023 93 14484 2.1 130 10:22 27.07.2019
4568 Clear 19 1023 77 14484 1.71 247.083 09:41 27.07.2019
4569 Clear 19 1023 77 14484 2.31 248.438 09:23 27.07.2019
4570 Clear 20 1023 73 14484 2.1 210 08:50 27.07.2019
4571 Clear 20 1023 73 14484 2.1 210 08:31 27.07.2019
4572 Clear 20 1023 68 14484 1.5 210 07:56 27.07.2019
4573 Clear 20 1023 68 14484 1.5 210 07:56 27.07.2019
4574 Clear 20 1023 68 14484 1.5 210 07:33 27.07.2019
4575 Clear 20 1023 64 14484 1.5 210 06:58 27.07.2019
4576 Clear 20 1023 64 14484 1.5 210 06:32 27.07.2019
4577 Clear 21 1023 64 14484 2.6 210 05:54 27.07.2019
4578 Clear 22 1023 64 14484 2.6 210 05:32 27.07.2019
4579 Clear 22 1023 60 14484 3.1 190 04:35 27.07.2019
4580 Clear 24 1022 50 14484 3.1 180 03:37 27.07.2019
4581 Clear 26 1022 44 14484 3.6 220 02:42 27.07.2019
4582 Clear 29 1022 39 14484 4.6 230 01:52 27.07.2019
4583 Clear 29 1022 39 14484 4.6 230 01:28 27.07.2019
4584 Clear 30 1022 37 14484 6.2 240 00:33 27.07.2019
4585 Clear 30 1022 40 14484 6.2 230 23:58 26.07.2019
4586 Clear 30 1022 40 14484 6.2 230 23:40 26.07.2019
4587 Clear 31 1022 40 14484 6.2 230 23:22 26.07.2019
4588 Clear 31 1022 37 14484 5.7 220 22:42 26.07.2019
4589 Clear 30 1022 37 14484 5.7 220 22:24 26.07.2019
4590 Clear 30 1022 40 14484 5.7 270 21:49 26.07.2019
4591 Clear 30 1023 42 14484 4.6 240 21:20 26.07.2019
4592 Clear 30 1023 42 14484 4.6 240 20:48 26.07.2019
4593 Clear 30 1023 42 14484 4.6 240 20:30 26.07.2019
4594 Clear 29 1023 48 14484 3.6 210 19:45 26.07.2019
4595 Clear 29 1023 48 14484 3.6 210 19:26 26.07.2019
4596 Clear 28 1023 54 14484 3.1 220 18:59 26.07.2019
4597 Clear 28 1023 54 14484 3.1 220 18:41 26.07.2019
4598 Clear 27 1023 61 14484 4.6 240 18:20 26.07.2019
4599 Clear 26 1023 61 14484 4.6 240 17:48 26.07.2019
4600 Clear 26 1023 61 14484 4.6 240 17:20 26.07.2019
4601 Clear 25 1023 69 14484 3.1 210 16:59 26.07.2019
4602 Clear 25 1023 69 14484 3.1 210 16:41 26.07.2019
4603 Clear 24 1023 69 14484 3.1 210 16:21 26.07.2019
4604 Clear 23 1023 73 14484 4.1 220 15:59 26.07.2019
4605 Clear 23 1023 73 14484 4.1 220 15:40 26.07.2019
4606 Clear 22 1023 73 14484 3.1 190 15:20 26.07.2019
4607 Mist 21 1023 73 14484 3.1 190 14:44 26.07.2019
4608 Mist 20 1023 73 14484 3.1 190 14:24 26.07.2019
4609 Fog 19 1023 82 14484 3.1 180 13:47 26.07.2019
4610 Fog 19 1023 82 14484 3.1 180 13:28 26.07.2019
4611 Fog 18 1023 93 14484 2.6 180 12:49 26.07.2019
4612 Fog 17 1023 93 14484 2.6 180 12:23 26.07.2019
4613 Fog 17 1022 100 16093 2.05 235.401 11:58 26.07.2019
4614 Fog 17 1022 100 16093 2.05 235.401 11:37 26.07.2019
4615 Clear 17 1021 88 14484 2.6 190 11:18 26.07.2019
4616 Clear 17 1021 88 14484 2.6 190 10:42 26.07.2019
4617 Clear 17 1021 88 14484 2.6 190 10:24 26.07.2019
4618 Clear 18 1021 88 14484 3.6 220 09:50 26.07.2019
4619 Clear 18 1021 88 14484 3.6 220 09:30 26.07.2019
4620 Clear 19 1021 82 14484 4.1 230 08:41 26.07.2019
4621 Clear 19 1021 82 14484 4.1 230 08:21 26.07.2019
4622 Clear 20 1020 77 14484 4.6 240 07:43 26.07.2019
4623 Clear 19 1020 77 14484 4.6 240 07:24 26.07.2019
4624 Clear 20 1020 77 14484 5.1 240 06:31 26.07.2019
4625 Clouds 21 1019 60 14484 5.1 230 04:30 26.07.2019
4626 Clouds 23 1019 53 14484 3.1 210 03:54 26.07.2019
4627 Clouds 26 1018 47 14484 5.7 230 01:50 26.07.2019
4628 Clouds 27 1018 47 14484 5.7 230 01:26 26.07.2019
4629 Clouds 26 1018 50 14484 4.1 220 00:32 26.07.2019
4630 Clouds 28 1017 47 14484 5.1 220 23:55 25.07.2019
4631 Clouds 28 1018 42 14484 4.6 240 23:23 25.07.2019
4632 Clouds 28 1018 42 14484 4.6 240 22:42 25.07.2019
4633 Clouds 28 1018 42 14484 4.6 240 22:23 25.07.2019
4634 Clouds 28 1018 48 14484 7.2 210 21:58 25.07.2019
4635 Clouds 28 1018 48 14484 7.2 210 21:58 25.07.2019
4636 Clouds 28 1018 48 14484 7.2 210 21:40 25.07.2019
4637 Clear 27 1018 47 14484 7.2 220 21:20 25.07.2019
4638 Clear 27 1018 47 14484 7.2 220 20:41 25.07.2019
4639 Clear 27 1018 47 14484 7.2 220 20:21 25.07.2019
4640 Clouds 26 1018 53 14484 3.1 190 19:41 25.07.2019
4641 Clouds 26 1018 53 14484 3.1 190 19:23 25.07.2019
4642 Clouds 25 1019 53 14484 3.6 170 18:45 25.07.2019
4643 Clouds 25 1019 53 14484 3.6 170 18:27 25.07.2019
4644 Clouds 24 1019 53 14484 3.1 0 17:52 25.07.2019
4645 Clouds 24 1019 53 14484 3.1 0 17:34 25.07.2019
4646 Clouds 23 1019 64 14484 2.1 190 16:59 25.07.2019
4647 Clouds 22 1019 64 14484 2.1 190 16:41 25.07.2019
4648 Clouds 22 1019 64 14484 2.1 190 16:22 25.07.2019
4649 Clouds 21 1019 77 14484 2.6 140 15:51 25.07.2019
4650 Clouds 19 1019 77 14484 2.6 140 15:21 25.07.2019
4651 Clouds 18 1019 87 14484 2.1 70 14:43 25.07.2019
4652 Clouds 18 1019 87 14484 2.1 70 14:25 25.07.2019
4653 Clouds 16 1018 87 14484 1 0 13:59 25.07.2019
4654 Clouds 16 1018 87 14484 1 0 13:37 25.07.2019
4655 Rain 15 1018 77 32767 2.16 222.097 13:19 25.07.2019
4656 Clouds 14 1018 93 14484 1 0 12:34 25.07.2019
4657 Rain 14 1017 93 14484 1.35 258.039 11:59 25.07.2019
4658 Rain 13 1017 93 14484 1.35 258.039 11:40 25.07.2019
4659 Rain 13 1017 93 14484 1.35 258.039 11:40 25.07.2019
4660 Rain 13 1017 93 14484 1.35 258.039 11:22 25.07.2019
4661 Clear 13 1017 87 14484 1.35 258.039 10:45 25.07.2019
4662 Clear 13 1017 87 14484 1.35 258.039 10:24 25.07.2019
4663 Clear 13 1017 87 14484 1.35 258.039 09:46 25.07.2019
4664 Clear 13 1017 87 14484 1.35 258.039 09:27 25.07.2019
4665 Clear 14 1017 87 14484 1.86 259.263 08:53 25.07.2019
4666 Clear 14 1017 87 14484 1.86 259.263 08:32 25.07.2019
4667 Clear 14 1017 82 14484 1 130 07:40 25.07.2019
4668 Clear 15 1017 77 14484 1 0 06:46 25.07.2019
4669 Clear 16 1017 67 14484 2 284.885 06:20 25.07.2019
4670 Clear 16 1017 67 14484 2 284.885 05:36 25.07.2019
4671 Clear 17 1016 59 14484 1 90 04:50 25.07.2019
4672 Clear 20 1016 52 14484 2.1 330 03:24 25.07.2019
4673 Clouds 23 1015 43 14484 3.6 280 01:21 25.07.2019
4674 Clouds 24 1015 41 14484 3.6 310 00:34 25.07.2019
4675 Clouds 24 1015 41 14484 5.1 290 23:59 24.07.2019
4676 Clouds 24 1015 41 14484 5.1 290 23:40 24.07.2019
4677 Clouds 24 1015 41 14484 5.1 290 23:22 24.07.2019
4678 Clouds 24 1015 43 14484 4.1 290 22:45 24.07.2019
4679 Clouds 24 1015 43 14484 4.1 290 22:22 24.07.2019
4680 -273 0 0 0 0 0 21:56 24.07.2019
4681 Clouds 24 1015 47 14484 4.6 320 21:38 24.07.2019
4682 Clouds 23 1015 53 14484 3.1 300 21:19 24.07.2019
4683 Clouds 23 1015 53 14484 3.1 300 20:46 24.07.2019
4684 Clouds 23 1015 53 14484 3.1 300 20:27 24.07.2019
4685 Clouds 23 1015 60 14484 2.1 0 19:58 24.07.2019
4686 Clouds 23 1015 60 14484 2.1 0 19:40 24.07.2019
4687 Clouds 23 1015 60 14484 2.1 0 19:40 24.07.2019
4688 Clouds 22 1016 64 14484 3.6 250 19:20 24.07.2019
4689 Clouds 22 1016 64 14484 3.6 250 18:43 24.07.2019
4690 Clouds 21 1016 64 14484 3.6 250 18:24 24.07.2019
4691 Clouds 21 1016 64 14484 2.6 0 17:47 24.07.2019
4692 Clouds 21 1016 64 14484 2.6 0 17:22 24.07.2019
4693 Clouds 21 1016 72 14484 1 0 16:57 24.07.2019
4694 Clouds 20 1016 72 14484 1 0 16:39 24.07.2019
4695 Clouds 19 1016 72 14484 2.1 20 16:20 24.07.2019
4696 Clouds 19 1016 72 14484 2.1 20 15:37 24.07.2019
4697 Clear 18 1016 77 14484 3.1 20 15:19 24.07.2019
4698 Clear 17 1016 77 14484 3.1 20 14:45 24.07.2019
4699 Clear 17 1016 77 14484 3.1 20 14:21 24.07.2019
4700 Clear 16 1016 87 14484 3.1 10 13:40 24.07.2019
4701 Clear 15 1016 87 14484 3.1 10 13:22 24.07.2019
4702 Clear 14 1015 93 14484 1.5 340 12:53 24.07.2019
4703 Clear 13 1015 93 14484 1.5 340 12:35 24.07.2019
4704 Clear 12 1015 93 14484 1 300 11:55 24.07.2019
4705 Clear 13 1015 93 14484 1 300 11:37 24.07.2019
4706 Clear 13 1014 87 14484 1.41 10.91 11:18 24.07.2019
4707 Clear 13 1014 87 14484 1.41 10.91 10:41 24.07.2019
4708 Clear 13 1014 87 14484 1.41 10.91 10:23 24.07.2019
4709 Clear 13 1014 87 14484 1.5 60 09:44 24.07.2019
4710 Clear 14 1014 87 14484 1.5 60 09:22 24.07.2019
4711 Clear 15 1014 77 14484 1 340 08:44 24.07.2019
4712 Clear 15 1014 77 14484 1 340 08:26 24.07.2019
4713 Clear 15 1014 72 14484 2.1 330 07:46 24.07.2019
4714 Clear 16 1014 72 14484 3.1 350 07:20 24.07.2019
4715 Clear 17 1014 72 14484 3.1 350 06:28 24.07.2019
4716 Clear 18 1013 67 14484 3.6 340 05:24 24.07.2019
4717 Clouds 24 1011 41 14484 4.6 330 01:56 24.07.2019
4718 Clouds 24 1011 41 14484 4.6 330 01:22 24.07.2019
4719 Clouds 24 1010 50 14484 4.6 310 00:50 24.07.2019
4720 Clouds 25 1010 47 14484 5.7 270 00:19 24.07.2019
4721 Clouds 25 1010 47 14484 5.7 270 23:37 23.07.2019
4722 Clouds 25 1010 44 14484 4.1 280 23:19 23.07.2019
4723 Clouds 25 1010 44 14484 4.1 280 22:38 23.07.2019
4724 Clouds 25 1009 49 14484 6.2 290 22:19 23.07.2019
4725 Rain 25 1010 56 14484 7.7 290 21:46 23.07.2019
4726 Rain 25 1010 56 14484 7.7 290 21:28 23.07.2019
4727 Clouds 25 1009 47 14484 5.7 260 20:57 23.07.2019
4728 Clouds 26 1009 47 14484 5.7 260 20:39 23.07.2019
4729 Rain 25 1010 56 32767 4.1 260 20:19 23.07.2019
4730 Clouds 26 1010 50 14484 5.7 210 19:37 23.07.2019
4731 Clouds 26 1010 50 14484 4.6 240 19:18 23.07.2019
4732 Clouds 25 1010 50 14484 4.6 240 18:42 23.07.2019
4733 Clouds 25 1010 50 14484 4.6 240 18:22 23.07.2019
4734 Clear 24 1010 53 14484 3.6 200 17:44 23.07.2019
4735 Clear 24 1010 53 14484 3.6 200 17:24 23.07.2019
4736 Clear 23 1011 60 14484 2.6 220 16:50 23.07.2019
4737 Clear 22 1011 60 14484 2.6 220 16:28 23.07.2019
4738 Clear 22 1011 68 14484 2.6 250 15:58 23.07.2019
4739 Clear 21 1011 68 14484 2.6 250 15:39 23.07.2019
4740 Clear 20 1011 68 14484 2.6 250 15:21 23.07.2019
4741 Clear 18 1011 88 14484 2.39 257.004 14:37 23.07.2019
4742 Clear 18 1011 93 14484 2.1 130 14:19 23.07.2019
4743 Clear 17 1011 93 14484 2.1 130 13:56 23.07.2019
4744 Clear 17 1011 93 14484 2.1 130 13:56 23.07.2019
4745 Clear 17 1011 93 14484 2.1 130 13:38 23.07.2019
4746 Clear 16 1010 100 14484 2.42 248.968 13:20 23.07.2019
4747 Clear 16 1010 100 14484 2.42 248.968 12:45 23.07.2019
4748 Clear 15 1010 100 14484 1.53 264.751 12:25 23.07.2019
4749 Mist 16 1010 93 9656 1 260 11:46 23.07.2019
4750 Mist 16 1010 93 9656 1 260 11:27 23.07.2019
4751 Mist 16 1010 93 8047 1 180 10:54 23.07.2019
4752 Clouds 16 1010 93 14484 1.53 264.751 10:36 23.07.2019
4753 Clouds 16 1010 93 14484 1 150 10:18 23.07.2019
4754 Clouds 16 1010 93 14484 1 150 09:40 23.07.2019
4755 Clouds 16 1011 93 14484 1 0 09:18 23.07.2019
4756 Clouds 16 1011 93 14484 1 0 08:40 23.07.2019
4757 Clouds 16 1011 82 14484 1.5 150 08:19 23.07.2019
4758 Clouds 16 1011 82 14484 1.5 150 07:51 23.07.2019
4759 Clouds 16 1011 82 14484 1.5 150 07:33 23.07.2019
4760 Clouds 17 1011 82 14484 1.5 210 06:38 23.07.2019
4761 Clear 17 1011 72 14484 2.1 190 05:34 23.07.2019
4762 Clouds 21 1011 60 14484 2.1 130 01:58 23.07.2019
4763 Clouds 21 1011 60 14484 2.1 130 01:27 23.07.2019
4764 Clouds 22 1011 64 14484 1.5 70 00:28 23.07.2019
4765 Clouds 22 1011 53 14484 2.6 70 23:41 22.07.2019
4766 Clouds 22 1011 53 14484 2.6 70 23:21 22.07.2019
4767 Clouds 23 1012 53 14484 2.6 60 22:58 22.07.2019
4768 Clouds 23 1012 53 14484 2.6 60 22:40 22.07.2019
4769 Clouds 23 1012 53 14484 2.1 70 22:20 22.07.2019
4770 Clouds 23 1012 53 14484 2.1 70 22:20 22.07.2019
4771 Clouds 23 1012 53 14484 2.1 70 21:42 22.07.2019
4772 Clouds 23 1012 53 14484 2.1 70 21:21 22.07.2019
4773 Clouds 22 1013 60 14484 2.1 50 20:48 22.07.2019
4774 Clouds 22 1013 60 14484 2.1 50 20:29 22.07.2019
4775 Clouds 22 1013 49 14484 1 0 19:54 22.07.2019
4776 Clouds 22 1013 49 14484 1 0 19:36 22.07.2019
4777 Clouds 22 1014 60 14484 2.1 100 19:18 22.07.2019
4778 Clouds 21 1014 60 14484 2.1 100 18:40 22.07.2019
4779 Clouds 21 1014 60 14484 2.1 100 18:22 22.07.2019
4780 Clouds 21 1014 59 14484 2.6 100 17:42 22.07.2019
4781 Clouds 21 1014 59 14484 2.6 150 17:24 22.07.2019
4782 Clouds 20 1014 59 14484 2.6 150 16:42 22.07.2019
4783 Clouds 20 1014 59 14484 2.6 150 16:22 22.07.2019
4784 Clouds 20 1013 72 14484 2.6 40 15:59 22.07.2019
4785 Clouds 20 1013 72 14484 2.6 40 15:38 22.07.2019
4786 Clouds 19 1014 72 14484 3.1 20 15:18 22.07.2019
4787 Clouds 19 1014 72 14484 3.1 20 14:43 22.07.2019
4788 Clouds 19 1014 72 14484 3.1 20 14:21 22.07.2019
4789 Clouds 19 1014 72 14484 3.1 20 14:21 22.07.2019
4790 Clear 18 1014 77 14484 1.5 30 13:48 22.07.2019
4791 Clear 18 1014 77 14484 1.5 30 13:29 22.07.2019
4792 Clouds 17 1014 87 14484 1 10 12:47 22.07.2019
4793 Clouds 17 1014 87 14484 1 10 12:29 22.07.2019
4794 Clear 17 1014 77 14484 1.5 360 11:46 22.07.2019
4795 Clear 17 1014 77 14484 1.5 360 11:26 22.07.2019
4796 Clear 17 1013 77 14484 2.1 20 10:59 22.07.2019
4797 Clear 17 1013 77 14484 2.1 20 10:33 22.07.2019
4798 Clear 17 1013 77 14484 2.1 20 10:33 22.07.2019
4799 Clear 18 1013 77 14484 3.6 10 09:45 22.07.2019
4800 Clear 18 1013 77 14484 3.6 10 09:26 22.07.2019
4801 Clear 19 1012 77 14484 3.1 10 08:59 22.07.2019
4802 Clear 19 1012 77 14484 3.1 10 08:37 22.07.2019
4803 Clouds 19 1012 72 14484 2.6 20 08:18 22.07.2019
4804 Clouds 19 1012 72 14484 2.6 20 07:46 22.07.2019
4805 Clouds 19 1012 72 14484 2.6 20 07:27 22.07.2019
4806 Clear 22 1010 64 14484 3.6 330 04:56 22.07.2019
4807 Clear 25 1008 47 14484 5.1 310 02:59 22.07.2019
4808 Clouds 28 1006 48 14484 6.2 310 00:59 22.07.2019
4809 Clouds 29 1006 48 14484 6.2 310 00:39 22.07.2019
4810 Clear 29 1006 45 14484 8.2 290 00:20 22.07.2019
4811 Clear 29 1006 45 14484 8.2 290 23:46 21.07.2019
4812 Clear 29 1006 48 14484 7.7 270 22:58 21.07.2019
4813 Clear 29 1006 48 14484 7.7 270 22:39 21.07.2019
4814 Clear 29 1005 45 14484 6.2 270 22:20 21.07.2019
4815 Clear 29 1005 45 14484 6.2 270 21:49 21.07.2019
4816 Clear 29 1005 45 14484 6.2 270 21:26 21.07.2019
4817 Clouds 29 1005 51 14484 8.2 270 20:59 21.07.2019
4818 Clouds 29 1005 51 14484 8.2 270 20:41 21.07.2019
4819 Clouds 29 1005 51 14484 8.2 270 20:22 21.07.2019
4820 Clouds 29 1006 54 14484 4.6 290 19:49 21.07.2019
4821 Clouds 29 1006 54 14484 4.6 290 19:29 21.07.2019
4822 Clear 29 1006 65 14484 3.1 260 18:53 21.07.2019
4823 Clear 28 1006 65 14484 3.1 260 18:34 21.07.2019
4824 Clouds 27 1005 74 14484 2.1 250 17:58 21.07.2019
4825 Clouds 27 1005 74 14484 2.1 250 17:40 21.07.2019
4826 Clouds 26 1005 73 14484 1.5 290 17:19 21.07.2019
4827 Clouds 25 1005 73 14484 1.5 290 16:41 21.07.2019
4828 Clouds 25 1005 73 14484 1.5 290 16:22 21.07.2019
4829 Clouds 24 1005 88 14484 1 0 15:42 21.07.2019
4830 Clouds 23 1005 88 14484 1 0 15:21 21.07.2019
4831 Clouds 23 1005 100 14484 2.1 30 14:53 21.07.2019
4832 Clouds 23 1005 100 14484 2.1 30 14:25 21.07.2019
4833 Clouds 23 1005 94 14484 3.6 10 13:57 21.07.2019
4834 Clouds 23 1005 94 14484 3.6 10 13:57 21.07.2019
4835 Thunderstorm 23 1005 100 3219 7.7 340 13:39 21.07.2019
4836 Thunderstorm 23 1003 88 14484 5.7 240 13:19 21.07.2019
4837 Rain 24 1004 83 24140 5.7 250 12:40 21.07.2019
4838 Rain 24 1004 83 24140 5.7 250 12:40 21.07.2019
4839 Rain 24 1003 83 14484 4.6 240 12:21 21.07.2019
4840 Clouds 25 1003 83 14484 6.2 240 11:45 21.07.2019
4841 Clouds 25 1003 83 14484 6.2 240 11:26 21.07.2019
4842 Clouds 25 1003 78 14484 6.2 240 10:47 21.07.2019
4843 Clouds 25 1003 78 14484 6.2 240 10:25 21.07.2019
4844 Clouds 25 1003 88 14484 4.1 240 09:55 21.07.2019
4845 Clouds 25 1003 88 14484 4.1 240 09:35 21.07.2019
4846 Clouds 25 1003 88 14484 4.6 240 08:49 21.07.2019
4847 Clouds 25 1003 88 14484 4.6 240 08:29 21.07.2019
4848 Clouds 25 1004 88 14484 2.6 240 07:53 21.07.2019
4849 Clear 25 1004 83 14484 3.1 220 07:19 21.07.2019
4850 Clear 25 1004 83 14484 3.1 220 06:34 21.07.2019
4851 Clear 26 1004 69 14484 3.1 210 03:51 21.07.2019
4852 Clouds 27 1004 62 14484 8.2 240 01:53 21.07.2019
4853 Rain 29 1005 66 24140 9.8 240 00:47 21.07.2019
4854 Thunderstorm 30 1004 70 14484 7.2 250 00:21 21.07.2019
4855 Clear 31 1004 62 14484 5.1 240 23:46 20.07.2019
4856 Clear 31 1004 62 14484 5.1 240 23:27 20.07.2019
4857 Clear 32 1004 55 14484 7.2 230 22:55 20.07.2019
4858 Clear 32 1004 55 14484 7.2 230 22:37 20.07.2019
4859 Clear 33 1004 55 14484 7.2 250 22:18 20.07.2019
4860 Clear 33 1004 55 14484 7.2 250 21:42 20.07.2019
4861 Clear 32 1004 55 14484 7.2 250 21:24 20.07.2019
4862 Clear 32 1005 62 14484 7.7 220 20:43 20.07.2019
4863 Clear 32 1005 62 14484 7.7 220 20:23 20.07.2019
4864 Clear 32 1006 66 14484 6.7 240 19:49 20.07.2019
4865 Clear 31 1006 66 14484 6.7 240 19:28 20.07.2019
4866 Clear 31 1007 66 14484 6.7 230 18:56 20.07.2019
4867 Clear 30 1007 66 14484 6.7 230 18:37 20.07.2019
4868 Clear 30 1007 70 14484 4.6 240 18:18 20.07.2019
4869 Clear 30 1007 70 14484 4.6 240 17:43 20.07.2019
4870 Clouds 29 1007 74 14484 4.1 250 17:19 20.07.2019
4871 Clouds 28 1007 74 14484 4.1 250 16:40 20.07.2019
4872 Clouds 28 1007 74 14484 4.1 250 16:22 20.07.2019
4873 Clear 27 1008 83 14484 6.2 240 15:42 20.07.2019
4874 Clear 27 1008 83 14484 6.2 240 15:42 20.07.2019
4875 Clear 27 1008 83 14484 6.2 240 15:21 20.07.2019
4876 Clear 26 1008 83 14484 6.2 250 14:49 20.07.2019
4877 Clear 26 1008 83 14484 6.2 250 14:30 20.07.2019
4878 Clear 25 1007 88 14484 5.7 240 13:58 20.07.2019
4879 Clear 24 1007 88 14484 5.7 240 13:38 20.07.2019
4880 Clouds 24 1007 94 12874 2.6 260 13:19 20.07.2019
4881 Clear 24 1007 94 14484 4.1 220 12:49 20.07.2019
4882 Clear 24 1006 88 14484 4.6 220 12:20 20.07.2019
4883 Clear 24 1006 88 14484 4.6 220 11:49 20.07.2019
4884 Clear 24 1006 88 14484 4.6 220 11:22 20.07.2019
4885 Clear 24 1006 88 14484 5.7 240 10:45 20.07.2019
4886 Clear 24 1006 88 14484 5.7 240 10:25 20.07.2019
4887 Clear 24 1006 94 14484 6.2 230 09:52 20.07.2019
4888 Clear 24 1006 94 14484 6.2 230 09:27 20.07.2019
4889 Clear 25 1005 88 14484 6.7 250 08:55 20.07.2019
4890 Clear 25 1005 88 14484 6.7 250 08:36 20.07.2019
4891 Clouds 25 1006 83 14484 8.2 250 08:18 20.07.2019
4892 Clear 26 1005 78 14484 8.7 250 06:47 20.07.2019
4893 Clear 27 1005 78 14484 8.7 250 06:21 20.07.2019
4894 Clear 27 1005 74 14484 7.7 230 04:31 20.07.2019
4895 Clear 29 1004 70 14484 5.7 240 02:34 20.07.2019
4896 Clouds 30 1004 62 14484 9.3 250 01:20 20.07.2019
4897 Clouds 31 1004 62 14484 9.3 250 00:45 20.07.2019
4898 Clear 31 1004 62 14484 10.3 240 00:18 20.07.2019
4899 Clear 31 1004 62 14484 10.3 240 23:43 19.07.2019
4900 Clear 31 1004 62 14484 10.3 240 23:22 19.07.2019
4901 Clear 31 1005 62 14484 8.7 260 22:43 19.07.2019
4902 Clear 31 1005 62 14484 8.7 260 22:24 19.07.2019
4903 Clouds 31 1005 66 14484 7.7 240 21:46 19.07.2019
4904 Clouds 31 1005 66 14484 7.7 240 21:27 19.07.2019
4905 Clear 31 1005 62 14484 6.7 220 20:50 19.07.2019
4906 Clear 31 1005 62 14484 6.7 220 20:31 19.07.2019
4907 Clouds 30 1006 66 14484 8.2 240 19:55 19.07.2019
4908 Clouds 30 1006 66 14484 8.2 240 19:34 19.07.2019
4909 Clouds 29 1006 70 14484 7.7 240 18:43 19.07.2019
4910 Clouds 28 1006 70 14484 7.7 240 18:22 19.07.2019
4911 Clouds 27 1006 74 14484 7.2 240 17:55 19.07.2019
4912 Clouds 28 1006 74 14484 7.2 240 17:29 19.07.2019
4913 Clouds 27 1006 83 14484 5.1 220 16:49 19.07.2019
4914 Clouds 26 1006 83 14484 5.1 220 16:29 19.07.2019
4915 Clouds 25 1006 88 24140 2.6 220 15:56 19.07.2019
4916 Clouds 24 1007 83 14484 4.6 220 15:38 19.07.2019
4917 Clouds 23 1007 88 14484 3.6 190 15:20 19.07.2019
4918 Clouds 23 1007 88 14484 3.6 190 14:44 19.07.2019
4919 Clouds 22 1007 88 14484 3.6 190 14:25 19.07.2019
4920 Clouds 22 1007 94 14484 4.6 180 13:46 19.07.2019
4921 Rain 21 1007 94 14484 4.6 180 13:27 19.07.2019
4922 Rain 21 1007 88 14484 3.6 180 12:57 19.07.2019
4923 Rain 21 1007 94 24140 2.1 140 12:37 19.07.2019
4924 Clouds 21 1008 94 14484 3.6 180 12:19 19.07.2019
4925 Clouds 21 1008 94 14484 3.6 180 11:44 19.07.2019
4926 Clear 21 1008 88 14484 3.1 190 11:18 19.07.2019
4927 Clear 20 1008 88 14484 3.1 190 10:48 19.07.2019
4928 Clear 21 1008 88 14484 3.1 190 10:23 19.07.2019
4929 Clouds 20 1008 94 14484 3.1 200 09:58 19.07.2019
4930 Clouds 21 1008 94 14484 3.1 200 09:40 19.07.2019
4931 Clouds 21 1008 94 14484 3.1 200 09:21 19.07.2019
4932 Clear 21 1009 77 14484 1.5 150 08:48 19.07.2019
4933 Clear 21 1009 77 14484 1.5 150 08:22 19.07.2019
4934 Clear 21 1009 77 14484 1 0 07:29 19.07.2019
4935 Clouds 21 1010 73 14484 1 70 06:19 19.07.2019
4936 Clear 24 1011 60 14484 2.1 110 02:55 19.07.2019
4937 Clear 27 1012 44 14484 2.1 100 01:21 19.07.2019
4938 Clear 27 1012 44 14484 2.1 100 00:45 19.07.2019
4939 Clear 27 1013 42 14484 2.1 0 23:59 18.07.2019
4940 Clear 27 1013 42 14484 2.1 0 23:40 18.07.2019
4941 Clear 27 1013 42 14484 2.1 0 23:22 18.07.2019
4942 Clear 27 1013 44 14484 2.6 40 22:41 18.07.2019
4943 Clear 27 1014 47 14484 2.6 50 22:20 18.07.2019
4944 Clear 27 1014 47 14484 2.6 50 21:52 18.07.2019
4945 Clear 27 1014 47 14484 2.6 50 21:34 18.07.2019
4946 Clear 26 1014 47 14484 2.1 110 20:57 18.07.2019
4947 Clear 26 1014 47 14484 2.1 110 20:38 18.07.2019
4948 Clouds 26 1015 44 24140 3.6 80 20:18 18.07.2019
4949 Clear 26 1015 50 14484 2.6 60 19:46 18.07.2019
4950 Clear 25 1015 50 14484 2.6 60 19:21 18.07.2019
4951 Clear 25 1016 53 14484 3.6 30 18:49 18.07.2019
4952 Clear 24 1016 53 14484 3.6 30 18:22 18.07.2019
4953 -273 0 0 0 0 0 17:56 18.07.2019
4954 Clear 23 1016 60 14484 4.1 50 17:36 18.07.2019
4955 Clouds 23 1017 56 32767 4.6 40 17:18 18.07.2019
4956 Clear 22 1017 68 14484 3.6 20 16:43 18.07.2019
4957 Clear 21 1017 68 14484 3.6 20 16:24 18.07.2019
4958 Clear 20 1017 72 14484 3.6 30 15:55 18.07.2019
4959 Clear 20 1017 72 14484 3.6 30 15:36 18.07.2019
4960 Clear 19 1017 77 14484 4.1 40 14:55 18.07.2019
4961 Clear 18 1017 77 14484 4.1 40 14:37 18.07.2019
4962 Clear 17 1017 82 14484 3.6 20 13:57 18.07.2019
4963 Clear 17 1017 82 14484 3.6 20 13:36 18.07.2019
4964 Clear 17 1017 82 14484 5.1 10 13:18 18.07.2019
4965 Clear 16 1017 82 14484 5.1 10 12:42 18.07.2019
4966 Clear 15 1016 82 14484 4.1 10 12:18 18.07.2019
4967 Clear 16 1016 82 14484 4.1 10 11:50 18.07.2019
4968 Clear 16 1016 82 14484 4.1 10 11:27 18.07.2019
4969 Clear 16 1016 82 14484 4.1 10 11:27 18.07.2019
4970 Clear 16 1016 77 14484 4.6 30 10:52 18.07.2019
4971 Clear 17 1015 77 14484 4.6 40 10:18 18.07.2019
4972 Clear 17 1015 77 14484 4.6 40 09:44 18.07.2019
4973 Clear 17 1015 82 14484 3.1 30 09:21 18.07.2019
4974 Clear 17 1015 82 14484 3.1 30 08:43 18.07.2019
4975 Clear 17 1015 82 14484 2.1 360 08:19 18.07.2019
4976 Clear 17 1015 82 14484 2.1 360 07:37 18.07.2019
4977 Clear 17 1015 88 14484 1 340 07:19 18.07.2019
4978 Clear 18 1015 88 14484 1 340 06:35 18.07.2019
4979 Clouds 22 1013 49 24140 4.1 40 04:20 18.07.2019
4980 Clear 24 1012 64 14484 3.6 50 02:52 18.07.2019
4981 Clear 26 1012 50 14484 5.1 30 01:38 18.07.2019
4982 Clear 27 1011 65 14484 4.6 40 00:28 18.07.2019
4983 Clouds 27 1011 78 14484 6.7 40 23:49 17.07.2019
4984 Clouds 27 1010 73 14484 6.2 30 23:19 17.07.2019
4985 Clouds 27 1010 73 14484 6.2 30 22:54 17.07.2019
4986 Clouds 27 1010 74 14484 4.6 240 22:36 17.07.2019
4987 Clouds 27 1009 74 14484 6.2 240 22:18 17.07.2019
4988 Clouds 27 1009 74 14484 6.2 240 21:43 17.07.2019
4989 Clouds 28 1009 74 14484 6.2 240 21:25 17.07.2019
4990 Clouds 28 1010 74 32186 3.6 250 20:58 17.07.2019
4991 Clouds 28 1010 74 32186 3.6 250 20:39 17.07.2019
4992 Rain 28 1010 74 14484 6.2 230 20:20 17.07.2019
4993 Rain 28 1010 74 14484 6.2 230 19:43 17.07.2019
4994 Clouds 27 1010 78 14484 3.6 240 19:22 17.07.2019
4995 Clouds 27 1010 78 14484 3.6 240 18:59 17.07.2019
4996 Clouds 27 1010 78 14484 3.6 240 18:40 17.07.2019
4997 Clouds 27 1010 78 14484 3.6 240 18:40 17.07.2019
4998 Clouds 27 1010 78 14484 5.1 220 18:20 17.07.2019
4999 Clouds 27 1010 78 14484 5.1 220 17:49 17.07.2019
5000 Clouds 27 1010 78 14484 5.1 220 17:25 17.07.2019
5001 Clouds 26 1010 83 14484 4.1 230 16:55 17.07.2019
5002 Clouds 26 1010 83 14484 4.1 230 16:37 17.07.2019
5003 Clouds 25 1010 83 14484 4.1 230 16:18 17.07.2019
5004 Clouds 25 1011 78 14484 5.1 260 15:44 17.07.2019
5005 Clouds 25 1011 78 14484 5.1 260 15:25 17.07.2019
5006 Clouds 24 1010 78 14484 5.7 240 14:54 17.07.2019
5007 Clouds 24 1010 83 14484 7.2 250 14:36 17.07.2019
5008 Clouds 24 1010 83 14484 7.2 250 14:18 17.07.2019
5009 Clouds 24 1010 83 14484 7.2 250 13:40 17.07.2019
5010 Clouds 24 1010 83 14484 7.2 250 13:20 17.07.2019
5011 Clouds 24 1009 83 14484 6.2 250 12:40 17.07.2019
5012 Clouds 24 1009 83 14484 6.2 250 12:20 17.07.2019
5013 Clouds 24 1009 78 14484 5.7 240 11:45 17.07.2019
5014 Clouds 24 1009 78 14484 5.7 240 11:21 17.07.2019
5015 Clouds 24 1009 78 14484 5.1 250 10:50 17.07.2019
5016 Clouds 24 1009 78 14484 5.1 250 10:29 17.07.2019
5017 Clouds 24 1009 73 14484 5.7 240 09:58 17.07.2019
5018 Clouds 24 1009 73 14484 5.7 240 09:40 17.07.2019
5019 Clouds 25 1009 73 14484 5.7 240 09:20 17.07.2019
5020 Clouds 25 1014 76 0 2.24 298 08:42 17.07.2019
5021 Clouds 25 1010 69 14484 7.7 240 08:22 17.07.2019
5022 Clouds 25 1010 69 14484 7.7 240 07:50 17.07.2019
5023 Clouds 26 1010 69 14484 7.7 240 07:24 17.07.2019
5024 Clouds 26 1009 65 14484 8.2 230 06:55 17.07.2019
5025 Clouds 26 1009 65 14484 8.2 230 06:29 17.07.2019
5026 Rain 26 1009 69 14484 7.2 220 05:48 17.07.2019
5027 Clouds 26 1009 65 14484 6.2 220 05:28 17.07.2019
5028 Clouds 26 1009 74 14484 5.1 210 04:42 17.07.2019
5029 Clouds 26 1009 74 14484 3.6 190 03:19 17.07.2019
5030 Clouds 27 1009 65 14484 4.1 220 01:59 17.07.2019
5031 Clouds 28 1009 65 14484 4.1 220 01:26 17.07.2019
5032 Clouds 28 1009 65 14484 4.1 190 00:55 17.07.2019
5033 Clouds 28 1009 65 14484 4.1 190 00:36 17.07.2019
5034 Clouds 28 1009 65 14484 4.1 190 00:18 17.07.2019
5035 Clouds 28 1010 65 14484 4.6 180 23:36 16.07.2019
5036 Clouds 28 1010 65 14484 4.6 180 23:18 16.07.2019
5037 Clouds 28 1011 65 14484 5.7 190 22:42 16.07.2019
5038 Clouds 27 1011 65 14484 5.7 190 22:20 16.07.2019
5039 Clouds 26 1011 69 14484 7.7 180 21:45 16.07.2019
5040 Clouds 26 1011 69 14484 7.7 180 21:22 16.07.2019
5041 Clouds 25 1012 65 14484 6.2 170 20:58 16.07.2019
5042 Clouds 25 1012 65 14484 6.2 170 20:39 16.07.2019
5043 Clouds 25 1012 65 14484 6.2 170 20:21 16.07.2019
5044 Clouds 25 1013 61 32767 5.1 170 19:51 16.07.2019
5045 Rain 24 1013 64 14484 5.7 190 19:28 16.07.2019
5046 Rain 24 1013 60 32767 6.7 210 18:57 16.07.2019
5047 Clouds 24 1014 64 14484 5.7 180 18:39 16.07.2019
5048 Clouds 24 1014 64 14484 5.7 180 18:20 16.07.2019
5049 Clouds 25 1014 64 14484 6.2 180 17:42 16.07.2019
5050 Clouds 24 1014 64 14484 6.2 180 17:21 16.07.2019
5051 Clouds 24 1014 64 14484 5.7 180 16:45 16.07.2019
5052 Clouds 24 1014 64 14484 5.7 180 16:23 16.07.2019
5053 Clear 24 1015 69 14484 4.1 180 15:55 16.07.2019
5054 Clear 23 1015 69 14484 4.1 180 15:37 16.07.2019
5055 Clear 22 1015 69 14484 4.1 180 15:18 16.07.2019
5056 Clear 21 1015 77 14484 3.6 180 14:43 16.07.2019
5057 Clear 21 1015 77 14484 3.6 180 14:24 16.07.2019
5058 Clear 20 1015 88 14484 3.1 180 13:46 16.07.2019
5059 Clear 19 1015 88 14484 3.1 180 13:27 16.07.2019
5060 Clear 18 1016 93 14484 3.1 170 12:57 16.07.2019
5061 Clear 17 1016 93 14484 3.1 170 12:38 16.07.2019
5062 Clear 17 1016 93 14484 3.1 170 12:38 16.07.2019
5063 Clear 17 1016 93 14484 3.1 170 12:19 16.07.2019
5064 Clear 17 1016 87 14484 3.1 160 11:44 16.07.2019
5065 Clear 17 1016 87 14484 3.1 160 11:24 16.07.2019
5066 Clear 17 1016 88 14484 3.1 170 10:57 16.07.2019
5067 Clear 17 1016 88 14484 3.1 170 10:39 16.07.2019
5068 Clear 17 1016 88 14484 3.1 170 10:18 16.07.2019
5069 Clear 18 1016 88 14484 2.6 190 09:43 16.07.2019
5070 Clear 18 1016 88 14484 2.6 190 09:20 16.07.2019
5071 Clear 18 1016 82 14484 3.1 220 08:46 16.07.2019
5072 Clear 18 1016 82 14484 3.1 220 08:27 16.07.2019
5073 Clear 18 1016 82 14484 3.1 220 08:27 16.07.2019
5074 Clear 18 1016 72 14484 2.6 230 07:51 16.07.2019
5075 Clear 18 1016 72 14484 3.6 220 07:32 16.07.2019
5076 Clear 19 1016 72 14484 3.6 220 06:58 16.07.2019
5077 Clear 19 1016 72 14484 3.6 220 06:36 16.07.2019
5078 Clear 20 1016 72 14484 3.6 220 05:52 16.07.2019
5079 Clear 20 1016 72 14484 3.6 220 05:27 16.07.2019
5080 Clear 20 1016 64 14484 4.1 220 04:34 16.07.2019
5081 Clear 21 1016 56 14484 4.1 230 03:43 16.07.2019
5082 Clear 24 1015 57 14484 5.1 230 02:44 16.07.2019
5083 Clear 24 1015 57 14484 5.1 230 02:24 16.07.2019
5084 Clouds 25 1015 53 14484 6.7 240 01:26 16.07.2019
5085 Clouds 26 1015 50 14484 5.7 220 00:24 16.07.2019
5086 Clear 27 1015 50 14484 5.7 230 23:58 15.07.2019
5087 Clear 27 1015 47 14484 3.6 280 23:38 15.07.2019
5088 Clear 27 1015 47 14484 3.6 280 23:18 15.07.2019
5089 Clouds 27 1015 44 14484 5.7 240 22:43 15.07.2019
5090 Clouds 27 1016 50 14484 6.2 260 22:20 15.07.2019
5091 Clouds 27 1016 50 14484 6.2 260 21:57 15.07.2019
5092 Clouds 27 1016 50 14484 6.2 260 21:38 15.07.2019
5093 Clouds 27 1016 50 14484 6.2 260 21:19 15.07.2019
5094 Clouds 26 1017 54 14484 6.2 230 20:44 15.07.2019
5095 Clouds 26 1017 54 14484 6.2 230 20:23 15.07.2019
5096 Clouds 26 1017 50 14484 3.1 240 19:56 15.07.2019
5097 Clouds 26 1017 50 14484 3.1 240 19:38 15.07.2019
5098 Clouds 26 1017 50 14484 3.1 240 19:18 15.07.2019
5099 Clouds 25 1017 50 14484 2.1 330 18:44 15.07.2019
5100 Clouds 25 1017 50 14484 2.1 330 18:21 15.07.2019
5101 Clear 24 1017 50 14484 2.1 0 17:56 15.07.2019
5102 Clear 24 1017 50 14484 2.1 0 17:37 15.07.2019
5103 Clear 24 1017 50 14484 2.1 0 17:19 15.07.2019
5104 Clear 23 1017 60 14484 3.1 330 16:57 15.07.2019
5105 Clear 23 1017 60 14484 3.1 330 16:36 15.07.2019
5106 Clear 23 1017 60 14484 3.1 330 16:36 15.07.2019
5107 Clear 23 1017 60 14484 3.1 330 16:18 15.07.2019
5108 Clear 21 1017 64 14484 2.1 280 15:38 15.07.2019
5109 Clear 21 1017 64 14484 2.1 280 15:38 15.07.2019
5110 Clear 20 1017 64 14484 2.1 280 15:20 15.07.2019
5111 Clear 19 1017 72 14484 1.5 290 14:57 15.07.2019
5112 Clouds 19 1018 7 0 3.21 287.504 14:37 15.07.2019
5113 Clear 18 1017 72 14484 2.1 290 14:19 15.07.2019
5114 Clear 18 1017 72 14484 2.1 290 13:45 15.07.2019
5115 Clear 17 1017 72 14484 2.1 290 13:18 15.07.2019
5116 Clear 16 1017 77 14484 2.6 290 12:43 15.07.2019
5117 Clear 16 1017 77 14484 2.6 290 12:24 15.07.2019
5118 Clear 16 1016 77 14484 2.1 320 11:44 15.07.2019
5119 Clear 16 1016 77 14484 2.1 320 11:26 15.07.2019
5120 Clear 16 1016 72 14484 3.6 270 10:54 15.07.2019
5121 Clear 16 1016 72 14484 3.6 270 10:36 15.07.2019
5122 Clear 16 1016 72 14484 3.6 270 10:18 15.07.2019
5123 Clear 16 1016 72 14484 5.1 290 09:41 15.07.2019
5124 Clear 17 1016 72 14484 5.1 290 09:19 15.07.2019
5125 Clouds 17 1015 72 14484 4.6 290 08:43 15.07.2019
5126 Clouds 17 1015 72 14484 4.6 290 08:24 15.07.2019
5127 Clear 17 1015 68 14484 5.1 290 07:43 15.07.2019
5128 Clear 17 1015 68 14484 5.1 290 07:21 15.07.2019
5129 Clear 18 1015 60 14484 4.1 280 06:40 15.07.2019
5130 Clear 18 1015 60 14484 4.1 280 06:18 15.07.2019
5131 Clear 18 1015 60 14484 4.1 280 06:18 15.07.2019
5132 Clear 18 1015 60 14484 4.1 300 05:38 15.07.2019
5133 Clear 19 1016 60 14484 3.1 290 04:45 15.07.2019
5134 Clear 19 1016 60 14484 3.1 290 04:21 15.07.2019
5135 Clear 21 1014 49 14484 7.2 310 02:51 15.07.2019
5136 Clouds 23 1014 49 14484 7.2 300 01:55 15.07.2019
5137 Clouds 23 1014 49 14484 7.2 300 01:33 15.07.2019
5138 Clouds 24 1013 50 14484 5.7 300 00:53 15.07.2019
5139 Clouds 24 1013 50 14484 5.7 300 00:53 15.07.2019
5140 Clouds 24 1013 50 14484 5.7 300 00:53 15.07.2019
5141 Clouds 24 1013 50 14484 5.7 300 00:28 15.07.2019
5142 Clouds 24 1013 50 14484 5.7 310 23:58 14.07.2019
5143 Clouds 24 1013 50 14484 5.7 310 23:39 14.07.2019
5144 Clouds 24 1013 50 14484 5.7 310 23:19 14.07.2019
5145 Clouds 24 1013 50 14484 7.2 300 22:57 14.07.2019
5146 Clouds 24 1013 50 14484 7.2 300 22:38 14.07.2019
5147 Clouds 24 1013 50 14484 7.2 300 22:19 14.07.2019
5148 Clouds 24 1013 50 14484 5.7 300 21:42 14.07.2019
5149 Clouds 24 1013 50 14484 5.7 300 21:19 14.07.2019
5150 Clouds 24 1013 60 14484 4.1 290 20:57 14.07.2019
5151 Rain 24 1013 60 14484 4.1 290 20:38 14.07.2019
5152 Rain 24 1013 60 14484 4.1 290 20:19 14.07.2019
5153 Clouds 23 1013 69 14484 3.1 270 19:45 14.07.2019
5154 Clouds 23 1013 69 14484 3.1 270 19:45 14.07.2019
5155 Rain 23 1013 68 14484 6.7 230 19:27 14.07.2019
5156 Clouds 23 1013 60 14484 2.6 300 18:58 14.07.2019
5157 Clouds 23 1013 60 14484 2.6 300 18:39 14.07.2019
5158 Clouds 23 1013 60 14484 2.6 300 18:21 14.07.2019
5159 Clouds 23 1013 68 14484 3.1 290 17:53 14.07.2019
5160 Clouds 23 1013 68 14484 3.1 290 17:22 14.07.2019
5161 Clouds 22 1013 64 32767 2.6 350 16:52 14.07.2019
5162 Clouds 22 1012 73 14484 1.5 270 16:24 14.07.2019
5163 Clear 21 1012 73 14484 3.1 310 15:56 14.07.2019
5164 Clear 21 1012 73 14484 3.1 310 15:34 14.07.2019
5165 Clouds 20 1012 82 14484 3.6 250 14:55 14.07.2019
5166 Clouds 20 1012 82 14484 3.6 250 14:36 14.07.2019
5167 Clouds 20 1012 82 14484 3.6 250 14:18 14.07.2019
5168 Clear 19 1011 88 14484 2.1 310 13:44 14.07.2019
5169 Clear 19 1011 88 14484 2.1 310 13:21 14.07.2019
5170 Clouds 18 1010 93 14484 2.6 250 12:43 14.07.2019
5171 Clouds 17 1010 93 14484 2.6 250 12:22 14.07.2019
5172 Clouds 17 1010 93 14484 2.6 250 12:22 14.07.2019
5173 Clouds 17 1010 93 14484 2.1 300 11:57 14.07.2019
5174 Clouds 17 1010 93 14484 2.1 300 11:38 14.07.2019
5175 Clouds 18 1010 93 14484 2.1 300 11:19 14.07.2019
5176 Clouds 18 1009 88 14484 3.6 230 10:42 14.07.2019
5177 Clouds 18 1009 88 14484 3.6 230 10:19 14.07.2019
5178 Clouds 18 1009 88 14484 2.1 230 09:44 14.07.2019
5179 Clouds 18 1009 88 14484 2.1 230 09:24 14.07.2019
5180 Clouds 17 1009 88 14484 2.1 280 08:45 14.07.2019
5181 Clouds 18 1009 93 14484 3.6 230 08:20 14.07.2019
5182 Clouds 18 1009 93 14484 3.6 230 07:39 14.07.2019
5183 Clouds 18 1009 100 14484 2.1 220 06:58 14.07.2019
5184 Clouds 19 1009 93 14484 2.1 120 05:45 14.07.2019
5185 Rain 21 1011 93 14484 8.2 320 03:48 14.07.2019
5186 Thunderstorm 21 1009 68 14484 5.7 30 03:30 14.07.2019
5187 Thunderstorm 24 1008 61 14484 6.7 250 02:41 14.07.2019
5188 Clouds 24 1008 61 14484 6.7 250 02:22 14.07.2019
5189 Clouds 26 1008 61 14484 7.7 240 01:34 14.07.2019
5190 Clear 26 1008 54 14484 8.2 250 00:57 14.07.2019
5191 Clear 27 1008 54 14484 8.2 250 00:39 14.07.2019
5192 Clear 27 1008 54 14484 8.2 250 00:19 14.07.2019
5193 Clouds 27 1008 51 14484 5.7 240 23:45 13.07.2019
5194 Clouds 27 1008 51 14484 5.7 240 23:25 13.07.2019
5195 Clouds 27 1009 57 14484 7.2 250 22:55 13.07.2019
5196 Clouds 27 1009 57 14484 7.2 250 22:37 13.07.2019
5197 Clouds 27 1009 57 14484 7.2 250 22:18 13.07.2019
5198 Clear 27 1009 57 14484 8.2 240 21:42 13.07.2019
5199 Clear 27 1009 57 14484 8.2 240 21:19 13.07.2019
5200 Clouds 27 1010 57 14484 8.2 240 20:42 13.07.2019
5201 Clouds 27 1010 57 14484 8.2 240 20:24 13.07.2019
5202 Clear 27 1010 69 14484 6.2 240 19:45 13.07.2019
5203 Clear 27 1010 69 14484 6.2 240 19:26 13.07.2019
5204 Clear 26 1010 69 14484 5.1 260 18:44 13.07.2019
5205 Clear 26 1010 69 14484 5.1 260 18:21 13.07.2019
5206 Clear 24 1011 83 14484 5.7 230 17:39 13.07.2019
5207 Clear 24 1011 83 14484 5.7 230 17:20 13.07.2019
5208 Clouds 24 1011 78 24140 4.6 240 16:56 13.07.2019
5209 Clear 23 1011 83 14484 6.7 250 16:37 13.07.2019
5210 Mist 22 1011 83 14484 6.7 250 16:19 13.07.2019
5211 Clouds 22 1011 88 14484 6.2 230 15:42 13.07.2019
5212 Mist 21 1011 88 14484 6.2 230 15:20 13.07.2019
5213 Mist 20 1011 94 14484 6.2 230 14:42 13.07.2019
5214 Mist 20 1011 94 14484 6.2 230 14:22 13.07.2019
5215 Clouds 20 1011 88 14484 5.1 220 13:46 13.07.2019
5216 Clouds 19 1011 88 14484 5.1 220 13:24 13.07.2019
5217 Mist 18 1010 100 3219 2.6 230 12:59 13.07.2019
5218 Mist 18 1010 100 11265 3.1 230 12:36 13.07.2019
5219 Mist 17 1010 100 11265 3.1 230 12:18 13.07.2019
5220 Mist 17 1010 93 8047 3.1 220 11:40 13.07.2019
5221 Mist 17 1010 93 8047 3.1 220 11:19 13.07.2019
5222 Clear 17 1009 100 11265 4.1 240 10:44 13.07.2019
5223 Clear 17 1009 100 11265 4.1 240 10:23 13.07.2019
5224 Clear 17 1009 93 14484 3.6 230 09:53 13.07.2019
5225 Clear 17 1009 93 14484 3.6 230 09:31 13.07.2019
5226 Clear 18 1009 88 14484 3.1 240 08:58 13.07.2019
5227 Clear 18 1009 88 14484 3.1 240 08:32 13.07.2019
5228 Clear 18 1009 88 14484 3.1 230 07:56 13.07.2019
5229 Clear 18 1009 88 14484 3.1 230 07:29 13.07.2019
5230 Clear 19 1009 77 14484 2.1 270 06:39 13.07.2019
5231 Clouds 20 1009 68 14484 3.1 290 05:57 13.07.2019
5232 Clouds 20 1008 68 14484 3.6 290 04:42 13.07.2019
5233 Clouds 20 1008 68 14484 3.6 290 04:22 13.07.2019
5234 Clear 21 1008 68 14484 5.1 290 03:55 13.07.2019
5235 Clear 21 1008 68 14484 5.1 290 03:37 13.07.2019
5236 Clouds 23 1007 64 14484 4.1 280 01:55 13.07.2019
5237 Clouds 23 1007 64 14484 4.1 280 01:36 13.07.2019
5238 Clouds 23 1007 64 14484 4.1 280 01:18 13.07.2019
5239 Clouds 24 1007 64 24140 6.2 270 00:50 13.07.2019
5240 Clouds 24 1006 57 14484 4.6 270 00:18 13.07.2019
5241 Clouds 25 1006 57 14484 5.1 290 23:43 12.07.2019
5242 Clouds 25 1006 57 14484 5.1 290 23:24 12.07.2019
5243 Clouds 25 1006 57 14484 7.7 260 22:43 12.07.2019
5244 Clouds 25 1006 57 14484 7.7 260 22:24 12.07.2019
5245 Clouds 25 1006 65 14484 6.7 260 21:42 12.07.2019
5246 Clouds 25 1006 65 14484 6.7 260 21:22 12.07.2019
5247 Clouds 25 1006 65 14484 4.1 250 20:54 12.07.2019
5248 Clouds 25 1006 65 14484 4.1 250 20:24 12.07.2019
5249 Clouds 25 1006 65 14484 5.7 290 19:59 12.07.2019
5250 Clouds 25 1006 69 14484 5.7 240 19:41 12.07.2019
5251 Clouds 25 1006 69 14484 5.7 240 19:23 12.07.2019
5252 Clouds 24 1006 78 14484 5.1 210 18:41 12.07.2019
5253 Clouds 24 1006 78 14484 5.1 210 18:21 12.07.2019
5254 Clouds 23 1006 78 14484 3.1 290 17:49 12.07.2019
5255 Clouds 23 1006 78 14484 3.1 280 17:28 12.07.2019
5256 Clouds 22 1006 78 32767 3.1 290 16:48 12.07.2019
5257 Clouds 22 1006 83 14484 2.1 290 16:22 12.07.2019
5258 Clouds 21 1005 94 14484 3.6 230 15:42 12.07.2019
5259 Clouds 21 1005 94 14484 3.6 230 15:22 12.07.2019
5260 Mist 21 1005 94 14484 2.6 240 14:58 12.07.2019
5261 Mist 21 1005 94 14484 2.6 240 14:39 12.07.2019
5262 Mist 20 1005 94 14484 2.6 240 14:20 12.07.2019
5263 Mist 20 1005 100 14484 2.1 210 13:42 12.07.2019
5264 Mist 20 1005 100 14484 2.1 210 13:20 12.07.2019
5265 Drizzle 20 1004 94 14484 1 210 12:40 12.07.2019
5266 Drizzle 19 1004 94 14484 1 210 12:21 12.07.2019
5267 Drizzle 19 1005 100 2414 2.04 225.537 11:45 12.07.2019
5268 Drizzle 19 1005 94 14484 1.5 210 11:23 12.07.2019
5269 Clouds 19 1004 94 14484 2.1 170 10:44 12.07.2019
5270 Clouds 19 1005 94 14484 2.1 170 10:25 12.07.2019
5271 Clouds 19 1005 100 14484 1 130 09:55 12.07.2019
5272 Clouds 19 1005 100 14484 1 130 09:36 12.07.2019
5273 Clouds 19 1005 100 14484 1 130 09:18 12.07.2019
5274 Clouds 19 1005 94 19312 2.1 130 08:42 12.07.2019
5275 Clouds 19 1005 94 19312 2.1 130 08:21 12.07.2019
5276 Clouds 19 1005 94 19312 2.1 130 07:47 12.07.2019
5277 Clouds 19 1005 93 14484 2.48 185.082 07:28 12.07.2019
5278 Clouds 19 1005 93 14484 2.1 180 06:29 12.07.2019
5279 Clouds 19 1005 93 19312 1.5 150 05:50 12.07.2019
5280 Rain 19 1007 93 14484 2.6 180 03:46 12.07.2019
5281 Rain 20 1007 93 9656 3.6 70 01:50 12.07.2019
5282 Rain 20 1008 100 2012 1.5 290 01:32 12.07.2019
5283 Thunderstorm 24 1005 88 9656 10.3 270 00:34 12.07.2019
5284 Thunderstorm 27 1005 74 24140 5.7 140 23:55 11.07.2019
5285 Rain 28 1005 73 0 4.5 169.878 23:37 11.07.2019
5286 Clouds 28 1006 78 14484 5.1 140 23:18 11.07.2019
5287 Clouds 27 1006 78 14484 5.1 140 22:42 11.07.2019
5288 Clouds 27 1006 78 14484 5.1 140 22:23 11.07.2019
5289 Clear 26 1007 78 14484 6.2 130 21:43 11.07.2019
5290 Clear 25 1007 78 14484 6.2 130 21:20 11.07.2019
5291 Clear 25 1007 78 14484 6.2 130 21:20 11.07.2019
5292 Clouds 25 1008 88 14484 4.6 120 20:58 11.07.2019
5293 Clouds 24 1008 88 14484 4.6 120 20:40 11.07.2019
5294 Clouds 23 1008 88 14484 4.6 120 20:22 11.07.2019
5295 Clouds 23 1009 88 16093 3.1 80 19:54 11.07.2019
5296 Clouds 22 1010 94 14484 5.1 160 19:36 11.07.2019
5297 Clouds 22 1010 94 14484 5.1 160 19:18 11.07.2019
5298 Rain 22 1010 94 14484 3.6 130 18:39 11.07.2019
5299 Rain 21 1010 94 14484 3.6 130 18:21 11.07.2019
5300 Rain 21 1010 100 9656 4.1 110 17:46 11.07.2019
5301 Rain 21 1012 93 4828 2.1 80 17:28 11.07.2019
5302 Rain 21 1012 93 9656 1 0 16:52 11.07.2019
5303 Thunderstorm 20 1012 93 9656 4.6 30 16:24 11.07.2019
5304 Thunderstorm 20 1012 93 24140 4.6 340 15:55 11.07.2019
5305 Rain 21 1011 88 9656 2.6 90 15:37 11.07.2019
5306 Rain 21 1011 88 9656 2.6 90 15:37 11.07.2019
5307 Rain 20 1011 88 9656 2.6 90 15:19 11.07.2019
5308 Rain 20 1012 77 14484 1.5 330 14:43 11.07.2019
5309 Rain 21 1012 77 14484 1.5 330 14:23 11.07.2019
5310 Rain 21 1012 78 14484 6.2 0 13:47 11.07.2019
5311 Rain 21 1012 77 24140 3.6 300 13:29 11.07.2019
5312 Clouds 21 1011 83 24140 4.6 10 12:56 11.07.2019
5313 Rain 21 1011 83 24140 3.6 20 12:37 11.07.2019
5314 Rain 20 1011 83 24140 3.6 20 12:18 11.07.2019
5315 Rain 20 1011 83 24140 3.6 20 12:18 11.07.2019
5316 Clouds 20 1012 82 14484 1.5 40 11:41 11.07.2019
5317 Clouds 20 1012 82 14484 1.5 40 11:22 11.07.2019
5318 Clouds 21 1012 77 14484 1 0 10:46 11.07.2019
5319 Clouds 21 1012 77 14484 1 0 10:19 11.07.2019
5320 Clouds 21 1012 77 14484 1.5 110 09:49 11.07.2019
5321 Clouds 21 1012 77 14484 1.5 110 09:30 11.07.2019
5322 Clouds 22 1012 77 14484 1.5 100 08:54 11.07.2019
5323 Clouds 22 1012 77 14484 1.5 100 08:28 11.07.2019
5324 Clouds 22 1013 73 14484 2.1 120 07:57 11.07.2019
5325 Clouds 22 1013 73 14484 2.1 120 07:38 11.07.2019
5326 Clouds 22 1013 73 14484 2.6 120 06:42 11.07.2019
5327 Clouds 22 1013 73 14484 2.6 120 06:18 11.07.2019
5328 Clear 23 1013 64 14484 2.6 130 05:30 11.07.2019
5329 Clear 22 1014 60 14484 2.1 170 04:55 11.07.2019
5330 Clouds 27 1014 51 14484 3.6 180 02:41 11.07.2019
5331 Clear 28 1014 45 14484 2.6 230 01:43 11.07.2019
5332 Clear 30 1014 40 14484 4.1 250 00:32 11.07.2019
5333 Clear 31 1014 37 14484 3.6 240 23:49 10.07.2019
5334 Clear 31 1014 37 14484 3.6 240 23:21 10.07.2019
5335 Clear 31 1014 37 14484 3.1 180 22:53 10.07.2019
5336 Clear 31 1014 37 14484 3.1 180 22:22 10.07.2019
5337 Clear 31 1015 42 14484 2.6 250 21:55 10.07.2019
5338 Clear 30 1015 42 14484 2.6 250 21:37 10.07.2019
5339 Clear 30 1015 42 14484 2.6 250 21:19 10.07.2019
5340 Clear 30 1015 45 14484 3.6 250 20:41 10.07.2019
5341 Clear 30 1015 45 14484 3.6 250 20:21 10.07.2019
5342 Clear 30 1015 45 14484 4.1 220 19:55 10.07.2019
5343 Clear 30 1015 45 14484 4.1 220 19:36 10.07.2019
5344 Clear 29 1015 45 14484 4.1 220 19:18 10.07.2019
5345 Clear 29 1016 47 14484 4.6 240 18:42 10.07.2019
5346 Clear 28 1016 47 14484 4.6 240 18:22 10.07.2019
5347 Clear 27 1016 47 14484 4.1 230 17:44 10.07.2019
5348 Clear 26 1016 47 14484 4.1 230 17:25 10.07.2019
5349 Clear 26 1016 53 14484 4.6 230 16:41 10.07.2019
5350 Clear 25 1016 53 14484 4.6 230 16:21 10.07.2019
5351 Clear 23 1017 56 14484 5.1 220 15:47 10.07.2019
5352 Clear 23 1017 56 14484 5.1 220 15:25 10.07.2019
5353 Clouds 22 1017 64 14484 4.1 220 14:48 10.07.2019
5354 Clouds 22 1017 64 14484 4.1 220 14:28 10.07.2019
5355 Clear 21 1016 68 14484 3.6 230 13:56 10.07.2019
5356 Clouds 20 1016 65 0 2.43 239.626 13:36 10.07.2019
5357 Clear 20 1016 72 14484 1.5 220 13:18 10.07.2019
5358 Clear 19 1016 72 14484 1.5 220 12:40 10.07.2019
5359 Clear 19 1016 72 14484 1.5 220 12:21 10.07.2019
5360 Clear 19 1016 77 14484 3.1 240 11:47 10.07.2019
5361 Clear 19 1016 77 14484 3.1 240 11:22 10.07.2019
5362 Clouds 19 1015 72 14484 2.1 220 10:58 10.07.2019
5363 Clouds 20 1015 72 14484 2.1 220 10:24 10.07.2019
5364 Clouds 20 1016 72 14484 2.1 240 09:55 10.07.2019
5365 Clouds 20 1016 72 14484 2.1 240 09:36 10.07.2019
5366 Clouds 20 1016 72 14484 2.1 240 09:18 10.07.2019
5367 Clear 20 1015 68 14484 3.6 220 08:45 10.07.2019
5368 Clear 20 1015 68 14484 3.6 230 08:22 10.07.2019
5369 Clear 21 1015 68 14484 3.6 230 07:45 10.07.2019
5370 Clear 21 1015 68 14484 3.6 230 07:23 10.07.2019
5371 Clear 21 1015 68 14484 3.6 250 06:33 10.07.2019
5372 Clear 22 1015 60 14484 2.6 220 05:40 10.07.2019
5373 Clear 22 1016 53 14484 1 260 04:30 10.07.2019
5374 Clear 27 1015 39 14484 5.1 310 01:49 10.07.2019
5375 Clear 29 1014 35 14484 5.7 320 00:43 10.07.2019
5376 Clouds 30 1014 33 12874 4.6 320 23:42 09.07.2019
5377 Clouds 30 1014 33 12874 4.6 320 23:23 09.07.2019
5378 Clouds 30 1014 35 11265 6.2 300 22:57 09.07.2019
5379 Clouds 30 1014 35 11265 6.2 300 22:37 09.07.2019
5380 Clouds 30 1014 35 11265 6.2 300 22:18 09.07.2019
5381 Clouds 30 1015 39 14484 3.6 250 21:45 09.07.2019
5382 Clouds 30 1015 39 14484 3.6 250 21:25 09.07.2019
5383 Clouds 29 1015 48 14484 3.1 190 20:45 09.07.2019
5384 Clouds 29 1015 48 14484 3.1 190 20:26 09.07.2019
5385 Clear 29 1016 48 14484 3.1 0 19:45 09.07.2019
5386 Clear 29 1016 48 14484 3.1 0 19:26 09.07.2019
5387 Clear 28 1016 44 14484 2.1 0 18:58 09.07.2019
5388 Clear 28 1016 44 14484 2.1 0 18:38 09.07.2019
5389 Clear 27 1016 44 14484 2.1 0 18:18 09.07.2019
5390 Clear 26 1016 47 14484 2.6 0 17:42 09.07.2019
5391 Clear 26 1016 47 14484 2.6 0 17:21 09.07.2019
5392 Clear 24 1017 60 14484 3.1 240 16:54 09.07.2019
5393 Clear 23 1017 60 14484 3.1 240 16:36 09.07.2019
5394 Clear 23 1017 60 14484 3.1 240 16:18 09.07.2019
5395 Clear 22 1017 64 14484 2.6 230 15:40 09.07.2019
5396 Clear 22 1017 64 14484 2.6 230 15:22 09.07.2019
5397 Clear 21 1017 68 14484 5.1 250 14:43 09.07.2019
5398 Clear 20 1017 68 14484 5.1 250 14:22 09.07.2019
5399 Clear 19 1016 72 14484 4.6 230 13:46 09.07.2019
5400 Clear 19 1016 72 14484 4.6 230 13:28 09.07.2019
5401 Clear 18 1016 72 14484 3.6 240 12:59 09.07.2019
5402 Clear 17 1016 72 14484 3.6 240 12:38 09.07.2019
5403 Clear 17 1016 72 14484 3.6 240 12:18 09.07.2019
5404 Clear 16 1015 77 14484 4.1 240 11:41 09.07.2019
5405 Clear 16 1015 77 14484 4.1 240 11:22 09.07.2019
5406 Clear 17 1015 67 14484 3.1 240 10:58 09.07.2019
5407 Clear 17 1015 67 14484 3.1 240 10:35 09.07.2019
5408 Clear 17 1014 72 14484 1.5 240 09:59 09.07.2019
5409 Clear 17 1014 72 14484 1.5 240 09:38 09.07.2019
5410 Clear 17 1014 72 14484 1.5 240 09:19 09.07.2019
5411 Clear 17 1014 72 14484 3.1 240 08:44 09.07.2019
5412 Clear 24 1018 53 14484 2.1 210 04:19 05.07.2019
5413 Clear 26 1017 48 14484 3.6 190 03:45 05.07.2019
5414 Clear 27 1017 48 14484 3.6 190 03:21 05.07.2019
5415 Clear 28 1017 45 14484 3.1 180 02:52 05.07.2019
5416 Clear 29 1017 45 14484 3.1 180 02:20 05.07.2019
5417 Clear 30 1017 40 14484 3.1 220 01:34 05.07.2019
5418 Clear 30 1017 38 14484 1.5 260 00:52 05.07.2019
5419 Clear 31 1017 38 14484 1.5 260 00:31 05.07.2019
5420 Clear 33 1016 29 14484 3.1 240 23:44 04.07.2019
5421 Clear 33 1016 29 14484 3.1 240 23:19 04.07.2019
5422 Clear 33 1017 38 14484 6.2 260 22:42 04.07.2019
5423 Clear 33 1017 38 14484 6.2 260 22:23 04.07.2019
5424 Clear 33 1017 40 14484 6.2 260 21:45 04.07.2019
5425 Clear 33 1017 40 14484 6.2 260 21:26 04.07.2019
5426 Clear 32 1017 40 14484 5.7 220 20:59 04.07.2019
5427 Clear 32 1017 40 14484 5.7 220 20:38 04.07.2019
5428 Clear 32 1017 40 14484 5.7 220 20:20 04.07.2019
5429 Clear 32 1018 43 14484 3.6 240 19:42 04.07.2019
5430 Clear 31 1018 43 14484 3.6 240 19:22 04.07.2019
5431 Clear 31 1018 45 14484 3.6 230 18:56 04.07.2019
5432 Clear 30 1018 45 14484 3.6 230 18:37 04.07.2019
5433 Clear 30 1018 45 14484 3.6 230 18:18 04.07.2019
5434 Clear 29 1018 58 14484 3.6 210 17:43 04.07.2019
5435 Clear 29 1018 58 14484 3.6 210 17:19 04.07.2019
5436 Clear 26 1018 69 14484 2.1 200 15:57 04.07.2019
5437 Clear 26 1018 69 14484 2.1 200 15:39 04.07.2019
5438 Clear 25 1018 69 14484 2.1 200 15:18 04.07.2019
5439 Clear 24 1017 78 14484 2.1 210 14:44 04.07.2019
5440 Clear 24 1017 78 14484 2.1 210 14:25 04.07.2019
5441 Clear 23 1017 83 14484 1.5 130 13:58 04.07.2019
5442 Clear 22 1017 83 14484 1.5 130 13:40 04.07.2019
5443 Clear 21 1017 83 14484 1.5 130 13:22 04.07.2019
5444 Clear 20 1016 93 14484 1.5 130 12:40 04.07.2019
5445 Clear 19 1016 93 14484 1.5 130 12:21 04.07.2019
5446 Clear 19 1016 82 14484 1.5 170 11:59 04.07.2019
5447 Clear 19 1016 82 14484 1.5 170 11:38 04.07.2019
5448 Clear 19 1016 82 14484 1.5 170 11:19 04.07.2019
5449 Clear 19 1016 77 14484 1.5 230 10:40 04.07.2019
5450 Clear 19 1016 77 14484 1.5 230 10:20 04.07.2019
5451 Clear 20 1015 82 14484 1.73 270.066 09:41 04.07.2019
5452 Clear 20 1015 82 14484 1.73 270.066 09:41 04.07.2019
5453 Clear 20 1015 82 14484 1.94 230.599 09:23 04.07.2019
5454 Clear 20 1015 73 14484 1 210 08:56 04.07.2019
5455 Clear 21 1015 73 14484 1 210 08:23 04.07.2019
5456 Clear 21 1014 73 14484 1 210 07:44 04.07.2019
5457 Clear 21 1014 73 14484 1 210 07:22 04.07.2019
5458 Clear 22 1014 64 14484 1 230 06:51 04.07.2019
5459 Clear 22 1013 64 14484 2.6 250 05:52 04.07.2019
5460 Clear 23 1013 64 14484 2.6 250 05:33 04.07.2019
5461 Clear 27 1011 51 14484 3.1 230 02:43 04.07.2019
5462 Clear 29 1011 45 14484 3.1 210 01:42 04.07.2019
5463 Clear 29 1011 45 14484 3.1 210 01:21 04.07.2019
5464 Clouds 31 1011 42 14484 2.6 240 23:58 03.07.2019
5465 Clouds 31 1011 42 14484 2.6 240 23:40 03.07.2019
5466 Clouds 31 1011 42 14484 2.6 240 23:20 03.07.2019
5467 Clouds 31 1010 40 14484 2.1 0 22:44 03.07.2019
5468 Clouds 31 1010 40 14484 2.1 0 22:25 03.07.2019
5469 Clouds 31 1011 37 24140 4.1 260 21:59 03.07.2019
5470 Clouds 31 1011 37 24140 4.1 260 21:41 03.07.2019
5471 Clouds 31 1011 37 24140 4.1 260 21:23 03.07.2019
5472 Clear 30 1011 42 14484 3.6 360 20:46 03.07.2019
5473 Clear 30 1011 42 14484 3.6 360 20:24 03.07.2019
5474 Clear 30 1011 45 14484 4.6 340 19:51 03.07.2019
5475 Clear 30 1011 45 14484 4.6 340 19:32 03.07.2019
5476 Clear 29 1011 42 14484 2.61 217.94 18:49 03.07.2019
5477 Clear 28 1011 42 14484 2.3 284.537 18:30 03.07.2019
5478 Clear 27 1011 51 14484 1 0 17:57 03.07.2019
5479 Clear 27 1011 51 14484 1 0 17:39 03.07.2019
5480 Clear 27 1011 51 14484 1 0 17:18 03.07.2019
5481 Clear 26 1011 54 14484 1.5 40 16:43 03.07.2019
5482 Clear 26 1011 54 14484 1.5 40 16:22 03.07.2019
5483 Clear 24 1011 64 14484 1 0 15:50 03.07.2019
5484 Clear 24 1011 64 14484 1 0 15:31 03.07.2019
5485 Clear 23 1010 60 14484 2.45 256.816 14:58 03.07.2019
5486 Clear 23 1010 60 14484 2.45 256.816 14:38 03.07.2019
5487 Clear 22 1010 60 14484 2.45 256.816 14:19 03.07.2019
5488 Clear 21 1010 88 14484 2.45 256.816 13:42 03.07.2019
5489 Clear 20 1010 88 14484 2.15 256.668 13:23 03.07.2019
5490 Clear 20 1009 100 14484 1 60 12:45 03.07.2019
5491 Clear 19 1009 100 14484 1 60 12:18 03.07.2019
5492 Clear 18 1009 93 14484 1 0 11:43 03.07.2019
5493 Clear 18 1009 93 14484 1 0 11:22 03.07.2019
5494 Clear 19 1008 88 14484 2.1 240 10:43 03.07.2019
5495 Clear 19 1008 88 14484 2.1 240 10:24 03.07.2019
5496 Clear 19 1008 88 14484 3.1 260 09:56 03.07.2019
5497 Clear 19 1008 88 14484 3.1 260 09:38 03.07.2019
5498 Clear 20 1008 88 14484 3.1 260 09:19 03.07.2019
5499 Clear 20 1008 77 14484 3.1 230 08:47 03.07.2019
5500 Clear 20 1008 77 14484 3.1 230 08:25 03.07.2019
5501 Clear 20 1008 72 14484 1 0 07:39 03.07.2019
5502 Clear 20 1008 72 14484 1 0 07:19 03.07.2019
5503 Clear 21 1007 56 14484 2.1 290 06:20 03.07.2019
5504 Clear 21 1007 53 14484 2.1 280 05:30 03.07.2019
5505 Clear 22 1006 47 14484 2.1 270 04:28 03.07.2019
5506 Clear 24 1006 44 14484 1.5 300 03:22 03.07.2019
5507 Clear 28 1006 39 14484 4.6 310 01:46 03.07.2019
5508 Clear 29 1005 37 14484 6.7 300 01:21 03.07.2019
5509 Clear 29 1005 37 14484 6.7 300 00:42 03.07.2019
5510 Clear 29 1006 37 14484 7.2 300 23:59 02.07.2019
5511 Clear 29 1006 37 14484 7.2 300 23:37 02.07.2019
5512 Clear 29 1006 37 14484 7.2 300 23:19 02.07.2019
5513 Clouds 29 1006 37 14484 8.7 280 22:55 02.07.2019
5514 Clouds 29 1006 45 14484 3.6 240 22:37 02.07.2019
5515 Clouds 29 1006 45 14484 3.6 240 22:18 02.07.2019
5516 Clouds 29 1006 37 32767 8.2 270 21:42 02.07.2019
5517 Clouds 29 1006 37 32767 8.2 270 21:22 02.07.2019
5518 Clouds 29 1006 42 32767 6.7 250 20:58 02.07.2019
5519 Clouds 29 1006 42 32767 6.7 250 20:39 02.07.2019
5520 Clouds 28 1006 57 14484 2.1 260 20:20 02.07.2019
5521 Clouds 28 1006 54 14484 3.1 270 19:42 02.07.2019
5522 Clear 28 1007 54 14484 2.6 340 19:23 02.07.2019
5523 Clear 28 1007 54 14484 2.6 340 19:23 02.07.2019
5524 Clear 27 1007 54 14484 2.6 340 18:49 02.07.2019
5525 Clear 27 1007 61 14484 1.5 270 18:19 02.07.2019
5526 Clear 26 1007 61 14484 1.5 270 17:44 02.07.2019
5527 Clear 26 1007 61 14484 1.5 270 17:24 02.07.2019
5528 Clear 25 1007 64 14484 3.6 280 16:54 02.07.2019
5529 Clear 25 1007 64 14484 3.6 280 16:35 02.07.2019
5530 Clear 24 1007 69 14484 4.6 260 15:59 02.07.2019
5531 Clear 24 1007 69 14484 4.6 260 15:38 02.07.2019
5532 Clear 23 1007 69 14484 4.6 260 15:20 02.07.2019
5533 Clouds 22 1007 73 14484 7.2 250 14:41 02.07.2019
5534 Clouds 22 1007 73 14484 7.2 250 14:22 02.07.2019
5535 Clouds 21 1007 68 14484 6.2 250 13:43 02.07.2019
5536 Clouds 21 1007 68 14484 6.2 250 13:19 02.07.2019
5537 Clouds 20 1007 72 14484 4.1 230 12:44 02.07.2019
5538 Clouds 20 1007 72 14484 4.1 230 12:23 02.07.2019
5539 Clouds 20 1007 68 14484 5.1 240 11:45 02.07.2019
5540 Clouds 20 1007 68 14484 5.1 240 11:24 02.07.2019
5541 Clouds 20 1007 68 14484 5.1 240 10:59 02.07.2019
5542 Clouds 20 1007 68 14484 5.1 240 10:37 02.07.2019
5543 Clouds 20 1007 68 14484 5.1 240 10:19 02.07.2019
5544 Rain 20 1008 68 14484 5.7 240 09:42 02.07.2019
5545 Rain 20 1008 68 14484 5.7 240 09:19 02.07.2019
5546 Clouds 21 1008 68 14484 5.1 250 08:40 02.07.2019
5547 Clouds 21 1008 68 14484 5.1 250 08:20 02.07.2019
5548 Clouds 21 1008 73 14484 5.7 240 07:50 02.07.2019
5549 Rain 21 1008 73 14484 5.7 240 07:20 02.07.2019
5550 Clouds 22 1009 68 14484 5.1 250 06:42 02.07.2019
5551 Clouds 22 1009 64 14484 6.2 250 05:58 02.07.2019
5552 Clouds 24 1009 60 14484 3.6 230 03:26 02.07.2019
5553 Clear 26 1009 54 14484 7.7 240 00:56 02.07.2019
5554 Clear 27 1009 51 14484 5.1 240 23:46 01.07.2019
5555 Clear 27 1009 51 14484 5.1 240 23:20 01.07.2019
5556 Clear 27 1011 51 14484 5.7 260 22:45 01.07.2019
5557 Clear 27 1011 51 14484 5.7 260 22:26 01.07.2019
5558 Clear 27 1011 57 14484 5.1 250 21:47 01.07.2019
5559 Clear 27 1011 57 14484 5.1 250 21:26 01.07.2019
5560 Clear 26 1012 57 14484 5.7 240 20:51 01.07.2019
5561 Clear 26 1012 57 14484 5.7 240 20:21 01.07.2019
5562 Clear 26 1012 61 14484 4.1 240 19:58 01.07.2019
5563 Clear 26 1012 61 14484 4.1 240 19:39 01.07.2019
5564 Clear 26 1012 61 14484 4.1 240 19:21 01.07.2019
5565 Clear 25 1012 64 14484 4.6 220 18:51 01.07.2019
5566 Clear 25 1012 64 14484 4.6 220 18:30 01.07.2019
5567 Clear 25 1012 64 14484 4.6 220 18:30 01.07.2019
5568 Clear 24 1013 64 14484 5.1 240 17:57 01.07.2019
5569 Clear 24 1013 64 14484 5.1 240 17:57 01.07.2019
5570 Clear 24 1013 64 14484 5.1 240 17:39 01.07.2019
5571 Clear 24 1013 64 14484 5.1 240 17:19 01.07.2019
5572 Clear 23 1013 73 14484 2.6 240 16:46 01.07.2019
5573 Clear 23 1013 73 14484 2.6 240 16:25 01.07.2019
5574 Clear 21 1013 68 14484 3.1 250 15:47 01.07.2019
5575 Clear 21 1013 68 14484 3.1 250 15:28 01.07.2019
5576 Clear 20 1014 77 14484 2.6 240 14:59 01.07.2019
5577 Clear 20 1014 77 14484 2.6 240 14:39 01.07.2019
5578 Clear 19 1013 88 14484 3.1 230 14:19 01.07.2019
5579 Clear 18 1013 88 14484 3.1 230 13:40 01.07.2019
5580 Clouds 18 1013 93 14484 2.6 240 13:21 01.07.2019
5581 Clouds 17 1013 93 14484 2.6 240 12:42 01.07.2019
5582 Clouds 16 1013 93 14484 2.6 240 12:23 01.07.2019
5583 Clouds 16 1013 93 14484 1.78 240.019 11:58 01.07.2019
5584 Clouds 16 1013 93 14484 1.78 240.019 11:38 01.07.2019
5585 Clouds 16 1013 88 14484 1.78 240.019 11:18 01.07.2019
5586 Clouds 16 1013 88 14484 1.78 240.019 10:45 01.07.2019
5587 Clear 16 1012 82 14484 1.5 320 10:21 01.07.2019
5588 Clear 17 1012 82 14484 1.5 320 09:45 01.07.2019
5589 Clear 17 1012 82 14484 1.5 320 09:26 01.07.2019
5590 Clear 17 1012 82 14484 3.1 310 08:58 01.07.2019
5591 Clear 17 1012 82 14484 3.1 310 08:35 01.07.2019
5592 Clouds 17 1012 77 14484 4.1 300 07:37 01.07.2019
5593 Clouds 17 1012 77 14484 2.1 290 06:51 01.07.2019
5594 Clear 18 1012 77 14484 3.1 290 05:23 01.07.2019
5595 Clear 22 1010 64 14484 5.1 340 01:22 01.07.2019
5596 Rain 22 1010 60 14484 3.1 360 00:44 01.07.2019
5597 Rain 22 1010 60 14484 3.1 360 00:44 01.07.2019
5598 Rain 22 1010 60 32767 2.1 40 00:21 01.07.2019
5599 Clouds 22 1010 64 14484 3.6 330 23:39 30.06.2019
5600 Clouds 23 1010 64 14484 4.6 340 23:18 30.06.2019
5601 Clouds 23 1010 64 14484 4.6 340 22:39 30.06.2019
5602 Clouds 23 1009 64 14484 5.1 350 22:19 30.06.2019
5603 Clouds 23 1009 64 14484 5.1 350 21:41 30.06.2019
5604 Clouds 23 1009 64 14484 5.1 350 21:41 30.06.2019
5605 Clouds 22 1009 68 14484 4.6 360 21:19 30.06.2019
5606 Clouds 21 1009 68 14484 4.6 360 20:55 30.06.2019
5607 Rain 21 1009 69 14484 3.6 360 20:36 30.06.2019
5608 Rain 21 1011 93 32767 1.5 290 20:18 30.06.2019
5609 Rain 21 1011 93 32767 1.5 290 20:18 30.06.2019
5610 Thunderstorm 21 1009 68 14484 5.7 10 19:43 30.06.2019
5611 Rain 21 1009 68 14484 5.7 10 19:24 30.06.2019
5612 Rain 20 1009 82 14484 3.1 20 18:26 30.06.2019
5613 Rain 20 1008 82 14484 3.6 10 17:59 30.06.2019
5614 Rain 19 1008 88 14484 3.1 10 17:38 30.06.2019
5615 Clouds 19 1009 93 24140 3.1 340 17:18 30.06.2019
5616 Rain 18 1008 100 14484 2.1 310 16:46 30.06.2019
5617 Rain 18 1008 100 14484 2.1 310 16:26 30.06.2019
5618 Rain 17 1009 100 3621 2.1 280 15:38 30.06.2019
5619 Rain 17 1008 100 11265 2.1 310 15:19 30.06.2019
5620 Rain 17 1008 88 14484 3.6 320 14:50 30.06.2019
5621 Rain 17 1008 88 14484 3.6 320 14:50 30.06.2019
5622 Thunderstorm 17 1008 88 14484 3.6 320 14:30 30.06.2019
5623 Clouds 17 1008 93 14484 3.6 290 13:48 30.06.2019
5624 Clouds 17 1008 93 14484 3.6 290 13:29 30.06.2019
5625 Clouds 16 1008 93 12874 2.6 330 12:53 30.06.2019
5626 Mist 16 1008 100 9656 1.5 240 12:31 30.06.2019
5627 Clouds 16 1008 100 14484 1.5 280 11:59 30.06.2019
5628 Clouds 16 1008 100 14484 1.5 280 11:59 30.06.2019
5629 Clouds 16 1008 100 14484 1.5 280 11:41 30.06.2019
5630 Clouds 16 1008 93 14484 3.1 300 11:20 30.06.2019
5631 Clouds 16 1008 93 14484 3.1 300 10:54 30.06.2019
5632 Clouds 16 1008 93 14484 3.1 300 10:36 30.06.2019
5633 Clouds 16 1008 100 14484 1.5 280 10:18 30.06.2019
5634 Clouds 16 1008 100 14484 1.5 280 09:42 30.06.2019
5635 Clouds 16 1009 93 12874 1 100 09:20 30.06.2019
5636 Clouds 17 1009 93 12874 1 100 08:40 30.06.2019
5637 Clouds 17 1009 100 11265 5.18 275.234 08:21 30.06.2019
5638 Clouds 17 1009 93 24140 3.1 300 07:50 30.06.2019
5639 Clouds 17 1009 100 14484 1 0 07:24 30.06.2019
5640 Clouds 17 1009 93 14484 2.6 240 06:37 30.06.2019
5641 Clouds 18 1010 93 14484 1.83 4.197 03:34 30.06.2019
5642 Rain 19 1009 93 14484 1.5 70 01:58 30.06.2019
5643 Rain 20 1009 93 14484 2.1 140 01:23 30.06.2019
5644 Rain 22 1009 93 14484 3.1 360 00:24 30.06.2019
5645 Thunderstorm 23 1010 93 11265 3.6 20 23:53 29.06.2019
5646 Thunderstorm 25 1011 93 8047 3.1 310 23:23 29.06.2019
5647 Thunderstorm 26 1010 88 8047 5.1 40 22:52 29.06.2019
5648 Thunderstorm 27 1009 54 14484 7.2 220 22:25 29.06.2019
5649 Clouds 28 1010 57 14484 4.6 230 21:57 29.06.2019
5650 Clouds 27 1010 57 14484 4.6 230 21:39 29.06.2019
5651 Clouds 27 1011 57 14484 5.7 240 21:20 29.06.2019
5652 Clouds 27 1011 57 14484 5.7 240 20:40 29.06.2019
5653 Clouds 27 1012 61 14484 4.6 200 20:21 29.06.2019
5654 Clouds 26 1012 61 14484 4.6 200 19:43 29.06.2019
5655 Clouds 26 1012 61 14484 4.6 200 19:23 29.06.2019
5656 Clouds 25 1013 65 14484 3.1 220 18:48 29.06.2019
5657 Clouds 25 1013 65 14484 3.1 220 18:25 29.06.2019
5658 Clouds 24 1013 64 14484 3.6 320 17:40 29.06.2019
5659 Clouds 24 1013 64 14484 3.6 320 17:22 29.06.2019
5660 Clouds 24 1014 69 14484 4.6 280 16:54 29.06.2019
5661 Clouds 23 1014 69 14484 4.6 280 16:29 29.06.2019
5662 Clouds 22 1014 73 14484 4.1 270 15:42 29.06.2019
5663 Clouds 21 1014 73 14484 4.1 270 15:23 29.06.2019
5664 Clouds 21 1014 77 14484 4.6 250 14:43 29.06.2019
5665 Clouds 21 1014 77 14484 4.6 250 14:25 29.06.2019
5666 Clouds 20 1015 82 14484 5.1 260 13:46 29.06.2019
5667 Clouds 20 1015 82 14484 5.1 260 13:26 29.06.2019
5668 Clouds 20 1015 82 14484 3.1 230 12:49 29.06.2019
5669 Clouds 20 1015 82 14484 3.1 230 12:31 29.06.2019
5670 Fog 20 1015 82 14484 3.6 220 11:53 29.06.2019
5671 Fog 20 1015 82 14484 3.6 220 11:31 29.06.2019
5672 Clouds 19 1015 88 14484 1.5 170 10:53 29.06.2019
5673 Clouds 19 1015 88 14484 1.5 170 10:32 29.06.2019
5674 Clouds 20 1016 82 14484 2.1 210 09:59 29.06.2019
5675 Rain 20 1016 82 8047 3.1 240 09:38 29.06.2019
5676 Clouds 21 1016 77 14484 2.6 240 08:42 29.06.2019
5677 Clouds 21 1016 83 14484 2.6 240 07:46 29.06.2019
5678 Clouds 21 1017 73 14484 4.6 230 07:21 29.06.2019
5679 Clouds 21 1017 73 14484 4.6 230 06:44 29.06.2019
5680 Clouds 22 1017 68 14484 4.6 240 06:21 29.06.2019
5681 Clouds 23 1017 57 14484 5.1 270 02:51 29.06.2019
5682 Clouds 24 1018 57 14484 5.7 250 00:58 29.06.2019
5683 Rain 26 1018 57 14484 5.7 250 00:24 29.06.2019
5684 Rain 27 1018 61 32767 5.7 220 23:27 28.06.2019
5685 Rain 28 1017 45 14484 7.2 240 22:57 28.06.2019
5686 Rain 28 1017 45 14484 7.2 240 22:37 28.06.2019
5687 Clouds 29 1017 45 14484 6.7 270 21:52 28.06.2019
5688 Clear 29 1018 48 14484 7.2 210 21:25 28.06.2019
5689 Clear 29 1018 51 14484 5.7 220 20:49 28.06.2019
5690 Clear 29 1018 51 14484 5.7 220 20:28 28.06.2019
5691 Clear 29 1019 54 14484 5.7 240 19:57 28.06.2019
5692 Clear 28 1019 54 14484 5.7 240 19:37 28.06.2019
5693 Clear 28 1020 57 14484 5.7 230 19:18 28.06.2019
5694 Clear 27 1020 57 14484 5.7 230 18:40 28.06.2019
5695 Clear 27 1020 57 14484 4.6 200 18:20 28.06.2019
5696 Clear 26 1020 57 14484 4.6 200 17:33 28.06.2019
5697 Clear 25 1020 64 14484 4.1 210 16:54 28.06.2019
5698 Clear 24 1020 64 14484 4.1 210 16:29 28.06.2019
5699 Clear 23 1020 60 14484 5.1 240 15:49 28.06.2019
5700 Clear 23 1020 60 14484 5.1 240 15:29 28.06.2019
5701 Clear 22 1020 60 14484 3.1 270 14:59 28.06.2019
5702 Clear 22 1020 60 14484 3.1 270 14:39 28.06.2019
5703 Clear 21 1020 77 14484 1.5 300 14:20 28.06.2019
5704 Clear 20 1020 77 14484 1.5 300 13:45 28.06.2019
5705 Clear 19 1020 77 14484 1.5 300 13:22 28.06.2019
5706 Clear 18 1019 82 14484 3.1 210 12:50 28.06.2019
5707 Clear 17 1019 82 14484 3.1 210 12:31 28.06.2019
5708 Fog 16 1019 93 14484 3.1 170 11:29 28.06.2019
5709 Clear 17 1019 82 14484 1 0 10:58 28.06.2019
5710 Clear 17 1019 82 14484 1 0 10:38 28.06.2019
5711 Fog 17 1019 77 14484 2.6 220 10:18 28.06.2019
5712 Fog 17 1019 77 14484 2.6 220 09:43 28.06.2019
5713 Clear 18 1019 77 14484 2.6 220 09:24 28.06.2019
5714 Clear 18 1019 77 14484 3.1 220 08:42 28.06.2019
5715 Clear 18 1019 77 14484 3.1 220 08:23 28.06.2019
5716 Clear 18 1019 68 14484 3.6 180 07:42 28.06.2019
5717 Clouds 19 1019 68 14484 2.6 130 06:52 28.06.2019
5718 Thunderstorm 21 1019 73 24140 2.6 320 03:57 28.06.2019
5719 Clouds 26 1017 42 14484 6.7 280 00:47 28.06.2019
5720 Clouds 28 1016 45 14484 8.2 250 00:19 28.06.2019
5721 Clouds 28 1016 45 14484 8.2 250 23:46 27.06.2019
5722 Clouds 29 1016 45 14484 8.2 250 23:24 27.06.2019
5723 Clear 29 1016 45 14484 7.7 240 22:43 27.06.2019
5724 Clear 29 1016 45 14484 7.7 240 22:25 27.06.2019
5725 Clouds 28 1017 51 14484 6.2 240 21:58 27.06.2019
5726 Clouds 28 1017 51 14484 6.2 240 21:39 27.06.2019
5727 Clouds 28 1017 51 14484 6.2 240 21:39 27.06.2019
5728 Clear 28 1018 54 14484 9.3 240 21:20 27.06.2019
5729 Clear 28 1018 54 14484 9.3 240 20:48 27.06.2019
5730 Clear 28 1018 54 14484 9.3 240 20:30 27.06.2019
5731 Clear 28 1018 57 14484 8.7 230 19:50 27.06.2019
5732 Clear 27 1018 57 14484 8.7 230 19:29 27.06.2019
5733 Clear 26 1018 61 14484 7.2 260 18:53 27.06.2019
5734 Clear 26 1018 61 14484 7.2 260 18:32 27.06.2019
5735 Clear 25 1018 69 14484 5.1 220 17:58 27.06.2019
5736 Clear 25 1018 69 14484 5.1 220 17:37 27.06.2019
5737 Clear 25 1018 64 14484 2.6 230 17:19 27.06.2019
5738 Clear 24 1018 64 14484 2.6 230 16:39 27.06.2019
5739 Clear 23 1018 73 14484 4.6 250 16:19 27.06.2019
5740 Clear 23 1018 73 14484 4.6 250 15:45 27.06.2019
5741 Clear 22 1018 73 14484 4.6 250 15:24 27.06.2019
5742 Clear 21 1018 73 14484 5.7 260 14:52 27.06.2019
5743 Clear 21 1018 73 14484 5.7 260 14:30 27.06.2019
5744 Clear 20 1017 82 14484 5.7 250 13:50 27.06.2019
5745 Mist 20 1017 82 14484 5.7 250 13:32 27.06.2019
5746 Mist 19 1018 100 4828 1.5 240 12:58 27.06.2019
5747 Clear 18 1017 88 14484 3.6 220 12:40 27.06.2019
5748 Clear 18 1017 100 14484 3.1 180 12:21 27.06.2019
5749 Clear 18 1017 100 14484 3.1 180 11:42 27.06.2019
5750 Clouds 18 1016 93 14484 2.6 180 11:21 27.06.2019
5751 Clouds 18 1016 93 14484 2.6 180 10:55 27.06.2019
5752 Clouds 18 1016 93 14484 2.6 180 10:36 27.06.2019
5753 Clouds 18 1016 93 14484 2.1 190 10:18 27.06.2019
5754 Clouds 18 1016 93 14484 2.1 190 09:37 27.06.2019
5755 Clouds 19 1015 93 14484 2.6 190 09:19 27.06.2019
5756 Clouds 19 1015 93 14484 2.6 190 08:44 27.06.2019
5757 Clouds 19 1015 93 14484 2.6 190 08:22 27.06.2019
5758 Clear 19 1015 93 14484 1.5 160 07:39 27.06.2019
5759 Clear 19 1015 93 14484 2.1 220 06:55 27.06.2019
5760 Clear 19 1015 93 14484 2.1 220 06:29 27.06.2019
5761 Clear 20 1014 73 14484 3.1 180 03:50 27.06.2019
5762 Clouds 21 1013 69 14484 2.6 210 02:40 27.06.2019
5763 Thunderstorm 23 1013 61 14484 5.7 170 01:18 27.06.2019
5764 Thunderstorm 24 1013 65 32767 6.2 140 00:47 27.06.2019
5765 Thunderstorm 25 1013 57 14484 5.1 180 00:25 27.06.2019
5766 Clouds 26 1012 51 14484 5.1 180 23:48 26.06.2019
5767 Clouds 27 1012 51 14484 5.1 180 23:22 26.06.2019
5768 Clear 27 1013 47 14484 4.1 150 22:57 26.06.2019
5769 Clear 28 1013 47 14484 4.1 150 22:38 26.06.2019
5770 Clouds 27 1013 51 14484 3.6 160 22:18 26.06.2019
5771 Clouds 28 1013 51 14484 3.6 160 21:41 26.06.2019
5772 Clouds 27 1014 54 14484 5.1 150 21:20 26.06.2019
5773 Clouds 27 1014 54 14484 5.1 150 20:55 26.06.2019
5774 Clouds 27 1014 54 14484 5.1 150 20:37 26.06.2019
5775 Rain 26 1014 65 14484 3.1 150 20:18 26.06.2019
5776 Rain 26 1014 65 14484 3.1 150 19:41 26.06.2019
5777 Clouds 26 1014 65 14484 3.1 150 19:22 26.06.2019
5778 Clouds 25 1015 61 14484 3.1 220 18:45 26.06.2019
5779 Rain 25 1015 73 32767 3.6 210 18:22 26.06.2019
5780 Clouds 25 1015 61 14484 3.1 230 17:57 26.06.2019
5781 Clouds 25 1015 61 14484 3.1 230 17:27 26.06.2019
5782 Clear 25 1015 69 14484 4.6 180 16:53 26.06.2019
5783 Clear 24 1015 69 14484 4.6 180 16:31 26.06.2019
5784 Clear 23 1015 73 14484 2.6 180 15:58 26.06.2019
5785 Clear 22 1015 73 14484 2.6 180 15:30 26.06.2019
5786 Clear 20 1015 73 14484 3.1 200 14:58 26.06.2019
5787 -273 0 0 0 0 0 14:37 26.06.2019
5788 Clear 20 1015 73 14484 3.1 200 14:37 26.06.2019
5789 Clear 20 1015 82 14484 3.6 240 14:19 26.06.2019
5790 Clear 19 1015 82 14484 3.6 240 13:41 26.06.2019
5791 Clear 18 1015 93 14484 2.6 220 13:19 26.06.2019
5792 Fog 17 1015 93 14484 2.6 220 12:41 26.06.2019
5793 Fog 17 1015 93 14484 2.6 220 12:41 26.06.2019
5794 Fog 16 1014 93 14484 3.1 210 12:22 26.06.2019
5795 Clear 16 1014 93 14484 3.1 210 11:44 26.06.2019
5796 Fog 16 1013 93 14484 3.6 220 11:19 26.06.2019
5797 Fog 16 1013 93 14484 3.6 220 10:41 26.06.2019
5798 Clear 16 1013 93 14484 2.6 220 10:21 26.06.2019
5799 Clear 17 1013 93 14484 2.6 220 09:41 26.06.2019
5800 Clear 17 1012 88 14484 3.1 230 09:18 26.06.2019
5801 Clear 18 1012 88 14484 3.1 230 08:41 26.06.2019
5802 Clear 18 1012 82 14484 4.1 240 08:19 26.06.2019
5803 Clear 18 1012 82 14484 4.1 240 07:45 26.06.2019
5804 Clear 20 1011 77 14484 6.2 250 06:38 26.06.2019
5805 Clear 20 1011 73 14484 6.7 250 06:20 26.06.2019
5806 Clouds 23 1007 88 14484 2.6 180 00:59 26.06.2019
5807 Clouds 23 1007 88 14484 2.6 180 00:24 26.06.2019
5808 Clouds 23 1007 88 14484 2.6 160 23:45 25.06.2019
5809 Clouds 23 1007 88 14484 2.6 160 23:27 25.06.2019
5810 Clouds 23 1007 94 14484 4.6 210 22:56 25.06.2019
5811 Mist 22 1007 94 14484 4.6 210 22:37 25.06.2019
5812 Mist 21 1007 94 14484 4.6 180 22:19 25.06.2019
5813 Rain 20 1007 88 24140 5.1 230 21:41 25.06.2019
5814 Rain 19 1007 93 4023 5.7 180 21:21 25.06.2019
5815 Rain 19 1007 93 9656 4.1 160 20:44 25.06.2019
5816 Rain 19 1007 93 9656 4.1 160 20:44 25.06.2019
5817 Rain 18 1007 93 8047 4.6 160 20:21 25.06.2019
5818 Rain 18 1007 100 14484 4.6 170 19:45 25.06.2019
5819 Rain 18 1007 100 14484 4.6 170 19:45 25.06.2019
5820 Rain 18 1007 100 14484 4.6 170 19:23 25.06.2019
5821 Rain 18 1007 88 24140 3.6 180 18:45 25.06.2019
5822 Rain 18 1007 88 24140 3.6 180 18:45 25.06.2019
5823 Rain 18 1007 88 14484 7.2 160 18:26 25.06.2019
5824 -273 0 0 0 0 0 17:59 25.06.2019
5825 -273 0 0 0 0 0 17:58 25.06.2019
5826 -273 0 0 0 0 0 17:29 25.06.2019
5827 Rain 19 1007 77 14484 1.5 40 16:57 25.06.2019
5828 Rain 19 1007 77 14484 1.5 40 16:39 25.06.2019
5829 Rain 19 1007 60 24140 2.6 80 16:21 25.06.2019
5830 Rain 19 1007 59 24140 3.6 80 15:42 25.06.2019
5831 Rain 18 1007 77 14484 1.5 10 15:24 25.06.2019
5832 Rain 18 1007 77 14484 1.5 10 15:24 25.06.2019
5833 Rain 18 1007 77 14484 3.1 10 14:54 25.06.2019
5834 Rain 18 1007 77 14484 3.1 10 14:35 25.06.2019
5835 Rain 17 1007 59 32767 5.1 70 13:47 25.06.2019
5836 Rain 18 1007 59 32767 5.1 70 13:28 25.06.2019
5837 Clouds 17 1008 67 14484 2.1 60 12:44 25.06.2019
5838 Clouds 17 1008 67 14484 2.1 60 12:25 25.06.2019
5839 Clouds 16 1008 67 14484 3.1 40 11:56 25.06.2019
5840 Clouds 16 1008 67 14484 3.1 40 11:38 25.06.2019
5841 Clear 16 1008 66 14484 1.5 40 11:20 25.06.2019
5842 Clear 16 1008 66 14484 1.5 40 10:43 25.06.2019
5843 Clear 16 1009 62 14484 2.6 40 10:22 25.06.2019
5844 Clear 16 1009 62 14484 2.6 40 09:55 25.06.2019
5845 Clear 16 1009 62 14484 2.6 40 09:37 25.06.2019
5846 Clear 16 1009 54 14484 1 60 09:18 25.06.2019
5847 Clear 16 1009 54 14484 1 60 08:42 25.06.2019
5848 Clear 16 1009 54 14484 1 60 08:23 25.06.2019
5849 Clear 16 1009 58 14484 2.1 60 07:39 25.06.2019
5850 Clear 17 1010 48 14484 3.1 120 06:54 25.06.2019
5851 Clear 17 1010 48 14484 3.1 120 06:36 25.06.2019
5852 Clear 22 1009 37 14484 2.6 110 02:46 25.06.2019
5853 Clear 24 1010 38 14484 3.1 150 01:40 25.06.2019
5854 Clear 25 1010 36 14484 2.6 110 00:36 25.06.2019
5855 Clear 25 1010 33 14484 1.5 0 23:56 24.06.2019
5856 Clear 25 1010 33 14484 1.5 0 23:37 24.06.2019
5857 Clear 25 1010 33 14484 1.5 0 23:37 24.06.2019
5858 Clear 26 1011 31 14484 2.6 70 23:19 24.06.2019
5859 Clear 26 1011 31 14484 2.6 70 22:40 24.06.2019
5860 Clear 26 1011 27 14484 2.1 60 22:19 24.06.2019
5861 Clear 26 1011 27 14484 2.1 60 21:39 24.06.2019
5862 Clear 25 1011 33 14484 3.6 40 21:19 24.06.2019
5863 Clear 25 1011 33 14484 3.6 40 20:56 24.06.2019
5864 Clear 25 1011 33 14484 3.6 40 20:37 24.06.2019
5865 Clear 25 1011 31 14484 1.5 0 20:19 24.06.2019
5866 Clear 25 1011 31 14484 1.5 0 19:43 24.06.2019
5867 Clear 24 1012 33 14484 3.1 40 19:21 24.06.2019
5868 Clear 24 1012 33 14484 3.1 40 18:45 24.06.2019
5869 Clear 23 1012 33 14484 3.1 40 18:26 24.06.2019
5870 Clear 23 1012 37 14484 3.6 360 17:47 24.06.2019
5871 Clear 23 1012 37 14484 3.6 360 17:25 24.06.2019
5872 Clear 22 1012 37 14484 2.1 0 16:48 24.06.2019
5873 Clear 22 1012 42 14484 2.6 70 16:20 24.06.2019
5874 Clear 21 1012 42 14484 2.6 70 15:49 24.06.2019
5875 Clear 21 1012 42 14484 2.6 70 15:30 24.06.2019
5876 Clear 19 1012 55 14484 2.6 40 14:55 24.06.2019
5877 Clear 19 1012 55 14484 2.6 40 14:31 24.06.2019
5878 Clear 18 1012 59 14484 1.5 30 13:49 24.06.2019
5879 Clear 18 1012 59 14484 1.5 30 13:49 24.06.2019
5880 Clear 17 1012 59 14484 1.5 30 13:24 24.06.2019
5881 Clear 15 1012 81 14484 1.5 350 12:44 24.06.2019
5882 Clear 14 1011 71 14484 1.48 46.456 12:21 24.06.2019
5883 Clear 13 1011 71 14484 1.48 46.456 11:55 24.06.2019
5884 Clear 13 1011 71 14484 1.48 46.456 11:37 24.06.2019
5885 Clear 13 1011 71 14484 1.5 10 11:18 24.06.2019
5886 Clear 14 1011 71 14484 1.5 10 10:41 24.06.2019
5887 Clear 14 1010 76 14484 1.48 46.456 10:20 24.06.2019
5888 Clear 14 1010 76 14484 1.48 46.456 09:48 24.06.2019
5889 Clear 16 1009 59 14484 2.1 40 09:19 24.06.2019
5890 Clear 16 1009 59 14484 2.1 40 08:51 24.06.2019
5891 Clear 17 1009 63 14484 1.5 40 08:20 24.06.2019
5892 Clear 17 1009 63 14484 1.5 40 07:42 24.06.2019
5893 Clear 18 1009 63 14484 1.5 40 07:23 24.06.2019
5894 Clear 19 1009 55 14484 2.1 340 06:25 24.06.2019
5895 Clear 20 1009 43 14484 3.6 310 05:52 24.06.2019
5896 Clear 21 1009 36 14484 4.6 290 04:59 24.06.2019
5897 Clear 23 1008 31 14484 4.1 290 03:57 24.06.2019
5898 Clear 24 1008 27 14484 6.7 300 02:52 24.06.2019
5899 Clear 26 1008 27 14484 7.7 290 01:55 24.06.2019
5900 Clear 26 1008 27 14484 7.7 290 01:36 24.06.2019
5901 Clear 27 1008 28 14484 7.7 300 00:55 24.06.2019
5902 Clear 27 1008 28 14484 7.7 300 00:37 24.06.2019
5903 Clear 27 1008 28 14484 8.2 290 00:18 24.06.2019
5904 Clear 28 1008 28 14484 8.2 290 23:41 23.06.2019
5905 Clear 28 1008 32 14484 7.2 300 23:20 23.06.2019
5906 Clear 28 1008 32 14484 7.2 300 22:42 23.06.2019
5907 Clear 28 1008 32 14484 7.7 280 22:20 23.06.2019
5908 Clear 28 1008 32 14484 7.7 280 21:43 23.06.2019
5909 Clear 27 1008 32 14484 7.7 280 21:25 23.06.2019
5910 Clear 27 1009 39 14484 8.7 280 20:57 23.06.2019
5911 Clear 27 1009 39 14484 8.7 280 20:38 23.06.2019
5912 Clear 26 1010 39 14484 9.3 260 20:19 23.06.2019
5913 Clear 26 1010 39 14484 9.3 260 19:43 23.06.2019
5914 Clear 26 1011 44 14484 6.7 280 19:20 23.06.2019
5915 Clear 25 1011 44 14484 6.7 280 18:47 23.06.2019
5916 Clear 25 1012 41 14484 6.7 260 18:20 23.06.2019
5917 Clear 24 1012 41 14484 6.7 260 17:45 23.06.2019
5918 Clear 24 1012 41 14484 6.7 260 17:25 23.06.2019
5919 Clouds 23 1013 53 14484 4.1 230 16:47 23.06.2019
5920 Clouds 22 1013 53 14484 4.1 230 16:26 23.06.2019
5921 Clouds 21 1014 60 14484 4.1 240 15:58 23.06.2019
5922 Clouds 21 1014 60 14484 4.1 240 15:37 23.06.2019
5923 Clear 20 1014 52 14484 3.1 240 15:18 23.06.2019
5924 Clear 19 1014 52 14484 3.1 240 14:39 23.06.2019
5925 Clouds 19 1015 67 32767 1.5 260 14:21 23.06.2019
5926 Clouds 18 1014 52 14484 4.1 300 13:46 23.06.2019
5927 Clouds 17 1014 52 14484 4.1 300 13:21 23.06.2019
5928 Clouds 17 1014 52 14484 4.1 300 12:59 23.06.2019
5929 Clouds 16 1014 52 14484 4.1 300 12:41 23.06.2019
5930 Clouds 16 1013 59 32767 2.6 300 12:19 23.06.2019
5931 Clouds 15 1013 59 32767 2.6 300 11:47 23.06.2019
5932 Clouds 15 1013 59 32767 2.6 300 11:27 23.06.2019
5933 Clouds 15 1013 59 24140 2.6 310 10:50 23.06.2019
5934 Clear 16 1012 52 14484 4.6 320 10:21 23.06.2019
5935 Clear 16 1012 52 14484 4.6 320 09:58 23.06.2019
5936 Clear 16 1012 52 14484 4.6 320 09:25 23.06.2019
5937 Clear 17 1012 48 14484 4.1 310 08:55 23.06.2019
5938 Clear 17 1012 48 14484 4.1 310 08:36 23.06.2019
5939 Clouds 17 1013 52 24140 3.6 310 08:18 23.06.2019
5940 Clear 17 1012 45 14484 4.6 300 07:45 23.06.2019
5941 Clouds 17 1013 55 24140 3.6 300 07:19 23.06.2019
5942 Clouds 18 1013 48 24140 3.6 300 06:52 23.06.2019
5943 Clear 18 1013 45 24140 3.6 290 05:53 23.06.2019
5944 Clear 23 1012 40 14484 3.6 330 02:52 23.06.2019
5945 Clear 25 1011 31 14484 7.2 340 01:43 23.06.2019
5946 Clouds 25 1011 33 14484 8.2 330 01:24 23.06.2019
5947 Clouds 26 1011 33 14484 8.2 330 00:34 23.06.2019
5948 Clouds 26 1011 31 14484 6.7 330 23:52 22.06.2019
5949 Clouds 26 1011 31 14484 6.7 330 23:26 22.06.2019
5950 Clouds 26 1011 31 14484 8.2 340 22:47 22.06.2019
5951 Clouds 26 1011 31 14484 8.2 340 22:29 22.06.2019
5952 Clouds 26 1011 36 14484 5.7 340 21:59 22.06.2019
5953 Clouds 26 1011 36 14484 5.7 340 21:36 22.06.2019
5954 Clear 26 1011 36 14484 7.2 340 21:18 22.06.2019
5955 Clear 25 1011 36 14484 7.2 340 20:46 22.06.2019
5956 Clear 25 1011 36 14484 7.2 340 20:25 22.06.2019
5957 Clouds 25 1011 44 14484 5.1 340 19:44 22.06.2019
5958 Clear 24 1011 43 14484 5.7 340 19:22 22.06.2019
5959 Clear 24 1011 43 14484 5.7 340 18:47 22.06.2019
5960 Clear 24 1011 43 14484 5.7 340 18:29 22.06.2019
5961 Clear 23 1011 49 14484 6.2 330 17:52 22.06.2019
5962 Clear 23 1011 49 14484 6.2 330 17:31 22.06.2019
5963 Clear 22 1011 52 14484 5.1 340 16:50 22.06.2019
5964 Clear 22 1011 52 14484 5.1 340 16:24 22.06.2019
5965 Clear 21 1011 52 14484 4.6 330 15:54 22.06.2019
5966 Clear 20 1011 52 14484 4.6 330 15:33 22.06.2019
5967 Clear 19 1011 55 14484 5.7 340 14:58 22.06.2019
5968 Clear 19 1011 55 14484 5.7 340 14:34 22.06.2019
5969 Clear 18 1010 63 14484 5.1 340 13:59 22.06.2019
5970 Clear 18 1010 63 14484 5.1 340 13:40 22.06.2019
5971 Clear 17 1009 63 14484 3.6 330 13:19 22.06.2019
5972 Clear 16 1009 63 14484 3.6 330 12:50 22.06.2019
5973 Clear 16 1009 63 14484 3.6 330 12:31 22.06.2019
5974 Clear 15 1008 63 14484 3.6 320 11:57 22.06.2019
5975 Clear 15 1008 63 14484 3.6 320 11:31 22.06.2019
5976 Clouds 15 1008 59 14484 4.1 320 10:48 22.06.2019
5977 Clear 16 1008 59 14484 3.6 320 10:19 22.06.2019
5978 Clear 16 1008 59 14484 3.6 320 09:46 22.06.2019
5979 Clear 16 1007 59 14484 4.1 320 09:18 22.06.2019
5980 Clear 16 1007 59 14484 4.1 320 08:41 22.06.2019
5981 Clear 17 1007 55 14484 5.7 310 08:19 22.06.2019
5982 Clear 17 1007 55 14484 5.7 310 07:30 22.06.2019
5983 Clouds 18 1008 52 14484 4.6 310 06:47 22.06.2019
5984 Clouds 19 1007 52 14484 4.1 330 04:53 22.06.2019
5985 Clouds 22 1006 56 14484 4.1 340 02:32 22.06.2019
5986 Clouds 24 1005 31 32767 2.6 310 01:18 22.06.2019
5987 Clouds 24 1005 44 14484 2.6 350 00:38 22.06.2019
5988 Rain 24 1005 33 32767 6.2 320 23:59 21.06.2019
5989 Clouds 24 1005 36 14484 5.7 360 23:39 21.06.2019
5990 Clouds 24 1005 41 14484 5.1 340 23:19 21.06.2019
5991 Clouds 24 1005 41 14484 5.1 340 23:19 21.06.2019
5992 Clouds 24 1005 41 14484 5.1 340 22:43 21.06.2019
5993 Clouds 24 1005 41 14484 5.1 340 22:23 21.06.2019
5994 Clouds 24 1005 49 14484 4.6 350 21:40 21.06.2019
5995 Clouds 24 1005 49 14484 4.6 350 21:22 21.06.2019
5996 Clouds 24 1005 49 14484 5.1 340 20:53 21.06.2019
5997 Clouds 23 1005 49 14484 5.1 340 20:27 21.06.2019
5998 Clouds 23 1005 53 14484 6.7 350 19:58 21.06.2019
5999 Clouds 23 1005 53 14484 6.7 350 19:31 21.06.2019
6000 Clear 23 1005 56 14484 5.7 360 18:48 21.06.2019
6001 Clear 22 1005 56 14484 5.7 360 18:28 21.06.2019
6002 Clouds 21 1005 60 14484 6.2 10 17:46 21.06.2019
6003 Clouds 20 1005 60 14484 6.2 10 17:27 21.06.2019
6004 Clouds 19 1005 68 14484 4.6 10 16:40 21.06.2019
6005 Clouds 19 1004 63 14484 5.7 20 16:21 21.06.2019
6006 Clouds 18 1004 63 14484 5.7 20 15:39 21.06.2019
6007 Clouds 18 1004 72 14484 5.7 360 15:20 21.06.2019
6008 Clouds 18 1004 72 14484 5.7 360 14:47 21.06.2019
6009 Clouds 17 1004 72 14484 5.7 360 14:28 21.06.2019
6010 Clouds 16 1003 77 14484 4.6 10 13:46 21.06.2019
6011 Clouds 16 1003 77 14484 4.6 10 13:27 21.06.2019
6012 Clouds 15 1003 82 14484 3.6 20 12:58 21.06.2019
6013 Clouds 15 1003 82 14484 3.6 20 12:38 21.06.2019
6014 Clouds 15 1002 82 14484 3.6 10 12:18 21.06.2019
6015 Clouds 15 1002 82 14484 3.6 10 12:18 21.06.2019
6016 Clouds 15 1002 82 14484 3.6 10 11:46 21.06.2019
6017 Clouds 15 1002 82 14484 3.6 10 11:24 21.06.2019
6018 Clouds 15 1002 82 24140 4.1 350 10:49 21.06.2019
6019 Clouds 15 1002 93 14484 2.6 350 10:21 21.06.2019
6020 Clouds 15 1002 93 14484 2.6 350 09:56 21.06.2019
6021 Clouds 15 1002 93 14484 2.6 350 09:38 21.06.2019
6022 Clear 15 1002 87 14484 3.6 350 09:19 21.06.2019
6023 Clear 15 1002 87 14484 3.6 350 08:42 21.06.2019
6024 Clouds 15 1002 87 14484 3.6 360 08:22 21.06.2019
6025 Clouds 16 1002 87 14484 3.6 360 07:46 21.06.2019
6026 Clouds 16 1002 87 14484 3.6 360 07:26 21.06.2019
6027 Clouds 16 1002 93 14484 4.1 20 06:51 21.06.2019
6028 Clouds 16 1002 93 14484 3.6 20 06:19 21.06.2019
6029 Clouds 16 1002 93 14484 3.6 20 05:25 21.06.2019
6030 Clouds 16 1002 93 14484 5.1 360 04:22 21.06.2019
6031 Clouds 16 1002 93 14484 6.2 10 03:33 21.06.2019
6032 Clouds 17 1002 87 24140 6.2 20 02:47 21.06.2019
6033 Rain 17 1001 93 14484 5.1 10 01:38 21.06.2019
6034 Rain 17 1001 88 14484 6.7 20 00:55 21.06.2019
6035 Rain 17 1001 88 24140 7.2 20 00:22 21.06.2019
6036 Rain 17 1001 93 14484 6.2 20 23:44 20.06.2019
6037 Rain 16 1001 93 9656 5.7 20 23:21 20.06.2019
6038 Rain 17 1001 93 9656 5.7 20 22:56 20.06.2019
6039 Rain 16 1001 93 9656 5.7 20 22:38 20.06.2019
6040 Rain 17 1001 93 8047 6.7 20 22:19 20.06.2019
6041 Rain 17 1001 93 9656 6.7 20 21:44 20.06.2019
6042 Rain 16 1002 93 6437 6.2 20 21:19 20.06.2019
6043 Rain 16 1002 93 24140 2.1 50 20:47 20.06.2019
6044 Rain 17 1002 93 24140 2.1 50 20:26 20.06.2019
6045 Rain 17 1002 93 4023 4.6 20 19:58 20.06.2019
6046 Rain 17 1002 93 6437 5.7 30 19:39 20.06.2019
6047 Rain 17 1002 93 6437 6.2 40 19:18 20.06.2019
6048 Rain 17 1003 93 9656 5.7 30 18:43 20.06.2019
6049 Rain 17 1003 93 9656 5.7 30 18:23 20.06.2019
6050 Rain 18 1003 82 14484 5.1 20 17:55 20.06.2019
6051 Clouds 18 1003 82 14484 5.1 30 17:37 20.06.2019
6052 -273 0 0 0 0 0 16:57 20.06.2019
6053 Clouds 18 1004 82 14484 4.6 30 16:39 20.06.2019
6054 Clouds 18 1004 82 24140 5.7 50 16:18 20.06.2019
6055 Clouds 18 1004 82 24140 5.7 50 15:41 20.06.2019
6056 Clouds 18 1004 82 14484 5.1 30 15:22 20.06.2019
6057 Clouds 18 1004 82 14484 5.1 30 14:47 20.06.2019
6058 Clouds 18 1004 82 14484 5.1 30 14:23 20.06.2019
6059 Clouds 17 1005 88 14484 5.1 20 13:42 20.06.2019
6060 Clouds 17 1005 88 14484 5.1 20 13:42 20.06.2019
6061 Clouds 17 1005 93 11265 4.1 30 13:21 20.06.2019
6062 Clouds 17 1005 93 11265 4.1 30 12:54 20.06.2019
6063 Clouds 17 1005 93 11265 4.1 30 12:36 20.06.2019
6064 Clouds 17 1005 100 11265 4.1 40 12:18 20.06.2019
6065 Clouds 17 1005 93 14484 4.1 30 11:39 20.06.2019
6066 Rain 17 1005 88 14484 3.6 30 11:20 20.06.2019
6067 Rain 17 1005 93 14484 3.6 30 10:42 20.06.2019
6068 Rain 17 1005 93 14484 3.6 30 10:23 20.06.2019
6069 Rain 17 1005 88 14484 4.1 20 09:41 20.06.2019
6070 Rain 17 1005 88 14484 4.1 20 09:23 20.06.2019
6071 Rain 18 1006 88 14484 3.6 20 08:47 20.06.2019
6072 Rain 18 1006 88 14484 3.6 20 08:28 20.06.2019
6073 Clouds 18 1006 77 14484 4.1 10 07:55 20.06.2019
6074 Clouds 18 1006 77 14484 4.1 10 07:31 20.06.2019
6075 Clouds 19 1006 77 14484 2.1 10 06:46 20.06.2019
6076 Clouds 19 1006 72 14484 3.1 60 06:18 20.06.2019
6077 Clouds 21 1006 77 14484 6.2 20 03:39 20.06.2019
6078 Clouds 25 1005 57 14484 2.1 360 00:44 20.06.2019
6079 Rain 26 1005 57 14484 2.1 360 00:25 20.06.2019
6080 Rain 26 1005 51 14484 3.6 240 23:42 19.06.2019
6081 Rain 26 1005 51 14484 3.6 240 23:24 19.06.2019
6082 Rain 27 1006 42 14484 5.1 270 22:48 19.06.2019
6083 Rain 27 1006 42 14484 5.1 270 22:24 19.06.2019
6084 Rain 27 1006 44 14484 4.6 250 21:55 19.06.2019
6085 Rain 27 1006 44 14484 4.6 250 21:37 19.06.2019
6086 Rain 27 1006 44 14484 4.6 250 21:37 19.06.2019
6087 Clouds 27 1007 47 14484 3.1 220 21:18 19.06.2019
6088 Clouds 27 1007 47 14484 3.1 220 20:39 19.06.2019
6089 Clouds 27 1007 41 14484 3.1 270 20:20 19.06.2019
6090 Clouds 27 1007 41 14484 3.1 270 19:43 19.06.2019
6091 Clouds 27 1007 41 14484 3.1 270 19:24 19.06.2019
6092 Clear 27 1008 47 14484 4.6 220 18:55 19.06.2019
6093 Clear 25 1008 47 14484 4.6 220 18:23 19.06.2019
6094 Clear 25 1009 57 14484 2.28 202.701 17:43 19.06.2019
6095 Clear 25 1009 57 14484 2.28 202.701 17:24 19.06.2019
6096 Clear 24 1009 64 14484 1.5 90 16:56 19.06.2019
6097 Clear 24 1009 64 14484 1.5 90 16:36 19.06.2019
6098 Clear 23 1009 73 14484 1.5 220 16:18 19.06.2019
6099 Clear 23 1009 73 14484 1.5 220 15:42 19.06.2019
6100 Clouds 21 1009 77 14484 3.1 190 15:20 19.06.2019
6101 Clouds 20 1009 77 14484 3.1 190 14:43 19.06.2019
6102 Clouds 19 1009 77 14484 3.1 190 14:23 19.06.2019
6103 Clouds 18 1010 82 14484 1.5 210 13:44 19.06.2019
6104 Clouds 17 1010 82 14484 1.5 210 13:25 19.06.2019
6105 Clouds 17 1010 82 14484 1.5 210 13:25 19.06.2019
6106 Clouds 17 1009 87 14484 1.5 140 12:57 19.06.2019
6107 Clouds 16 1009 87 14484 1.5 140 12:39 19.06.2019
6108 Clouds 16 1009 87 14484 1 150 12:18 19.06.2019
6109 Clouds 15 1009 87 14484 1 150 11:40 19.06.2019
6110 Clouds 15 1009 77 14484 1.5 140 11:20 19.06.2019
6111 Clouds 15 1009 77 14484 1.5 140 10:47 19.06.2019
6112 Clouds 16 1009 77 14484 1.5 140 10:28 19.06.2019
6113 Clouds 16 1010 77 14484 2.1 130 09:56 19.06.2019
6114 Clouds 16 1010 77 14484 2.1 130 09:37 19.06.2019
6115 Clouds 16 1010 72 14484 1.5 150 09:18 19.06.2019
6116 Clouds 16 1010 72 14484 1.5 150 08:43 19.06.2019
6117 Clouds 16 1010 72 14484 1.5 150 08:24 19.06.2019
6118 Clouds 16 1010 72 14484 1.5 40 07:43 19.06.2019
6119 Clouds 16 1010 72 14484 1.5 40 07:23 19.06.2019
6120 Clouds 17 1011 67 14484 1 50 06:37 19.06.2019
6121 Clouds 18 1011 63 14484 0.1 18.435 06:19 19.06.2019
6122 Clouds 18 1011 63 14484 0.1 18.435 05:32 19.06.2019
6123 Clouds 20 1011 46 14484 2.1 310 03:54 19.06.2019
6124 Clouds 22 1011 43 14484 3.1 260 02:51 19.06.2019
6125 Clouds 24 1011 38 14484 2.1 260 01:44 19.06.2019
6126 Clouds 25 1011 38 14484 2.6 280 00:56 19.06.2019
6127 Clouds 25 1011 38 14484 2.6 280 00:56 19.06.2019
6128 Clouds 25 1011 38 14484 2.6 280 00:38 19.06.2019
6129 Clouds 25 1011 36 14484 3.1 280 00:18 19.06.2019
6130 Clouds 25 1011 36 14484 3.1 280 23:42 18.06.2019
6131 Clouds 25 1011 36 14484 3.1 280 23:24 18.06.2019
6132 Clouds 26 1012 36 14484 4.6 300 22:41 18.06.2019
6133 Rain 26 1012 36 14484 4.6 300 22:23 18.06.2019
6134 Rain 25 1012 36 14484 1 0 21:55 18.06.2019
6135 Rain 26 1012 36 14484 1 0 21:37 18.06.2019
6136 Rain 26 1012 36 14484 1 0 21:37 18.06.2019
6137 Clear 26 1012 38 14484 1 0 21:18 18.06.2019
6138 Clear 26 1012 38 14484 1 0 20:41 18.06.2019
6139 Clear 26 1012 38 14484 1 0 20:22 18.06.2019
6140 Clouds 26 1013 41 14484 1 0 19:41 18.06.2019
6141 Clouds 25 1013 41 14484 1 0 19:22 18.06.2019
6142 Clear 25 1014 38 14484 2.6 0 18:55 18.06.2019
6143 Clear 24 1014 38 14484 2.6 0 18:26 18.06.2019
6144 Clear 24 1014 46 14484 1 0 17:55 18.06.2019
6145 Clear 24 1014 46 14484 1 0 17:37 18.06.2019
6146 Clear 23 1015 46 14484 2.6 240 17:19 18.06.2019
6147 Clear 23 1015 46 14484 2.6 240 16:42 18.06.2019
6148 Clear 22 1015 52 14484 1 0 16:22 18.06.2019
6149 Clear 22 1015 52 14484 1 0 16:22 18.06.2019
6150 Clear 21 1015 52 14484 1 0 15:43 18.06.2019
6151 Clear 19 1015 52 14484 1 0 15:23 18.06.2019
6152 Clear 18 1015 67 14484 2.1 180 14:57 18.06.2019
6153 Clear 18 1015 67 14484 2.1 180 14:39 18.06.2019
6154 Clouds 17 1015 77 24140 1.29 102.466 14:19 18.06.2019
6155 Clear 16 1015 76 14484 2.1 160 13:50 18.06.2019
6156 Clear 15 1015 76 14484 2.1 160 13:31 18.06.2019
6157 Clear 14 1015 81 14484 1 130 12:46 18.06.2019
6158 Clear 13 1015 81 14484 1 130 12:28 18.06.2019
6159 Clear 12 1015 81 14484 1.5 140 11:56 18.06.2019
6160 Clear 12 1015 81 14484 1.5 140 11:38 18.06.2019
6161 Clear 12 1015 87 14484 1.5 130 11:18 18.06.2019
6162 Clear 12 1015 87 14484 1.5 130 10:43 18.06.2019
6163 Clear 13 1015 81 14484 1 0 10:22 18.06.2019
6164 Clear 13 1015 81 14484 1 0 09:52 18.06.2019
6165 Clear 13 1015 81 14484 1 0 09:25 18.06.2019
6166 Clear 13 1015 76 14484 1.5 210 08:56 18.06.2019
6167 Clear 13 1015 76 14484 1.5 210 08:38 18.06.2019
6168 Clear 13 1015 67 14484 1.5 200 08:20 18.06.2019
6169 Clear 14 1015 67 14484 1.5 200 07:26 18.06.2019
6170 Clear 14 1015 59 14484 1.5 240 06:55 18.06.2019
6171 Clear 15 1015 63 14484 3.1 220 05:27 18.06.2019
6172 Clear 15 1015 63 14484 3.1 220 05:27 18.06.2019
6173 Clouds 17 1015 52 14484 2.6 240 04:22 18.06.2019
6174 Clouds 21 1015 43 14484 3.1 260 02:49 18.06.2019
6175 Clouds 23 1014 40 14484 4.6 280 01:28 18.06.2019
6176 Clouds 22 1015 43 14484 3.6 230 00:58 18.06.2019
6177 Clouds 23 1015 43 14484 3.6 230 00:39 18.06.2019
6178 Clouds 23 1015 43 14484 5.1 0 00:21 18.06.2019
6179 Clouds 23 1015 43 14484 5.1 0 23:38 17.06.2019
6180 Clouds 23 1015 40 14484 4.6 220 23:19 17.06.2019
6181 Clouds 23 1015 40 14484 4.6 220 22:41 17.06.2019
6182 Clouds 23 1015 38 32767 4.6 240 22:21 17.06.2019
6183 Clouds 23 1015 46 14484 4.1 210 21:55 17.06.2019
6184 Clouds 23 1015 46 14484 4.1 210 21:36 17.06.2019
6185 Clouds 23 1015 43 32767 6.2 180 21:18 17.06.2019
6186 Clear 22 1015 46 14484 2.6 230 20:36 17.06.2019
6187 Clouds 22 1016 43 14484 2.6 210 20:18 17.06.2019
6188 Clouds 22 1016 43 14484 2.6 210 19:40 17.06.2019
6189 Clouds 21 1016 42 14484 2.1 290 19:21 17.06.2019
6190 Clouds 21 1016 42 14484 2.1 290 18:55 17.06.2019
6191 Clouds 21 1016 42 14484 2.1 290 18:36 17.06.2019
6192 Clear 21 1016 45 14484 1 0 18:18 17.06.2019
6193 Clear 20 1016 45 14484 1 0 17:41 17.06.2019
6194 Clear 20 1016 45 14484 1 0 17:23 17.06.2019
6195 Clear 20 1016 52 14484 1.5 10 16:43 17.06.2019
6196 Clear 19 1016 52 14484 1.5 10 16:25 17.06.2019
6197 Clear 18 1016 59 14484 2.1 290 15:55 17.06.2019
6198 Clear 18 1016 59 14484 2.1 290 15:37 17.06.2019
6199 Clear 18 1016 59 14484 2.1 290 15:18 17.06.2019
6200 Clear 16 1016 67 14484 1 0 14:42 17.06.2019
6201 Clear 16 1016 67 14484 1 0 14:23 17.06.2019
6202 Clear 15 1016 76 14484 2.1 350 13:49 17.06.2019
6203 Clear 13 1016 76 14484 2.1 350 13:23 17.06.2019
6204 Clear 13 1015 87 14484 1 330 12:50 17.06.2019
6205 Clear 12 1015 87 14484 1 330 12:31 17.06.2019
6206 Clouds 12 1014 93 14484 2.6 340 11:48 17.06.2019
6207 Clouds 11 1014 93 14484 2.6 340 11:26 17.06.2019
6208 Clouds 12 1014 81 14484 1 20 10:58 17.06.2019
6209 Clouds 12 1014 81 14484 1 20 10:40 17.06.2019
6210 Clouds 12 1014 81 14484 1 20 10:21 17.06.2019
6211 Clouds 12 1014 76 14484 1 0 09:51 17.06.2019
6212 Clouds 13 1014 76 14484 1 0 09:27 17.06.2019
6213 Clouds 13 1013 76 14484 3.1 360 08:41 17.06.2019
6214 Clouds 13 1013 76 14484 3.1 360 08:23 17.06.2019
6215 Clouds 14 1013 71 14484 3.1 360 07:42 17.06.2019
6216 Clouds 14 1013 71 14484 3.1 360 07:24 17.06.2019
6217 Clear 15 1012 67 14484 4.6 10 06:42 17.06.2019
6218 Clouds 15 1012 76 14484 2.6 320 05:47 17.06.2019
6219 Clear 16 1012 63 14484 2.1 300 04:42 17.06.2019
6220 Clear 17 1011 59 14484 2.1 340 03:49 17.06.2019
6221 Clouds 18 1011 55 14484 2.1 360 02:59 17.06.2019
6222 Clouds 19 1011 55 14484 2.1 360 02:41 17.06.2019
6223 Clouds 20 1011 56 14484 2.1 340 01:56 17.06.2019
6224 Clouds 20 1011 56 14484 2.1 340 01:34 17.06.2019
6225 Clouds 20 1011 49 14484 2.1 0 00:44 17.06.2019
6226 Clouds 21 1011 49 14484 2.1 0 00:23 17.06.2019
6227 Clouds 21 1010 60 14484 2.1 230 23:43 16.06.2019
6228 Clouds 21 1010 60 14484 2.1 230 23:23 16.06.2019
6229 Clouds 21 1010 52 14484 3.1 250 22:57 16.06.2019
6230 Clouds 21 1010 52 14484 3.1 250 22:39 16.06.2019
6231 Clouds 21 1010 52 14484 3.1 250 22:19 16.06.2019
6232 Clouds 21 1010 52 14484 3.1 250 22:19 16.06.2019
6233 Clouds 21 1010 52 14484 1.5 270 21:55 16.06.2019
6234 Clouds 21 1010 52 14484 1.5 270 21:37 16.06.2019
6235 Clouds 21 1010 52 14484 1.5 270 21:19 16.06.2019
6236 Clouds 21 1011 55 14484 2.1 210 20:37 16.06.2019
6237 Clouds 20 1011 55 14484 2.1 210 20:19 16.06.2019
6238 Clouds 20 1011 55 14484 2.1 210 20:19 16.06.2019
6239 Clouds 20 1011 55 14484 3.1 0 19:55 16.06.2019
6240 Clouds 20 1011 55 14484 3.1 0 19:37 16.06.2019
6241 Clouds 20 1011 55 14484 3.1 0 19:37 16.06.2019
6242 Clouds 20 1011 55 14484 3.1 0 19:19 16.06.2019
6243 Clouds 20 1011 55 14484 3.1 0 19:19 16.06.2019
6244 Clouds 19 1011 55 14484 2.1 270 18:41 16.06.2019
6245 Clouds 19 1011 55 14484 2.1 270 18:21 16.06.2019
6246 Clouds 19 1011 68 14484 1.5 250 17:49 16.06.2019
6247 Clouds 19 1011 68 14484 1.5 250 17:49 16.06.2019
6248 Clouds 18 1011 68 14484 1.5 250 17:24 16.06.2019
6249 Clouds 17 1011 77 14484 3.6 270 16:58 16.06.2019
6250 Clouds 17 1011 77 14484 3.6 270 16:40 16.06.2019
6251 Clouds 17 1011 77 14484 3.6 270 16:21 16.06.2019
6252 Clouds 16 1012 82 24140 4.1 210 15:45 16.06.2019
6253 Clouds 15 1012 82 24140 4.1 210 15:26 16.06.2019
6254 Clouds 14 1012 87 24140 2.6 240 14:56 16.06.2019
6255 Clouds 14 1011 87 14484 3.1 260 14:37 16.06.2019
6256 Mist 14 1011 87 14484 3.1 260 14:19 16.06.2019
6257 Fog 14 1011 87 14484 2.1 260 13:45 16.06.2019
6258 Fog 14 1011 93 24140 3.1 280 13:25 16.06.2019
6259 Fog 13 1011 100 11265 3.1 240 12:44 16.06.2019
6260 Fog 13 1011 100 11265 3.1 240 12:22 16.06.2019
6261 Mist 13 1011 100 805 2.6 250 11:56 16.06.2019
6262 Mist 13 1010 93 9656 3.1 240 11:38 16.06.2019
6263 Mist 12 1010 93 9656 3.1 240 11:18 16.06.2019
6264 Mist 13 1010 100 9656 3.6 240 10:44 16.06.2019
6265 Clouds 13 1010 100 12874 3.6 240 10:19 16.06.2019
6266 Clear 13 1010 93 14484 3.6 250 09:43 16.06.2019
6267 Clear 13 1010 93 14484 3.6 250 09:23 16.06.2019
6268 Clouds 14 1010 100 12874 4.1 240 08:46 16.06.2019
6269 Clouds 14 1010 100 12874 4.1 240 08:21 16.06.2019
6270 Clouds 14 1009 93 14484 4.1 230 07:49 16.06.2019
6271 Clouds 15 1009 93 14484 2.6 240 07:31 16.06.2019
6272 Clouds 15 1009 93 14484 3.6 230 06:53 16.06.2019
6273 Clouds 15 1009 93 32767 2.1 250 05:56 16.06.2019
6274 Rain 15 1009 100 14484 5.1 240 05:22 16.06.2019
6275 Rain 15 1008 93 14484 5.7 250 04:22 16.06.2019
6276 Rain 15 1008 93 8047 5.7 220 03:42 16.06.2019
6277 Rain 15 1008 93 8047 5.7 220 03:22 16.06.2019
6278 Rain 16 1008 93 4023 5.1 230 01:49 16.06.2019
6279 Rain 16 1008 87 3621 7.7 240 01:30 16.06.2019
6280 Rain 17 1007 63 14484 11.8 230 00:44 16.06.2019
6281 Rain 18 1007 63 14484 11.8 230 00:25 16.06.2019
6282 Rain 18 1007 63 32767 12.9 240 23:58 15.06.2019
6283 Rain 18 1008 72 14484 9.8 220 23:39 15.06.2019
6284 Rain 18 1008 72 14484 9.8 220 23:20 15.06.2019
6285 Rain 18 1007 64 14484 14.9 240 22:48 15.06.2019
6286 Rain 19 1007 64 14484 14.9 240 22:26 15.06.2019
6287 Rain 20 1007 56 14484 4.1 240 21:45 15.06.2019
6288 Rain 21 1007 56 14484 4.1 240 21:21 15.06.2019
6289 Rain 20 1008 68 14484 4.6 190 20:46 15.06.2019
6290 Rain 20 1008 68 14484 4.6 190 20:23 15.06.2019
6291 Rain 19 1008 68 14484 5.1 170 19:53 15.06.2019
6292 Rain 18 1009 72 14484 6.2 180 19:29 15.06.2019
6293 Rain 18 1010 82 14484 5.7 190 18:59 15.06.2019
6294 Rain 18 1010 82 14484 5.7 190 18:37 15.06.2019
6295 Rain 17 1010 82 14484 5.7 190 18:18 15.06.2019
6296 Rain 17 1010 82 14484 5.7 190 18:18 15.06.2019
6297 Rain 16 1011 82 24140 7.7 220 17:40 15.06.2019
6298 Rain 16 1011 82 24140 7.7 220 17:21 15.06.2019
6299 Rain 17 1011 67 14484 6.2 180 16:44 15.06.2019
6300 Rain 17 1011 67 14484 6.2 180 16:18 15.06.2019
6301 Rain 17 1011 59 32767 6.7 200 15:41 15.06.2019
6302 Rain 16 1011 59 32767 6.7 200 15:22 15.06.2019
6303 Rain 15 1012 72 14484 6.2 170 14:39 15.06.2019
6304 Rain 15 1012 72 14484 6.2 170 14:18 15.06.2019
6305 Clouds 14 1013 76 14484 4.1 170 13:44 15.06.2019
6306 Clouds 14 1013 76 14484 4.1 170 13:22 15.06.2019
6307 Rain 14 1013 82 14484 4.1 180 12:59 15.06.2019
6308 Rain 14 1013 82 14484 4.1 180 12:41 15.06.2019
6309 Rain 14 1013 82 14484 4.1 180 12:23 15.06.2019
6310 Rain 14 1013 87 32767 2.1 220 11:47 15.06.2019
6311 Clouds 13 1013 76 14484 3.6 170 11:28 15.06.2019
6312 Clouds 13 1013 76 14484 4.6 230 10:43 15.06.2019
6313 Clouds 13 1013 76 14484 4.6 230 10:25 15.06.2019
6314 Clouds 13 1012 87 14484 3.6 220 09:48 15.06.2019
6315 Clouds 13 1012 87 14484 3.6 220 09:26 15.06.2019
6316 Clouds 13 1012 87 14484 3.1 220 08:54 15.06.2019
6317 Clouds 13 1012 87 14484 3.1 220 08:36 15.06.2019
6318 Clouds 13 1012 87 14484 3.1 220 08:18 15.06.2019
6319 Clouds 13 1012 87 14484 3.6 220 07:26 15.06.2019
6320 Clouds 13 1012 87 14484 3.6 220 07:25 15.06.2019
6321 Clouds 13 1012 93 14484 3.6 220 06:48 15.06.2019
6322 Clouds 14 1012 93 14484 3.6 220 06:25 15.06.2019
6323 Clear 14 1011 93 14484 3.6 230 05:39 15.06.2019
6324 Clear 14 1011 93 14484 3.6 230 05:39 15.06.2019
6325 Clear 14 1011 93 14484 3.6 250 04:52 15.06.2019
6326 Clouds 15 1010 87 14484 4.6 240 03:51 15.06.2019
6327 Clouds 15 1010 87 14484 4.6 240 03:22 15.06.2019
6328 Clouds 16 1009 82 14484 4.6 250 02:31 15.06.2019
6329 Clouds 16 1008 82 14484 6.7 250 01:57 15.06.2019
6330 Clouds 16 1008 82 14484 6.7 250 01:20 15.06.2019
6331 Clouds 16 1007 82 14484 5.7 230 00:42 15.06.2019
6332 Clouds 15 1007 82 14484 5.7 230 00:23 15.06.2019
6333 Rain 15 1007 82 14484 8.2 250 23:46 14.06.2019
6334 Rain 15 1006 82 11265 6.2 230 23:19 14.06.2019
6335 Rain 15 1006 82 14484 7.2 240 22:41 14.06.2019
6336 Rain 15 1006 82 14484 7.2 240 22:21 14.06.2019
6337 Rain 15 1006 77 32767 10.8 230 21:48 14.06.2019
6338 Rain 15 1005 72 14484 9.8 250 21:28 14.06.2019
6339 Rain 16 1005 72 14484 8.7 230 20:55 14.06.2019
6340 Rain 16 1005 72 14484 8.7 230 20:36 14.06.2019
6341 Rain 16 1005 72 14484 8.7 230 20:18 14.06.2019
6342 Clouds 16 1004 72 14484 9.3 240 19:39 14.06.2019
6343 Rain 15 1004 72 14484 9.3 240 19:21 14.06.2019
6344 Rain 16 1004 72 14484 8.7 250 18:54 14.06.2019
6345 Rain 16 1003 68 14484 10.8 240 18:36 14.06.2019
6346 Rain 16 1003 68 14484 10.8 240 18:18 14.06.2019
6347 Rain 16 1003 72 14484 9.3 240 17:44 14.06.2019
6348 Rain 16 1003 72 14484 9.3 240 17:23 14.06.2019
6349 Rain 16 1003 72 14484 9.3 240 17:23 14.06.2019
6350 Rain 16 1003 82 14484 6.2 240 16:48 14.06.2019
6351 Rain 16 1003 82 14484 3.6 180 16:24 14.06.2019
6352 Rain 16 1003 82 14484 3.6 180 16:24 14.06.2019
6353 Rain 16 1003 87 24140 4.6 210 15:59 14.06.2019
6354 Rain 16 1003 93 14484 3.6 180 15:39 14.06.2019
6355 Rain 15 1003 93 14484 3.6 180 15:19 14.06.2019
6356 Rain 14 1003 93 14484 4.1 170 14:46 14.06.2019
6357 Rain 14 1003 93 14484 4.1 170 14:46 14.06.2019
6358 Rain 14 1003 100 8047 4.1 180 14:27 14.06.2019
6359 Rain 14 1003 87 14484 5.1 180 13:46 14.06.2019
6360 Rain 13 1003 93 14484 5.1 180 13:28 14.06.2019
6361 Rain 13 1002 82 14484 4.1 180 12:58 14.06.2019
6362 Rain 13 1002 82 12874 5.7 180 12:39 14.06.2019
6363 Rain 13 1002 82 12874 5.7 180 12:21 14.06.2019
6364 Rain 13 1002 82 12874 5.7 180 12:21 14.06.2019
6365 Rain 13 1002 87 14484 4.1 160 11:42 14.06.2019
6366 Rain 13 1002 87 14484 4.1 160 11:42 14.06.2019
6367 Rain 13 1002 87 14484 4.1 160 11:42 14.06.2019
6368 Rain 13 1002 87 14484 4.1 160 11:42 14.06.2019
6369 Rain 13 1002 87 14484 4.1 160 11:23 14.06.2019
6370 Rain 13 1002 100 4828 3.49 147.33 10:47 14.06.2019
6371 Rain 13 1002 87 14484 3.6 160 10:21 14.06.2019
6372 Clouds 13 1003 87 14484 2.6 130 09:55 14.06.2019
6373 Clouds 13 1003 87 14484 2.6 130 09:34 14.06.2019
6374 Clouds 13 1003 87 14484 2.1 130 08:49 14.06.2019
6375 Clouds 13 1003 87 14484 2.1 130 08:21 14.06.2019
6376 Clouds 13 1003 87 14484 2.1 130 08:21 14.06.2019
6377 Clouds 13 1004 87 14484 2.6 130 07:57 14.06.2019
6378 Clouds 13 1004 87 14484 2.6 130 07:39 14.06.2019
6379 Clouds 13 1004 87 14484 2.6 130 07:18 14.06.2019
6380 Clouds 13 1005 87 14484 2.6 110 06:20 14.06.2019
6381 Clouds 13 1005 93 32767 1.5 50 05:49 14.06.2019
6382 Rain 13 1005 87 24140 2.1 100 04:55 14.06.2019
6383 -273 0 0 0 0 0 04:27 14.06.2019
6384 Rain 13 1006 71 14484 4.1 140 03:41 14.06.2019
6385 Rain 14 1006 71 14484 4.1 140 03:22 14.06.2019
6386 Rain 14 1006 62 14484 3.6 90 02:41 14.06.2019
6387 Clouds 15 1007 62 14484 5.7 100 01:53 14.06.2019
6388 Clouds 16 1007 58 14484 6.7 130 00:41 14.06.2019
6389 Clouds 16 1007 58 14484 6.7 130 00:22 14.06.2019
6390 Clouds 16 1008 55 14484 7.7 130 23:51 13.06.2019
6391 Clouds 16 1008 55 14484 7.7 130 23:26 13.06.2019
6392 Clouds 16 1009 58 14484 7.7 140 22:58 13.06.2019
6393 Clouds 17 1009 58 14484 7.7 140 22:38 13.06.2019
6394 Clouds 17 1009 58 14484 7.7 140 22:19 13.06.2019
6395 Clouds 18 1009 52 14484 8.7 160 21:38 13.06.2019
6396 Clouds 18 1009 52 14484 8.7 160 21:19 13.06.2019
6397 Clouds 19 1010 45 14484 9.3 140 20:45 13.06.2019
6398 Clouds 19 1010 45 14484 9.3 140 20:21 13.06.2019
6399 Clouds 18 1011 48 14484 6.7 130 19:56 13.06.2019
6400 Clouds 18 1011 48 14484 6.7 130 19:37 13.06.2019
6401 Clouds 18 1011 48 14484 6.7 130 19:18 13.06.2019
6402 Clouds 18 1011 48 14484 6.2 150 18:45 13.06.2019
6403 Clouds 18 1011 48 14484 6.2 150 18:27 13.06.2019
6404 Clouds 18 1012 52 14484 8.2 160 17:57 13.06.2019
6405 Clouds 18 1012 52 14484 8.2 160 17:39 13.06.2019
6406 Clouds 19 1012 52 14484 8.2 160 17:19 13.06.2019
6407 Clouds 18 1012 59 14484 5.7 140 16:45 13.06.2019
6408 Clouds 18 1012 59 14484 5.7 140 16:21 13.06.2019
6409 Clouds 18 1013 52 14484 6.7 160 15:56 13.06.2019
6410 Clouds 18 1013 52 14484 6.7 160 15:37 13.06.2019
6411 Clouds 18 1013 52 14484 6.7 160 15:18 13.06.2019
6412 Clouds 17 1014 59 14484 5.7 150 14:44 13.06.2019
6413 Clouds 17 1014 59 14484 5.7 150 14:23 13.06.2019
6414 Haze 17 1014 63 9656 5.1 160 13:44 13.06.2019
6415 Haze 17 1014 63 9656 5.1 160 13:21 13.06.2019
6416 Clouds 16 1014 63 14484 4.1 180 12:42 13.06.2019
6417 Clouds 16 1014 63 14484 4.1 180 12:23 13.06.2019
6418 Clouds 16 1014 67 14484 4.1 180 11:57 13.06.2019
6419 Clouds 16 1014 67 14484 4.1 180 11:39 13.06.2019
6420 Clouds 16 1014 67 14484 4.1 180 11:21 13.06.2019
6421 Clouds 16 1014 63 14484 3.1 150 10:45 13.06.2019
6422 Clouds 16 1014 63 14484 3.1 150 10:26 13.06.2019
6423 Clouds 16 1015 63 14484 4.1 170 09:44 13.06.2019
6424 Clouds 16 1015 63 14484 4.1 170 09:24 13.06.2019
6425 Clouds 16 1015 63 14484 4.1 170 09:24 13.06.2019
6426 Clouds 16 1015 63 14484 4.1 170 09:24 13.06.2019
6427 Clouds 16 1015 63 14484 2.6 190 08:49 13.06.2019
6428 Clouds 16 1015 63 14484 2.6 190 08:28 13.06.2019
6429 Clouds 16 1015 63 14484 3.6 190 07:59 13.06.2019
6430 Clouds 16 1015 63 14484 3.6 190 07:30 13.06.2019
6431 Clear 17 1016 59 14484 2.1 180 06:52 13.06.2019
6432 Clear 17 1016 59 14484 2.1 180 06:24 13.06.2019
6433 Clear 17 1016 55 14484 2.6 140 05:56 13.06.2019
6434 Clear 18 1016 55 14484 2.6 140 05:37 13.06.2019
6435 Clear 18 1016 59 14484 2.6 130 04:59 13.06.2019
6436 Clear 20 1016 45 14484 2.1 170 03:28 13.06.2019
6437 Clear 23 1016 38 14484 6.2 180 01:27 13.06.2019
6438 Clouds 24 1016 36 14484 5.7 180 00:29 13.06.2019
6439 Clear 24 1016 38 14484 5.1 200 23:24 12.06.2019
6440 Clear 24 1017 41 14484 4.1 220 22:47 12.06.2019
6441 Clear 24 1017 41 14484 4.1 220 22:28 12.06.2019
6442 Clear 24 1018 40 14484 5.1 250 21:58 12.06.2019
6443 Clear 24 1018 40 14484 5.1 250 21:40 12.06.2019
6444 Clear 23 1018 40 14484 5.1 250 21:21 12.06.2019
6445 Clear 23 1019 38 14484 6.7 240 20:42 12.06.2019
6446 Clear 23 1019 38 14484 6.7 240 20:22 12.06.2019
6447 Clear 23 1019 40 14484 5.1 250 19:56 12.06.2019
6448 Clear 23 1019 40 14484 5.1 250 19:37 12.06.2019
6449 Clear 23 1019 40 14484 5.1 250 19:18 12.06.2019
6450 Clear 22 1019 49 14484 7.2 240 18:40 12.06.2019
6451 Clear 22 1019 49 14484 7.2 240 18:22 12.06.2019
6452 Clear 21 1020 52 14484 5.7 230 17:45 12.06.2019
6453 Clear 20 1020 52 14484 5.7 230 17:21 12.06.2019
6454 Clear 20 1020 48 14484 4.1 230 16:43 12.06.2019
6455 Clear 19 1020 48 14484 4.1 230 16:24 12.06.2019
6456 Clear 18 1020 63 14484 3.6 190 15:57 12.06.2019
6457 Clear 18 1020 63 14484 3.6 190 15:32 12.06.2019
6458 Clear 16 1020 72 14484 3.6 230 14:55 12.06.2019
6459 Clear 16 1020 72 14484 3.6 230 14:55 12.06.2019
6460 Clear 15 1020 72 14484 3.6 230 14:32 12.06.2019
6461 Clear 14 1020 82 14484 4.1 220 13:57 12.06.2019
6462 Clear 13 1020 82 14484 4.1 220 13:38 12.06.2019
6463 Clear 12 1020 82 14484 4.1 220 13:19 12.06.2019
6464 Clear 11 1020 93 14484 3.1 230 12:40 12.06.2019
6465 Clear 10 1020 93 14484 3.1 230 12:21 12.06.2019
6466 Clear 10 1019 81 14484 2.1 230 11:48 12.06.2019
6467 Clear 9 1019 81 14484 2.1 230 11:30 12.06.2019
6468 Clear 10 1018 87 14484 1 190 10:58 12.06.2019
6469 Clear 10 1018 87 14484 1 190 10:39 12.06.2019
6470 Clear 10 1018 87 14484 1 190 10:18 12.06.2019
6471 Clear 10 1018 81 14484 1 0 09:41 12.06.2019
6472 Clear 10 1018 81 14484 1 0 09:21 12.06.2019
6473 Clear 11 1018 71 14484 2.6 280 08:37 12.06.2019
6474 Clear 11 1018 71 14484 2.6 280 08:18 12.06.2019
6475 Clear 11 1017 71 14484 3.1 290 07:20 12.06.2019
6476 Clear 11 1017 71 14484 2.6 290 06:39 12.06.2019
6477 Clear 12 1017 67 14484 2.6 280 05:25 12.06.2019
6478 Rain 15 1017 55 14484 3.1 280 03:41 12.06.2019
6479 Clouds 18 1016 48 14484 7.2 290 00:47 12.06.2019
6480 Clouds 18 1016 48 14484 7.2 290 00:20 12.06.2019
6481 Clouds 18 1015 52 14484 7.2 310 23:43 11.06.2019
6482 Clouds 18 1015 52 14484 7.2 310 23:24 11.06.2019
6483 Clouds 18 1014 55 14484 7.7 290 22:43 11.06.2019
6484 Clouds 18 1014 55 14484 7.7 290 22:18 11.06.2019
6485 Clouds 18 1013 52 14484 8.7 290 21:56 11.06.2019
6486 Clouds 18 1013 52 14484 8.7 290 21:37 11.06.2019
6487 Clouds 19 1013 52 14484 8.7 290 21:19 11.06.2019
6488 Clouds 18 1013 55 14484 8.2 310 20:46 11.06.2019
6489 Clouds 18 1013 55 14484 8.2 310 20:23 11.06.2019
6490 Clouds 18 1012 55 14484 7.7 300 19:52 11.06.2019
6491 Clouds 18 1012 55 14484 7.7 300 19:29 11.06.2019
6492 Clouds 17 1011 63 14484 8.7 300 18:54 11.06.2019
6493 Clouds 16 1011 63 14484 8.7 300 18:21 11.06.2019
6494 Rain 16 1009 77 14484 8.7 260 17:42 11.06.2019
6495 Rain 16 1009 77 14484 8.7 260 17:22 11.06.2019
6496 Rain 16 1010 82 24140 10.8 270 16:56 11.06.2019
6497 Drizzle 16 1009 93 14484 8.2 240 16:37 11.06.2019
6498 Drizzle 16 1009 93 14484 8.2 240 16:19 11.06.2019
6499 Rain 15 1008 93 4023 9.3 240 15:41 11.06.2019
6500 Rain 16 1008 93 4023 9.3 240 15:21 11.06.2019
6501 Rain 16 1007 93 14484 10.3 240 14:44 11.06.2019
6502 Rain 16 1007 100 6437 9.3 240 14:21 11.06.2019
6503 Rain 17 1006 100 14484 9.8 240 13:50 11.06.2019
6504 Rain 17 1005 100 9656 10.3 240 13:24 11.06.2019
6505 Rain 18 1005 100 16093 7.2 230 12:44 11.06.2019
6506 Rain 18 1005 100 16093 7.2 230 12:23 11.06.2019
6507 Rain 18 1004 100 4023 6.2 180 11:58 11.06.2019
6508 Rain 18 1004 100 12874 7.2 170 11:39 11.06.2019
6509 Rain 18 1004 100 12874 7.2 170 11:19 11.06.2019
6510 Rain 18 1004 93 9656 4.6 170 10:45 11.06.2019
6511 Rain 17 1005 100 4828 4.1 160 10:25 11.06.2019
6512 Rain 17 1005 100 9656 3.6 170 09:48 11.06.2019
6513 Rain 17 1006 100 11265 3.1 180 09:24 11.06.2019
6514 Rain 17 1006 100 9656 5.1 140 08:45 11.06.2019
6515 Rain 17 1007 100 6437 5.1 140 08:25 11.06.2019
6516 Rain 17 1007 93 12874 6.2 120 07:38 11.06.2019
6517 Rain 17 1009 72 14484 4.6 170 06:56 11.06.2019
6518 Rain 18 1009 72 14484 4.6 170 06:30 11.06.2019
6519 Rain 21 1010 47 14484 5.7 190 04:53 11.06.2019
6520 Clouds 25 1011 41 14484 4.6 180 02:54 11.06.2019
6521 Clouds 26 1012 39 14484 4.6 190 01:33 11.06.2019
6522 Clouds 27 1012 39 14484 5.1 170 00:46 11.06.2019
6523 Clouds 27 1013 37 14484 7.2 170 23:47 10.06.2019
6524 Clouds 28 1013 37 14484 7.2 170 23:25 10.06.2019
6525 Clear 28 1014 37 14484 5.7 180 22:55 10.06.2019
6526 Clear 28 1014 37 14484 5.7 180 22:37 10.06.2019
6527 Clear 28 1014 37 14484 5.7 180 22:37 10.06.2019
6528 Clear 28 1014 37 14484 5.7 180 22:19 10.06.2019
6529 Clear 29 1015 33 14484 8.7 170 21:40 10.06.2019
6530 Clear 29 1015 33 14484 8.7 170 21:22 10.06.2019
6531 Clear 29 1016 30 14484 7.7 160 20:46 10.06.2019
6532 Clear 29 1016 30 14484 7.7 160 20:25 10.06.2019
6533 Clouds 29 1017 28 14484 9.3 180 19:56 10.06.2019
6534 Clouds 29 1017 28 14484 9.3 180 19:36 10.06.2019
6535 Clouds 28 1017 28 14484 9.3 180 19:18 10.06.2019
6536 Clear 28 1017 34 14484 7.2 160 18:55 10.06.2019
6537 Clear 28 1017 34 14484 7.2 160 18:36 10.06.2019
6538 Clear 27 1017 34 14484 7.2 160 18:18 10.06.2019
6539 Clear 26 1018 39 14484 4.6 180 17:39 10.06.2019
6540 Clear 26 1018 39 14484 4.6 180 17:20 10.06.2019
6541 Clear 25 1019 50 14484 3.6 190 16:43 10.06.2019
6542 Clear 25 1019 50 14484 3.6 190 16:25 10.06.2019
6543 Clear 23 1019 49 14484 3.1 170 15:42 10.06.2019
6544 Clear 22 1019 49 14484 3.1 170 15:24 10.06.2019
6545 Clear 21 1020 56 14484 3.1 170 14:58 10.06.2019
6546 Clear 21 1020 56 14484 3.1 170 14:38 10.06.2019
6547 Clear 20 1020 56 14484 3.1 170 14:20 10.06.2019
6548 Clear 20 1020 63 14484 3.1 180 13:43 10.06.2019
6549 Clear 19 1020 63 14484 3.1 180 13:22 10.06.2019
6550 Clear 17 1020 72 14484 1.5 160 12:45 10.06.2019
6551 Clear 16 1020 72 14484 1.5 160 12:26 10.06.2019
6552 Clear 16 1021 72 14484 1.5 180 11:44 10.06.2019
6553 Clear 17 1021 72 14484 1.5 180 11:26 10.06.2019
6554 Clear 17 1020 63 14484 3.1 170 10:46 10.06.2019
6555 Clear 17 1020 63 14484 3.1 170 10:22 10.06.2019
6556 Clear 17 1021 63 14484 1 140 09:58 10.06.2019
6557 Clear 17 1021 63 14484 1 140 09:39 10.06.2019
6558 Clear 17 1021 63 14484 1 140 09:19 10.06.2019
6559 Clear 17 1021 55 14484 1.5 150 08:45 10.06.2019
6560 Clear 18 1021 55 14484 1.5 150 08:25 10.06.2019
6561 Clear 18 1021 52 14484 3.1 180 07:21 10.06.2019
6562 Clear 21 1021 33 14484 1.5 200 04:30 10.06.2019
6563 Clear 27 1021 24 14484 5.1 180 01:59 10.06.2019
6564 Clear 28 1021 24 14484 5.1 180 01:26 10.06.2019
6565 Clear 28 1021 20 14484 5.7 170 00:58 10.06.2019
6566 Clear 29 1021 20 14484 5.7 170 00:23 10.06.2019
6567 Clear 29 1022 17 14484 4.1 170 23:44 09.06.2019
6568 Clear 29 1022 17 14484 4.1 170 23:20 09.06.2019
6569 Clear 30 1023 18 14484 3.1 160 22:45 09.06.2019
6570 Clear 30 1023 18 14484 3.1 160 22:25 09.06.2019
6571 Clear 29 1023 20 14484 4.1 190 21:46 09.06.2019
6572 Clear 29 1023 20 14484 4.1 190 21:27 09.06.2019
6573 Clear 28 1023 21 14484 5.1 210 20:45 09.06.2019
6574 Clear 28 1023 21 14484 5.1 210 20:24 09.06.2019
6575 Clear 28 1024 24 14484 4.6 170 19:58 09.06.2019
6576 Clear 28 1024 24 14484 4.6 170 19:39 09.06.2019
6577 Clear 28 1024 24 14484 4.6 170 19:18 09.06.2019
6578 Clear 27 1025 26 14484 4.6 190 18:42 09.06.2019
6579 Clear 26 1025 26 14484 4.6 190 18:24 09.06.2019
6580 Clear 25 1025 33 14484 3.1 160 17:48 09.06.2019
6581 Clear 24 1025 33 14484 3.1 160 17:29 09.06.2019
6582 Clear 24 1026 40 14484 3.1 180 16:57 09.06.2019
6583 Clear 24 1026 40 14484 3.1 180 16:38 09.06.2019
6584 Clear 23 1026 40 14484 3.1 180 16:19 09.06.2019
6585 Clear 21 1026 49 14484 2.1 120 15:48 09.06.2019
6586 Clear 20 1026 49 14484 2.1 120 15:28 09.06.2019
6587 Clear 18 1026 55 14484 1.5 150 14:48 09.06.2019
6588 Clear 18 1026 55 14484 1.5 150 14:29 09.06.2019
6589 Clear 16 1026 71 14484 1 0 13:56 09.06.2019
6590 Clear 15 1026 71 14484 1 0 13:37 09.06.2019
6591 Clear 14 1025 71 14484 1 140 12:55 09.06.2019
6592 Clear 13 1025 71 14484 1 140 12:34 09.06.2019
6593 Clear 12 1025 66 14484 1.5 70.498 11:49 09.06.2019
6594 Clear 12 1025 66 14484 1.5 70.498 11:30 09.06.2019
6595 Clear 12 1024 66 14484 1.5 140 10:47 09.06.2019
6596 Clear 13 1024 66 14484 1.5 140 10:26 09.06.2019
6597 -273 0 0 0 0 0 09:58 09.06.2019
6598 Clouds 13 1024 66 14484 2.1 140 09:38 09.06.2019
6599 Clouds 13 1024 66 14484 2.1 140 09:38 09.06.2019
6600 Clouds 14 1024 66 14484 2.1 140 09:18 09.06.2019
6601 Clouds 14 1024 66 14484 2.1 140 09:18 09.06.2019
6602 Clouds 13 1024 54 14484 1.5 140 08:42 09.06.2019
6603 Clouds 13 1024 54 14484 1 180 07:51 09.06.2019
6604 Clouds 15 1024 48 14484 2.1 190 06:40 09.06.2019
6605 Clear 15 1024 44 14484 2.1 180 05:52 09.06.2019
6606 Clear 20 1023 34 14484 1.5 160 02:55 09.06.2019
6607 Clear 22 1023 25 14484 1 0 01:37 09.06.2019
6608 Clear 22 1023 25 14484 1 0 01:37 09.06.2019
6609 Clear 23 1023 25 14484 1 0 01:18 09.06.2019
6610 Haze 24 1022 27 9656 1.5 150 00:29 09.06.2019
6611 Clear 23 1022 27 12874 4.32 193.046 23:41 08.06.2019
6612 Clear 24 1022 27 12874 4.32 193.046 23:22 08.06.2019
6613 Clear 23 1023 31 11265 2.1 40 22:55 08.06.2019
6614 Clear 23 1023 27 14484 2.1 10 22:36 08.06.2019
6615 Clear 23 1023 27 14484 2.1 10 22:18 08.06.2019
6616 Clear 23 1023 28 14484 1.5 0 21:40 08.06.2019
6617 Clear 23 1023 28 14484 1.5 0 21:21 08.06.2019
6618 Clear 22 1023 30 14484 1 0 20:45 08.06.2019
6619 Clear 22 1023 30 14484 1 0 20:25 08.06.2019
6620 Clear 22 1023 30 14484 1 0 20:25 08.06.2019
6621 Clouds 21 1024 34 14484 1.5 0 19:56 08.06.2019
6622 Clouds 21 1024 34 14484 1.5 0 19:37 08.06.2019
6623 Clouds 21 1024 34 14484 1.5 0 19:19 08.06.2019
6624 Clear 20 1024 32 14484 1 0 18:41 08.06.2019
6625 Clear 20 1024 32 14484 1 0 18:22 08.06.2019
6626 Clear 19 1024 39 14484 2.6 0 17:44 08.06.2019
6627 Clear 19 1024 39 14484 2.6 0 17:22 08.06.2019
6628 Clear 18 1024 42 14484 2.1 60 16:53 08.06.2019
6629 Clear 18 1024 42 14484 2.1 60 16:34 08.06.2019
6630 Clear 17 1024 48 14484 4.6 60 15:52 08.06.2019
6631 Clear 17 1024 48 14484 4.6 60 15:33 08.06.2019
6632 Clear 15 1023 54 14484 3.6 30 14:48 08.06.2019
6633 Clear 15 1023 54 14484 3.6 30 14:29 08.06.2019
6634 Clear 13 1023 58 14484 3.1 20 13:49 08.06.2019
6635 Clear 11 1022 66 14484 2.1 10 12:54 08.06.2019
6636 Clear 11 1022 66 14484 2.1 10 12:34 08.06.2019
6637 Clear 10 1021 70 14484 4.1 10 11:51 08.06.2019
6638 Clear 10 1021 70 14484 4.1 10 11:28 08.06.2019
6639 Clear 10 1020 66 14484 2.1 10 10:48 08.06.2019
6640 Clear 10 1020 66 14484 2.1 10 10:27 08.06.2019
6641 Clear 10 1020 66 14484 2.6 20 09:58 08.06.2019
6642 Clear 11 1020 66 14484 2.6 20 09:33 08.06.2019
6643 Clear 12 1019 66 14484 1.5 10 08:48 08.06.2019
6644 Clear 12 1019 66 14484 1.5 10 08:20 08.06.2019
6645 Clear 13 1018 66 14484 3.1 340 07:26 08.06.2019
6646 Clear 13 1018 54 14484 3.1 20 06:44 08.06.2019
6647 Clear 20 1015 35 14484 3.1 320 03:37 08.06.2019
6648 Clear 23 1014 31 14484 4.6 310 02:20 08.06.2019
6649 Clouds 25 1012 27 14484 6.7 300 00:31 08.06.2019
6650 Clouds 25 1012 31 14484 7.2 300 23:59 07.06.2019
6651 Clouds 25 1012 31 14484 7.2 300 23:21 07.06.2019
6652 Clouds 25 1012 31 14484 7.7 270 22:53 07.06.2019
6653 Clouds 25 1012 31 14484 7.7 270 22:33 07.06.2019
6654 Clouds 25 1011 36 14484 7.2 250 21:56 07.06.2019
6655 Clouds 25 1011 36 14484 7.2 250 21:38 07.06.2019
6656 Clouds 25 1011 36 14484 7.2 250 21:20 07.06.2019
6657 Clouds 25 1012 31 14484 6.2 290 20:42 07.06.2019
6658 Clouds 25 1012 31 14484 6.2 290 20:23 07.06.2019
6659 Clear 25 1012 41 14484 5.1 250 19:46 07.06.2019
6660 Clear 25 1012 41 14484 5.1 250 19:20 07.06.2019
6661 Clear 24 1013 46 14484 4.1 230 18:45 07.06.2019
6662 Clear 23 1013 46 14484 4.1 230 18:27 07.06.2019
6663 Clouds 22 1013 49 14484 3.1 240 17:46 07.06.2019
6664 Clouds 22 1013 49 14484 3.1 240 17:46 07.06.2019
6665 Clouds 21 1013 49 14484 3.1 240 17:23 07.06.2019
6666 Clouds 20 1013 59 14484 3.1 220 16:42 07.06.2019
6667 Clouds 19 1013 59 14484 3.1 220 16:22 07.06.2019
6668 Clouds 18 1013 55 14484 2.1 150 15:49 07.06.2019
6669 Clouds 17 1013 55 14484 2.1 150 15:20 07.06.2019
6670 Clouds 15 1014 62 14484 3.09 245.194 14:46 07.06.2019
6671 Clouds 14 1014 62 14484 3.09 245.194 14:23 07.06.2019
6672 Clouds 13 1013 71 14484 3.09 245.194 13:39 07.06.2019
6673 Clouds 12 1013 71 14484 3.09 245.194 13:20 07.06.2019
6674 Clear 11 1013 70 14484 1 0 12:41 07.06.2019
6675 Clear 10 1013 70 14484 1 0 12:19 07.06.2019
6676 Clear 9 1012 71 14484 1.5 260 11:41 07.06.2019
6677 Clear 9 1012 71 14484 1.5 260 11:21 07.06.2019
6678 Clear 9 1011 70 14484 1 360 10:48 07.06.2019
6679 Clear 10 1011 70 14484 1 360 10:22 07.06.2019
6680 Clear 10 1011 66 14484 1 340 09:50 07.06.2019
6681 Clear 10 1011 66 14484 1 340 0